<?xml version="1.0" encoding="UTF-8" standalone="no" ?>
<gpx xmlns="http://www.topografix.com/GPX/1/1" xmlns:xsi="http://www.w3.org/2001/XMLSchema-instance" xsi:schemaLocation="http://www.topografix.com/GPX/1/1 http://www.topografix.com/GPX/1/1/gpx.xsd" version="1.1" creator="VisuGPX - https://www.visugpx.com">
  <metadata>
    <name>26/05 Tour de la Bresse et Hohneck</name>
    <desc><![CDATA[

]]></desc>
  </metadata>
  <trk>
    <name><![CDATA[26/05 Tour de la Bresse et Hohneck]]></name>
    <extensions>
      <line xmlns="http://www.topografix.com/GPX/gpx_style/0/2">
        <color>000000</color>
        <width>4</width>
      </line>
    </extensions>
    <trkseg>
      <trkpt lat="48.03597" lon="6.92479">
        <ele>857.112915</ele>
        <time>2022-05-26T06:59:38Z</time>
      </trkpt>
      <trkpt lat="48.03597" lon="6.92478">
        <ele>856.907776</ele>
        <time>2022-05-26T06:59:57Z</time>
      </trkpt>
      <trkpt lat="48.036" lon="6.92473">
        <ele>857.293945</ele>
        <time>2022-05-26T07:00:07Z</time>
      </trkpt>
      <trkpt lat="48.036" lon="6.92474">
        <ele>857.3</ele>
        <time>2022-05-26T07:00:33Z</time>
      </trkpt>
      <trkpt lat="48.03603" lon="6.92488">
        <ele>855.3</ele>
        <time>2022-05-26T07:01:07Z</time>
      </trkpt>
      <trkpt lat="48.03607" lon="6.92504">
        <ele>854.6</ele>
        <time>2022-05-26T07:01:10Z</time>
      </trkpt>
      <trkpt lat="48.03614" lon="6.92516">
        <ele>854.1</ele>
        <time>2022-05-26T07:01:14Z</time>
      </trkpt>
      <trkpt lat="48.03621" lon="6.92531">
        <ele>853.4</ele>
        <time>2022-05-26T07:01:18Z</time>
      </trkpt>
      <trkpt lat="48.03628" lon="6.92543">
        <ele>853.3</ele>
        <time>2022-05-26T07:01:21Z</time>
      </trkpt>
      <trkpt lat="48.03635" lon="6.92557">
        <ele>853.1</ele>
        <time>2022-05-26T07:01:24Z</time>
      </trkpt>
      <trkpt lat="48.03641" lon="6.9257">
        <ele>853.3</ele>
        <time>2022-05-26T07:01:27Z</time>
      </trkpt>
      <trkpt lat="48.03646" lon="6.92582">
        <ele>853.7</ele>
        <time>2022-05-26T07:01:30Z</time>
      </trkpt>
      <trkpt lat="48.03649" lon="6.92596">
        <ele>853.9</ele>
        <time>2022-05-26T07:01:33Z</time>
      </trkpt>
      <trkpt lat="48.0365" lon="6.92611">
        <ele>853.9</ele>
        <time>2022-05-26T07:01:36Z</time>
      </trkpt>
      <trkpt lat="48.03656" lon="6.92626">
        <ele>854.8</ele>
        <time>2022-05-26T07:01:40Z</time>
      </trkpt>
      <trkpt lat="48.03662" lon="6.9264">
        <ele>855.4</ele>
        <time>2022-05-26T07:01:45Z</time>
      </trkpt>
      <trkpt lat="48.03668" lon="6.9265">
        <ele>856.9</ele>
        <time>2022-05-26T07:01:49Z</time>
      </trkpt>
      <trkpt lat="48.03676" lon="6.92658">
        <ele>857.4</ele>
        <time>2022-05-26T07:01:53Z</time>
      </trkpt>
      <trkpt lat="48.03685" lon="6.92661">
        <ele>858.1</ele>
        <time>2022-05-26T07:01:57Z</time>
      </trkpt>
      <trkpt lat="48.03696" lon="6.92659">
        <ele>858.6</ele>
        <time>2022-05-26T07:02:02Z</time>
      </trkpt>
      <trkpt lat="48.03706" lon="6.92656">
        <ele>859.3</ele>
        <time>2022-05-26T07:02:07Z</time>
      </trkpt>
      <trkpt lat="48.03717" lon="6.92654">
        <ele>859.8</ele>
        <time>2022-05-26T07:02:12Z</time>
      </trkpt>
      <trkpt lat="48.03727" lon="6.92656">
        <ele>859.9</ele>
        <time>2022-05-26T07:02:16Z</time>
      </trkpt>
      <trkpt lat="48.03737" lon="6.92663">
        <ele>860.7</ele>
        <time>2022-05-26T07:02:20Z</time>
      </trkpt>
      <trkpt lat="48.03747" lon="6.92671">
        <ele>860.9</ele>
        <time>2022-05-26T07:02:24Z</time>
      </trkpt>
      <trkpt lat="48.03755" lon="6.92679">
        <ele>861.7</ele>
        <time>2022-05-26T07:02:28Z</time>
      </trkpt>
      <trkpt lat="48.03762" lon="6.92687">
        <ele>861.8</ele>
        <time>2022-05-26T07:02:32Z</time>
      </trkpt>
      <trkpt lat="48.0377" lon="6.92696">
        <ele>863</ele>
        <time>2022-05-26T07:02:36Z</time>
      </trkpt>
      <trkpt lat="48.03778" lon="6.92706">
        <ele>863.6</ele>
        <time>2022-05-26T07:02:41Z</time>
      </trkpt>
      <trkpt lat="48.03786" lon="6.92716">
        <ele>863.8</ele>
        <time>2022-05-26T07:02:45Z</time>
      </trkpt>
      <trkpt lat="48.03794" lon="6.92726">
        <ele>863.6</ele>
        <time>2022-05-26T07:02:49Z</time>
      </trkpt>
      <trkpt lat="48.03803" lon="6.92737">
        <ele>864.1</ele>
        <time>2022-05-26T07:02:53Z</time>
      </trkpt>
      <trkpt lat="48.0381" lon="6.92748">
        <ele>864.5</ele>
        <time>2022-05-26T07:02:57Z</time>
      </trkpt>
      <trkpt lat="48.03818" lon="6.92758">
        <ele>865.3</ele>
        <time>2022-05-26T07:03:01Z</time>
      </trkpt>
      <trkpt lat="48.03825" lon="6.92769">
        <ele>866</ele>
        <time>2022-05-26T07:03:05Z</time>
      </trkpt>
      <trkpt lat="48.03833" lon="6.92777">
        <ele>866.6</ele>
        <time>2022-05-26T07:03:09Z</time>
      </trkpt>
      <trkpt lat="48.03841" lon="6.92784">
        <ele>867.2</ele>
        <time>2022-05-26T07:03:13Z</time>
      </trkpt>
      <trkpt lat="48.0385" lon="6.92789">
        <ele>867.6</ele>
        <time>2022-05-26T07:03:17Z</time>
      </trkpt>
      <trkpt lat="48.0386" lon="6.92791">
        <ele>868</ele>
        <time>2022-05-26T07:03:21Z</time>
      </trkpt>
      <trkpt lat="48.03871" lon="6.92798">
        <ele>868.9</ele>
        <time>2022-05-26T07:03:26Z</time>
      </trkpt>
      <trkpt lat="48.0388" lon="6.92803">
        <ele>869.2</ele>
        <time>2022-05-26T07:03:31Z</time>
      </trkpt>
      <trkpt lat="48.03889" lon="6.92811">
        <ele>870.3</ele>
        <time>2022-05-26T07:03:36Z</time>
      </trkpt>
      <trkpt lat="48.03897" lon="6.92817">
        <ele>871</ele>
        <time>2022-05-26T07:03:40Z</time>
      </trkpt>
      <trkpt lat="48.03908" lon="6.92823">
        <ele>871.8</ele>
        <time>2022-05-26T07:03:44Z</time>
      </trkpt>
      <trkpt lat="48.03918" lon="6.9283">
        <ele>872.1</ele>
        <time>2022-05-26T07:03:48Z</time>
      </trkpt>
      <trkpt lat="48.03928" lon="6.92838">
        <ele>872.1</ele>
        <time>2022-05-26T07:03:52Z</time>
      </trkpt>
      <trkpt lat="48.03935" lon="6.92847">
        <ele>873.5</ele>
        <time>2022-05-26T07:03:56Z</time>
      </trkpt>
      <trkpt lat="48.03942" lon="6.92857">
        <ele>873.9</ele>
        <time>2022-05-26T07:04:00Z</time>
      </trkpt>
      <trkpt lat="48.03947" lon="6.92869">
        <ele>875</ele>
        <time>2022-05-26T07:04:04Z</time>
      </trkpt>
      <trkpt lat="48.03952" lon="6.92881">
        <ele>875.2</ele>
        <time>2022-05-26T07:04:08Z</time>
      </trkpt>
      <trkpt lat="48.03962" lon="6.92882">
        <ele>876.8</ele>
        <time>2022-05-26T07:04:14Z</time>
      </trkpt>
      <trkpt lat="48.03963" lon="6.92869">
        <ele>876.7</ele>
        <time>2022-05-26T07:04:18Z</time>
      </trkpt>
      <trkpt lat="48.03962" lon="6.92853">
        <ele>878</ele>
        <time>2022-05-26T07:04:23Z</time>
      </trkpt>
      <trkpt lat="48.03959" lon="6.92839">
        <ele>879.1</ele>
        <time>2022-05-26T07:04:28Z</time>
      </trkpt>
      <trkpt lat="48.03956" lon="6.92827">
        <ele>880</ele>
        <time>2022-05-26T07:04:33Z</time>
      </trkpt>
      <trkpt lat="48.0395" lon="6.92815">
        <ele>881.4</ele>
        <time>2022-05-26T07:04:39Z</time>
      </trkpt>
      <trkpt lat="48.03944" lon="6.92804">
        <ele>882.7</ele>
        <time>2022-05-26T07:04:45Z</time>
      </trkpt>
      <trkpt lat="48.03937" lon="6.92792">
        <ele>884.5</ele>
        <time>2022-05-26T07:04:51Z</time>
      </trkpt>
      <trkpt lat="48.0393" lon="6.92781">
        <ele>886.2</ele>
        <time>2022-05-26T07:04:57Z</time>
      </trkpt>
      <trkpt lat="48.03922" lon="6.92771">
        <ele>887.4</ele>
        <time>2022-05-26T07:05:03Z</time>
      </trkpt>
      <trkpt lat="48.03914" lon="6.92761">
        <ele>888.1</ele>
        <time>2022-05-26T07:05:09Z</time>
      </trkpt>
      <trkpt lat="48.03907" lon="6.92751">
        <ele>889.8</ele>
        <time>2022-05-26T07:05:15Z</time>
      </trkpt>
      <trkpt lat="48.039" lon="6.92739">
        <ele>891.2</ele>
        <time>2022-05-26T07:05:21Z</time>
      </trkpt>
      <trkpt lat="48.03893" lon="6.92728">
        <ele>893.8</ele>
        <time>2022-05-26T07:05:27Z</time>
      </trkpt>
      <trkpt lat="48.03886" lon="6.92718">
        <ele>894.1</ele>
        <time>2022-05-26T07:05:32Z</time>
      </trkpt>
      <trkpt lat="48.0388" lon="6.92708">
        <ele>894.1</ele>
        <time>2022-05-26T07:05:37Z</time>
      </trkpt>
      <trkpt lat="48.03872" lon="6.92697">
        <ele>896.1</ele>
        <time>2022-05-26T07:05:42Z</time>
      </trkpt>
      <trkpt lat="48.03865" lon="6.92688">
        <ele>897.4</ele>
        <time>2022-05-26T07:05:47Z</time>
      </trkpt>
      <trkpt lat="48.03859" lon="6.92676">
        <ele>898.4</ele>
        <time>2022-05-26T07:05:53Z</time>
      </trkpt>
      <trkpt lat="48.03856" lon="6.92662">
        <ele>899.1</ele>
        <time>2022-05-26T07:05:59Z</time>
      </trkpt>
      <trkpt lat="48.03855" lon="6.92647">
        <ele>899.5</ele>
        <time>2022-05-26T07:06:04Z</time>
      </trkpt>
      <trkpt lat="48.03854" lon="6.92632">
        <ele>900</ele>
        <time>2022-05-26T07:06:09Z</time>
      </trkpt>
      <trkpt lat="48.03849" lon="6.92618">
        <ele>901.2</ele>
        <time>2022-05-26T07:06:15Z</time>
      </trkpt>
      <trkpt lat="48.03844" lon="6.92605">
        <ele>903</ele>
        <time>2022-05-26T07:06:21Z</time>
      </trkpt>
      <trkpt lat="48.03841" lon="6.92591">
        <ele>905.5</ele>
        <time>2022-05-26T07:06:28Z</time>
      </trkpt>
      <trkpt lat="48.03839" lon="6.92578">
        <ele>906.8</ele>
        <time>2022-05-26T07:06:35Z</time>
      </trkpt>
      <trkpt lat="48.03835" lon="6.92563">
        <ele>908.2</ele>
        <time>2022-05-26T07:06:42Z</time>
      </trkpt>
      <trkpt lat="48.03829" lon="6.92551">
        <ele>909.6</ele>
        <time>2022-05-26T07:06:48Z</time>
      </trkpt>
      <trkpt lat="48.03821" lon="6.92543">
        <ele>910.2</ele>
        <time>2022-05-26T07:06:54Z</time>
      </trkpt>
      <trkpt lat="48.03814" lon="6.92533">
        <ele>911</ele>
        <time>2022-05-26T07:07:00Z</time>
      </trkpt>
      <trkpt lat="48.03807" lon="6.92526">
        <ele>911.4</ele>
        <time>2022-05-26T07:07:06Z</time>
      </trkpt>
      <trkpt lat="48.038" lon="6.92515">
        <ele>913.3</ele>
        <time>2022-05-26T07:07:12Z</time>
      </trkpt>
      <trkpt lat="48.03797" lon="6.92501">
        <ele>914.1</ele>
        <time>2022-05-26T07:07:18Z</time>
      </trkpt>
      <trkpt lat="48.03798" lon="6.92486">
        <ele>916.1</ele>
        <time>2022-05-26T07:07:25Z</time>
      </trkpt>
      <trkpt lat="48.03801" lon="6.92472">
        <ele>917.6</ele>
        <time>2022-05-26T07:07:31Z</time>
      </trkpt>
      <trkpt lat="48.03802" lon="6.92457">
        <ele>918.8</ele>
        <time>2022-05-26T07:07:37Z</time>
      </trkpt>
      <trkpt lat="48.03803" lon="6.92443">
        <ele>919.5</ele>
        <time>2022-05-26T07:07:42Z</time>
      </trkpt>
      <trkpt lat="48.03806" lon="6.92428">
        <ele>920.4</ele>
        <time>2022-05-26T07:07:48Z</time>
      </trkpt>
      <trkpt lat="48.03813" lon="6.92417">
        <ele>920.1</ele>
        <time>2022-05-26T07:07:54Z</time>
      </trkpt>
      <trkpt lat="48.03819" lon="6.92405">
        <ele>922.1</ele>
        <time>2022-05-26T07:07:59Z</time>
      </trkpt>
      <trkpt lat="48.03822" lon="6.92393">
        <ele>923.6</ele>
        <time>2022-05-26T07:08:05Z</time>
      </trkpt>
      <trkpt lat="48.03828" lon="6.9238">
        <ele>924.9</ele>
        <time>2022-05-26T07:08:12Z</time>
      </trkpt>
      <trkpt lat="48.03833" lon="6.92368">
        <ele>926.5</ele>
        <time>2022-05-26T07:08:18Z</time>
      </trkpt>
      <trkpt lat="48.03838" lon="6.92355">
        <ele>927.9</ele>
        <time>2022-05-26T07:08:24Z</time>
      </trkpt>
      <trkpt lat="48.03844" lon="6.92343">
        <ele>929.4</ele>
        <time>2022-05-26T07:08:30Z</time>
      </trkpt>
      <trkpt lat="48.03848" lon="6.9233">
        <ele>930.2</ele>
        <time>2022-05-26T07:08:36Z</time>
      </trkpt>
      <trkpt lat="48.03846" lon="6.92316">
        <ele>929.8</ele>
        <time>2022-05-26T07:08:41Z</time>
      </trkpt>
      <trkpt lat="48.0384" lon="6.92305">
        <ele>931</ele>
        <time>2022-05-26T07:08:46Z</time>
      </trkpt>
      <trkpt lat="48.03832" lon="6.92299">
        <ele>931.8</ele>
        <time>2022-05-26T07:08:52Z</time>
      </trkpt>
      <trkpt lat="48.03823" lon="6.92293">
        <ele>932.5</ele>
        <time>2022-05-26T07:08:58Z</time>
      </trkpt>
      <trkpt lat="48.03814" lon="6.92287">
        <ele>932.5</ele>
        <time>2022-05-26T07:09:03Z</time>
      </trkpt>
      <trkpt lat="48.03807" lon="6.92278">
        <ele>932.9</ele>
        <time>2022-05-26T07:09:08Z</time>
      </trkpt>
      <trkpt lat="48.03803" lon="6.92266">
        <ele>933.2</ele>
        <time>2022-05-26T07:09:13Z</time>
      </trkpt>
      <trkpt lat="48.038" lon="6.92253">
        <ele>934.2</ele>
        <time>2022-05-26T07:09:18Z</time>
      </trkpt>
      <trkpt lat="48.03797" lon="6.9224">
        <ele>934.9</ele>
        <time>2022-05-26T07:09:23Z</time>
      </trkpt>
      <trkpt lat="48.03795" lon="6.92225">
        <ele>937.2</ele>
        <time>2022-05-26T07:09:29Z</time>
      </trkpt>
      <trkpt lat="48.03792" lon="6.9221">
        <ele>939</ele>
        <time>2022-05-26T07:09:36Z</time>
      </trkpt>
      <trkpt lat="48.03788" lon="6.92198">
        <ele>939.6</ele>
        <time>2022-05-26T07:09:41Z</time>
      </trkpt>
      <trkpt lat="48.03783" lon="6.92184">
        <ele>940.6</ele>
        <time>2022-05-26T07:09:47Z</time>
      </trkpt>
      <trkpt lat="48.03779" lon="6.9217">
        <ele>941.2</ele>
        <time>2022-05-26T07:09:53Z</time>
      </trkpt>
      <trkpt lat="48.03775" lon="6.92159">
        <ele>941.8</ele>
        <time>2022-05-26T07:09:58Z</time>
      </trkpt>
      <trkpt lat="48.03769" lon="6.92148">
        <ele>942.4</ele>
        <time>2022-05-26T07:10:03Z</time>
      </trkpt>
      <trkpt lat="48.03761" lon="6.92139">
        <ele>943.2</ele>
        <time>2022-05-26T07:10:08Z</time>
      </trkpt>
      <trkpt lat="48.03753" lon="6.92129">
        <ele>943.1</ele>
        <time>2022-05-26T07:10:13Z</time>
      </trkpt>
      <trkpt lat="48.03746" lon="6.92119">
        <ele>943.3</ele>
        <time>2022-05-26T07:10:18Z</time>
      </trkpt>
      <trkpt lat="48.03739" lon="6.92108">
        <ele>943.8</ele>
        <time>2022-05-26T07:10:23Z</time>
      </trkpt>
      <trkpt lat="48.03733" lon="6.92096">
        <ele>945.3</ele>
        <time>2022-05-26T07:10:28Z</time>
      </trkpt>
      <trkpt lat="48.03725" lon="6.92085">
        <ele>946.1</ele>
        <time>2022-05-26T07:10:34Z</time>
      </trkpt>
      <trkpt lat="48.03723" lon="6.9207">
        <ele>947.5</ele>
        <time>2022-05-26T07:10:40Z</time>
      </trkpt>
      <trkpt lat="48.03732" lon="6.92064">
        <ele>948.3</ele>
        <time>2022-05-26T07:10:45Z</time>
      </trkpt>
      <trkpt lat="48.0374" lon="6.92073">
        <ele>949.1</ele>
        <time>2022-05-26T07:10:50Z</time>
      </trkpt>
      <trkpt lat="48.03746" lon="6.92085">
        <ele>949.2</ele>
        <time>2022-05-26T07:10:55Z</time>
      </trkpt>
      <trkpt lat="48.03751" lon="6.92098">
        <ele>949.3</ele>
        <time>2022-05-26T07:11:00Z</time>
      </trkpt>
      <trkpt lat="48.03759" lon="6.9211">
        <ele>949.3</ele>
        <time>2022-05-26T07:11:05Z</time>
      </trkpt>
      <trkpt lat="48.03768" lon="6.92118">
        <ele>950.6</ele>
        <time>2022-05-26T07:11:10Z</time>
      </trkpt>
      <trkpt lat="48.03777" lon="6.92125">
        <ele>949.7</ele>
        <time>2022-05-26T07:11:15Z</time>
      </trkpt>
      <trkpt lat="48.03787" lon="6.92133">
        <ele>950.9</ele>
        <time>2022-05-26T07:11:20Z</time>
      </trkpt>
      <trkpt lat="48.03794" lon="6.92141">
        <ele>951.1</ele>
        <time>2022-05-26T07:11:25Z</time>
      </trkpt>
      <trkpt lat="48.03802" lon="6.92152">
        <ele>951.7</ele>
        <time>2022-05-26T07:11:30Z</time>
      </trkpt>
      <trkpt lat="48.0381" lon="6.92164">
        <ele>952.4</ele>
        <time>2022-05-26T07:11:35Z</time>
      </trkpt>
      <trkpt lat="48.03817" lon="6.92173">
        <ele>952.6</ele>
        <time>2022-05-26T07:11:39Z</time>
      </trkpt>
      <trkpt lat="48.03824" lon="6.92182">
        <ele>952.7</ele>
        <time>2022-05-26T07:11:43Z</time>
      </trkpt>
      <trkpt lat="48.03833" lon="6.92191">
        <ele>953.3</ele>
        <time>2022-05-26T07:11:48Z</time>
      </trkpt>
      <trkpt lat="48.03842" lon="6.92199">
        <ele>952.7</ele>
        <time>2022-05-26T07:11:53Z</time>
      </trkpt>
      <trkpt lat="48.03851" lon="6.92207">
        <ele>952.8</ele>
        <time>2022-05-26T07:11:57Z</time>
      </trkpt>
      <trkpt lat="48.0386" lon="6.92215">
        <ele>953.1</ele>
        <time>2022-05-26T07:12:01Z</time>
      </trkpt>
      <trkpt lat="48.03869" lon="6.92222">
        <ele>953</ele>
        <time>2022-05-26T07:12:05Z</time>
      </trkpt>
      <trkpt lat="48.03877" lon="6.92232">
        <ele>952.7</ele>
        <time>2022-05-26T07:12:09Z</time>
      </trkpt>
      <trkpt lat="48.03884" lon="6.92242">
        <ele>953.5</ele>
        <time>2022-05-26T07:12:13Z</time>
      </trkpt>
      <trkpt lat="48.03893" lon="6.92251">
        <ele>953.5</ele>
        <time>2022-05-26T07:12:17Z</time>
      </trkpt>
      <trkpt lat="48.039" lon="6.9226">
        <ele>954.6</ele>
        <time>2022-05-26T07:12:21Z</time>
      </trkpt>
      <trkpt lat="48.03908" lon="6.92268">
        <ele>955.3</ele>
        <time>2022-05-26T07:12:25Z</time>
      </trkpt>
      <trkpt lat="48.03916" lon="6.92275">
        <ele>955.2</ele>
        <time>2022-05-26T07:12:29Z</time>
      </trkpt>
      <trkpt lat="48.03925" lon="6.92286">
        <ele>955.6</ele>
        <time>2022-05-26T07:12:34Z</time>
      </trkpt>
      <trkpt lat="48.03927" lon="6.923">
        <ele>956.1</ele>
        <time>2022-05-26T07:12:38Z</time>
      </trkpt>
      <trkpt lat="48.03925" lon="6.92315">
        <ele>955.7</ele>
        <time>2022-05-26T07:12:42Z</time>
      </trkpt>
      <trkpt lat="48.0392" lon="6.9233">
        <ele>956.6</ele>
        <time>2022-05-26T07:12:46Z</time>
      </trkpt>
      <trkpt lat="48.03917" lon="6.92347">
        <ele>955.8</ele>
        <time>2022-05-26T07:12:50Z</time>
      </trkpt>
      <trkpt lat="48.03917" lon="6.92361">
        <ele>956.1</ele>
        <time>2022-05-26T07:12:53Z</time>
      </trkpt>
      <trkpt lat="48.03918" lon="6.92375">
        <ele>955.5</ele>
        <time>2022-05-26T07:12:56Z</time>
      </trkpt>
      <trkpt lat="48.0392" lon="6.92392">
        <ele>955.7</ele>
        <time>2022-05-26T07:13:00Z</time>
      </trkpt>
      <trkpt lat="48.03925" lon="6.92407">
        <ele>956.1</ele>
        <time>2022-05-26T07:13:04Z</time>
      </trkpt>
      <trkpt lat="48.03931" lon="6.92421">
        <ele>956.7</ele>
        <time>2022-05-26T07:13:08Z</time>
      </trkpt>
      <trkpt lat="48.03936" lon="6.92434">
        <ele>956.7</ele>
        <time>2022-05-26T07:13:12Z</time>
      </trkpt>
      <trkpt lat="48.03942" lon="6.92446">
        <ele>956.8</ele>
        <time>2022-05-26T07:13:16Z</time>
      </trkpt>
      <trkpt lat="48.03949" lon="6.92457">
        <ele>957.6</ele>
        <time>2022-05-26T07:13:20Z</time>
      </trkpt>
      <trkpt lat="48.03957" lon="6.92467">
        <ele>957.7</ele>
        <time>2022-05-26T07:13:24Z</time>
      </trkpt>
      <trkpt lat="48.03965" lon="6.92477">
        <ele>959.4</ele>
        <time>2022-05-26T07:13:29Z</time>
      </trkpt>
      <trkpt lat="48.03973" lon="6.92486">
        <ele>959.4</ele>
        <time>2022-05-26T07:13:34Z</time>
      </trkpt>
      <trkpt lat="48.03981" lon="6.92493">
        <ele>961.6</ele>
        <time>2022-05-26T07:13:39Z</time>
      </trkpt>
      <trkpt lat="48.03989" lon="6.925">
        <ele>963.3</ele>
        <time>2022-05-26T07:13:44Z</time>
      </trkpt>
      <trkpt lat="48.03999" lon="6.92505">
        <ele>965.1</ele>
        <time>2022-05-26T07:13:50Z</time>
      </trkpt>
      <trkpt lat="48.04009" lon="6.92509">
        <ele>966.4</ele>
        <time>2022-05-26T07:13:55Z</time>
      </trkpt>
      <trkpt lat="48.04019" lon="6.92513">
        <ele>967.3</ele>
        <time>2022-05-26T07:14:00Z</time>
      </trkpt>
      <trkpt lat="48.04028" lon="6.92516">
        <ele>967.9</ele>
        <time>2022-05-26T07:14:07Z</time>
      </trkpt>
      <trkpt lat="48.04039" lon="6.92519">
        <ele>969.5</ele>
        <time>2022-05-26T07:14:14Z</time>
      </trkpt>
      <trkpt lat="48.04048" lon="6.92527">
        <ele>970.7</ele>
        <time>2022-05-26T07:14:20Z</time>
      </trkpt>
      <trkpt lat="48.04055" lon="6.92534">
        <ele>972.2</ele>
        <time>2022-05-26T07:14:25Z</time>
      </trkpt>
      <trkpt lat="48.04065" lon="6.92542">
        <ele>972.8</ele>
        <time>2022-05-26T07:14:31Z</time>
      </trkpt>
      <trkpt lat="48.04073" lon="6.92548">
        <ele>973.6</ele>
        <time>2022-05-26T07:14:36Z</time>
      </trkpt>
      <trkpt lat="48.04082" lon="6.92554">
        <ele>974.2</ele>
        <time>2022-05-26T07:14:41Z</time>
      </trkpt>
      <trkpt lat="48.04092" lon="6.92559">
        <ele>974.8</ele>
        <time>2022-05-26T07:14:46Z</time>
      </trkpt>
      <trkpt lat="48.041" lon="6.92565">
        <ele>974.7</ele>
        <time>2022-05-26T07:14:51Z</time>
      </trkpt>
      <trkpt lat="48.0411" lon="6.92567">
        <ele>975.9</ele>
        <time>2022-05-26T07:14:56Z</time>
      </trkpt>
      <trkpt lat="48.04108" lon="6.92553">
        <ele>976.5</ele>
        <time>2022-05-26T07:15:04Z</time>
      </trkpt>
      <trkpt lat="48.041" lon="6.92546">
        <ele>977.9</ele>
        <time>2022-05-26T07:15:10Z</time>
      </trkpt>
      <trkpt lat="48.04093" lon="6.92536">
        <ele>979.4</ele>
        <time>2022-05-26T07:15:15Z</time>
      </trkpt>
      <trkpt lat="48.04088" lon="6.92524">
        <ele>979.2</ele>
        <time>2022-05-26T07:15:20Z</time>
      </trkpt>
      <trkpt lat="48.04082" lon="6.9251">
        <ele>980</ele>
        <time>2022-05-26T07:15:25Z</time>
      </trkpt>
      <trkpt lat="48.04078" lon="6.92498">
        <ele>980.4</ele>
        <time>2022-05-26T07:15:29Z</time>
      </trkpt>
      <trkpt lat="48.04072" lon="6.92485">
        <ele>980.5</ele>
        <time>2022-05-26T07:15:34Z</time>
      </trkpt>
      <trkpt lat="48.04067" lon="6.92471">
        <ele>982.9</ele>
        <time>2022-05-26T07:15:39Z</time>
      </trkpt>
      <trkpt lat="48.04062" lon="6.92458">
        <ele>982.5</ele>
        <time>2022-05-26T07:15:44Z</time>
      </trkpt>
      <trkpt lat="48.04057" lon="6.92443">
        <ele>984.6</ele>
        <time>2022-05-26T07:15:49Z</time>
      </trkpt>
      <trkpt lat="48.04053" lon="6.92429">
        <ele>985</ele>
        <time>2022-05-26T07:15:54Z</time>
      </trkpt>
      <trkpt lat="48.04048" lon="6.92414">
        <ele>985.9</ele>
        <time>2022-05-26T07:15:59Z</time>
      </trkpt>
      <trkpt lat="48.04044" lon="6.92402">
        <ele>985.6</ele>
        <time>2022-05-26T07:16:03Z</time>
      </trkpt>
      <trkpt lat="48.0404" lon="6.92389">
        <ele>986.2</ele>
        <time>2022-05-26T07:16:07Z</time>
      </trkpt>
      <trkpt lat="48.04035" lon="6.92376">
        <ele>986.4</ele>
        <time>2022-05-26T07:16:11Z</time>
      </trkpt>
      <trkpt lat="48.04032" lon="6.92362">
        <ele>986.3</ele>
        <time>2022-05-26T07:16:15Z</time>
      </trkpt>
      <trkpt lat="48.04032" lon="6.92348">
        <ele>986.3</ele>
        <time>2022-05-26T07:16:19Z</time>
      </trkpt>
      <trkpt lat="48.04033" lon="6.92333">
        <ele>986.2</ele>
        <time>2022-05-26T07:16:23Z</time>
      </trkpt>
      <trkpt lat="48.04034" lon="6.92318">
        <ele>986.6</ele>
        <time>2022-05-26T07:16:27Z</time>
      </trkpt>
      <trkpt lat="48.04036" lon="6.92302">
        <ele>987.2</ele>
        <time>2022-05-26T07:16:32Z</time>
      </trkpt>
      <trkpt lat="48.04039" lon="6.92287">
        <ele>987.8</ele>
        <time>2022-05-26T07:16:36Z</time>
      </trkpt>
      <trkpt lat="48.04043" lon="6.92274">
        <ele>988.8</ele>
        <time>2022-05-26T07:16:40Z</time>
      </trkpt>
      <trkpt lat="48.04049" lon="6.92263">
        <ele>989.5</ele>
        <time>2022-05-26T07:16:46Z</time>
      </trkpt>
      <trkpt lat="48.04056" lon="6.92253">
        <ele>990.5</ele>
        <time>2022-05-26T07:16:51Z</time>
      </trkpt>
      <trkpt lat="48.04063" lon="6.92241">
        <ele>991.1</ele>
        <time>2022-05-26T07:16:56Z</time>
      </trkpt>
      <trkpt lat="48.04068" lon="6.9223">
        <ele>992</ele>
        <time>2022-05-26T07:17:01Z</time>
      </trkpt>
      <trkpt lat="48.04071" lon="6.92216">
        <ele>992.4</ele>
        <time>2022-05-26T07:17:06Z</time>
      </trkpt>
      <trkpt lat="48.0407" lon="6.92203">
        <ele>994.2</ele>
        <time>2022-05-26T07:17:11Z</time>
      </trkpt>
      <trkpt lat="48.04067" lon="6.92188">
        <ele>995.4</ele>
        <time>2022-05-26T07:17:17Z</time>
      </trkpt>
      <trkpt lat="48.04063" lon="6.92174">
        <ele>996.6</ele>
        <time>2022-05-26T07:17:23Z</time>
      </trkpt>
      <trkpt lat="48.04059" lon="6.9216">
        <ele>997.3</ele>
        <time>2022-05-26T07:17:29Z</time>
      </trkpt>
      <trkpt lat="48.04053" lon="6.92149">
        <ele>998.2</ele>
        <time>2022-05-26T07:17:35Z</time>
      </trkpt>
      <trkpt lat="48.04047" lon="6.92138">
        <ele>999.6</ele>
        <time>2022-05-26T07:17:41Z</time>
      </trkpt>
      <trkpt lat="48.04041" lon="6.92127">
        <ele>1000.1</ele>
        <time>2022-05-26T07:17:47Z</time>
      </trkpt>
      <trkpt lat="48.04035" lon="6.92118">
        <ele>1002.5</ele>
        <time>2022-05-26T07:17:52Z</time>
      </trkpt>
      <trkpt lat="48.04029" lon="6.92107">
        <ele>1003.2</ele>
        <time>2022-05-26T07:17:58Z</time>
      </trkpt>
      <trkpt lat="48.04021" lon="6.92096">
        <ele>1004.2</ele>
        <time>2022-05-26T07:18:04Z</time>
      </trkpt>
      <trkpt lat="48.04014" lon="6.92088">
        <ele>1005.5</ele>
        <time>2022-05-26T07:18:10Z</time>
      </trkpt>
      <trkpt lat="48.04007" lon="6.92078">
        <ele>1006.8</ele>
        <time>2022-05-26T07:18:16Z</time>
      </trkpt>
      <trkpt lat="48.04" lon="6.92069">
        <ele>1007.8</ele>
        <time>2022-05-26T07:18:21Z</time>
      </trkpt>
      <trkpt lat="48.03993" lon="6.92059">
        <ele>1009.1</ele>
        <time>2022-05-26T07:18:26Z</time>
      </trkpt>
      <trkpt lat="48.03986" lon="6.92049">
        <ele>1010.8</ele>
        <time>2022-05-26T07:18:32Z</time>
      </trkpt>
      <trkpt lat="48.03979" lon="6.9204">
        <ele>1010.8</ele>
        <time>2022-05-26T07:18:37Z</time>
      </trkpt>
      <trkpt lat="48.03972" lon="6.9203">
        <ele>1011.7</ele>
        <time>2022-05-26T07:18:42Z</time>
      </trkpt>
      <trkpt lat="48.03966" lon="6.92019">
        <ele>1011.9</ele>
        <time>2022-05-26T07:18:47Z</time>
      </trkpt>
      <trkpt lat="48.0396" lon="6.92007">
        <ele>1013.8</ele>
        <time>2022-05-26T07:18:53Z</time>
      </trkpt>
      <trkpt lat="48.03956" lon="6.91995">
        <ele>1015.4</ele>
        <time>2022-05-26T07:18:58Z</time>
      </trkpt>
      <trkpt lat="48.03951" lon="6.91981">
        <ele>1016.7</ele>
        <time>2022-05-26T07:19:04Z</time>
      </trkpt>
      <trkpt lat="48.03947" lon="6.91967">
        <ele>1018.4</ele>
        <time>2022-05-26T07:19:10Z</time>
      </trkpt>
      <trkpt lat="48.03944" lon="6.91953">
        <ele>1019.3</ele>
        <time>2022-05-26T07:19:16Z</time>
      </trkpt>
      <trkpt lat="48.0394" lon="6.91941">
        <ele>1021.3</ele>
        <time>2022-05-26T07:19:22Z</time>
      </trkpt>
      <trkpt lat="48.03933" lon="6.91931">
        <ele>1022.5</ele>
        <time>2022-05-26T07:19:28Z</time>
      </trkpt>
      <trkpt lat="48.03924" lon="6.91925">
        <ele>1024.4</ele>
        <time>2022-05-26T07:19:35Z</time>
      </trkpt>
      <trkpt lat="48.03915" lon="6.91924">
        <ele>1025.1</ele>
        <time>2022-05-26T07:19:41Z</time>
      </trkpt>
      <trkpt lat="48.03906" lon="6.91919">
        <ele>1026.8</ele>
        <time>2022-05-26T07:19:47Z</time>
      </trkpt>
      <trkpt lat="48.03901" lon="6.91908">
        <ele>1027.6</ele>
        <time>2022-05-26T07:19:53Z</time>
      </trkpt>
      <trkpt lat="48.03905" lon="6.91894">
        <ele>1028.2</ele>
        <time>2022-05-26T07:19:59Z</time>
      </trkpt>
      <trkpt lat="48.0391" lon="6.91883">
        <ele>1028.5</ele>
        <time>2022-05-26T07:20:04Z</time>
      </trkpt>
      <trkpt lat="48.03916" lon="6.91872">
        <ele>1029.5</ele>
        <time>2022-05-26T07:20:09Z</time>
      </trkpt>
      <trkpt lat="48.03923" lon="6.91861">
        <ele>1030.5</ele>
        <time>2022-05-26T07:20:15Z</time>
      </trkpt>
      <trkpt lat="48.03932" lon="6.91858">
        <ele>1032.7</ele>
        <time>2022-05-26T07:20:21Z</time>
      </trkpt>
      <trkpt lat="48.03938" lon="6.91858">
        <ele>1033.6</ele>
        <time>2022-05-26T07:20:27Z</time>
      </trkpt>
      <trkpt lat="48.03939" lon="6.91858">
        <ele>1033.9</ele>
        <time>2022-05-26T07:20:28Z</time>
      </trkpt>
      <trkpt lat="48.03946" lon="6.91865">
        <ele>1035.3</ele>
        <time>2022-05-26T07:20:33Z</time>
      </trkpt>
      <trkpt lat="48.03956" lon="6.9187">
        <ele>1035.7</ele>
        <time>2022-05-26T07:20:39Z</time>
      </trkpt>
      <trkpt lat="48.03966" lon="6.91877">
        <ele>1037.5</ele>
        <time>2022-05-26T07:20:45Z</time>
      </trkpt>
      <trkpt lat="48.03975" lon="6.91885">
        <ele>1038</ele>
        <time>2022-05-26T07:20:51Z</time>
      </trkpt>
      <trkpt lat="48.03983" lon="6.91895">
        <ele>1039.5</ele>
        <time>2022-05-26T07:20:57Z</time>
      </trkpt>
      <trkpt lat="48.03991" lon="6.91904">
        <ele>1039.7</ele>
        <time>2022-05-26T07:21:03Z</time>
      </trkpt>
      <trkpt lat="48.04" lon="6.91911">
        <ele>1041.8</ele>
        <time>2022-05-26T07:21:10Z</time>
      </trkpt>
      <trkpt lat="48.04008" lon="6.91915">
        <ele>1042.2</ele>
        <time>2022-05-26T07:21:16Z</time>
      </trkpt>
      <trkpt lat="48.04019" lon="6.91919">
        <ele>1043.4</ele>
        <time>2022-05-26T07:21:22Z</time>
      </trkpt>
      <trkpt lat="48.04028" lon="6.9192">
        <ele>1044.9</ele>
        <time>2022-05-26T07:21:26Z</time>
      </trkpt>
      <trkpt lat="48.04035" lon="6.91922">
        <ele>1046.1</ele>
        <time>2022-05-26T07:21:33Z</time>
      </trkpt>
      <trkpt lat="48.04044" lon="6.9192">
        <ele>1046.7</ele>
        <time>2022-05-26T07:21:39Z</time>
      </trkpt>
      <trkpt lat="48.0404" lon="6.91908">
        <ele>1048.1</ele>
        <time>2022-05-26T07:21:46Z</time>
      </trkpt>
      <trkpt lat="48.04033" lon="6.91899">
        <ele>1050.1</ele>
        <time>2022-05-26T07:21:52Z</time>
      </trkpt>
      <trkpt lat="48.04027" lon="6.91887">
        <ele>1051</ele>
        <time>2022-05-26T07:21:59Z</time>
      </trkpt>
      <trkpt lat="48.04021" lon="6.91874">
        <ele>1051.7</ele>
        <time>2022-05-26T07:22:06Z</time>
      </trkpt>
      <trkpt lat="48.04015" lon="6.91861">
        <ele>1053.2</ele>
        <time>2022-05-26T07:22:12Z</time>
      </trkpt>
      <trkpt lat="48.04008" lon="6.9185">
        <ele>1053.1</ele>
        <time>2022-05-26T07:22:17Z</time>
      </trkpt>
      <trkpt lat="48.04002" lon="6.91838">
        <ele>1053.4</ele>
        <time>2022-05-26T07:22:21Z</time>
      </trkpt>
      <trkpt lat="48.03995" lon="6.91826">
        <ele>1054.2</ele>
        <time>2022-05-26T07:22:26Z</time>
      </trkpt>
      <trkpt lat="48.03989" lon="6.91814">
        <ele>1055</ele>
        <time>2022-05-26T07:22:31Z</time>
      </trkpt>
      <trkpt lat="48.03983" lon="6.91801">
        <ele>1056</ele>
        <time>2022-05-26T07:22:36Z</time>
      </trkpt>
      <trkpt lat="48.03978" lon="6.91789">
        <ele>1056.5</ele>
        <time>2022-05-26T07:22:41Z</time>
      </trkpt>
      <trkpt lat="48.03973" lon="6.91776">
        <ele>1058.4</ele>
        <time>2022-05-26T07:22:46Z</time>
      </trkpt>
      <trkpt lat="48.03968" lon="6.91763">
        <ele>1058.9</ele>
        <time>2022-05-26T07:22:51Z</time>
      </trkpt>
      <trkpt lat="48.03964" lon="6.91749">
        <ele>1059.6</ele>
        <time>2022-05-26T07:22:56Z</time>
      </trkpt>
      <trkpt lat="48.03959" lon="6.91736">
        <ele>1059.9</ele>
        <time>2022-05-26T07:23:01Z</time>
      </trkpt>
      <trkpt lat="48.03954" lon="6.91723">
        <ele>1060.1</ele>
        <time>2022-05-26T07:23:05Z</time>
      </trkpt>
      <trkpt lat="48.0395" lon="6.9171">
        <ele>1060.1</ele>
        <time>2022-05-26T07:23:09Z</time>
      </trkpt>
      <trkpt lat="48.03949" lon="6.91695">
        <ele>1061.7</ele>
        <time>2022-05-26T07:23:14Z</time>
      </trkpt>
      <trkpt lat="48.03948" lon="6.91681">
        <ele>1062.9</ele>
        <time>2022-05-26T07:23:19Z</time>
      </trkpt>
      <trkpt lat="48.03951" lon="6.91666">
        <ele>1065.8</ele>
        <time>2022-05-26T07:23:25Z</time>
      </trkpt>
      <trkpt lat="48.03954" lon="6.91653">
        <ele>1066.1</ele>
        <time>2022-05-26T07:23:31Z</time>
      </trkpt>
      <trkpt lat="48.03962" lon="6.91645">
        <ele>1066.6</ele>
        <time>2022-05-26T07:23:38Z</time>
      </trkpt>
      <trkpt lat="48.03971" lon="6.9164">
        <ele>1068.5</ele>
        <time>2022-05-26T07:23:43Z</time>
      </trkpt>
      <trkpt lat="48.0398" lon="6.91636">
        <ele>1069</ele>
        <time>2022-05-26T07:23:48Z</time>
      </trkpt>
      <trkpt lat="48.0398" lon="6.91623">
        <ele>1070.2</ele>
        <time>2022-05-26T07:23:58Z</time>
      </trkpt>
      <trkpt lat="48.03971" lon="6.91613">
        <ele>1069.9</ele>
        <time>2022-05-26T07:24:04Z</time>
      </trkpt>
      <trkpt lat="48.03966" lon="6.9161">
        <ele>1069.6</ele>
        <time>2022-05-26T07:24:15Z</time>
      </trkpt>
      <trkpt lat="48.03965" lon="6.9161">
        <ele>1069.5</ele>
        <time>2022-05-26T07:28:58Z</time>
      </trkpt>
      <trkpt lat="48.03964" lon="6.9161">
        <ele>1069.2</ele>
        <time>2022-05-26T07:29:50Z</time>
      </trkpt>
      <trkpt lat="48.03957" lon="6.91598">
        <ele>1070.5</ele>
        <time>2022-05-26T07:29:57Z</time>
      </trkpt>
      <trkpt lat="48.03949" lon="6.91588">
        <ele>1070.8</ele>
        <time>2022-05-26T07:30:02Z</time>
      </trkpt>
      <trkpt lat="48.0394" lon="6.91584">
        <ele>1071.1</ele>
        <time>2022-05-26T07:30:06Z</time>
      </trkpt>
      <trkpt lat="48.03929" lon="6.91583">
        <ele>1071.6</ele>
        <time>2022-05-26T07:30:10Z</time>
      </trkpt>
      <trkpt lat="48.0392" lon="6.91579">
        <ele>1071.6</ele>
        <time>2022-05-26T07:30:15Z</time>
      </trkpt>
      <trkpt lat="48.03919" lon="6.91579">
        <ele>1071.6</ele>
        <time>2022-05-26T07:30:18Z</time>
      </trkpt>
      <trkpt lat="48.03919" lon="6.9158">
        <ele>1071.2</ele>
        <time>2022-05-26T07:33:19Z</time>
      </trkpt>
      <trkpt lat="48.03918" lon="6.91579">
        <ele>1071.4</ele>
        <time>2022-05-26T07:34:13Z</time>
      </trkpt>
      <trkpt lat="48.03907" lon="6.91577">
        <ele>1071.6</ele>
        <time>2022-05-26T07:34:19Z</time>
      </trkpt>
      <trkpt lat="48.03896" lon="6.91573">
        <ele>1072</ele>
        <time>2022-05-26T07:34:23Z</time>
      </trkpt>
      <trkpt lat="48.03887" lon="6.91568">
        <ele>1070.9</ele>
        <time>2022-05-26T07:34:26Z</time>
      </trkpt>
      <trkpt lat="48.03878" lon="6.9156">
        <ele>1070</ele>
        <time>2022-05-26T07:34:29Z</time>
      </trkpt>
      <trkpt lat="48.0387" lon="6.91552">
        <ele>1069.1</ele>
        <time>2022-05-26T07:34:32Z</time>
      </trkpt>
      <trkpt lat="48.03862" lon="6.91542">
        <ele>1071.8</ele>
        <time>2022-05-26T07:34:35Z</time>
      </trkpt>
      <trkpt lat="48.03853" lon="6.91529">
        <ele>1069.6</ele>
        <time>2022-05-26T07:34:38Z</time>
      </trkpt>
      <trkpt lat="48.03847" lon="6.91516">
        <ele>1069.4</ele>
        <time>2022-05-26T07:34:41Z</time>
      </trkpt>
      <trkpt lat="48.0384" lon="6.91504">
        <ele>1069.3</ele>
        <time>2022-05-26T07:34:44Z</time>
      </trkpt>
      <trkpt lat="48.03834" lon="6.91491">
        <ele>1069.7</ele>
        <time>2022-05-26T07:34:47Z</time>
      </trkpt>
      <trkpt lat="48.0383" lon="6.91478">
        <ele>1069.9</ele>
        <time>2022-05-26T07:34:50Z</time>
      </trkpt>
      <trkpt lat="48.03827" lon="6.91461">
        <ele>1070.9</ele>
        <time>2022-05-26T07:34:54Z</time>
      </trkpt>
      <trkpt lat="48.03825" lon="6.91446">
        <ele>1071.2</ele>
        <time>2022-05-26T07:34:58Z</time>
      </trkpt>
      <trkpt lat="48.03821" lon="6.91431">
        <ele>1071.6</ele>
        <time>2022-05-26T07:35:02Z</time>
      </trkpt>
      <trkpt lat="48.03818" lon="6.91415">
        <ele>1072.8</ele>
        <time>2022-05-26T07:35:06Z</time>
      </trkpt>
      <trkpt lat="48.03809" lon="6.91401">
        <ele>1070.4</ele>
        <time>2022-05-26T07:35:10Z</time>
      </trkpt>
      <trkpt lat="48.03801" lon="6.91393">
        <ele>1068.8</ele>
        <time>2022-05-26T07:35:12Z</time>
      </trkpt>
      <trkpt lat="48.03791" lon="6.91384">
        <ele>1067.4</ele>
        <time>2022-05-26T07:35:14Z</time>
      </trkpt>
      <trkpt lat="48.0378" lon="6.91371">
        <ele>1065.3</ele>
        <time>2022-05-26T07:35:16Z</time>
      </trkpt>
      <trkpt lat="48.0377" lon="6.91359">
        <ele>1067.6</ele>
        <time>2022-05-26T07:35:18Z</time>
      </trkpt>
      <trkpt lat="48.03762" lon="6.91346">
        <ele>1066.7</ele>
        <time>2022-05-26T07:35:20Z</time>
      </trkpt>
      <trkpt lat="48.03754" lon="6.9133">
        <ele>1065.5</ele>
        <time>2022-05-26T07:35:22Z</time>
      </trkpt>
      <trkpt lat="48.03745" lon="6.91314">
        <ele>1065.6</ele>
        <time>2022-05-26T07:35:24Z</time>
      </trkpt>
      <trkpt lat="48.03735" lon="6.91299">
        <ele>1065.7</ele>
        <time>2022-05-26T07:35:26Z</time>
      </trkpt>
      <trkpt lat="48.03725" lon="6.91286">
        <ele>1065</ele>
        <time>2022-05-26T07:35:28Z</time>
      </trkpt>
      <trkpt lat="48.03716" lon="6.91274">
        <ele>1066.2</ele>
        <time>2022-05-26T07:35:30Z</time>
      </trkpt>
      <trkpt lat="48.03709" lon="6.91263">
        <ele>1067.8</ele>
        <time>2022-05-26T07:35:32Z</time>
      </trkpt>
      <trkpt lat="48.03701" lon="6.91251">
        <ele>1068</ele>
        <time>2022-05-26T07:35:35Z</time>
      </trkpt>
      <trkpt lat="48.03693" lon="6.91243">
        <ele>1069.3</ele>
        <time>2022-05-26T07:35:38Z</time>
      </trkpt>
      <trkpt lat="48.03684" lon="6.91233">
        <ele>1068.2</ele>
        <time>2022-05-26T07:35:42Z</time>
      </trkpt>
      <trkpt lat="48.03676" lon="6.91226">
        <ele>1069.8</ele>
        <time>2022-05-26T07:35:45Z</time>
      </trkpt>
      <trkpt lat="48.03666" lon="6.9122">
        <ele>1070.2</ele>
        <time>2022-05-26T07:35:48Z</time>
      </trkpt>
      <trkpt lat="48.03656" lon="6.91216">
        <ele>1070.3</ele>
        <time>2022-05-26T07:35:51Z</time>
      </trkpt>
      <trkpt lat="48.03645" lon="6.91212">
        <ele>1069.7</ele>
        <time>2022-05-26T07:35:54Z</time>
      </trkpt>
      <trkpt lat="48.03635" lon="6.91208">
        <ele>1069.8</ele>
        <time>2022-05-26T07:35:57Z</time>
      </trkpt>
      <trkpt lat="48.03625" lon="6.91203">
        <ele>1070.3</ele>
        <time>2022-05-26T07:36:00Z</time>
      </trkpt>
      <trkpt lat="48.03614" lon="6.91198">
        <ele>1071.1</ele>
        <time>2022-05-26T07:36:03Z</time>
      </trkpt>
      <trkpt lat="48.03604" lon="6.91191">
        <ele>1070.6</ele>
        <time>2022-05-26T07:36:06Z</time>
      </trkpt>
      <trkpt lat="48.03594" lon="6.91185">
        <ele>1071.7</ele>
        <time>2022-05-26T07:36:09Z</time>
      </trkpt>
      <trkpt lat="48.03585" lon="6.91179">
        <ele>1073.1</ele>
        <time>2022-05-26T07:36:12Z</time>
      </trkpt>
      <trkpt lat="48.03576" lon="6.91171">
        <ele>1071.8</ele>
        <time>2022-05-26T07:36:15Z</time>
      </trkpt>
      <trkpt lat="48.03567" lon="6.91164">
        <ele>1071</ele>
        <time>2022-05-26T07:36:18Z</time>
      </trkpt>
      <trkpt lat="48.03558" lon="6.91158">
        <ele>1070.9</ele>
        <time>2022-05-26T07:36:23Z</time>
      </trkpt>
      <trkpt lat="48.03558" lon="6.91157">
        <ele>1070.8</ele>
        <time>2022-05-26T07:36:26Z</time>
      </trkpt>
      <trkpt lat="48.03558" lon="6.91158">
        <ele>1070.9</ele>
        <time>2022-05-26T07:37:23Z</time>
      </trkpt>
      <trkpt lat="48.03557" lon="6.91156">
        <ele>1070.6</ele>
        <time>2022-05-26T07:39:08Z</time>
      </trkpt>
      <trkpt lat="48.0355" lon="6.91146">
        <ele>1069</ele>
        <time>2022-05-26T07:39:12Z</time>
      </trkpt>
      <trkpt lat="48.0354" lon="6.91134">
        <ele>1067</ele>
        <time>2022-05-26T07:39:15Z</time>
      </trkpt>
      <trkpt lat="48.03531" lon="6.91126">
        <ele>1065</ele>
        <time>2022-05-26T07:39:17Z</time>
      </trkpt>
      <trkpt lat="48.03519" lon="6.9112">
        <ele>1062.7</ele>
        <time>2022-05-26T07:39:19Z</time>
      </trkpt>
      <trkpt lat="48.03507" lon="6.91113">
        <ele>1065.5</ele>
        <time>2022-05-26T07:39:21Z</time>
      </trkpt>
      <trkpt lat="48.03498" lon="6.91102">
        <ele>1067.2</ele>
        <time>2022-05-26T07:39:23Z</time>
      </trkpt>
      <trkpt lat="48.03488" lon="6.9109">
        <ele>1063.9</ele>
        <time>2022-05-26T07:39:25Z</time>
      </trkpt>
      <trkpt lat="48.03477" lon="6.91077">
        <ele>1059.9</ele>
        <time>2022-05-26T07:39:27Z</time>
      </trkpt>
      <trkpt lat="48.03467" lon="6.9106">
        <ele>1061.5</ele>
        <time>2022-05-26T07:39:29Z</time>
      </trkpt>
      <trkpt lat="48.03458" lon="6.91045">
        <ele>1062.4</ele>
        <time>2022-05-26T07:39:31Z</time>
      </trkpt>
      <trkpt lat="48.0345" lon="6.91034">
        <ele>1063.4</ele>
        <time>2022-05-26T07:39:33Z</time>
      </trkpt>
      <trkpt lat="48.03443" lon="6.91025">
        <ele>1063.4</ele>
        <time>2022-05-26T07:39:35Z</time>
      </trkpt>
      <trkpt lat="48.03434" lon="6.91013">
        <ele>1064.5</ele>
        <time>2022-05-26T07:39:38Z</time>
      </trkpt>
      <trkpt lat="48.03428" lon="6.91002">
        <ele>1063.3</ele>
        <time>2022-05-26T07:39:41Z</time>
      </trkpt>
      <trkpt lat="48.03423" lon="6.90987">
        <ele>1062.8</ele>
        <time>2022-05-26T07:39:44Z</time>
      </trkpt>
      <trkpt lat="48.03418" lon="6.90969">
        <ele>1062.6</ele>
        <time>2022-05-26T07:39:47Z</time>
      </trkpt>
      <trkpt lat="48.03415" lon="6.90949">
        <ele>1059.9</ele>
        <time>2022-05-26T07:39:50Z</time>
      </trkpt>
      <trkpt lat="48.03413" lon="6.90934">
        <ele>1060.1</ele>
        <time>2022-05-26T07:39:52Z</time>
      </trkpt>
      <trkpt lat="48.0341" lon="6.90916">
        <ele>1061.4</ele>
        <time>2022-05-26T07:39:55Z</time>
      </trkpt>
      <trkpt lat="48.03406" lon="6.90901">
        <ele>1061.9</ele>
        <time>2022-05-26T07:39:58Z</time>
      </trkpt>
      <trkpt lat="48.03401" lon="6.90882">
        <ele>1060.5</ele>
        <time>2022-05-26T07:40:01Z</time>
      </trkpt>
      <trkpt lat="48.03397" lon="6.90866">
        <ele>1060</ele>
        <time>2022-05-26T07:40:03Z</time>
      </trkpt>
      <trkpt lat="48.03393" lon="6.9085">
        <ele>1059.6</ele>
        <time>2022-05-26T07:40:05Z</time>
      </trkpt>
      <trkpt lat="48.0339" lon="6.90837">
        <ele>1060.4</ele>
        <time>2022-05-26T07:40:07Z</time>
      </trkpt>
      <trkpt lat="48.03387" lon="6.9082">
        <ele>1060.7</ele>
        <time>2022-05-26T07:40:10Z</time>
      </trkpt>
      <trkpt lat="48.03385" lon="6.90804">
        <ele>1061.1</ele>
        <time>2022-05-26T07:40:13Z</time>
      </trkpt>
      <trkpt lat="48.03383" lon="6.90789">
        <ele>1060.6</ele>
        <time>2022-05-26T07:40:16Z</time>
      </trkpt>
      <trkpt lat="48.03383" lon="6.90774">
        <ele>1063</ele>
        <time>2022-05-26T07:40:19Z</time>
      </trkpt>
      <trkpt lat="48.03381" lon="6.90759">
        <ele>1063.3</ele>
        <time>2022-05-26T07:40:22Z</time>
      </trkpt>
      <trkpt lat="48.0338" lon="6.90746">
        <ele>1064</ele>
        <time>2022-05-26T07:40:25Z</time>
      </trkpt>
      <trkpt lat="48.03377" lon="6.90729">
        <ele>1064</ele>
        <time>2022-05-26T07:40:29Z</time>
      </trkpt>
      <trkpt lat="48.03377" lon="6.90715">
        <ele>1065.4</ele>
        <time>2022-05-26T07:40:33Z</time>
      </trkpt>
      <trkpt lat="48.03374" lon="6.90701">
        <ele>1068.3</ele>
        <time>2022-05-26T07:40:39Z</time>
      </trkpt>
      <trkpt lat="48.03369" lon="6.90688">
        <ele>1070.4</ele>
        <time>2022-05-26T07:40:46Z</time>
      </trkpt>
      <trkpt lat="48.03365" lon="6.90674">
        <ele>1072</ele>
        <time>2022-05-26T07:40:52Z</time>
      </trkpt>
      <trkpt lat="48.03364" lon="6.90658">
        <ele>1073.5</ele>
        <time>2022-05-26T07:40:57Z</time>
      </trkpt>
      <trkpt lat="48.03362" lon="6.90645">
        <ele>1075</ele>
        <time>2022-05-26T07:41:02Z</time>
      </trkpt>
      <trkpt lat="48.03358" lon="6.90631">
        <ele>1076.9</ele>
        <time>2022-05-26T07:41:08Z</time>
      </trkpt>
      <trkpt lat="48.03355" lon="6.90616">
        <ele>1078.1</ele>
        <time>2022-05-26T07:41:15Z</time>
      </trkpt>
      <trkpt lat="48.03356" lon="6.90602">
        <ele>1078.9</ele>
        <time>2022-05-26T07:41:21Z</time>
      </trkpt>
      <trkpt lat="48.03357" lon="6.90587">
        <ele>1080</ele>
        <time>2022-05-26T07:41:27Z</time>
      </trkpt>
      <trkpt lat="48.03359" lon="6.90572">
        <ele>1081.1</ele>
        <time>2022-05-26T07:41:33Z</time>
      </trkpt>
      <trkpt lat="48.03363" lon="6.90558">
        <ele>1082.4</ele>
        <time>2022-05-26T07:41:39Z</time>
      </trkpt>
      <trkpt lat="48.03365" lon="6.90543">
        <ele>1083.3</ele>
        <time>2022-05-26T07:41:45Z</time>
      </trkpt>
      <trkpt lat="48.03367" lon="6.90529">
        <ele>1084.6</ele>
        <time>2022-05-26T07:41:50Z</time>
      </trkpt>
      <trkpt lat="48.03371" lon="6.90517">
        <ele>1086.1</ele>
        <time>2022-05-26T07:41:55Z</time>
      </trkpt>
      <trkpt lat="48.03374" lon="6.90501">
        <ele>1087.4</ele>
        <time>2022-05-26T07:42:01Z</time>
      </trkpt>
      <trkpt lat="48.03376" lon="6.90488">
        <ele>1087.9</ele>
        <time>2022-05-26T07:42:06Z</time>
      </trkpt>
      <trkpt lat="48.03377" lon="6.90474">
        <ele>1088.6</ele>
        <time>2022-05-26T07:42:11Z</time>
      </trkpt>
      <trkpt lat="48.03377" lon="6.9046">
        <ele>1089.5</ele>
        <time>2022-05-26T07:42:16Z</time>
      </trkpt>
      <trkpt lat="48.03377" lon="6.90444">
        <ele>1088.9</ele>
        <time>2022-05-26T07:42:21Z</time>
      </trkpt>
      <trkpt lat="48.03374" lon="6.90427">
        <ele>1089.2</ele>
        <time>2022-05-26T07:42:26Z</time>
      </trkpt>
      <trkpt lat="48.03373" lon="6.90414">
        <ele>1089.9</ele>
        <time>2022-05-26T07:42:30Z</time>
      </trkpt>
      <trkpt lat="48.03371" lon="6.904">
        <ele>1089.9</ele>
        <time>2022-05-26T07:42:34Z</time>
      </trkpt>
      <trkpt lat="48.03369" lon="6.90383">
        <ele>1090</ele>
        <time>2022-05-26T07:42:38Z</time>
      </trkpt>
      <trkpt lat="48.03368" lon="6.90366">
        <ele>1090.4</ele>
        <time>2022-05-26T07:42:42Z</time>
      </trkpt>
      <trkpt lat="48.03369" lon="6.90349">
        <ele>1090.9</ele>
        <time>2022-05-26T07:42:46Z</time>
      </trkpt>
      <trkpt lat="48.03371" lon="6.90333">
        <ele>1090.7</ele>
        <time>2022-05-26T07:42:50Z</time>
      </trkpt>
      <trkpt lat="48.03374" lon="6.90316">
        <ele>1091.1</ele>
        <time>2022-05-26T07:42:55Z</time>
      </trkpt>
      <trkpt lat="48.03377" lon="6.90302">
        <ele>1091.4</ele>
        <time>2022-05-26T07:42:59Z</time>
      </trkpt>
      <trkpt lat="48.03379" lon="6.90285">
        <ele>1090.6</ele>
        <time>2022-05-26T07:43:04Z</time>
      </trkpt>
      <trkpt lat="48.0338" lon="6.90272">
        <ele>1088.6</ele>
        <time>2022-05-26T07:43:07Z</time>
      </trkpt>
      <trkpt lat="48.03385" lon="6.90258">
        <ele>1088.1</ele>
        <time>2022-05-26T07:43:11Z</time>
      </trkpt>
      <trkpt lat="48.03386" lon="6.90243">
        <ele>1085.3</ele>
        <time>2022-05-26T07:43:14Z</time>
      </trkpt>
      <trkpt lat="48.03384" lon="6.9023">
        <ele>1082.8</ele>
        <time>2022-05-26T07:43:16Z</time>
      </trkpt>
      <trkpt lat="48.03387" lon="6.90216">
        <ele>1082.6</ele>
        <time>2022-05-26T07:43:19Z</time>
      </trkpt>
      <trkpt lat="48.03396" lon="6.90209">
        <ele>1083</ele>
        <time>2022-05-26T07:43:23Z</time>
      </trkpt>
      <trkpt lat="48.03406" lon="6.90206">
        <ele>1083.3</ele>
        <time>2022-05-26T07:43:27Z</time>
      </trkpt>
      <trkpt lat="48.03414" lon="6.90196">
        <ele>1082.1</ele>
        <time>2022-05-26T07:43:31Z</time>
      </trkpt>
      <trkpt lat="48.03419" lon="6.90182">
        <ele>1081.3</ele>
        <time>2022-05-26T07:43:35Z</time>
      </trkpt>
      <trkpt lat="48.03426" lon="6.90168">
        <ele>1078</ele>
        <time>2022-05-26T07:43:38Z</time>
      </trkpt>
      <trkpt lat="48.03429" lon="6.90155">
        <ele>1078.3</ele>
        <time>2022-05-26T07:43:40Z</time>
      </trkpt>
      <trkpt lat="48.03432" lon="6.90141">
        <ele>1075.5</ele>
        <time>2022-05-26T07:43:42Z</time>
      </trkpt>
      <trkpt lat="48.03436" lon="6.90124">
        <ele>1072.5</ele>
        <time>2022-05-26T07:43:44Z</time>
      </trkpt>
      <trkpt lat="48.03438" lon="6.90099">
        <ele>1068.6</ele>
        <time>2022-05-26T07:43:46Z</time>
      </trkpt>
      <trkpt lat="48.0344" lon="6.90085">
        <ele>1067.3</ele>
        <time>2022-05-26T07:43:47Z</time>
      </trkpt>
      <trkpt lat="48.03442" lon="6.90072">
        <ele>1066.5</ele>
        <time>2022-05-26T07:43:48Z</time>
      </trkpt>
      <trkpt lat="48.0345" lon="6.90049">
        <ele>1066.2</ele>
        <time>2022-05-26T07:43:50Z</time>
      </trkpt>
      <trkpt lat="48.03455" lon="6.90024">
        <ele>1068.1</ele>
        <time>2022-05-26T07:43:52Z</time>
      </trkpt>
      <trkpt lat="48.03457" lon="6.90002">
        <ele>1067.4</ele>
        <time>2022-05-26T07:43:54Z</time>
      </trkpt>
      <trkpt lat="48.0346" lon="6.89982">
        <ele>1064.4</ele>
        <time>2022-05-26T07:43:56Z</time>
      </trkpt>
      <trkpt lat="48.03466" lon="6.89964">
        <ele>1062.8</ele>
        <time>2022-05-26T07:43:58Z</time>
      </trkpt>
      <trkpt lat="48.03474" lon="6.89947">
        <ele>1060.8</ele>
        <time>2022-05-26T07:44:00Z</time>
      </trkpt>
      <trkpt lat="48.03483" lon="6.89928">
        <ele>1060.9</ele>
        <time>2022-05-26T07:44:02Z</time>
      </trkpt>
      <trkpt lat="48.03491" lon="6.89906">
        <ele>1058.9</ele>
        <time>2022-05-26T07:44:04Z</time>
      </trkpt>
      <trkpt lat="48.03497" lon="6.89885">
        <ele>1058.4</ele>
        <time>2022-05-26T07:44:06Z</time>
      </trkpt>
      <trkpt lat="48.03501" lon="6.89866">
        <ele>1058.4</ele>
        <time>2022-05-26T07:44:08Z</time>
      </trkpt>
      <trkpt lat="48.03495" lon="6.89853">
        <ele>1058.3</ele>
        <time>2022-05-26T07:44:11Z</time>
      </trkpt>
      <trkpt lat="48.03487" lon="6.89844">
        <ele>1057.5</ele>
        <time>2022-05-26T07:44:14Z</time>
      </trkpt>
      <trkpt lat="48.03475" lon="6.89838">
        <ele>1056.1</ele>
        <time>2022-05-26T07:44:17Z</time>
      </trkpt>
      <trkpt lat="48.03463" lon="6.8984">
        <ele>1056.4</ele>
        <time>2022-05-26T07:44:20Z</time>
      </trkpt>
      <trkpt lat="48.03452" lon="6.89843">
        <ele>1058.1</ele>
        <time>2022-05-26T07:44:23Z</time>
      </trkpt>
      <trkpt lat="48.03441" lon="6.89846">
        <ele>1057.5</ele>
        <time>2022-05-26T07:44:26Z</time>
      </trkpt>
      <trkpt lat="48.03431" lon="6.89847">
        <ele>1057.1</ele>
        <time>2022-05-26T07:44:29Z</time>
      </trkpt>
      <trkpt lat="48.03421" lon="6.89846">
        <ele>1057.7</ele>
        <time>2022-05-26T07:44:33Z</time>
      </trkpt>
      <trkpt lat="48.03412" lon="6.89842">
        <ele>1058.4</ele>
        <time>2022-05-26T07:44:37Z</time>
      </trkpt>
      <trkpt lat="48.03401" lon="6.89837">
        <ele>1057.6</ele>
        <time>2022-05-26T07:44:41Z</time>
      </trkpt>
      <trkpt lat="48.03392" lon="6.89832">
        <ele>1058.4</ele>
        <time>2022-05-26T07:44:45Z</time>
      </trkpt>
      <trkpt lat="48.03384" lon="6.89824">
        <ele>1058.7</ele>
        <time>2022-05-26T07:44:49Z</time>
      </trkpt>
      <trkpt lat="48.03374" lon="6.89819">
        <ele>1058.1</ele>
        <time>2022-05-26T07:44:54Z</time>
      </trkpt>
      <trkpt lat="48.03366" lon="6.89815">
        <ele>1056.9</ele>
        <time>2022-05-26T07:45:00Z</time>
      </trkpt>
      <trkpt lat="48.03366" lon="6.89814">
        <ele>1056.5</ele>
        <time>2022-05-26T07:45:20Z</time>
      </trkpt>
      <trkpt lat="48.03367" lon="6.89814">
        <ele>1057.7</ele>
        <time>2022-05-26T07:47:57Z</time>
      </trkpt>
      <trkpt lat="48.03376" lon="6.89818">
        <ele>1058</ele>
        <time>2022-05-26T07:48:05Z</time>
      </trkpt>
      <trkpt lat="48.03378" lon="6.89823">
        <ele>1058.8</ele>
        <time>2022-05-26T07:48:15Z</time>
      </trkpt>
      <trkpt lat="48.03379" lon="6.89823">
        <ele>1058.6</ele>
        <time>2022-05-26T07:48:33Z</time>
      </trkpt>
      <trkpt lat="48.03382" lon="6.89821">
        <ele>1058.6</ele>
        <time>2022-05-26T07:48:55Z</time>
      </trkpt>
      <trkpt lat="48.03381" lon="6.89821">
        <ele>1058.4</ele>
        <time>2022-05-26T07:49:40Z</time>
      </trkpt>
      <trkpt lat="48.03373" lon="6.89815">
        <ele>1056.8</ele>
        <time>2022-05-26T07:49:46Z</time>
      </trkpt>
      <trkpt lat="48.03367" lon="6.89813">
        <ele>1056.8</ele>
        <time>2022-05-26T07:49:53Z</time>
      </trkpt>
      <trkpt lat="48.03366" lon="6.89813">
        <ele>1056.4</ele>
        <time>2022-05-26T07:50:46Z</time>
      </trkpt>
      <trkpt lat="48.03366" lon="6.89814">
        <ele>1056.5</ele>
        <time>2022-05-26T07:50:51Z</time>
      </trkpt>
      <trkpt lat="48.03366" lon="6.89813">
        <ele>1056.3</ele>
        <time>2022-05-26T07:51:08Z</time>
      </trkpt>
      <trkpt lat="48.03358" lon="6.89803">
        <ele>1054</ele>
        <time>2022-05-26T07:51:12Z</time>
      </trkpt>
      <trkpt lat="48.0335" lon="6.89793">
        <ele>1055.3</ele>
        <time>2022-05-26T07:51:15Z</time>
      </trkpt>
      <trkpt lat="48.03341" lon="6.89783">
        <ele>1054.2</ele>
        <time>2022-05-26T07:51:18Z</time>
      </trkpt>
      <trkpt lat="48.03333" lon="6.89775">
        <ele>1053.6</ele>
        <time>2022-05-26T07:51:21Z</time>
      </trkpt>
      <trkpt lat="48.03324" lon="6.89767">
        <ele>1054.6</ele>
        <time>2022-05-26T07:51:25Z</time>
      </trkpt>
      <trkpt lat="48.03317" lon="6.89757">
        <ele>1053.2</ele>
        <time>2022-05-26T07:51:28Z</time>
      </trkpt>
      <trkpt lat="48.03308" lon="6.89744">
        <ele>1053.4</ele>
        <time>2022-05-26T07:51:31Z</time>
      </trkpt>
      <trkpt lat="48.03301" lon="6.89734">
        <ele>1051.2</ele>
        <time>2022-05-26T07:51:33Z</time>
      </trkpt>
      <trkpt lat="48.03291" lon="6.89723">
        <ele>1049.1</ele>
        <time>2022-05-26T07:51:35Z</time>
      </trkpt>
      <trkpt lat="48.03284" lon="6.89709">
        <ele>1049.9</ele>
        <time>2022-05-26T07:51:37Z</time>
      </trkpt>
      <trkpt lat="48.03275" lon="6.89696">
        <ele>1048.4</ele>
        <time>2022-05-26T07:51:39Z</time>
      </trkpt>
      <trkpt lat="48.03264" lon="6.89686">
        <ele>1048</ele>
        <time>2022-05-26T07:51:41Z</time>
      </trkpt>
      <trkpt lat="48.03252" lon="6.89679">
        <ele>1047.2</ele>
        <time>2022-05-26T07:51:43Z</time>
      </trkpt>
      <trkpt lat="48.0324" lon="6.89676">
        <ele>1046.9</ele>
        <time>2022-05-26T07:51:45Z</time>
      </trkpt>
      <trkpt lat="48.03229" lon="6.89674">
        <ele>1047.5</ele>
        <time>2022-05-26T07:51:47Z</time>
      </trkpt>
      <trkpt lat="48.03218" lon="6.89667">
        <ele>1047</ele>
        <time>2022-05-26T07:51:49Z</time>
      </trkpt>
      <trkpt lat="48.03209" lon="6.89656">
        <ele>1042.7</ele>
        <time>2022-05-26T07:51:51Z</time>
      </trkpt>
      <trkpt lat="48.032" lon="6.89643">
        <ele>1041.2</ele>
        <time>2022-05-26T07:51:53Z</time>
      </trkpt>
      <trkpt lat="48.03191" lon="6.89628">
        <ele>1040.8</ele>
        <time>2022-05-26T07:51:55Z</time>
      </trkpt>
      <trkpt lat="48.0318" lon="6.89613">
        <ele>1041.3</ele>
        <time>2022-05-26T07:51:57Z</time>
      </trkpt>
      <trkpt lat="48.03169" lon="6.89598">
        <ele>1039.9</ele>
        <time>2022-05-26T07:51:59Z</time>
      </trkpt>
      <trkpt lat="48.03156" lon="6.89582">
        <ele>1034.5</ele>
        <time>2022-05-26T07:52:01Z</time>
      </trkpt>
      <trkpt lat="48.03142" lon="6.89567">
        <ele>1032.3</ele>
        <time>2022-05-26T07:52:03Z</time>
      </trkpt>
      <trkpt lat="48.03128" lon="6.8955">
        <ele>1033.7</ele>
        <time>2022-05-26T07:52:05Z</time>
      </trkpt>
      <trkpt lat="48.03116" lon="6.89531">
        <ele>1031.8</ele>
        <time>2022-05-26T07:52:07Z</time>
      </trkpt>
      <trkpt lat="48.03104" lon="6.89512">
        <ele>1032.7</ele>
        <time>2022-05-26T07:52:09Z</time>
      </trkpt>
      <trkpt lat="48.03097" lon="6.89502">
        <ele>1032.8</ele>
        <time>2022-05-26T07:52:10Z</time>
      </trkpt>
      <trkpt lat="48.03091" lon="6.89491">
        <ele>1030.6</ele>
        <time>2022-05-26T07:52:11Z</time>
      </trkpt>
      <trkpt lat="48.03085" lon="6.8948">
        <ele>1028</ele>
        <time>2022-05-26T07:52:12Z</time>
      </trkpt>
      <trkpt lat="48.0308" lon="6.89468">
        <ele>1027.4</ele>
        <time>2022-05-26T07:52:13Z</time>
      </trkpt>
      <trkpt lat="48.03075" lon="6.89457">
        <ele>1027.4</ele>
        <time>2022-05-26T07:52:14Z</time>
      </trkpt>
      <trkpt lat="48.03069" lon="6.89447">
        <ele>1028.2</ele>
        <time>2022-05-26T07:52:15Z</time>
      </trkpt>
      <trkpt lat="48.03059" lon="6.89426">
        <ele>1027.7</ele>
        <time>2022-05-26T07:52:17Z</time>
      </trkpt>
      <trkpt lat="48.0305" lon="6.89404">
        <ele>1023.2</ele>
        <time>2022-05-26T07:52:19Z</time>
      </trkpt>
      <trkpt lat="48.03045" lon="6.89392">
        <ele>1021.8</ele>
        <time>2022-05-26T07:52:20Z</time>
      </trkpt>
      <trkpt lat="48.03041" lon="6.8938">
        <ele>1021.9</ele>
        <time>2022-05-26T07:52:21Z</time>
      </trkpt>
      <trkpt lat="48.03031" lon="6.89358">
        <ele>1018.4</ele>
        <time>2022-05-26T07:52:23Z</time>
      </trkpt>
      <trkpt lat="48.0302" lon="6.8934">
        <ele>1021.4</ele>
        <time>2022-05-26T07:52:25Z</time>
      </trkpt>
      <trkpt lat="48.03005" lon="6.89327">
        <ele>1021.6</ele>
        <time>2022-05-26T07:52:27Z</time>
      </trkpt>
      <trkpt lat="48.02997" lon="6.89321">
        <ele>1022</ele>
        <time>2022-05-26T07:52:28Z</time>
      </trkpt>
      <trkpt lat="48.02988" lon="6.89316">
        <ele>1020.6</ele>
        <time>2022-05-26T07:52:29Z</time>
      </trkpt>
      <trkpt lat="48.02979" lon="6.89312">
        <ele>1021.2</ele>
        <time>2022-05-26T07:52:30Z</time>
      </trkpt>
      <trkpt lat="48.0297" lon="6.89309">
        <ele>1018.7</ele>
        <time>2022-05-26T07:52:31Z</time>
      </trkpt>
      <trkpt lat="48.02961" lon="6.89306">
        <ele>1016.6</ele>
        <time>2022-05-26T07:52:32Z</time>
      </trkpt>
      <trkpt lat="48.02945" lon="6.89299">
        <ele>1016.1</ele>
        <time>2022-05-26T07:52:34Z</time>
      </trkpt>
      <trkpt lat="48.02931" lon="6.89288">
        <ele>1012.4</ele>
        <time>2022-05-26T07:52:36Z</time>
      </trkpt>
      <trkpt lat="48.02917" lon="6.89273">
        <ele>1010.1</ele>
        <time>2022-05-26T07:52:38Z</time>
      </trkpt>
      <trkpt lat="48.02904" lon="6.89257">
        <ele>1008.8</ele>
        <time>2022-05-26T07:52:40Z</time>
      </trkpt>
      <trkpt lat="48.02898" lon="6.89247">
        <ele>1006.7</ele>
        <time>2022-05-26T07:52:41Z</time>
      </trkpt>
      <trkpt lat="48.02892" lon="6.89237">
        <ele>1002.8</ele>
        <time>2022-05-26T07:52:42Z</time>
      </trkpt>
      <trkpt lat="48.02886" lon="6.89226">
        <ele>1001.9</ele>
        <time>2022-05-26T07:52:43Z</time>
      </trkpt>
      <trkpt lat="48.02879" lon="6.89215">
        <ele>998</ele>
        <time>2022-05-26T07:52:44Z</time>
      </trkpt>
      <trkpt lat="48.02872" lon="6.89204">
        <ele>996.3</ele>
        <time>2022-05-26T07:52:45Z</time>
      </trkpt>
      <trkpt lat="48.02865" lon="6.89193">
        <ele>993</ele>
        <time>2022-05-26T07:52:46Z</time>
      </trkpt>
      <trkpt lat="48.02858" lon="6.89181">
        <ele>994.4</ele>
        <time>2022-05-26T07:52:47Z</time>
      </trkpt>
      <trkpt lat="48.02852" lon="6.8917">
        <ele>994.2</ele>
        <time>2022-05-26T07:52:48Z</time>
      </trkpt>
      <trkpt lat="48.02847" lon="6.89158">
        <ele>995</ele>
        <time>2022-05-26T07:52:49Z</time>
      </trkpt>
      <trkpt lat="48.02842" lon="6.89146">
        <ele>993.5</ele>
        <time>2022-05-26T07:52:50Z</time>
      </trkpt>
      <trkpt lat="48.02838" lon="6.89133">
        <ele>993.6</ele>
        <time>2022-05-26T07:52:51Z</time>
      </trkpt>
      <trkpt lat="48.02833" lon="6.8912">
        <ele>990.3</ele>
        <time>2022-05-26T07:52:52Z</time>
      </trkpt>
      <trkpt lat="48.02828" lon="6.89107">
        <ele>990.5</ele>
        <time>2022-05-26T07:52:53Z</time>
      </trkpt>
      <trkpt lat="48.02823" lon="6.89094">
        <ele>988.9</ele>
        <time>2022-05-26T07:52:54Z</time>
      </trkpt>
      <trkpt lat="48.02818" lon="6.8908">
        <ele>988.9</ele>
        <time>2022-05-26T07:52:55Z</time>
      </trkpt>
      <trkpt lat="48.02813" lon="6.89068">
        <ele>987.1</ele>
        <time>2022-05-26T07:52:56Z</time>
      </trkpt>
      <trkpt lat="48.02807" lon="6.89055">
        <ele>985.8</ele>
        <time>2022-05-26T07:52:57Z</time>
      </trkpt>
      <trkpt lat="48.02801" lon="6.89043">
        <ele>986.4</ele>
        <time>2022-05-26T07:52:58Z</time>
      </trkpt>
      <trkpt lat="48.02794" lon="6.89031">
        <ele>987.6</ele>
        <time>2022-05-26T07:52:59Z</time>
      </trkpt>
      <trkpt lat="48.02787" lon="6.89018">
        <ele>985.7</ele>
        <time>2022-05-26T07:53:00Z</time>
      </trkpt>
      <trkpt lat="48.02781" lon="6.89005">
        <ele>983.8</ele>
        <time>2022-05-26T07:53:01Z</time>
      </trkpt>
      <trkpt lat="48.02776" lon="6.88991">
        <ele>980.8</ele>
        <time>2022-05-26T07:53:02Z</time>
      </trkpt>
      <trkpt lat="48.02771" lon="6.88977">
        <ele>978.3</ele>
        <time>2022-05-26T07:53:03Z</time>
      </trkpt>
      <trkpt lat="48.02766" lon="6.88963">
        <ele>978</ele>
        <time>2022-05-26T07:53:04Z</time>
      </trkpt>
      <trkpt lat="48.02763" lon="6.88948">
        <ele>979</ele>
        <time>2022-05-26T07:53:05Z</time>
      </trkpt>
      <trkpt lat="48.0276" lon="6.88933">
        <ele>978.9</ele>
        <time>2022-05-26T07:53:06Z</time>
      </trkpt>
      <trkpt lat="48.02757" lon="6.88918">
        <ele>978.2</ele>
        <time>2022-05-26T07:53:07Z</time>
      </trkpt>
      <trkpt lat="48.02753" lon="6.88904">
        <ele>978.4</ele>
        <time>2022-05-26T07:53:08Z</time>
      </trkpt>
      <trkpt lat="48.02749" lon="6.8889">
        <ele>979.7</ele>
        <time>2022-05-26T07:53:09Z</time>
      </trkpt>
      <trkpt lat="48.02744" lon="6.88877">
        <ele>979</ele>
        <time>2022-05-26T07:53:10Z</time>
      </trkpt>
      <trkpt lat="48.0274" lon="6.88864">
        <ele>978.6</ele>
        <time>2022-05-26T07:53:11Z</time>
      </trkpt>
      <trkpt lat="48.02733" lon="6.8884">
        <ele>976.5</ele>
        <time>2022-05-26T07:53:13Z</time>
      </trkpt>
      <trkpt lat="48.02728" lon="6.88817">
        <ele>974.5</ele>
        <time>2022-05-26T07:53:15Z</time>
      </trkpt>
      <trkpt lat="48.02723" lon="6.88794">
        <ele>975.8</ele>
        <time>2022-05-26T07:53:17Z</time>
      </trkpt>
      <trkpt lat="48.02713" lon="6.88776">
        <ele>978</ele>
        <time>2022-05-26T07:53:19Z</time>
      </trkpt>
      <trkpt lat="48.027" lon="6.88762">
        <ele>978.4</ele>
        <time>2022-05-26T07:53:21Z</time>
      </trkpt>
      <trkpt lat="48.0269" lon="6.88742">
        <ele>974.8</ele>
        <time>2022-05-26T07:53:23Z</time>
      </trkpt>
      <trkpt lat="48.02685" lon="6.8873">
        <ele>974</ele>
        <time>2022-05-26T07:53:24Z</time>
      </trkpt>
      <trkpt lat="48.0268" lon="6.88719">
        <ele>971.8</ele>
        <time>2022-05-26T07:53:25Z</time>
      </trkpt>
      <trkpt lat="48.02674" lon="6.88708">
        <ele>971.5</ele>
        <time>2022-05-26T07:53:26Z</time>
      </trkpt>
      <trkpt lat="48.02661" lon="6.88692">
        <ele>968.2</ele>
        <time>2022-05-26T07:53:28Z</time>
      </trkpt>
      <trkpt lat="48.02651" lon="6.88677">
        <ele>965.4</ele>
        <time>2022-05-26T07:53:30Z</time>
      </trkpt>
      <trkpt lat="48.02647" lon="6.88663">
        <ele>967.9</ele>
        <time>2022-05-26T07:53:32Z</time>
      </trkpt>
      <trkpt lat="48.02647" lon="6.88644">
        <ele>966.1</ele>
        <time>2022-05-26T07:53:35Z</time>
      </trkpt>
      <trkpt lat="48.02645" lon="6.88629">
        <ele>963</ele>
        <time>2022-05-26T07:53:37Z</time>
      </trkpt>
      <trkpt lat="48.02641" lon="6.88613">
        <ele>962</ele>
        <time>2022-05-26T07:53:39Z</time>
      </trkpt>
      <trkpt lat="48.02638" lon="6.88596">
        <ele>960.2</ele>
        <time>2022-05-26T07:53:41Z</time>
      </trkpt>
      <trkpt lat="48.02636" lon="6.88578">
        <ele>961</ele>
        <time>2022-05-26T07:53:44Z</time>
      </trkpt>
      <trkpt lat="48.0264" lon="6.88564">
        <ele>961.8</ele>
        <time>2022-05-26T07:53:48Z</time>
      </trkpt>
      <trkpt lat="48.02644" lon="6.8855">
        <ele>962.6</ele>
        <time>2022-05-26T07:53:53Z</time>
      </trkpt>
      <trkpt lat="48.02648" lon="6.88536">
        <ele>963.5</ele>
        <time>2022-05-26T07:54:00Z</time>
      </trkpt>
      <trkpt lat="48.0265" lon="6.88521">
        <ele>963.3</ele>
        <time>2022-05-26T07:54:05Z</time>
      </trkpt>
      <trkpt lat="48.02654" lon="6.88505">
        <ele>962.4</ele>
        <time>2022-05-26T07:54:09Z</time>
      </trkpt>
      <trkpt lat="48.02658" lon="6.88492">
        <ele>963</ele>
        <time>2022-05-26T07:54:12Z</time>
      </trkpt>
      <trkpt lat="48.02662" lon="6.88478">
        <ele>963.2</ele>
        <time>2022-05-26T07:54:15Z</time>
      </trkpt>
      <trkpt lat="48.02667" lon="6.88463">
        <ele>963.2</ele>
        <time>2022-05-26T07:54:18Z</time>
      </trkpt>
      <trkpt lat="48.02671" lon="6.88447">
        <ele>963.9</ele>
        <time>2022-05-26T07:54:21Z</time>
      </trkpt>
      <trkpt lat="48.02675" lon="6.88432">
        <ele>964.3</ele>
        <time>2022-05-26T07:54:24Z</time>
      </trkpt>
      <trkpt lat="48.02682" lon="6.88423">
        <ele>966.2</ele>
        <time>2022-05-26T07:54:31Z</time>
      </trkpt>
      <trkpt lat="48.02683" lon="6.88423">
        <ele>965.7</ele>
        <time>2022-05-26T07:55:06Z</time>
      </trkpt>
      <trkpt lat="48.0268" lon="6.88426">
        <ele>965.4</ele>
        <time>2022-05-26T07:57:30Z</time>
      </trkpt>
      <trkpt lat="48.0268" lon="6.88427">
        <ele>964.9</ele>
        <time>2022-05-26T08:00:43Z</time>
      </trkpt>
      <trkpt lat="48.02672" lon="6.88437">
        <ele>964.4</ele>
        <time>2022-05-26T08:02:21Z</time>
      </trkpt>
      <trkpt lat="48.02667" lon="6.88452">
        <ele>964.2</ele>
        <time>2022-05-26T08:02:25Z</time>
      </trkpt>
      <trkpt lat="48.02663" lon="6.88465">
        <ele>964</ele>
        <time>2022-05-26T08:02:28Z</time>
      </trkpt>
      <trkpt lat="48.02658" lon="6.8848">
        <ele>963.6</ele>
        <time>2022-05-26T08:02:31Z</time>
      </trkpt>
      <trkpt lat="48.02655" lon="6.88494">
        <ele>963.8</ele>
        <time>2022-05-26T08:02:34Z</time>
      </trkpt>
      <trkpt lat="48.0265" lon="6.88509">
        <ele>963.8</ele>
        <time>2022-05-26T08:02:37Z</time>
      </trkpt>
      <trkpt lat="48.02646" lon="6.88527">
        <ele>963.1</ele>
        <time>2022-05-26T08:02:40Z</time>
      </trkpt>
      <trkpt lat="48.02642" lon="6.88545">
        <ele>962.2</ele>
        <time>2022-05-26T08:02:43Z</time>
      </trkpt>
      <trkpt lat="48.02638" lon="6.8856">
        <ele>962.1</ele>
        <time>2022-05-26T08:02:45Z</time>
      </trkpt>
      <trkpt lat="48.02634" lon="6.88574">
        <ele>961.3</ele>
        <time>2022-05-26T08:02:47Z</time>
      </trkpt>
      <trkpt lat="48.02626" lon="6.88581">
        <ele>960.4</ele>
        <time>2022-05-26T08:02:49Z</time>
      </trkpt>
      <trkpt lat="48.02615" lon="6.88581">
        <ele>958.9</ele>
        <time>2022-05-26T08:02:51Z</time>
      </trkpt>
      <trkpt lat="48.02604" lon="6.88576">
        <ele>957.7</ele>
        <time>2022-05-26T08:02:53Z</time>
      </trkpt>
      <trkpt lat="48.02592" lon="6.8857">
        <ele>957.5</ele>
        <time>2022-05-26T08:02:55Z</time>
      </trkpt>
      <trkpt lat="48.0258" lon="6.88563">
        <ele>957.3</ele>
        <time>2022-05-26T08:02:57Z</time>
      </trkpt>
      <trkpt lat="48.0257" lon="6.88555">
        <ele>958.2</ele>
        <time>2022-05-26T08:02:59Z</time>
      </trkpt>
      <trkpt lat="48.02562" lon="6.88541">
        <ele>956.9</ele>
        <time>2022-05-26T08:03:01Z</time>
      </trkpt>
      <trkpt lat="48.02557" lon="6.88525">
        <ele>954.6</ele>
        <time>2022-05-26T08:03:03Z</time>
      </trkpt>
      <trkpt lat="48.02554" lon="6.88508">
        <ele>957.8</ele>
        <time>2022-05-26T08:03:05Z</time>
      </trkpt>
      <trkpt lat="48.0255" lon="6.88493">
        <ele>955.9</ele>
        <time>2022-05-26T08:03:07Z</time>
      </trkpt>
      <trkpt lat="48.02546" lon="6.88479">
        <ele>955.2</ele>
        <time>2022-05-26T08:03:09Z</time>
      </trkpt>
      <trkpt lat="48.02539" lon="6.88467">
        <ele>956.7</ele>
        <time>2022-05-26T08:03:12Z</time>
      </trkpt>
      <trkpt lat="48.0253" lon="6.88457">
        <ele>957.4</ele>
        <time>2022-05-26T08:03:16Z</time>
      </trkpt>
      <trkpt lat="48.0252" lon="6.88447">
        <ele>958.3</ele>
        <time>2022-05-26T08:03:20Z</time>
      </trkpt>
      <trkpt lat="48.0251" lon="6.88441">
        <ele>958.7</ele>
        <time>2022-05-26T08:03:23Z</time>
      </trkpt>
      <trkpt lat="48.02501" lon="6.88436">
        <ele>957.9</ele>
        <time>2022-05-26T08:03:26Z</time>
      </trkpt>
      <trkpt lat="48.02491" lon="6.88434">
        <ele>957.8</ele>
        <time>2022-05-26T08:03:29Z</time>
      </trkpt>
      <trkpt lat="48.02481" lon="6.88433">
        <ele>958.4</ele>
        <time>2022-05-26T08:03:32Z</time>
      </trkpt>
      <trkpt lat="48.02471" lon="6.88434">
        <ele>958.8</ele>
        <time>2022-05-26T08:03:35Z</time>
      </trkpt>
      <trkpt lat="48.02461" lon="6.88439">
        <ele>958.7</ele>
        <time>2022-05-26T08:03:38Z</time>
      </trkpt>
      <trkpt lat="48.0245" lon="6.88442">
        <ele>957.8</ele>
        <time>2022-05-26T08:03:41Z</time>
      </trkpt>
      <trkpt lat="48.02439" lon="6.88441">
        <ele>957.8</ele>
        <time>2022-05-26T08:03:44Z</time>
      </trkpt>
      <trkpt lat="48.02429" lon="6.88433">
        <ele>956.8</ele>
        <time>2022-05-26T08:03:47Z</time>
      </trkpt>
      <trkpt lat="48.0242" lon="6.88422">
        <ele>954.4</ele>
        <time>2022-05-26T08:03:49Z</time>
      </trkpt>
      <trkpt lat="48.02408" lon="6.88407">
        <ele>950.3</ele>
        <time>2022-05-26T08:03:51Z</time>
      </trkpt>
      <trkpt lat="48.02394" lon="6.88398">
        <ele>953.8</ele>
        <time>2022-05-26T08:03:53Z</time>
      </trkpt>
      <trkpt lat="48.02382" lon="6.88395">
        <ele>953.8</ele>
        <time>2022-05-26T08:03:55Z</time>
      </trkpt>
      <trkpt lat="48.0237" lon="6.88392">
        <ele>955.4</ele>
        <time>2022-05-26T08:03:58Z</time>
      </trkpt>
      <trkpt lat="48.02361" lon="6.88391">
        <ele>957.6</ele>
        <time>2022-05-26T08:04:01Z</time>
      </trkpt>
      <trkpt lat="48.02351" lon="6.88392">
        <ele>956.5</ele>
        <time>2022-05-26T08:04:05Z</time>
      </trkpt>
      <trkpt lat="48.02342" lon="6.88395">
        <ele>959.3</ele>
        <time>2022-05-26T08:04:10Z</time>
      </trkpt>
      <trkpt lat="48.02333" lon="6.88404">
        <ele>959</ele>
        <time>2022-05-26T08:04:15Z</time>
      </trkpt>
      <trkpt lat="48.02325" lon="6.88411">
        <ele>960.9</ele>
        <time>2022-05-26T08:04:19Z</time>
      </trkpt>
      <trkpt lat="48.02316" lon="6.88418">
        <ele>961.9</ele>
        <time>2022-05-26T08:04:24Z</time>
      </trkpt>
      <trkpt lat="48.02306" lon="6.88421">
        <ele>962.7</ele>
        <time>2022-05-26T08:04:29Z</time>
      </trkpt>
      <trkpt lat="48.02297" lon="6.88418">
        <ele>962.9</ele>
        <time>2022-05-26T08:04:34Z</time>
      </trkpt>
      <trkpt lat="48.02286" lon="6.88413">
        <ele>962.4</ele>
        <time>2022-05-26T08:04:39Z</time>
      </trkpt>
      <trkpt lat="48.02277" lon="6.88408">
        <ele>961.9</ele>
        <time>2022-05-26T08:04:43Z</time>
      </trkpt>
      <trkpt lat="48.0227" lon="6.884">
        <ele>962.6</ele>
        <time>2022-05-26T08:04:48Z</time>
      </trkpt>
      <trkpt lat="48.02269" lon="6.884">
        <ele>962.1</ele>
        <time>2022-05-26T08:04:51Z</time>
      </trkpt>
      <trkpt lat="48.0226" lon="6.88396">
        <ele>959.9</ele>
        <time>2022-05-26T08:04:55Z</time>
      </trkpt>
      <trkpt lat="48.02251" lon="6.88389">
        <ele>958.4</ele>
        <time>2022-05-26T08:04:57Z</time>
      </trkpt>
      <trkpt lat="48.0224" lon="6.88382">
        <ele>956.1</ele>
        <time>2022-05-26T08:04:59Z</time>
      </trkpt>
      <trkpt lat="48.02228" lon="6.88376">
        <ele>955.6</ele>
        <time>2022-05-26T08:05:01Z</time>
      </trkpt>
      <trkpt lat="48.02216" lon="6.88371">
        <ele>956.5</ele>
        <time>2022-05-26T08:05:03Z</time>
      </trkpt>
      <trkpt lat="48.02207" lon="6.88366">
        <ele>958.2</ele>
        <time>2022-05-26T08:05:05Z</time>
      </trkpt>
      <trkpt lat="48.022" lon="6.88355">
        <ele>960.3</ele>
        <time>2022-05-26T08:05:09Z</time>
      </trkpt>
      <trkpt lat="48.02196" lon="6.88342">
        <ele>962.2</ele>
        <time>2022-05-26T08:05:14Z</time>
      </trkpt>
      <trkpt lat="48.02188" lon="6.88333">
        <ele>961.7</ele>
        <time>2022-05-26T08:05:22Z</time>
      </trkpt>
      <trkpt lat="48.02182" lon="6.88329">
        <ele>964.3</ele>
        <time>2022-05-26T08:05:28Z</time>
      </trkpt>
      <trkpt lat="48.02182" lon="6.8833">
        <ele>964</ele>
        <time>2022-05-26T08:05:31Z</time>
      </trkpt>
      <trkpt lat="48.02183" lon="6.8833">
        <ele>964.1</ele>
        <time>2022-05-26T08:05:36Z</time>
      </trkpt>
      <trkpt lat="48.02192" lon="6.88334">
        <ele>963</ele>
        <time>2022-05-26T08:05:47Z</time>
      </trkpt>
      <trkpt lat="48.02199" lon="6.88339">
        <ele>963</ele>
        <time>2022-05-26T08:05:57Z</time>
      </trkpt>
      <trkpt lat="48.022" lon="6.8834">
        <ele>963.1</ele>
        <time>2022-05-26T08:06:08Z</time>
      </trkpt>
      <trkpt lat="48.02209" lon="6.88348">
        <ele>962</ele>
        <time>2022-05-26T08:06:13Z</time>
      </trkpt>
      <trkpt lat="48.0222" lon="6.88355">
        <ele>960.3</ele>
        <time>2022-05-26T08:06:17Z</time>
      </trkpt>
      <trkpt lat="48.0223" lon="6.8836">
        <ele>961.3</ele>
        <time>2022-05-26T08:06:20Z</time>
      </trkpt>
      <trkpt lat="48.0224" lon="6.88366">
        <ele>962</ele>
        <time>2022-05-26T08:06:23Z</time>
      </trkpt>
      <trkpt lat="48.0225" lon="6.88373">
        <ele>961.8</ele>
        <time>2022-05-26T08:06:27Z</time>
      </trkpt>
      <trkpt lat="48.02259" lon="6.88382">
        <ele>962.4</ele>
        <time>2022-05-26T08:06:31Z</time>
      </trkpt>
      <trkpt lat="48.02266" lon="6.88394">
        <ele>960.3</ele>
        <time>2022-05-26T08:06:35Z</time>
      </trkpt>
      <trkpt lat="48.02272" lon="6.88404">
        <ele>962.3</ele>
        <time>2022-05-26T08:06:39Z</time>
      </trkpt>
      <trkpt lat="48.0228" lon="6.88414">
        <ele>962.6</ele>
        <time>2022-05-26T08:06:44Z</time>
      </trkpt>
      <trkpt lat="48.02271" lon="6.88404">
        <ele>962.6</ele>
        <time>2022-05-26T08:07:00Z</time>
      </trkpt>
      <trkpt lat="48.0226" lon="6.88395">
        <ele>960.1</ele>
        <time>2022-05-26T08:07:03Z</time>
      </trkpt>
      <trkpt lat="48.02249" lon="6.88386">
        <ele>956.8</ele>
        <time>2022-05-26T08:07:05Z</time>
      </trkpt>
      <trkpt lat="48.0224" lon="6.88381">
        <ele>958.1</ele>
        <time>2022-05-26T08:07:07Z</time>
      </trkpt>
      <trkpt lat="48.02246" lon="6.88397">
        <ele>954.6</ele>
        <time>2022-05-26T08:07:13Z</time>
      </trkpt>
      <trkpt lat="48.02253" lon="6.88407">
        <ele>953.8</ele>
        <time>2022-05-26T08:07:15Z</time>
      </trkpt>
      <trkpt lat="48.02252" lon="6.88421">
        <ele>954.2</ele>
        <time>2022-05-26T08:07:19Z</time>
      </trkpt>
      <trkpt lat="48.02243" lon="6.88411">
        <ele>954.1</ele>
        <time>2022-05-26T08:07:23Z</time>
      </trkpt>
      <trkpt lat="48.02236" lon="6.88402">
        <ele>954.2</ele>
        <time>2022-05-26T08:07:26Z</time>
      </trkpt>
      <trkpt lat="48.02228" lon="6.88394">
        <ele>953.9</ele>
        <time>2022-05-26T08:07:29Z</time>
      </trkpt>
      <trkpt lat="48.02219" lon="6.88388">
        <ele>953.9</ele>
        <time>2022-05-26T08:07:32Z</time>
      </trkpt>
      <trkpt lat="48.0221" lon="6.88383">
        <ele>953.9</ele>
        <time>2022-05-26T08:07:35Z</time>
      </trkpt>
      <trkpt lat="48.02199" lon="6.88377">
        <ele>953.7</ele>
        <time>2022-05-26T08:07:38Z</time>
      </trkpt>
      <trkpt lat="48.02188" lon="6.8837">
        <ele>952.9</ele>
        <time>2022-05-26T08:07:41Z</time>
      </trkpt>
      <trkpt lat="48.0218" lon="6.88363">
        <ele>952.5</ele>
        <time>2022-05-26T08:07:43Z</time>
      </trkpt>
      <trkpt lat="48.02171" lon="6.88355">
        <ele>952.3</ele>
        <time>2022-05-26T08:07:45Z</time>
      </trkpt>
      <trkpt lat="48.02163" lon="6.88348">
        <ele>951.6</ele>
        <time>2022-05-26T08:07:47Z</time>
      </trkpt>
      <trkpt lat="48.02155" lon="6.88341">
        <ele>950.6</ele>
        <time>2022-05-26T08:07:49Z</time>
      </trkpt>
      <trkpt lat="48.02146" lon="6.88335">
        <ele>950.3</ele>
        <time>2022-05-26T08:07:51Z</time>
      </trkpt>
      <trkpt lat="48.02136" lon="6.8833">
        <ele>950.4</ele>
        <time>2022-05-26T08:07:53Z</time>
      </trkpt>
      <trkpt lat="48.02127" lon="6.88324">
        <ele>950.8</ele>
        <time>2022-05-26T08:07:55Z</time>
      </trkpt>
      <trkpt lat="48.02115" lon="6.88318">
        <ele>951.2</ele>
        <time>2022-05-26T08:07:58Z</time>
      </trkpt>
      <trkpt lat="48.02103" lon="6.88311">
        <ele>951.5</ele>
        <time>2022-05-26T08:08:01Z</time>
      </trkpt>
      <trkpt lat="48.02091" lon="6.88305">
        <ele>951.6</ele>
        <time>2022-05-26T08:08:04Z</time>
      </trkpt>
      <trkpt lat="48.02079" lon="6.88299">
        <ele>951.3</ele>
        <time>2022-05-26T08:08:07Z</time>
      </trkpt>
      <trkpt lat="48.02066" lon="6.88294">
        <ele>951.3</ele>
        <time>2022-05-26T08:08:10Z</time>
      </trkpt>
      <trkpt lat="48.02054" lon="6.8829">
        <ele>950.3</ele>
        <time>2022-05-26T08:08:13Z</time>
      </trkpt>
      <trkpt lat="48.02045" lon="6.88287">
        <ele>949.5</ele>
        <time>2022-05-26T08:08:15Z</time>
      </trkpt>
      <trkpt lat="48.02036" lon="6.88281">
        <ele>949.9</ele>
        <time>2022-05-26T08:08:17Z</time>
      </trkpt>
      <trkpt lat="48.02027" lon="6.88273">
        <ele>950.5</ele>
        <time>2022-05-26T08:08:19Z</time>
      </trkpt>
      <trkpt lat="48.0202" lon="6.88264">
        <ele>950</ele>
        <time>2022-05-26T08:08:21Z</time>
      </trkpt>
      <trkpt lat="48.02013" lon="6.88255">
        <ele>949.9</ele>
        <time>2022-05-26T08:08:23Z</time>
      </trkpt>
      <trkpt lat="48.02006" lon="6.88245">
        <ele>949.7</ele>
        <time>2022-05-26T08:08:25Z</time>
      </trkpt>
      <trkpt lat="48.02" lon="6.88236">
        <ele>948.9</ele>
        <time>2022-05-26T08:08:27Z</time>
      </trkpt>
      <trkpt lat="48.01993" lon="6.88226">
        <ele>948.9</ele>
        <time>2022-05-26T08:08:29Z</time>
      </trkpt>
      <trkpt lat="48.01988" lon="6.88215">
        <ele>949.3</ele>
        <time>2022-05-26T08:08:31Z</time>
      </trkpt>
      <trkpt lat="48.01982" lon="6.88204">
        <ele>949.8</ele>
        <time>2022-05-26T08:08:33Z</time>
      </trkpt>
      <trkpt lat="48.01974" lon="6.8819">
        <ele>950.8</ele>
        <time>2022-05-26T08:08:36Z</time>
      </trkpt>
      <trkpt lat="48.01968" lon="6.88179">
        <ele>952.2</ele>
        <time>2022-05-26T08:08:39Z</time>
      </trkpt>
      <trkpt lat="48.01962" lon="6.88168">
        <ele>953.3</ele>
        <time>2022-05-26T08:08:42Z</time>
      </trkpt>
      <trkpt lat="48.01956" lon="6.88158">
        <ele>953.3</ele>
        <time>2022-05-26T08:08:45Z</time>
      </trkpt>
      <trkpt lat="48.01948" lon="6.88145">
        <ele>954.1</ele>
        <time>2022-05-26T08:08:49Z</time>
      </trkpt>
      <trkpt lat="48.01941" lon="6.88132">
        <ele>955</ele>
        <time>2022-05-26T08:08:53Z</time>
      </trkpt>
      <trkpt lat="48.01934" lon="6.88118">
        <ele>956.6</ele>
        <time>2022-05-26T08:08:57Z</time>
      </trkpt>
      <trkpt lat="48.01927" lon="6.88104">
        <ele>957.4</ele>
        <time>2022-05-26T08:09:01Z</time>
      </trkpt>
      <trkpt lat="48.01922" lon="6.8809">
        <ele>958.8</ele>
        <time>2022-05-26T08:09:05Z</time>
      </trkpt>
      <trkpt lat="48.01918" lon="6.88075">
        <ele>959.6</ele>
        <time>2022-05-26T08:09:09Z</time>
      </trkpt>
      <trkpt lat="48.01914" lon="6.8806">
        <ele>960.9</ele>
        <time>2022-05-26T08:09:13Z</time>
      </trkpt>
      <trkpt lat="48.01909" lon="6.88045">
        <ele>962.3</ele>
        <time>2022-05-26T08:09:17Z</time>
      </trkpt>
      <trkpt lat="48.01902" lon="6.88032">
        <ele>962.8</ele>
        <time>2022-05-26T08:09:21Z</time>
      </trkpt>
      <trkpt lat="48.01895" lon="6.88018">
        <ele>963.3</ele>
        <time>2022-05-26T08:09:25Z</time>
      </trkpt>
      <trkpt lat="48.01888" lon="6.88003">
        <ele>964.3</ele>
        <time>2022-05-26T08:09:29Z</time>
      </trkpt>
      <trkpt lat="48.0188" lon="6.87991">
        <ele>964.6</ele>
        <time>2022-05-26T08:09:33Z</time>
      </trkpt>
      <trkpt lat="48.01873" lon="6.87981">
        <ele>964.6</ele>
        <time>2022-05-26T08:09:36Z</time>
      </trkpt>
      <trkpt lat="48.01867" lon="6.8797">
        <ele>964.6</ele>
        <time>2022-05-26T08:09:39Z</time>
      </trkpt>
      <trkpt lat="48.01861" lon="6.87954">
        <ele>964.9</ele>
        <time>2022-05-26T08:09:43Z</time>
      </trkpt>
      <trkpt lat="48.01857" lon="6.87939">
        <ele>964.8</ele>
        <time>2022-05-26T08:09:46Z</time>
      </trkpt>
      <trkpt lat="48.01853" lon="6.87925">
        <ele>964.5</ele>
        <time>2022-05-26T08:09:49Z</time>
      </trkpt>
      <trkpt lat="48.01849" lon="6.87909">
        <ele>964.2</ele>
        <time>2022-05-26T08:09:52Z</time>
      </trkpt>
      <trkpt lat="48.01842" lon="6.87896">
        <ele>964</ele>
        <time>2022-05-26T08:09:55Z</time>
      </trkpt>
      <trkpt lat="48.01836" lon="6.87883">
        <ele>963.8</ele>
        <time>2022-05-26T08:09:58Z</time>
      </trkpt>
      <trkpt lat="48.01829" lon="6.87872">
        <ele>964.1</ele>
        <time>2022-05-26T08:10:01Z</time>
      </trkpt>
      <trkpt lat="48.01824" lon="6.8786">
        <ele>964.7</ele>
        <time>2022-05-26T08:10:04Z</time>
      </trkpt>
      <trkpt lat="48.0182" lon="6.87847">
        <ele>965.4</ele>
        <time>2022-05-26T08:10:07Z</time>
      </trkpt>
      <trkpt lat="48.01816" lon="6.87832">
        <ele>965.9</ele>
        <time>2022-05-26T08:10:10Z</time>
      </trkpt>
      <trkpt lat="48.01814" lon="6.87817">
        <ele>966.6</ele>
        <time>2022-05-26T08:10:13Z</time>
      </trkpt>
      <trkpt lat="48.01813" lon="6.87801">
        <ele>966.4</ele>
        <time>2022-05-26T08:10:16Z</time>
      </trkpt>
      <trkpt lat="48.01811" lon="6.87785">
        <ele>966.1</ele>
        <time>2022-05-26T08:10:19Z</time>
      </trkpt>
      <trkpt lat="48.01807" lon="6.87769">
        <ele>965.8</ele>
        <time>2022-05-26T08:10:22Z</time>
      </trkpt>
      <trkpt lat="48.01802" lon="6.87753">
        <ele>966.4</ele>
        <time>2022-05-26T08:10:25Z</time>
      </trkpt>
      <trkpt lat="48.01797" lon="6.87738">
        <ele>967</ele>
        <time>2022-05-26T08:10:28Z</time>
      </trkpt>
      <trkpt lat="48.01794" lon="6.87724">
        <ele>967.7</ele>
        <time>2022-05-26T08:10:31Z</time>
      </trkpt>
      <trkpt lat="48.0179" lon="6.87709">
        <ele>967.1</ele>
        <time>2022-05-26T08:10:34Z</time>
      </trkpt>
      <trkpt lat="48.01784" lon="6.87695">
        <ele>967.6</ele>
        <time>2022-05-26T08:10:37Z</time>
      </trkpt>
      <trkpt lat="48.01777" lon="6.87684">
        <ele>968.7</ele>
        <time>2022-05-26T08:10:40Z</time>
      </trkpt>
      <trkpt lat="48.01771" lon="6.87672">
        <ele>968.9</ele>
        <time>2022-05-26T08:10:43Z</time>
      </trkpt>
      <trkpt lat="48.01767" lon="6.87656">
        <ele>968.5</ele>
        <time>2022-05-26T08:10:46Z</time>
      </trkpt>
      <trkpt lat="48.01765" lon="6.87638">
        <ele>968.6</ele>
        <time>2022-05-26T08:10:49Z</time>
      </trkpt>
      <trkpt lat="48.01762" lon="6.8762">
        <ele>968.5</ele>
        <time>2022-05-26T08:10:52Z</time>
      </trkpt>
      <trkpt lat="48.01758" lon="6.87604">
        <ele>969.1</ele>
        <time>2022-05-26T08:10:55Z</time>
      </trkpt>
      <trkpt lat="48.01752" lon="6.87589">
        <ele>968.2</ele>
        <time>2022-05-26T08:10:58Z</time>
      </trkpt>
      <trkpt lat="48.01742" lon="6.87576">
        <ele>967.6</ele>
        <time>2022-05-26T08:11:01Z</time>
      </trkpt>
      <trkpt lat="48.01734" lon="6.87569">
        <ele>967.1</ele>
        <time>2022-05-26T08:11:03Z</time>
      </trkpt>
      <trkpt lat="48.01722" lon="6.87561">
        <ele>966.7</ele>
        <time>2022-05-26T08:11:06Z</time>
      </trkpt>
      <trkpt lat="48.01713" lon="6.8755">
        <ele>967.8</ele>
        <time>2022-05-26T08:11:09Z</time>
      </trkpt>
      <trkpt lat="48.01709" lon="6.87536">
        <ele>969</ele>
        <time>2022-05-26T08:11:12Z</time>
      </trkpt>
      <trkpt lat="48.0171" lon="6.87522">
        <ele>969.1</ele>
        <time>2022-05-26T08:11:15Z</time>
      </trkpt>
      <trkpt lat="48.01711" lon="6.87507">
        <ele>969.5</ele>
        <time>2022-05-26T08:11:18Z</time>
      </trkpt>
      <trkpt lat="48.01711" lon="6.8749">
        <ele>970.8</ele>
        <time>2022-05-26T08:11:21Z</time>
      </trkpt>
      <trkpt lat="48.0171" lon="6.87475">
        <ele>970.2</ele>
        <time>2022-05-26T08:11:24Z</time>
      </trkpt>
      <trkpt lat="48.0171" lon="6.8746">
        <ele>971.9</ele>
        <time>2022-05-26T08:11:27Z</time>
      </trkpt>
      <trkpt lat="48.01715" lon="6.87447">
        <ele>972.8</ele>
        <time>2022-05-26T08:11:30Z</time>
      </trkpt>
      <trkpt lat="48.01722" lon="6.87434">
        <ele>974.3</ele>
        <time>2022-05-26T08:11:34Z</time>
      </trkpt>
      <trkpt lat="48.01731" lon="6.87423">
        <ele>975.2</ele>
        <time>2022-05-26T08:11:38Z</time>
      </trkpt>
      <trkpt lat="48.01739" lon="6.87411">
        <ele>975.9</ele>
        <time>2022-05-26T08:11:42Z</time>
      </trkpt>
      <trkpt lat="48.01744" lon="6.87398">
        <ele>976</ele>
        <time>2022-05-26T08:11:46Z</time>
      </trkpt>
      <trkpt lat="48.01746" lon="6.87385">
        <ele>977</ele>
        <time>2022-05-26T08:11:50Z</time>
      </trkpt>
      <trkpt lat="48.01745" lon="6.87371">
        <ele>978.7</ele>
        <time>2022-05-26T08:11:54Z</time>
      </trkpt>
      <trkpt lat="48.01743" lon="6.87357">
        <ele>979.5</ele>
        <time>2022-05-26T08:11:58Z</time>
      </trkpt>
      <trkpt lat="48.01741" lon="6.87343">
        <ele>981.3</ele>
        <time>2022-05-26T08:12:02Z</time>
      </trkpt>
      <trkpt lat="48.01738" lon="6.87328">
        <ele>982.8</ele>
        <time>2022-05-26T08:12:07Z</time>
      </trkpt>
      <trkpt lat="48.01736" lon="6.87312">
        <ele>984.7</ele>
        <time>2022-05-26T08:12:12Z</time>
      </trkpt>
      <trkpt lat="48.01735" lon="6.87298">
        <ele>985.8</ele>
        <time>2022-05-26T08:12:16Z</time>
      </trkpt>
      <trkpt lat="48.01734" lon="6.87283">
        <ele>985.9</ele>
        <time>2022-05-26T08:12:21Z</time>
      </trkpt>
      <trkpt lat="48.01734" lon="6.87278">
        <ele>986.4</ele>
        <time>2022-05-26T08:12:26Z</time>
      </trkpt>
      <trkpt lat="48.01735" lon="6.87277">
        <ele>986.2</ele>
        <time>2022-05-26T08:13:07Z</time>
      </trkpt>
      <trkpt lat="48.01738" lon="6.87261">
        <ele>984.1</ele>
        <time>2022-05-26T08:13:11Z</time>
      </trkpt>
      <trkpt lat="48.01741" lon="6.87247">
        <ele>982.1</ele>
        <time>2022-05-26T08:13:13Z</time>
      </trkpt>
      <trkpt lat="48.01745" lon="6.87229">
        <ele>981.2</ele>
        <time>2022-05-26T08:13:15Z</time>
      </trkpt>
      <trkpt lat="48.01748" lon="6.87209">
        <ele>978.7</ele>
        <time>2022-05-26T08:13:17Z</time>
      </trkpt>
      <trkpt lat="48.01744" lon="6.87192">
        <ele>978</ele>
        <time>2022-05-26T08:13:19Z</time>
      </trkpt>
      <trkpt lat="48.01734" lon="6.8718">
        <ele>978.3</ele>
        <time>2022-05-26T08:13:21Z</time>
      </trkpt>
      <trkpt lat="48.01724" lon="6.87166">
        <ele>977.3</ele>
        <time>2022-05-26T08:13:23Z</time>
      </trkpt>
      <trkpt lat="48.01715" lon="6.87148">
        <ele>975.8</ele>
        <time>2022-05-26T08:13:25Z</time>
      </trkpt>
      <trkpt lat="48.01706" lon="6.8713">
        <ele>976.1</ele>
        <time>2022-05-26T08:13:27Z</time>
      </trkpt>
      <trkpt lat="48.01696" lon="6.87115">
        <ele>976.5</ele>
        <time>2022-05-26T08:13:29Z</time>
      </trkpt>
      <trkpt lat="48.01685" lon="6.87102">
        <ele>975.3</ele>
        <time>2022-05-26T08:13:31Z</time>
      </trkpt>
      <trkpt lat="48.01676" lon="6.87091">
        <ele>976.6</ele>
        <time>2022-05-26T08:13:33Z</time>
      </trkpt>
      <trkpt lat="48.01667" lon="6.87079">
        <ele>975.4</ele>
        <time>2022-05-26T08:13:35Z</time>
      </trkpt>
      <trkpt lat="48.0166" lon="6.87065">
        <ele>975.1</ele>
        <time>2022-05-26T08:13:37Z</time>
      </trkpt>
      <trkpt lat="48.01655" lon="6.8705">
        <ele>976.1</ele>
        <time>2022-05-26T08:13:39Z</time>
      </trkpt>
      <trkpt lat="48.01654" lon="6.8703">
        <ele>973.1</ele>
        <time>2022-05-26T08:13:41Z</time>
      </trkpt>
      <trkpt lat="48.01654" lon="6.8701">
        <ele>972.1</ele>
        <time>2022-05-26T08:13:43Z</time>
      </trkpt>
      <trkpt lat="48.01654" lon="6.86992">
        <ele>972.6</ele>
        <time>2022-05-26T08:13:45Z</time>
      </trkpt>
      <trkpt lat="48.01656" lon="6.86975">
        <ele>974.7</ele>
        <time>2022-05-26T08:13:47Z</time>
      </trkpt>
      <trkpt lat="48.01659" lon="6.86957">
        <ele>973.4</ele>
        <time>2022-05-26T08:13:49Z</time>
      </trkpt>
      <trkpt lat="48.01662" lon="6.86938">
        <ele>970.7</ele>
        <time>2022-05-26T08:13:51Z</time>
      </trkpt>
      <trkpt lat="48.01667" lon="6.86921">
        <ele>967.1</ele>
        <time>2022-05-26T08:13:53Z</time>
      </trkpt>
      <trkpt lat="48.01671" lon="6.86904">
        <ele>965.7</ele>
        <time>2022-05-26T08:13:55Z</time>
      </trkpt>
      <trkpt lat="48.01673" lon="6.8689">
        <ele>967.8</ele>
        <time>2022-05-26T08:13:57Z</time>
      </trkpt>
      <trkpt lat="48.01666" lon="6.86878">
        <ele>968.1</ele>
        <time>2022-05-26T08:14:00Z</time>
      </trkpt>
      <trkpt lat="48.01656" lon="6.86876">
        <ele>969.7</ele>
        <time>2022-05-26T08:14:03Z</time>
      </trkpt>
      <trkpt lat="48.01644" lon="6.86872">
        <ele>970.4</ele>
        <time>2022-05-26T08:14:07Z</time>
      </trkpt>
      <trkpt lat="48.01634" lon="6.86868">
        <ele>970.1</ele>
        <time>2022-05-26T08:14:10Z</time>
      </trkpt>
      <trkpt lat="48.01624" lon="6.86862">
        <ele>972.8</ele>
        <time>2022-05-26T08:14:13Z</time>
      </trkpt>
      <trkpt lat="48.01612" lon="6.86859">
        <ele>973.9</ele>
        <time>2022-05-26T08:14:17Z</time>
      </trkpt>
      <trkpt lat="48.01602" lon="6.86861">
        <ele>973.9</ele>
        <time>2022-05-26T08:14:20Z</time>
      </trkpt>
      <trkpt lat="48.01591" lon="6.86867">
        <ele>974.5</ele>
        <time>2022-05-26T08:14:23Z</time>
      </trkpt>
      <trkpt lat="48.01582" lon="6.86871">
        <ele>974.9</ele>
        <time>2022-05-26T08:14:26Z</time>
      </trkpt>
      <trkpt lat="48.01573" lon="6.86874">
        <ele>974.9</ele>
        <time>2022-05-26T08:14:29Z</time>
      </trkpt>
      <trkpt lat="48.01564" lon="6.86873">
        <ele>974.5</ele>
        <time>2022-05-26T08:14:32Z</time>
      </trkpt>
      <trkpt lat="48.01554" lon="6.86867">
        <ele>975.1</ele>
        <time>2022-05-26T08:14:35Z</time>
      </trkpt>
      <trkpt lat="48.01547" lon="6.86856">
        <ele>974.4</ele>
        <time>2022-05-26T08:14:38Z</time>
      </trkpt>
      <trkpt lat="48.01541" lon="6.86844">
        <ele>974.6</ele>
        <time>2022-05-26T08:14:41Z</time>
      </trkpt>
      <trkpt lat="48.01536" lon="6.86832">
        <ele>976</ele>
        <time>2022-05-26T08:14:44Z</time>
      </trkpt>
      <trkpt lat="48.01531" lon="6.86818">
        <ele>975.8</ele>
        <time>2022-05-26T08:14:47Z</time>
      </trkpt>
      <trkpt lat="48.01526" lon="6.86805">
        <ele>976.7</ele>
        <time>2022-05-26T08:14:50Z</time>
      </trkpt>
      <trkpt lat="48.01523" lon="6.86791">
        <ele>976.3</ele>
        <time>2022-05-26T08:14:53Z</time>
      </trkpt>
      <trkpt lat="48.0152" lon="6.86773">
        <ele>975.8</ele>
        <time>2022-05-26T08:14:56Z</time>
      </trkpt>
      <trkpt lat="48.01519" lon="6.86755">
        <ele>976.4</ele>
        <time>2022-05-26T08:14:59Z</time>
      </trkpt>
      <trkpt lat="48.01519" lon="6.86737">
        <ele>975.5</ele>
        <time>2022-05-26T08:15:02Z</time>
      </trkpt>
      <trkpt lat="48.01521" lon="6.86722">
        <ele>974.9</ele>
        <time>2022-05-26T08:15:04Z</time>
      </trkpt>
      <trkpt lat="48.01522" lon="6.86705">
        <ele>972.7</ele>
        <time>2022-05-26T08:15:06Z</time>
      </trkpt>
      <trkpt lat="48.01523" lon="6.86687">
        <ele>972.7</ele>
        <time>2022-05-26T08:15:08Z</time>
      </trkpt>
      <trkpt lat="48.01524" lon="6.86669">
        <ele>971.5</ele>
        <time>2022-05-26T08:15:10Z</time>
      </trkpt>
      <trkpt lat="48.01524" lon="6.86652">
        <ele>972.2</ele>
        <time>2022-05-26T08:15:12Z</time>
      </trkpt>
      <trkpt lat="48.01522" lon="6.86636">
        <ele>972.9</ele>
        <time>2022-05-26T08:15:14Z</time>
      </trkpt>
      <trkpt lat="48.0152" lon="6.86622">
        <ele>973.2</ele>
        <time>2022-05-26T08:15:16Z</time>
      </trkpt>
      <trkpt lat="48.01518" lon="6.86608">
        <ele>974.4</ele>
        <time>2022-05-26T08:15:18Z</time>
      </trkpt>
      <trkpt lat="48.01516" lon="6.86595">
        <ele>974.7</ele>
        <time>2022-05-26T08:15:20Z</time>
      </trkpt>
      <trkpt lat="48.01515" lon="6.86581">
        <ele>973.1</ele>
        <time>2022-05-26T08:15:22Z</time>
      </trkpt>
      <trkpt lat="48.01514" lon="6.86563">
        <ele>975.2</ele>
        <time>2022-05-26T08:15:25Z</time>
      </trkpt>
      <trkpt lat="48.01512" lon="6.86546">
        <ele>976.3</ele>
        <time>2022-05-26T08:15:28Z</time>
      </trkpt>
      <trkpt lat="48.01505" lon="6.86532">
        <ele>976.3</ele>
        <time>2022-05-26T08:15:31Z</time>
      </trkpt>
      <trkpt lat="48.01492" lon="6.86526">
        <ele>976.2</ele>
        <time>2022-05-26T08:15:34Z</time>
      </trkpt>
      <trkpt lat="48.01481" lon="6.86524">
        <ele>977.4</ele>
        <time>2022-05-26T08:15:37Z</time>
      </trkpt>
      <trkpt lat="48.01475" lon="6.86509">
        <ele>978.4</ele>
        <time>2022-05-26T08:15:41Z</time>
      </trkpt>
      <trkpt lat="48.01477" lon="6.86495">
        <ele>978.9</ele>
        <time>2022-05-26T08:15:44Z</time>
      </trkpt>
      <trkpt lat="48.01477" lon="6.8648">
        <ele>979.4</ele>
        <time>2022-05-26T08:15:47Z</time>
      </trkpt>
      <trkpt lat="48.01476" lon="6.86465">
        <ele>980.4</ele>
        <time>2022-05-26T08:15:50Z</time>
      </trkpt>
      <trkpt lat="48.01475" lon="6.86448">
        <ele>981.8</ele>
        <time>2022-05-26T08:15:54Z</time>
      </trkpt>
      <trkpt lat="48.01479" lon="6.86434">
        <ele>982.2</ele>
        <time>2022-05-26T08:15:58Z</time>
      </trkpt>
      <trkpt lat="48.01485" lon="6.86421">
        <ele>982.1</ele>
        <time>2022-05-26T08:16:02Z</time>
      </trkpt>
      <trkpt lat="48.01493" lon="6.86411">
        <ele>981.6</ele>
        <time>2022-05-26T08:16:05Z</time>
      </trkpt>
      <trkpt lat="48.015" lon="6.86399">
        <ele>983.1</ele>
        <time>2022-05-26T08:16:08Z</time>
      </trkpt>
      <trkpt lat="48.01507" lon="6.86387">
        <ele>983.3</ele>
        <time>2022-05-26T08:16:11Z</time>
      </trkpt>
      <trkpt lat="48.01515" lon="6.86375">
        <ele>983</ele>
        <time>2022-05-26T08:16:14Z</time>
      </trkpt>
      <trkpt lat="48.0152" lon="6.86362">
        <ele>983.3</ele>
        <time>2022-05-26T08:16:17Z</time>
      </trkpt>
      <trkpt lat="48.01517" lon="6.86347">
        <ele>985.3</ele>
        <time>2022-05-26T08:16:21Z</time>
      </trkpt>
      <trkpt lat="48.01508" lon="6.86344">
        <ele>986</ele>
        <time>2022-05-26T08:16:25Z</time>
      </trkpt>
      <trkpt lat="48.01497" lon="6.86345">
        <ele>986.7</ele>
        <time>2022-05-26T08:16:30Z</time>
      </trkpt>
      <trkpt lat="48.01487" lon="6.86347">
        <ele>988.5</ele>
        <time>2022-05-26T08:16:34Z</time>
      </trkpt>
      <trkpt lat="48.01477" lon="6.86349">
        <ele>988.8</ele>
        <time>2022-05-26T08:16:38Z</time>
      </trkpt>
      <trkpt lat="48.01467" lon="6.86353">
        <ele>990</ele>
        <time>2022-05-26T08:16:42Z</time>
      </trkpt>
      <trkpt lat="48.01457" lon="6.86358">
        <ele>990.6</ele>
        <time>2022-05-26T08:16:46Z</time>
      </trkpt>
      <trkpt lat="48.01446" lon="6.86362">
        <ele>992.7</ele>
        <time>2022-05-26T08:16:53Z</time>
      </trkpt>
      <trkpt lat="48.01435" lon="6.86364">
        <ele>992.4</ele>
        <time>2022-05-26T08:16:57Z</time>
      </trkpt>
      <trkpt lat="48.01424" lon="6.86361">
        <ele>993.7</ele>
        <time>2022-05-26T08:17:01Z</time>
      </trkpt>
      <trkpt lat="48.01416" lon="6.86351">
        <ele>994</ele>
        <time>2022-05-26T08:17:05Z</time>
      </trkpt>
      <trkpt lat="48.0141" lon="6.86339">
        <ele>993.6</ele>
        <time>2022-05-26T08:17:09Z</time>
      </trkpt>
      <trkpt lat="48.01404" lon="6.86326">
        <ele>994.3</ele>
        <time>2022-05-26T08:17:13Z</time>
      </trkpt>
      <trkpt lat="48.01398" lon="6.86312">
        <ele>994.2</ele>
        <time>2022-05-26T08:17:17Z</time>
      </trkpt>
      <trkpt lat="48.0139" lon="6.86299">
        <ele>995.6</ele>
        <time>2022-05-26T08:17:21Z</time>
      </trkpt>
      <trkpt lat="48.01382" lon="6.8629">
        <ele>997</ele>
        <time>2022-05-26T08:17:25Z</time>
      </trkpt>
      <trkpt lat="48.01374" lon="6.86281">
        <ele>997.8</ele>
        <time>2022-05-26T08:17:29Z</time>
      </trkpt>
      <trkpt lat="48.01366" lon="6.86273">
        <ele>998.6</ele>
        <time>2022-05-26T08:17:33Z</time>
      </trkpt>
      <trkpt lat="48.0136" lon="6.86261">
        <ele>999.3</ele>
        <time>2022-05-26T08:17:37Z</time>
      </trkpt>
      <trkpt lat="48.01354" lon="6.86248">
        <ele>999.5</ele>
        <time>2022-05-26T08:17:41Z</time>
      </trkpt>
      <trkpt lat="48.01348" lon="6.86237">
        <ele>999.7</ele>
        <time>2022-05-26T08:17:44Z</time>
      </trkpt>
      <trkpt lat="48.0134" lon="6.86226">
        <ele>998.5</ele>
        <time>2022-05-26T08:17:48Z</time>
      </trkpt>
      <trkpt lat="48.0133" lon="6.86215">
        <ele>999</ele>
        <time>2022-05-26T08:17:52Z</time>
      </trkpt>
      <trkpt lat="48.01322" lon="6.86207">
        <ele>999.9</ele>
        <time>2022-05-26T08:17:55Z</time>
      </trkpt>
      <trkpt lat="48.01313" lon="6.86196">
        <ele>1000.8</ele>
        <time>2022-05-26T08:17:59Z</time>
      </trkpt>
      <trkpt lat="48.01307" lon="6.86183">
        <ele>1001.2</ele>
        <time>2022-05-26T08:18:03Z</time>
      </trkpt>
      <trkpt lat="48.01303" lon="6.86169">
        <ele>1002.8</ele>
        <time>2022-05-26T08:18:07Z</time>
      </trkpt>
      <trkpt lat="48.013" lon="6.86155">
        <ele>1003</ele>
        <time>2022-05-26T08:18:11Z</time>
      </trkpt>
      <trkpt lat="48.01298" lon="6.86141">
        <ele>1002.6</ele>
        <time>2022-05-26T08:18:15Z</time>
      </trkpt>
      <trkpt lat="48.01289" lon="6.86131">
        <ele>1001.1</ele>
        <time>2022-05-26T08:18:19Z</time>
      </trkpt>
      <trkpt lat="48.01279" lon="6.86132">
        <ele>1001.8</ele>
        <time>2022-05-26T08:18:22Z</time>
      </trkpt>
      <trkpt lat="48.01265" lon="6.86136">
        <ele>1000.9</ele>
        <time>2022-05-26T08:18:25Z</time>
      </trkpt>
      <trkpt lat="48.01254" lon="6.86137">
        <ele>999.5</ele>
        <time>2022-05-26T08:18:27Z</time>
      </trkpt>
      <trkpt lat="48.0124" lon="6.86136">
        <ele>998.7</ele>
        <time>2022-05-26T08:18:29Z</time>
      </trkpt>
      <trkpt lat="48.01226" lon="6.86132">
        <ele>996.2</ele>
        <time>2022-05-26T08:18:31Z</time>
      </trkpt>
      <trkpt lat="48.01212" lon="6.86124">
        <ele>997.8</ele>
        <time>2022-05-26T08:18:33Z</time>
      </trkpt>
      <trkpt lat="48.01199" lon="6.86114">
        <ele>995.8</ele>
        <time>2022-05-26T08:18:35Z</time>
      </trkpt>
      <trkpt lat="48.01185" lon="6.86106">
        <ele>994.5</ele>
        <time>2022-05-26T08:18:37Z</time>
      </trkpt>
      <trkpt lat="48.0117" lon="6.86098">
        <ele>992.8</ele>
        <time>2022-05-26T08:18:39Z</time>
      </trkpt>
      <trkpt lat="48.01155" lon="6.86092">
        <ele>992.7</ele>
        <time>2022-05-26T08:18:41Z</time>
      </trkpt>
      <trkpt lat="48.01139" lon="6.8609">
        <ele>990.8</ele>
        <time>2022-05-26T08:18:43Z</time>
      </trkpt>
      <trkpt lat="48.01125" lon="6.86089">
        <ele>988.8</ele>
        <time>2022-05-26T08:18:45Z</time>
      </trkpt>
      <trkpt lat="48.01111" lon="6.8609">
        <ele>991.1</ele>
        <time>2022-05-26T08:18:47Z</time>
      </trkpt>
      <trkpt lat="48.01098" lon="6.86089">
        <ele>990.7</ele>
        <time>2022-05-26T08:18:49Z</time>
      </trkpt>
      <trkpt lat="48.01085" lon="6.86087">
        <ele>991.7</ele>
        <time>2022-05-26T08:18:51Z</time>
      </trkpt>
      <trkpt lat="48.01076" lon="6.86078">
        <ele>991</ele>
        <time>2022-05-26T08:18:53Z</time>
      </trkpt>
      <trkpt lat="48.01068" lon="6.86068">
        <ele>991.4</ele>
        <time>2022-05-26T08:18:55Z</time>
      </trkpt>
      <trkpt lat="48.01061" lon="6.86059">
        <ele>992.2</ele>
        <time>2022-05-26T08:18:57Z</time>
      </trkpt>
      <trkpt lat="48.01053" lon="6.86044">
        <ele>992.5</ele>
        <time>2022-05-26T08:19:00Z</time>
      </trkpt>
      <trkpt lat="48.01047" lon="6.86027">
        <ele>993</ele>
        <time>2022-05-26T08:19:03Z</time>
      </trkpt>
      <trkpt lat="48.01042" lon="6.86011">
        <ele>993.7</ele>
        <time>2022-05-26T08:19:06Z</time>
      </trkpt>
      <trkpt lat="48.01037" lon="6.85996">
        <ele>993.7</ele>
        <time>2022-05-26T08:19:09Z</time>
      </trkpt>
      <trkpt lat="48.0103" lon="6.85985">
        <ele>995.3</ele>
        <time>2022-05-26T08:19:12Z</time>
      </trkpt>
      <trkpt lat="48.01022" lon="6.85971">
        <ele>995.8</ele>
        <time>2022-05-26T08:19:16Z</time>
      </trkpt>
      <trkpt lat="48.01017" lon="6.85959">
        <ele>996.6</ele>
        <time>2022-05-26T08:19:19Z</time>
      </trkpt>
      <trkpt lat="48.01012" lon="6.85947">
        <ele>996.8</ele>
        <time>2022-05-26T08:19:22Z</time>
      </trkpt>
      <trkpt lat="48.01008" lon="6.85932">
        <ele>999.2</ele>
        <time>2022-05-26T08:19:26Z</time>
      </trkpt>
      <trkpt lat="48.01006" lon="6.85918">
        <ele>1000.1</ele>
        <time>2022-05-26T08:19:30Z</time>
      </trkpt>
      <trkpt lat="48.01007" lon="6.85902">
        <ele>1002.3</ele>
        <time>2022-05-26T08:19:35Z</time>
      </trkpt>
      <trkpt lat="48.01008" lon="6.85887">
        <ele>1003.4</ele>
        <time>2022-05-26T08:19:40Z</time>
      </trkpt>
      <trkpt lat="48.01012" lon="6.85871">
        <ele>1004.1</ele>
        <time>2022-05-26T08:19:45Z</time>
      </trkpt>
      <trkpt lat="48.01014" lon="6.85858">
        <ele>1004.9</ele>
        <time>2022-05-26T08:19:49Z</time>
      </trkpt>
      <trkpt lat="48.01016" lon="6.85844">
        <ele>1005.8</ele>
        <time>2022-05-26T08:19:53Z</time>
      </trkpt>
      <trkpt lat="48.01017" lon="6.8583">
        <ele>1007.2</ele>
        <time>2022-05-26T08:19:57Z</time>
      </trkpt>
      <trkpt lat="48.01016" lon="6.85817">
        <ele>1007.8</ele>
        <time>2022-05-26T08:20:01Z</time>
      </trkpt>
      <trkpt lat="48.01015" lon="6.85803">
        <ele>1008.5</ele>
        <time>2022-05-26T08:20:05Z</time>
      </trkpt>
      <trkpt lat="48.01015" lon="6.85788">
        <ele>1010.1</ele>
        <time>2022-05-26T08:20:10Z</time>
      </trkpt>
      <trkpt lat="48.01018" lon="6.85773">
        <ele>1011.6</ele>
        <time>2022-05-26T08:20:15Z</time>
      </trkpt>
      <trkpt lat="48.01021" lon="6.85758">
        <ele>1012.3</ele>
        <time>2022-05-26T08:20:20Z</time>
      </trkpt>
      <trkpt lat="48.0102" lon="6.85741">
        <ele>1012.5</ele>
        <time>2022-05-26T08:20:25Z</time>
      </trkpt>
      <trkpt lat="48.01017" lon="6.85728">
        <ele>1014.3</ele>
        <time>2022-05-26T08:20:29Z</time>
      </trkpt>
      <trkpt lat="48.01014" lon="6.85714">
        <ele>1014.6</ele>
        <time>2022-05-26T08:20:35Z</time>
      </trkpt>
      <trkpt lat="48.01011" lon="6.85714">
        <ele>1014.7</ele>
        <time>2022-05-26T08:20:42Z</time>
      </trkpt>
      <trkpt lat="48.01011" lon="6.85715">
        <ele>1014.3</ele>
        <time>2022-05-26T08:20:56Z</time>
      </trkpt>
      <trkpt lat="48.01009" lon="6.85703">
        <ele>1014.3</ele>
        <time>2022-05-26T08:22:10Z</time>
      </trkpt>
      <trkpt lat="48.01009" lon="6.85704">
        <ele>1014</ele>
        <time>2022-05-26T08:22:34Z</time>
      </trkpt>
      <trkpt lat="48.0101" lon="6.85704">
        <ele>1013.9</ele>
        <time>2022-05-26T08:22:37Z</time>
      </trkpt>
      <trkpt lat="48.0101" lon="6.85703">
        <ele>1013.4</ele>
        <time>2022-05-26T08:25:19Z</time>
      </trkpt>
      <trkpt lat="48.01011" lon="6.85702">
        <ele>1013.5</ele>
        <time>2022-05-26T08:25:22Z</time>
      </trkpt>
      <trkpt lat="48.0101" lon="6.85686">
        <ele>1012.7</ele>
        <time>2022-05-26T08:25:28Z</time>
      </trkpt>
      <trkpt lat="48.0101" lon="6.85669">
        <ele>1013.5</ele>
        <time>2022-05-26T08:25:33Z</time>
      </trkpt>
      <trkpt lat="48.01008" lon="6.85655">
        <ele>1013.5</ele>
        <time>2022-05-26T08:25:38Z</time>
      </trkpt>
      <trkpt lat="48.01006" lon="6.85639">
        <ele>1013.5</ele>
        <time>2022-05-26T08:25:43Z</time>
      </trkpt>
      <trkpt lat="48.01006" lon="6.85624">
        <ele>1014.5</ele>
        <time>2022-05-26T08:25:47Z</time>
      </trkpt>
      <trkpt lat="48.01007" lon="6.85609">
        <ele>1015.3</ele>
        <time>2022-05-26T08:25:51Z</time>
      </trkpt>
      <trkpt lat="48.01009" lon="6.85593">
        <ele>1015.6</ele>
        <time>2022-05-26T08:25:56Z</time>
      </trkpt>
      <trkpt lat="48.01011" lon="6.85576">
        <ele>1016.2</ele>
        <time>2022-05-26T08:26:01Z</time>
      </trkpt>
      <trkpt lat="48.01017" lon="6.8556">
        <ele>1014.8</ele>
        <time>2022-05-26T08:26:05Z</time>
      </trkpt>
      <trkpt lat="48.01021" lon="6.85545">
        <ele>1013.9</ele>
        <time>2022-05-26T08:26:08Z</time>
      </trkpt>
      <trkpt lat="48.01026" lon="6.85528">
        <ele>1013.7</ele>
        <time>2022-05-26T08:26:11Z</time>
      </trkpt>
      <trkpt lat="48.01029" lon="6.85513">
        <ele>1014.8</ele>
        <time>2022-05-26T08:26:14Z</time>
      </trkpt>
      <trkpt lat="48.01031" lon="6.85496">
        <ele>1015.4</ele>
        <time>2022-05-26T08:26:18Z</time>
      </trkpt>
      <trkpt lat="48.01032" lon="6.85481">
        <ele>1013.9</ele>
        <time>2022-05-26T08:26:21Z</time>
      </trkpt>
      <trkpt lat="48.01035" lon="6.85463">
        <ele>1014.6</ele>
        <time>2022-05-26T08:26:24Z</time>
      </trkpt>
      <trkpt lat="48.01038" lon="6.85444">
        <ele>1012.8</ele>
        <time>2022-05-26T08:26:27Z</time>
      </trkpt>
      <trkpt lat="48.01042" lon="6.85426">
        <ele>1013.1</ele>
        <time>2022-05-26T08:26:30Z</time>
      </trkpt>
      <trkpt lat="48.01047" lon="6.85411">
        <ele>1013</ele>
        <time>2022-05-26T08:26:33Z</time>
      </trkpt>
      <trkpt lat="48.01054" lon="6.85399">
        <ele>1013.3</ele>
        <time>2022-05-26T08:26:36Z</time>
      </trkpt>
      <trkpt lat="48.01063" lon="6.85391">
        <ele>1013.5</ele>
        <time>2022-05-26T08:26:39Z</time>
      </trkpt>
      <trkpt lat="48.01072" lon="6.85383">
        <ele>1013.1</ele>
        <time>2022-05-26T08:26:42Z</time>
      </trkpt>
      <trkpt lat="48.0108" lon="6.8537">
        <ele>1013.3</ele>
        <time>2022-05-26T08:26:45Z</time>
      </trkpt>
      <trkpt lat="48.01086" lon="6.85359">
        <ele>1014.3</ele>
        <time>2022-05-26T08:26:48Z</time>
      </trkpt>
      <trkpt lat="48.01092" lon="6.85343">
        <ele>1016.8</ele>
        <time>2022-05-26T08:26:52Z</time>
      </trkpt>
      <trkpt lat="48.01095" lon="6.85329">
        <ele>1017.9</ele>
        <time>2022-05-26T08:26:56Z</time>
      </trkpt>
      <trkpt lat="48.01097" lon="6.85315">
        <ele>1018.3</ele>
        <time>2022-05-26T08:27:00Z</time>
      </trkpt>
      <trkpt lat="48.01101" lon="6.85299">
        <ele>1019.1</ele>
        <time>2022-05-26T08:27:04Z</time>
      </trkpt>
      <trkpt lat="48.01104" lon="6.85286">
        <ele>1018.2</ele>
        <time>2022-05-26T08:27:07Z</time>
      </trkpt>
      <trkpt lat="48.01106" lon="6.85272">
        <ele>1018.4</ele>
        <time>2022-05-26T08:27:10Z</time>
      </trkpt>
      <trkpt lat="48.01111" lon="6.85255">
        <ele>1019.1</ele>
        <time>2022-05-26T08:27:14Z</time>
      </trkpt>
      <trkpt lat="48.01116" lon="6.8524">
        <ele>1020.9</ele>
        <time>2022-05-26T08:27:18Z</time>
      </trkpt>
      <trkpt lat="48.01123" lon="6.85227">
        <ele>1020.9</ele>
        <time>2022-05-26T08:27:23Z</time>
      </trkpt>
      <trkpt lat="48.01127" lon="6.85211">
        <ele>1020.6</ele>
        <time>2022-05-26T08:27:27Z</time>
      </trkpt>
      <trkpt lat="48.0113" lon="6.85195">
        <ele>1021.5</ele>
        <time>2022-05-26T08:27:31Z</time>
      </trkpt>
      <trkpt lat="48.01133" lon="6.85179">
        <ele>1021.9</ele>
        <time>2022-05-26T08:27:35Z</time>
      </trkpt>
      <trkpt lat="48.01139" lon="6.85166">
        <ele>1022.7</ele>
        <time>2022-05-26T08:27:39Z</time>
      </trkpt>
      <trkpt lat="48.01148" lon="6.85161">
        <ele>1021.8</ele>
        <time>2022-05-26T08:27:42Z</time>
      </trkpt>
      <trkpt lat="48.01157" lon="6.85156">
        <ele>1020.5</ele>
        <time>2022-05-26T08:27:46Z</time>
      </trkpt>
      <trkpt lat="48.01167" lon="6.85152">
        <ele>1019.5</ele>
        <time>2022-05-26T08:27:53Z</time>
      </trkpt>
      <trkpt lat="48.01176" lon="6.85148">
        <ele>1019.1</ele>
        <time>2022-05-26T08:27:58Z</time>
      </trkpt>
      <trkpt lat="48.01186" lon="6.85147">
        <ele>1018</ele>
        <time>2022-05-26T08:28:02Z</time>
      </trkpt>
      <trkpt lat="48.01195" lon="6.85153">
        <ele>1017.4</ele>
        <time>2022-05-26T08:28:06Z</time>
      </trkpt>
      <trkpt lat="48.01204" lon="6.85158">
        <ele>1017.9</ele>
        <time>2022-05-26T08:28:09Z</time>
      </trkpt>
      <trkpt lat="48.01213" lon="6.8516">
        <ele>1018.4</ele>
        <time>2022-05-26T08:28:13Z</time>
      </trkpt>
      <trkpt lat="48.01222" lon="6.85165">
        <ele>1018.7</ele>
        <time>2022-05-26T08:28:16Z</time>
      </trkpt>
      <trkpt lat="48.01234" lon="6.85168">
        <ele>1017.5</ele>
        <time>2022-05-26T08:28:19Z</time>
      </trkpt>
      <trkpt lat="48.01244" lon="6.85164">
        <ele>1017.9</ele>
        <time>2022-05-26T08:28:22Z</time>
      </trkpt>
      <trkpt lat="48.01254" lon="6.85159">
        <ele>1015.9</ele>
        <time>2022-05-26T08:28:24Z</time>
      </trkpt>
      <trkpt lat="48.01265" lon="6.8515">
        <ele>1014.9</ele>
        <time>2022-05-26T08:28:26Z</time>
      </trkpt>
      <trkpt lat="48.01275" lon="6.85141">
        <ele>1013.4</ele>
        <time>2022-05-26T08:28:28Z</time>
      </trkpt>
      <trkpt lat="48.01283" lon="6.85133">
        <ele>1014.3</ele>
        <time>2022-05-26T08:28:30Z</time>
      </trkpt>
      <trkpt lat="48.01295" lon="6.85121">
        <ele>1012.9</ele>
        <time>2022-05-26T08:28:33Z</time>
      </trkpt>
      <trkpt lat="48.01304" lon="6.85114">
        <ele>1011.7</ele>
        <time>2022-05-26T08:28:35Z</time>
      </trkpt>
      <trkpt lat="48.01313" lon="6.85105">
        <ele>1012.1</ele>
        <time>2022-05-26T08:28:37Z</time>
      </trkpt>
      <trkpt lat="48.01322" lon="6.85097">
        <ele>1012.7</ele>
        <time>2022-05-26T08:28:39Z</time>
      </trkpt>
      <trkpt lat="48.01331" lon="6.8509">
        <ele>1014.2</ele>
        <time>2022-05-26T08:28:42Z</time>
      </trkpt>
      <trkpt lat="48.0134" lon="6.85079">
        <ele>1013.2</ele>
        <time>2022-05-26T08:28:45Z</time>
      </trkpt>
      <trkpt lat="48.01348" lon="6.85071">
        <ele>1010.6</ele>
        <time>2022-05-26T08:28:47Z</time>
      </trkpt>
      <trkpt lat="48.01358" lon="6.85061">
        <ele>1009.9</ele>
        <time>2022-05-26T08:28:49Z</time>
      </trkpt>
      <trkpt lat="48.01368" lon="6.85052">
        <ele>1009</ele>
        <time>2022-05-26T08:28:51Z</time>
      </trkpt>
      <trkpt lat="48.01378" lon="6.85049">
        <ele>1008</ele>
        <time>2022-05-26T08:28:53Z</time>
      </trkpt>
      <trkpt lat="48.0139" lon="6.85048">
        <ele>1004.7</ele>
        <time>2022-05-26T08:28:56Z</time>
      </trkpt>
      <trkpt lat="48.01399" lon="6.8505">
        <ele>1005.9</ele>
        <time>2022-05-26T08:28:58Z</time>
      </trkpt>
      <trkpt lat="48.0141" lon="6.85054">
        <ele>1005.6</ele>
        <time>2022-05-26T08:29:00Z</time>
      </trkpt>
      <trkpt lat="48.0142" lon="6.85054">
        <ele>1005.4</ele>
        <time>2022-05-26T08:29:02Z</time>
      </trkpt>
      <trkpt lat="48.0143" lon="6.85056">
        <ele>1004.9</ele>
        <time>2022-05-26T08:29:04Z</time>
      </trkpt>
      <trkpt lat="48.0144" lon="6.85058">
        <ele>1005</ele>
        <time>2022-05-26T08:29:06Z</time>
      </trkpt>
      <trkpt lat="48.01451" lon="6.85063">
        <ele>1002.8</ele>
        <time>2022-05-26T08:29:09Z</time>
      </trkpt>
      <trkpt lat="48.0146" lon="6.85068">
        <ele>1001.9</ele>
        <time>2022-05-26T08:29:12Z</time>
      </trkpt>
      <trkpt lat="48.01456" lon="6.85054">
        <ele>1001.5</ele>
        <time>2022-05-26T08:29:20Z</time>
      </trkpt>
      <trkpt lat="48.01446" lon="6.85049">
        <ele>999.4</ele>
        <time>2022-05-26T08:29:24Z</time>
      </trkpt>
      <trkpt lat="48.01435" lon="6.85041">
        <ele>993.4</ele>
        <time>2022-05-26T08:29:27Z</time>
      </trkpt>
      <trkpt lat="48.01427" lon="6.85026">
        <ele>994.4</ele>
        <time>2022-05-26T08:29:30Z</time>
      </trkpt>
      <trkpt lat="48.01418" lon="6.85013">
        <ele>994.6</ele>
        <time>2022-05-26T08:29:33Z</time>
      </trkpt>
      <trkpt lat="48.01409" lon="6.85003">
        <ele>993.2</ele>
        <time>2022-05-26T08:29:35Z</time>
      </trkpt>
      <trkpt lat="48.01401" lon="6.84995">
        <ele>993.6</ele>
        <time>2022-05-26T08:29:37Z</time>
      </trkpt>
      <trkpt lat="48.0139" lon="6.84989">
        <ele>990.9</ele>
        <time>2022-05-26T08:29:39Z</time>
      </trkpt>
      <trkpt lat="48.01378" lon="6.84983">
        <ele>990.5</ele>
        <time>2022-05-26T08:29:41Z</time>
      </trkpt>
      <trkpt lat="48.01368" lon="6.84982">
        <ele>990.9</ele>
        <time>2022-05-26T08:29:43Z</time>
      </trkpt>
      <trkpt lat="48.01356" lon="6.84984">
        <ele>992.8</ele>
        <time>2022-05-26T08:29:46Z</time>
      </trkpt>
      <trkpt lat="48.01347" lon="6.84988">
        <ele>992.9</ele>
        <time>2022-05-26T08:29:49Z</time>
      </trkpt>
      <trkpt lat="48.01336" lon="6.84998">
        <ele>994.8</ele>
        <time>2022-05-26T08:29:54Z</time>
      </trkpt>
      <trkpt lat="48.01328" lon="6.85006">
        <ele>993.9</ele>
        <time>2022-05-26T08:29:57Z</time>
      </trkpt>
      <trkpt lat="48.0132" lon="6.85013">
        <ele>995.6</ele>
        <time>2022-05-26T08:30:00Z</time>
      </trkpt>
      <trkpt lat="48.0131" lon="6.85021">
        <ele>994.7</ele>
        <time>2022-05-26T08:30:03Z</time>
      </trkpt>
      <trkpt lat="48.013" lon="6.85022">
        <ele>994.8</ele>
        <time>2022-05-26T08:30:05Z</time>
      </trkpt>
      <trkpt lat="48.01291" lon="6.85015">
        <ele>994.9</ele>
        <time>2022-05-26T08:30:08Z</time>
      </trkpt>
      <trkpt lat="48.01284" lon="6.85006">
        <ele>997.4</ele>
        <time>2022-05-26T08:30:11Z</time>
      </trkpt>
      <trkpt lat="48.01275" lon="6.84999">
        <ele>998.6</ele>
        <time>2022-05-26T08:30:15Z</time>
      </trkpt>
      <trkpt lat="48.01266" lon="6.84995">
        <ele>996.6</ele>
        <time>2022-05-26T08:30:18Z</time>
      </trkpt>
      <trkpt lat="48.01256" lon="6.84993">
        <ele>998.1</ele>
        <time>2022-05-26T08:30:22Z</time>
      </trkpt>
      <trkpt lat="48.01247" lon="6.85003">
        <ele>1000</ele>
        <time>2022-05-26T08:30:27Z</time>
      </trkpt>
      <trkpt lat="48.01238" lon="6.85007">
        <ele>997.5</ele>
        <time>2022-05-26T08:30:30Z</time>
      </trkpt>
      <trkpt lat="48.01234" lon="6.84994">
        <ele>997.7</ele>
        <time>2022-05-26T08:30:33Z</time>
      </trkpt>
      <trkpt lat="48.01234" lon="6.84978">
        <ele>998</ele>
        <time>2022-05-26T08:30:36Z</time>
      </trkpt>
      <trkpt lat="48.01234" lon="6.84963">
        <ele>998</ele>
        <time>2022-05-26T08:30:39Z</time>
      </trkpt>
      <trkpt lat="48.01226" lon="6.84944">
        <ele>998.8</ele>
        <time>2022-05-26T08:30:42Z</time>
      </trkpt>
      <trkpt lat="48.01221" lon="6.84928">
        <ele>999</ele>
        <time>2022-05-26T08:30:45Z</time>
      </trkpt>
      <trkpt lat="48.01215" lon="6.84914">
        <ele>998.3</ele>
        <time>2022-05-26T08:30:48Z</time>
      </trkpt>
      <trkpt lat="48.01213" lon="6.84898">
        <ele>1000</ele>
        <time>2022-05-26T08:30:51Z</time>
      </trkpt>
      <trkpt lat="48.01212" lon="6.84882">
        <ele>997.9</ele>
        <time>2022-05-26T08:30:54Z</time>
      </trkpt>
      <trkpt lat="48.01208" lon="6.8487">
        <ele>997.3</ele>
        <time>2022-05-26T08:30:56Z</time>
      </trkpt>
      <trkpt lat="48.012" lon="6.84854">
        <ele>997.6</ele>
        <time>2022-05-26T08:30:59Z</time>
      </trkpt>
      <trkpt lat="48.01194" lon="6.84844">
        <ele>997.9</ele>
        <time>2022-05-26T08:31:01Z</time>
      </trkpt>
      <trkpt lat="48.01183" lon="6.84836">
        <ele>996.1</ele>
        <time>2022-05-26T08:31:04Z</time>
      </trkpt>
      <trkpt lat="48.01171" lon="6.8483">
        <ele>996.5</ele>
        <time>2022-05-26T08:31:07Z</time>
      </trkpt>
      <trkpt lat="48.01158" lon="6.84827">
        <ele>994.7</ele>
        <time>2022-05-26T08:31:10Z</time>
      </trkpt>
      <trkpt lat="48.01148" lon="6.84818">
        <ele>991</ele>
        <time>2022-05-26T08:31:13Z</time>
      </trkpt>
      <trkpt lat="48.0114" lon="6.84807">
        <ele>991.1</ele>
        <time>2022-05-26T08:31:15Z</time>
      </trkpt>
      <trkpt lat="48.01134" lon="6.84797">
        <ele>992.4</ele>
        <time>2022-05-26T08:31:17Z</time>
      </trkpt>
      <trkpt lat="48.01129" lon="6.84785">
        <ele>992.6</ele>
        <time>2022-05-26T08:31:19Z</time>
      </trkpt>
      <trkpt lat="48.01125" lon="6.84772">
        <ele>990.7</ele>
        <time>2022-05-26T08:31:21Z</time>
      </trkpt>
      <trkpt lat="48.01123" lon="6.84755">
        <ele>992.9</ele>
        <time>2022-05-26T08:31:24Z</time>
      </trkpt>
      <trkpt lat="48.01119" lon="6.84739">
        <ele>994.4</ele>
        <time>2022-05-26T08:31:27Z</time>
      </trkpt>
      <trkpt lat="48.01116" lon="6.84726">
        <ele>996.7</ele>
        <time>2022-05-26T08:31:31Z</time>
      </trkpt>
      <trkpt lat="48.01108" lon="6.84714">
        <ele>996.6</ele>
        <time>2022-05-26T08:31:35Z</time>
      </trkpt>
      <trkpt lat="48.01097" lon="6.84706">
        <ele>997.2</ele>
        <time>2022-05-26T08:31:39Z</time>
      </trkpt>
      <trkpt lat="48.01089" lon="6.84702">
        <ele>996.6</ele>
        <time>2022-05-26T08:31:42Z</time>
      </trkpt>
      <trkpt lat="48.01078" lon="6.84696">
        <ele>997.4</ele>
        <time>2022-05-26T08:31:46Z</time>
      </trkpt>
      <trkpt lat="48.01067" lon="6.84691">
        <ele>996.9</ele>
        <time>2022-05-26T08:31:50Z</time>
      </trkpt>
      <trkpt lat="48.01057" lon="6.84685">
        <ele>998.8</ele>
        <time>2022-05-26T08:31:55Z</time>
      </trkpt>
      <trkpt lat="48.01049" lon="6.84675">
        <ele>1000.9</ele>
        <time>2022-05-26T08:32:01Z</time>
      </trkpt>
      <trkpt lat="48.01044" lon="6.84663">
        <ele>1002.2</ele>
        <time>2022-05-26T08:32:06Z</time>
      </trkpt>
      <trkpt lat="48.0104" lon="6.84649">
        <ele>1003.1</ele>
        <time>2022-05-26T08:32:11Z</time>
      </trkpt>
      <trkpt lat="48.01037" lon="6.84635">
        <ele>1004.9</ele>
        <time>2022-05-26T08:32:16Z</time>
      </trkpt>
      <trkpt lat="48.01035" lon="6.8462">
        <ele>1006.5</ele>
        <time>2022-05-26T08:32:22Z</time>
      </trkpt>
      <trkpt lat="48.01033" lon="6.84606">
        <ele>1007.4</ele>
        <time>2022-05-26T08:32:27Z</time>
      </trkpt>
      <trkpt lat="48.0103" lon="6.8459">
        <ele>1007.4</ele>
        <time>2022-05-26T08:32:32Z</time>
      </trkpt>
      <trkpt lat="48.01028" lon="6.84575">
        <ele>1009.4</ele>
        <time>2022-05-26T08:32:37Z</time>
      </trkpt>
      <trkpt lat="48.01023" lon="6.8456">
        <ele>1009.6</ele>
        <time>2022-05-26T08:32:42Z</time>
      </trkpt>
      <trkpt lat="48.01018" lon="6.84548">
        <ele>1010.5</ele>
        <time>2022-05-26T08:32:46Z</time>
      </trkpt>
      <trkpt lat="48.01012" lon="6.84536">
        <ele>1011.2</ele>
        <time>2022-05-26T08:32:51Z</time>
      </trkpt>
      <trkpt lat="48.01006" lon="6.84523">
        <ele>1011.4</ele>
        <time>2022-05-26T08:32:56Z</time>
      </trkpt>
      <trkpt lat="48.01003" lon="6.84506">
        <ele>1011.4</ele>
        <time>2022-05-26T08:33:01Z</time>
      </trkpt>
      <trkpt lat="48.01003" lon="6.84492">
        <ele>1012.1</ele>
        <time>2022-05-26T08:33:05Z</time>
      </trkpt>
      <trkpt lat="48.01002" lon="6.84478">
        <ele>1012.6</ele>
        <time>2022-05-26T08:33:09Z</time>
      </trkpt>
      <trkpt lat="48.00996" lon="6.84464">
        <ele>1012.9</ele>
        <time>2022-05-26T08:33:14Z</time>
      </trkpt>
      <trkpt lat="48.00992" lon="6.84452">
        <ele>1013.1</ele>
        <time>2022-05-26T08:33:18Z</time>
      </trkpt>
      <trkpt lat="48.00989" lon="6.84438">
        <ele>1014.8</ele>
        <time>2022-05-26T08:33:24Z</time>
      </trkpt>
      <trkpt lat="48.0099" lon="6.84422">
        <ele>1015.9</ele>
        <time>2022-05-26T08:33:29Z</time>
      </trkpt>
      <trkpt lat="48.00993" lon="6.84407">
        <ele>1017.9</ele>
        <time>2022-05-26T08:33:34Z</time>
      </trkpt>
      <trkpt lat="48.00995" lon="6.84391">
        <ele>1017.8</ele>
        <time>2022-05-26T08:33:39Z</time>
      </trkpt>
      <trkpt lat="48.00994" lon="6.84376">
        <ele>1019.4</ele>
        <time>2022-05-26T08:33:43Z</time>
      </trkpt>
      <trkpt lat="48.00992" lon="6.84362">
        <ele>1019.2</ele>
        <time>2022-05-26T08:33:49Z</time>
      </trkpt>
      <trkpt lat="48.00985" lon="6.84352">
        <ele>1020.6</ele>
        <time>2022-05-26T08:33:54Z</time>
      </trkpt>
      <trkpt lat="48.00976" lon="6.84344">
        <ele>1021.4</ele>
        <time>2022-05-26T08:33:59Z</time>
      </trkpt>
      <trkpt lat="48.00967" lon="6.8434">
        <ele>1021.9</ele>
        <time>2022-05-26T08:34:04Z</time>
      </trkpt>
      <trkpt lat="48.00957" lon="6.84337">
        <ele>1021.9</ele>
        <time>2022-05-26T08:34:07Z</time>
      </trkpt>
      <trkpt lat="48.00946" lon="6.84335">
        <ele>1022.7</ele>
        <time>2022-05-26T08:34:11Z</time>
      </trkpt>
      <trkpt lat="48.00935" lon="6.84337">
        <ele>1023.6</ele>
        <time>2022-05-26T08:34:16Z</time>
      </trkpt>
      <trkpt lat="48.00926" lon="6.84341">
        <ele>1023.2</ele>
        <time>2022-05-26T08:34:19Z</time>
      </trkpt>
      <trkpt lat="48.00914" lon="6.84344">
        <ele>1024.2</ele>
        <time>2022-05-26T08:34:23Z</time>
      </trkpt>
      <trkpt lat="48.00902" lon="6.84344">
        <ele>1024.6</ele>
        <time>2022-05-26T08:34:27Z</time>
      </trkpt>
      <trkpt lat="48.00891" lon="6.84345">
        <ele>1025.7</ele>
        <time>2022-05-26T08:34:32Z</time>
      </trkpt>
      <trkpt lat="48.00882" lon="6.8435">
        <ele>1027.3</ele>
        <time>2022-05-26T08:34:38Z</time>
      </trkpt>
      <trkpt lat="48.00874" lon="6.84355">
        <ele>1029.8</ele>
        <time>2022-05-26T08:34:44Z</time>
      </trkpt>
      <trkpt lat="48.00865" lon="6.84357">
        <ele>1032.8</ele>
        <time>2022-05-26T08:34:53Z</time>
      </trkpt>
      <trkpt lat="48.00856" lon="6.84349">
        <ele>1033.7</ele>
        <time>2022-05-26T08:34:59Z</time>
      </trkpt>
      <trkpt lat="48.00853" lon="6.84336">
        <ele>1033.9</ele>
        <time>2022-05-26T08:35:04Z</time>
      </trkpt>
      <trkpt lat="48.00851" lon="6.84321">
        <ele>1034.6</ele>
        <time>2022-05-26T08:35:09Z</time>
      </trkpt>
      <trkpt lat="48.0085" lon="6.84304">
        <ele>1036.2</ele>
        <time>2022-05-26T08:35:14Z</time>
      </trkpt>
      <trkpt lat="48.00848" lon="6.84289">
        <ele>1036.6</ele>
        <time>2022-05-26T08:35:19Z</time>
      </trkpt>
      <trkpt lat="48.00849" lon="6.84276">
        <ele>1038.3</ele>
        <time>2022-05-26T08:35:24Z</time>
      </trkpt>
      <trkpt lat="48.00852" lon="6.84262">
        <ele>1039.1</ele>
        <time>2022-05-26T08:35:30Z</time>
      </trkpt>
      <trkpt lat="48.00857" lon="6.84247">
        <ele>1040</ele>
        <time>2022-05-26T08:35:35Z</time>
      </trkpt>
      <trkpt lat="48.0086" lon="6.84234">
        <ele>1040.1</ele>
        <time>2022-05-26T08:35:39Z</time>
      </trkpt>
      <trkpt lat="48.00861" lon="6.8422">
        <ele>1041.4</ele>
        <time>2022-05-26T08:35:43Z</time>
      </trkpt>
      <trkpt lat="48.00862" lon="6.84204">
        <ele>1041.6</ele>
        <time>2022-05-26T08:35:48Z</time>
      </trkpt>
      <trkpt lat="48.00862" lon="6.8419">
        <ele>1043.3</ele>
        <time>2022-05-26T08:35:52Z</time>
      </trkpt>
      <trkpt lat="48.00863" lon="6.84175">
        <ele>1044.7</ele>
        <time>2022-05-26T08:35:57Z</time>
      </trkpt>
      <trkpt lat="48.00867" lon="6.84161">
        <ele>1045.6</ele>
        <time>2022-05-26T08:36:02Z</time>
      </trkpt>
      <trkpt lat="48.00873" lon="6.84149">
        <ele>1046.8</ele>
        <time>2022-05-26T08:36:07Z</time>
      </trkpt>
      <trkpt lat="48.0088" lon="6.84134">
        <ele>1046.3</ele>
        <time>2022-05-26T08:36:12Z</time>
      </trkpt>
      <trkpt lat="48.00885" lon="6.84121">
        <ele>1047.7</ele>
        <time>2022-05-26T08:36:16Z</time>
      </trkpt>
      <trkpt lat="48.00887" lon="6.84105">
        <ele>1048.1</ele>
        <time>2022-05-26T08:36:21Z</time>
      </trkpt>
      <trkpt lat="48.00886" lon="6.84088">
        <ele>1049.6</ele>
        <time>2022-05-26T08:36:26Z</time>
      </trkpt>
      <trkpt lat="48.00884" lon="6.84075">
        <ele>1050.2</ele>
        <time>2022-05-26T08:36:32Z</time>
      </trkpt>
      <trkpt lat="48.00883" lon="6.8406">
        <ele>1051.7</ele>
        <time>2022-05-26T08:36:38Z</time>
      </trkpt>
      <trkpt lat="48.0088" lon="6.84047">
        <ele>1052.8</ele>
        <time>2022-05-26T08:36:46Z</time>
      </trkpt>
      <trkpt lat="48.00874" lon="6.84035">
        <ele>1053.9</ele>
        <time>2022-05-26T08:36:51Z</time>
      </trkpt>
      <trkpt lat="48.00867" lon="6.84023">
        <ele>1055</ele>
        <time>2022-05-26T08:36:57Z</time>
      </trkpt>
      <trkpt lat="48.0086" lon="6.84014">
        <ele>1056</ele>
        <time>2022-05-26T08:37:01Z</time>
      </trkpt>
      <trkpt lat="48.0085" lon="6.84005">
        <ele>1055.9</ele>
        <time>2022-05-26T08:37:05Z</time>
      </trkpt>
      <trkpt lat="48.00842" lon="6.83996">
        <ele>1056.2</ele>
        <time>2022-05-26T08:37:09Z</time>
      </trkpt>
      <trkpt lat="48.00836" lon="6.83981">
        <ele>1056.4</ele>
        <time>2022-05-26T08:37:13Z</time>
      </trkpt>
      <trkpt lat="48.0083" lon="6.83968">
        <ele>1054.7</ele>
        <time>2022-05-26T08:37:16Z</time>
      </trkpt>
      <trkpt lat="48.00826" lon="6.83957">
        <ele>1055.4</ele>
        <time>2022-05-26T08:37:19Z</time>
      </trkpt>
      <trkpt lat="48.0082" lon="6.83942">
        <ele>1054.7</ele>
        <time>2022-05-26T08:37:22Z</time>
      </trkpt>
      <trkpt lat="48.00815" lon="6.8393">
        <ele>1054.4</ele>
        <time>2022-05-26T08:37:24Z</time>
      </trkpt>
      <trkpt lat="48.00806" lon="6.83918">
        <ele>1054.7</ele>
        <time>2022-05-26T08:37:27Z</time>
      </trkpt>
      <trkpt lat="48.00798" lon="6.8391">
        <ele>1055.4</ele>
        <time>2022-05-26T08:37:30Z</time>
      </trkpt>
      <trkpt lat="48.00788" lon="6.83904">
        <ele>1055.3</ele>
        <time>2022-05-26T08:37:34Z</time>
      </trkpt>
      <trkpt lat="48.00779" lon="6.83897">
        <ele>1055.6</ele>
        <time>2022-05-26T08:37:37Z</time>
      </trkpt>
      <trkpt lat="48.0077" lon="6.83893">
        <ele>1055.3</ele>
        <time>2022-05-26T08:37:40Z</time>
      </trkpt>
      <trkpt lat="48.00758" lon="6.83892">
        <ele>1054.2</ele>
        <time>2022-05-26T08:37:43Z</time>
      </trkpt>
      <trkpt lat="48.00748" lon="6.83889">
        <ele>1054</ele>
        <time>2022-05-26T08:37:46Z</time>
      </trkpt>
      <trkpt lat="48.00736" lon="6.83885">
        <ele>1054.6</ele>
        <time>2022-05-26T08:37:50Z</time>
      </trkpt>
      <trkpt lat="48.00727" lon="6.83884">
        <ele>1054.3</ele>
        <time>2022-05-26T08:37:53Z</time>
      </trkpt>
      <trkpt lat="48.00718" lon="6.8388">
        <ele>1054.5</ele>
        <time>2022-05-26T08:37:56Z</time>
      </trkpt>
      <trkpt lat="48.00706" lon="6.83878">
        <ele>1055.2</ele>
        <time>2022-05-26T08:38:00Z</time>
      </trkpt>
      <trkpt lat="48.00694" lon="6.83874">
        <ele>1055.6</ele>
        <time>2022-05-26T08:38:03Z</time>
      </trkpt>
      <trkpt lat="48.00682" lon="6.83871">
        <ele>1054.8</ele>
        <time>2022-05-26T08:38:06Z</time>
      </trkpt>
      <trkpt lat="48.0067" lon="6.83867">
        <ele>1055.5</ele>
        <time>2022-05-26T08:38:09Z</time>
      </trkpt>
      <trkpt lat="48.00661" lon="6.83864">
        <ele>1054.6</ele>
        <time>2022-05-26T08:38:11Z</time>
      </trkpt>
      <trkpt lat="48.00652" lon="6.83858">
        <ele>1054.5</ele>
        <time>2022-05-26T08:38:13Z</time>
      </trkpt>
      <trkpt lat="48.00639" lon="6.83853">
        <ele>1052.9</ele>
        <time>2022-05-26T08:38:16Z</time>
      </trkpt>
      <trkpt lat="48.00629" lon="6.83849">
        <ele>1053</ele>
        <time>2022-05-26T08:38:18Z</time>
      </trkpt>
      <trkpt lat="48.00618" lon="6.83845">
        <ele>1051.8</ele>
        <time>2022-05-26T08:38:20Z</time>
      </trkpt>
      <trkpt lat="48.00608" lon="6.83841">
        <ele>1051.5</ele>
        <time>2022-05-26T08:38:22Z</time>
      </trkpt>
      <trkpt lat="48.00599" lon="6.83823">
        <ele>1049.4</ele>
        <time>2022-05-26T08:38:25Z</time>
      </trkpt>
      <trkpt lat="48.00598" lon="6.83801">
        <ele>1047.1</ele>
        <time>2022-05-26T08:38:27Z</time>
      </trkpt>
      <trkpt lat="48.00597" lon="6.83779">
        <ele>1048.3</ele>
        <time>2022-05-26T08:38:29Z</time>
      </trkpt>
      <trkpt lat="48.00594" lon="6.83757">
        <ele>1046</ele>
        <time>2022-05-26T08:38:31Z</time>
      </trkpt>
      <trkpt lat="48.00588" lon="6.83736">
        <ele>1041</ele>
        <time>2022-05-26T08:38:33Z</time>
      </trkpt>
      <trkpt lat="48.0058" lon="6.83721">
        <ele>1042.9</ele>
        <time>2022-05-26T08:38:35Z</time>
      </trkpt>
      <trkpt lat="48.0057" lon="6.83713">
        <ele>1042.9</ele>
        <time>2022-05-26T08:38:37Z</time>
      </trkpt>
      <trkpt lat="48.00558" lon="6.83706">
        <ele>1043.3</ele>
        <time>2022-05-26T08:38:39Z</time>
      </trkpt>
      <trkpt lat="48.00549" lon="6.83696">
        <ele>1044</ele>
        <time>2022-05-26T08:38:41Z</time>
      </trkpt>
      <trkpt lat="48.00544" lon="6.83679">
        <ele>1040.2</ele>
        <time>2022-05-26T08:38:43Z</time>
      </trkpt>
      <trkpt lat="48.00541" lon="6.83659">
        <ele>1036.8</ele>
        <time>2022-05-26T08:38:45Z</time>
      </trkpt>
      <trkpt lat="48.00536" lon="6.83642">
        <ele>1039.4</ele>
        <time>2022-05-26T08:38:47Z</time>
      </trkpt>
      <trkpt lat="48.00529" lon="6.83634">
        <ele>1038.7</ele>
        <time>2022-05-26T08:38:49Z</time>
      </trkpt>
      <trkpt lat="48.00518" lon="6.83633">
        <ele>1037.5</ele>
        <time>2022-05-26T08:38:51Z</time>
      </trkpt>
      <trkpt lat="48.00508" lon="6.83639">
        <ele>1035.8</ele>
        <time>2022-05-26T08:38:53Z</time>
      </trkpt>
      <trkpt lat="48.00498" lon="6.83652">
        <ele>1031.2</ele>
        <time>2022-05-26T08:38:55Z</time>
      </trkpt>
      <trkpt lat="48.00487" lon="6.83665">
        <ele>1032</ele>
        <time>2022-05-26T08:38:57Z</time>
      </trkpt>
      <trkpt lat="48.00476" lon="6.83675">
        <ele>1032.4</ele>
        <time>2022-05-26T08:38:59Z</time>
      </trkpt>
      <trkpt lat="48.00466" lon="6.83687">
        <ele>1030.9</ele>
        <time>2022-05-26T08:39:01Z</time>
      </trkpt>
      <trkpt lat="48.00455" lon="6.83692">
        <ele>1032.9</ele>
        <time>2022-05-26T08:39:03Z</time>
      </trkpt>
      <trkpt lat="48.00445" lon="6.83692">
        <ele>1032.6</ele>
        <time>2022-05-26T08:39:05Z</time>
      </trkpt>
      <trkpt lat="48.00436" lon="6.83685">
        <ele>1033</ele>
        <time>2022-05-26T08:39:07Z</time>
      </trkpt>
      <trkpt lat="48.00428" lon="6.83674">
        <ele>1029.8</ele>
        <time>2022-05-26T08:39:10Z</time>
      </trkpt>
      <trkpt lat="48.00424" lon="6.83658">
        <ele>1027.4</ele>
        <time>2022-05-26T08:39:14Z</time>
      </trkpt>
      <trkpt lat="48.00424" lon="6.8364">
        <ele>1024.8</ele>
        <time>2022-05-26T08:39:18Z</time>
      </trkpt>
      <trkpt lat="48.00423" lon="6.83625">
        <ele>1024.7</ele>
        <time>2022-05-26T08:39:20Z</time>
      </trkpt>
      <trkpt lat="48.00424" lon="6.83604">
        <ele>1020.8</ele>
        <time>2022-05-26T08:39:22Z</time>
      </trkpt>
      <trkpt lat="48.00426" lon="6.83584">
        <ele>1018.2</ele>
        <time>2022-05-26T08:39:24Z</time>
      </trkpt>
      <trkpt lat="48.00425" lon="6.83563">
        <ele>1018.6</ele>
        <time>2022-05-26T08:39:26Z</time>
      </trkpt>
      <trkpt lat="48.00421" lon="6.83547">
        <ele>1018.3</ele>
        <time>2022-05-26T08:39:28Z</time>
      </trkpt>
      <trkpt lat="48.0041" lon="6.83542">
        <ele>1022.3</ele>
        <time>2022-05-26T08:39:31Z</time>
      </trkpt>
      <trkpt lat="48.00399" lon="6.8354">
        <ele>1023.4</ele>
        <time>2022-05-26T08:39:36Z</time>
      </trkpt>
      <trkpt lat="48.00401" lon="6.83525">
        <ele>1024.1</ele>
        <time>2022-05-26T08:39:40Z</time>
      </trkpt>
      <trkpt lat="48.00405" lon="6.83508">
        <ele>1024.4</ele>
        <time>2022-05-26T08:39:44Z</time>
      </trkpt>
      <trkpt lat="48.00406" lon="6.83494">
        <ele>1024.2</ele>
        <time>2022-05-26T08:39:47Z</time>
      </trkpt>
      <trkpt lat="48.00403" lon="6.83479">
        <ele>1022.7</ele>
        <time>2022-05-26T08:39:51Z</time>
      </trkpt>
      <trkpt lat="48.00392" lon="6.83469">
        <ele>1022.3</ele>
        <time>2022-05-26T08:39:54Z</time>
      </trkpt>
      <trkpt lat="48.00383" lon="6.83462">
        <ele>1020.1</ele>
        <time>2022-05-26T08:39:56Z</time>
      </trkpt>
      <trkpt lat="48.00373" lon="6.83458">
        <ele>1017.4</ele>
        <time>2022-05-26T08:39:58Z</time>
      </trkpt>
      <trkpt lat="48.00361" lon="6.8345">
        <ele>1016.7</ele>
        <time>2022-05-26T08:40:01Z</time>
      </trkpt>
      <trkpt lat="48.00352" lon="6.83439">
        <ele>1016.1</ele>
        <time>2022-05-26T08:40:03Z</time>
      </trkpt>
      <trkpt lat="48.00345" lon="6.83425">
        <ele>1016.2</ele>
        <time>2022-05-26T08:40:05Z</time>
      </trkpt>
      <trkpt lat="48.00342" lon="6.8341">
        <ele>1015.8</ele>
        <time>2022-05-26T08:40:07Z</time>
      </trkpt>
      <trkpt lat="48.00343" lon="6.83395">
        <ele>1014.9</ele>
        <time>2022-05-26T08:40:09Z</time>
      </trkpt>
      <trkpt lat="48.00343" lon="6.83381">
        <ele>1014.3</ele>
        <time>2022-05-26T08:40:11Z</time>
      </trkpt>
      <trkpt lat="48.00337" lon="6.83365">
        <ele>1015.9</ele>
        <time>2022-05-26T08:40:14Z</time>
      </trkpt>
      <trkpt lat="48.00328" lon="6.83355">
        <ele>1016.1</ele>
        <time>2022-05-26T08:40:17Z</time>
      </trkpt>
      <trkpt lat="48.00321" lon="6.83346">
        <ele>1017.8</ele>
        <time>2022-05-26T08:40:20Z</time>
      </trkpt>
      <trkpt lat="48.00311" lon="6.83346">
        <ele>1019.2</ele>
        <time>2022-05-26T08:40:24Z</time>
      </trkpt>
      <trkpt lat="48.003" lon="6.83349">
        <ele>1019.3</ele>
        <time>2022-05-26T08:40:28Z</time>
      </trkpt>
      <trkpt lat="48.00289" lon="6.83351">
        <ele>1020</ele>
        <time>2022-05-26T08:40:32Z</time>
      </trkpt>
      <trkpt lat="48.00279" lon="6.83353">
        <ele>1020.5</ele>
        <time>2022-05-26T08:40:36Z</time>
      </trkpt>
      <trkpt lat="48.00269" lon="6.83352">
        <ele>1022.2</ele>
        <time>2022-05-26T08:40:41Z</time>
      </trkpt>
      <trkpt lat="48.0026" lon="6.83348">
        <ele>1022.8</ele>
        <time>2022-05-26T08:40:45Z</time>
      </trkpt>
      <trkpt lat="48.00251" lon="6.83341">
        <ele>1022.5</ele>
        <time>2022-05-26T08:40:49Z</time>
      </trkpt>
      <trkpt lat="48.0024" lon="6.83334">
        <ele>1022.3</ele>
        <time>2022-05-26T08:40:53Z</time>
      </trkpt>
      <trkpt lat="48.00233" lon="6.83326">
        <ele>1022.4</ele>
        <time>2022-05-26T08:40:56Z</time>
      </trkpt>
      <trkpt lat="48.00225" lon="6.83316">
        <ele>1022.2</ele>
        <time>2022-05-26T08:40:59Z</time>
      </trkpt>
      <trkpt lat="48.00217" lon="6.83309">
        <ele>1023.9</ele>
        <time>2022-05-26T08:41:02Z</time>
      </trkpt>
      <trkpt lat="48.00207" lon="6.83299">
        <ele>1023.9</ele>
        <time>2022-05-26T08:41:06Z</time>
      </trkpt>
      <trkpt lat="48.00203" lon="6.83287">
        <ele>1025.8</ele>
        <time>2022-05-26T08:41:09Z</time>
      </trkpt>
      <trkpt lat="48.00198" lon="6.83272">
        <ele>1026.8</ele>
        <time>2022-05-26T08:41:13Z</time>
      </trkpt>
      <trkpt lat="48.0019" lon="6.8326">
        <ele>1027.2</ele>
        <time>2022-05-26T08:41:17Z</time>
      </trkpt>
      <trkpt lat="48.00183" lon="6.83247">
        <ele>1027.4</ele>
        <time>2022-05-26T08:41:21Z</time>
      </trkpt>
      <trkpt lat="48.00178" lon="6.83236">
        <ele>1029.8</ele>
        <time>2022-05-26T08:41:25Z</time>
      </trkpt>
      <trkpt lat="48.00172" lon="6.83221">
        <ele>1030.6</ele>
        <time>2022-05-26T08:41:30Z</time>
      </trkpt>
      <trkpt lat="48.00167" lon="6.83206">
        <ele>1029.8</ele>
        <time>2022-05-26T08:41:34Z</time>
      </trkpt>
      <trkpt lat="48.00164" lon="6.83189">
        <ele>1028.4</ele>
        <time>2022-05-26T08:41:37Z</time>
      </trkpt>
      <trkpt lat="48.0016" lon="6.83172">
        <ele>1028.9</ele>
        <time>2022-05-26T08:41:40Z</time>
      </trkpt>
      <trkpt lat="48.00154" lon="6.83157">
        <ele>1030.2</ele>
        <time>2022-05-26T08:41:43Z</time>
      </trkpt>
      <trkpt lat="48.00149" lon="6.83141">
        <ele>1029.2</ele>
        <time>2022-05-26T08:41:46Z</time>
      </trkpt>
      <trkpt lat="48.00146" lon="6.83129">
        <ele>1029.4</ele>
        <time>2022-05-26T08:41:48Z</time>
      </trkpt>
      <trkpt lat="48.00139" lon="6.83115">
        <ele>1030.7</ele>
        <time>2022-05-26T08:41:51Z</time>
      </trkpt>
      <trkpt lat="48.00133" lon="6.83103">
        <ele>1027.7</ele>
        <time>2022-05-26T08:41:54Z</time>
      </trkpt>
      <trkpt lat="48.00129" lon="6.83085">
        <ele>1027.9</ele>
        <time>2022-05-26T08:41:57Z</time>
      </trkpt>
      <trkpt lat="48.00121" lon="6.83073">
        <ele>1030.7</ele>
        <time>2022-05-26T08:42:01Z</time>
      </trkpt>
      <trkpt lat="48.0011" lon="6.83072">
        <ele>1029.6</ele>
        <time>2022-05-26T08:42:05Z</time>
      </trkpt>
      <trkpt lat="48.001" lon="6.83077">
        <ele>1030</ele>
        <time>2022-05-26T08:42:09Z</time>
      </trkpt>
      <trkpt lat="48.00089" lon="6.8308">
        <ele>1030.4</ele>
        <time>2022-05-26T08:42:14Z</time>
      </trkpt>
      <trkpt lat="48.0008" lon="6.83083">
        <ele>1031</ele>
        <time>2022-05-26T08:42:19Z</time>
      </trkpt>
      <trkpt lat="48.0007" lon="6.83087">
        <ele>1031.9</ele>
        <time>2022-05-26T08:42:24Z</time>
      </trkpt>
      <trkpt lat="48.00062" lon="6.83094">
        <ele>1032.8</ele>
        <time>2022-05-26T08:42:32Z</time>
      </trkpt>
      <trkpt lat="48.00062" lon="6.83093">
        <ele>1032.8</ele>
        <time>2022-05-26T08:42:33Z</time>
      </trkpt>
      <trkpt lat="48.00061" lon="6.83093">
        <ele>1032.7</ele>
        <time>2022-05-26T08:43:56Z</time>
      </trkpt>
      <trkpt lat="48.00061" lon="6.83094">
        <ele>1032.7</ele>
        <time>2022-05-26T08:43:58Z</time>
      </trkpt>
      <trkpt lat="48.00059" lon="6.83095">
        <ele>1032.9</ele>
        <time>2022-05-26T08:44:18Z</time>
      </trkpt>
      <trkpt lat="48.00059" lon="6.83096">
        <ele>1033</ele>
        <time>2022-05-26T08:44:23Z</time>
      </trkpt>
      <trkpt lat="48.00057" lon="6.83098">
        <ele>1032.9</ele>
        <time>2022-05-26T08:44:29Z</time>
      </trkpt>
      <trkpt lat="48.00057" lon="6.83097">
        <ele>1032.7</ele>
        <time>2022-05-26T08:44:34Z</time>
      </trkpt>
      <trkpt lat="48.00059" lon="6.83096">
        <ele>1032.9</ele>
        <time>2022-05-26T08:44:42Z</time>
      </trkpt>
      <trkpt lat="48.00058" lon="6.83096">
        <ele>1033.4</ele>
        <time>2022-05-26T08:45:14Z</time>
      </trkpt>
      <trkpt lat="48.00047" lon="6.83097">
        <ele>1031.4</ele>
        <time>2022-05-26T08:45:20Z</time>
      </trkpt>
      <trkpt lat="48.00037" lon="6.83098">
        <ele>1031.4</ele>
        <time>2022-05-26T08:45:23Z</time>
      </trkpt>
      <trkpt lat="48.00026" lon="6.83099">
        <ele>1031.2</ele>
        <time>2022-05-26T08:45:26Z</time>
      </trkpt>
      <trkpt lat="48.00015" lon="6.83107">
        <ele>1031.5</ele>
        <time>2022-05-26T08:45:29Z</time>
      </trkpt>
      <trkpt lat="48.00006" lon="6.83117">
        <ele>1031.2</ele>
        <time>2022-05-26T08:45:32Z</time>
      </trkpt>
      <trkpt lat="47.99995" lon="6.83128">
        <ele>1029.9</ele>
        <time>2022-05-26T08:45:35Z</time>
      </trkpt>
      <trkpt lat="47.99985" lon="6.83138">
        <ele>1032.6</ele>
        <time>2022-05-26T08:45:38Z</time>
      </trkpt>
      <trkpt lat="47.99976" lon="6.83146">
        <ele>1031.4</ele>
        <time>2022-05-26T08:45:42Z</time>
      </trkpt>
      <trkpt lat="47.99964" lon="6.83151">
        <ele>1031.9</ele>
        <time>2022-05-26T08:45:45Z</time>
      </trkpt>
      <trkpt lat="47.99952" lon="6.83152">
        <ele>1030.8</ele>
        <time>2022-05-26T08:45:48Z</time>
      </trkpt>
      <trkpt lat="47.99943" lon="6.83146">
        <ele>1031.9</ele>
        <time>2022-05-26T08:45:51Z</time>
      </trkpt>
      <trkpt lat="47.99935" lon="6.83137">
        <ele>1033.1</ele>
        <time>2022-05-26T08:45:54Z</time>
      </trkpt>
      <trkpt lat="47.99927" lon="6.83128">
        <ele>1034.6</ele>
        <time>2022-05-26T08:45:57Z</time>
      </trkpt>
      <trkpt lat="47.99921" lon="6.83118">
        <ele>1034.9</ele>
        <time>2022-05-26T08:46:02Z</time>
      </trkpt>
      <trkpt lat="47.99916" lon="6.8311">
        <ele>1036.3</ele>
        <time>2022-05-26T08:46:16Z</time>
      </trkpt>
      <trkpt lat="47.99916" lon="6.83109">
        <ele>1036.4</ele>
        <time>2022-05-26T08:46:18Z</time>
      </trkpt>
      <trkpt lat="47.99912" lon="6.83096">
        <ele>1035.6</ele>
        <time>2022-05-26T08:46:24Z</time>
      </trkpt>
      <trkpt lat="47.99907" lon="6.83085">
        <ele>1035.7</ele>
        <time>2022-05-26T08:46:27Z</time>
      </trkpt>
      <trkpt lat="47.99901" lon="6.83072">
        <ele>1035.9</ele>
        <time>2022-05-26T08:46:31Z</time>
      </trkpt>
      <trkpt lat="47.99894" lon="6.83061">
        <ele>1036.9</ele>
        <time>2022-05-26T08:46:35Z</time>
      </trkpt>
      <trkpt lat="47.99886" lon="6.83056">
        <ele>1034.6</ele>
        <time>2022-05-26T08:46:38Z</time>
      </trkpt>
      <trkpt lat="47.99874" lon="6.83053">
        <ele>1034</ele>
        <time>2022-05-26T08:46:41Z</time>
      </trkpt>
      <trkpt lat="47.99861" lon="6.8305">
        <ele>1034.4</ele>
        <time>2022-05-26T08:46:44Z</time>
      </trkpt>
      <trkpt lat="47.9985" lon="6.83046">
        <ele>1035.1</ele>
        <time>2022-05-26T08:46:47Z</time>
      </trkpt>
      <trkpt lat="47.99841" lon="6.83043">
        <ele>1035.7</ele>
        <time>2022-05-26T08:46:50Z</time>
      </trkpt>
      <trkpt lat="47.99832" lon="6.83038">
        <ele>1036.4</ele>
        <time>2022-05-26T08:46:53Z</time>
      </trkpt>
      <trkpt lat="47.99822" lon="6.83031">
        <ele>1037.8</ele>
        <time>2022-05-26T08:46:57Z</time>
      </trkpt>
      <trkpt lat="47.99813" lon="6.83022">
        <ele>1037.6</ele>
        <time>2022-05-26T08:47:01Z</time>
      </trkpt>
      <trkpt lat="47.99806" lon="6.83012">
        <ele>1038.1</ele>
        <time>2022-05-26T08:47:04Z</time>
      </trkpt>
      <trkpt lat="47.998" lon="6.82999">
        <ele>1037.2</ele>
        <time>2022-05-26T08:47:07Z</time>
      </trkpt>
      <trkpt lat="47.99794" lon="6.82988">
        <ele>1036.9</ele>
        <time>2022-05-26T08:47:10Z</time>
      </trkpt>
      <trkpt lat="47.99787" lon="6.82975">
        <ele>1035.5</ele>
        <time>2022-05-26T08:47:13Z</time>
      </trkpt>
      <trkpt lat="47.9978" lon="6.8296">
        <ele>1036.4</ele>
        <time>2022-05-26T08:47:16Z</time>
      </trkpt>
      <trkpt lat="47.99773" lon="6.82946">
        <ele>1036.6</ele>
        <time>2022-05-26T08:47:19Z</time>
      </trkpt>
      <trkpt lat="47.99765" lon="6.82933">
        <ele>1036.9</ele>
        <time>2022-05-26T08:47:22Z</time>
      </trkpt>
      <trkpt lat="47.99756" lon="6.8292">
        <ele>1036.6</ele>
        <time>2022-05-26T08:47:25Z</time>
      </trkpt>
      <trkpt lat="47.99747" lon="6.82907">
        <ele>1037</ele>
        <time>2022-05-26T08:47:28Z</time>
      </trkpt>
      <trkpt lat="47.9974" lon="6.82895">
        <ele>1038</ele>
        <time>2022-05-26T08:47:31Z</time>
      </trkpt>
      <trkpt lat="47.99732" lon="6.82884">
        <ele>1036.7</ele>
        <time>2022-05-26T08:47:34Z</time>
      </trkpt>
      <trkpt lat="47.99724" lon="6.8287">
        <ele>1036.5</ele>
        <time>2022-05-26T08:47:37Z</time>
      </trkpt>
      <trkpt lat="47.99719" lon="6.82855">
        <ele>1035.8</ele>
        <time>2022-05-26T08:47:40Z</time>
      </trkpt>
      <trkpt lat="47.99714" lon="6.82837">
        <ele>1035.7</ele>
        <time>2022-05-26T08:47:43Z</time>
      </trkpt>
      <trkpt lat="47.99705" lon="6.82822">
        <ele>1034.8</ele>
        <time>2022-05-26T08:47:46Z</time>
      </trkpt>
      <trkpt lat="47.99694" lon="6.82811">
        <ele>1034.7</ele>
        <time>2022-05-26T08:47:49Z</time>
      </trkpt>
      <trkpt lat="47.99683" lon="6.82805">
        <ele>1035.3</ele>
        <time>2022-05-26T08:47:52Z</time>
      </trkpt>
      <trkpt lat="47.99672" lon="6.82799">
        <ele>1036.2</ele>
        <time>2022-05-26T08:47:55Z</time>
      </trkpt>
      <trkpt lat="47.99663" lon="6.82796">
        <ele>1037.3</ele>
        <time>2022-05-26T08:47:58Z</time>
      </trkpt>
      <trkpt lat="47.99654" lon="6.82796">
        <ele>1036.7</ele>
        <time>2022-05-26T08:48:02Z</time>
      </trkpt>
      <trkpt lat="47.99643" lon="6.82794">
        <ele>1037.8</ele>
        <time>2022-05-26T08:48:06Z</time>
      </trkpt>
      <trkpt lat="47.99632" lon="6.82783">
        <ele>1033.4</ele>
        <time>2022-05-26T08:48:09Z</time>
      </trkpt>
      <trkpt lat="47.99624" lon="6.82774">
        <ele>1034.3</ele>
        <time>2022-05-26T08:48:11Z</time>
      </trkpt>
      <trkpt lat="47.99616" lon="6.82762">
        <ele>1032</ele>
        <time>2022-05-26T08:48:14Z</time>
      </trkpt>
      <trkpt lat="47.99608" lon="6.82751">
        <ele>1031.2</ele>
        <time>2022-05-26T08:48:18Z</time>
      </trkpt>
      <trkpt lat="47.99599" lon="6.82741">
        <ele>1027.8</ele>
        <time>2022-05-26T08:48:22Z</time>
      </trkpt>
      <trkpt lat="47.99595" lon="6.82726">
        <ele>1025.2</ele>
        <time>2022-05-26T08:48:25Z</time>
      </trkpt>
      <trkpt lat="47.99591" lon="6.82711">
        <ele>1022.3</ele>
        <time>2022-05-26T08:48:27Z</time>
      </trkpt>
      <trkpt lat="47.99587" lon="6.82697">
        <ele>1020.3</ele>
        <time>2022-05-26T08:48:29Z</time>
      </trkpt>
      <trkpt lat="47.99582" lon="6.82682">
        <ele>1019.6</ele>
        <time>2022-05-26T08:48:31Z</time>
      </trkpt>
      <trkpt lat="47.99575" lon="6.82668">
        <ele>1021.6</ele>
        <time>2022-05-26T08:48:33Z</time>
      </trkpt>
      <trkpt lat="47.99568" lon="6.82656">
        <ele>1022.4</ele>
        <time>2022-05-26T08:48:35Z</time>
      </trkpt>
      <trkpt lat="47.99561" lon="6.82642">
        <ele>1021.9</ele>
        <time>2022-05-26T08:48:37Z</time>
      </trkpt>
      <trkpt lat="47.99555" lon="6.82627">
        <ele>1021.6</ele>
        <time>2022-05-26T08:48:39Z</time>
      </trkpt>
      <trkpt lat="47.99551" lon="6.82612">
        <ele>1019.2</ele>
        <time>2022-05-26T08:48:41Z</time>
      </trkpt>
      <trkpt lat="47.99547" lon="6.82598">
        <ele>1017.9</ele>
        <time>2022-05-26T08:48:43Z</time>
      </trkpt>
      <trkpt lat="47.99541" lon="6.82586">
        <ele>1020.5</ele>
        <time>2022-05-26T08:48:45Z</time>
      </trkpt>
      <trkpt lat="47.99533" lon="6.82573">
        <ele>1018.4</ele>
        <time>2022-05-26T08:48:47Z</time>
      </trkpt>
      <trkpt lat="47.99525" lon="6.82558">
        <ele>1015.5</ele>
        <time>2022-05-26T08:48:49Z</time>
      </trkpt>
      <trkpt lat="47.99517" lon="6.82543">
        <ele>1012.6</ele>
        <time>2022-05-26T08:48:51Z</time>
      </trkpt>
      <trkpt lat="47.99509" lon="6.82528">
        <ele>1015.8</ele>
        <time>2022-05-26T08:48:53Z</time>
      </trkpt>
      <trkpt lat="47.99503" lon="6.82517">
        <ele>1017</ele>
        <time>2022-05-26T08:48:55Z</time>
      </trkpt>
      <trkpt lat="47.99499" lon="6.82511">
        <ele>1018.3</ele>
        <time>2022-05-26T08:48:59Z</time>
      </trkpt>
      <trkpt lat="47.99499" lon="6.82512">
        <ele>1018.3</ele>
        <time>2022-05-26T08:49:08Z</time>
      </trkpt>
      <trkpt lat="47.995" lon="6.82512">
        <ele>1018.5</ele>
        <time>2022-05-26T08:49:12Z</time>
      </trkpt>
      <trkpt lat="47.99501" lon="6.82513">
        <ele>1018.5</ele>
        <time>2022-05-26T08:49:15Z</time>
      </trkpt>
      <trkpt lat="47.99507" lon="6.82525">
        <ele>1017.9</ele>
        <time>2022-05-26T08:49:21Z</time>
      </trkpt>
      <trkpt lat="47.99514" lon="6.82536">
        <ele>1018.5</ele>
        <time>2022-05-26T08:49:25Z</time>
      </trkpt>
      <trkpt lat="47.99521" lon="6.82549">
        <ele>1019.2</ele>
        <time>2022-05-26T08:49:29Z</time>
      </trkpt>
      <trkpt lat="47.99526" lon="6.8256">
        <ele>1019.2</ele>
        <time>2022-05-26T08:49:32Z</time>
      </trkpt>
      <trkpt lat="47.99532" lon="6.82572">
        <ele>1019.5</ele>
        <time>2022-05-26T08:49:35Z</time>
      </trkpt>
      <trkpt lat="47.99539" lon="6.82583">
        <ele>1020.1</ele>
        <time>2022-05-26T08:49:38Z</time>
      </trkpt>
      <trkpt lat="47.99545" lon="6.82594">
        <ele>1022</ele>
        <time>2022-05-26T08:49:42Z</time>
      </trkpt>
      <trkpt lat="47.9955" lon="6.82606">
        <ele>1022.3</ele>
        <time>2022-05-26T08:49:47Z</time>
      </trkpt>
      <trkpt lat="47.99553" lon="6.82612">
        <ele>1021.7</ele>
        <time>2022-05-26T08:49:53Z</time>
      </trkpt>
      <trkpt lat="47.99552" lon="6.82612">
        <ele>1021.8</ele>
        <time>2022-05-26T08:49:54Z</time>
      </trkpt>
      <trkpt lat="47.99547" lon="6.82602">
        <ele>1022.6</ele>
        <time>2022-05-26T08:50:10Z</time>
      </trkpt>
      <trkpt lat="47.99546" lon="6.82602">
        <ele>1023</ele>
        <time>2022-05-26T08:50:15Z</time>
      </trkpt>
      <trkpt lat="47.99545" lon="6.82603">
        <ele>1023.2</ele>
        <time>2022-05-26T08:50:18Z</time>
      </trkpt>
      <trkpt lat="47.99546" lon="6.82617">
        <ele>1020.9</ele>
        <time>2022-05-26T08:50:30Z</time>
      </trkpt>
      <trkpt lat="47.99547" lon="6.82637">
        <ele>1017</ele>
        <time>2022-05-26T08:50:33Z</time>
      </trkpt>
      <trkpt lat="47.99545" lon="6.82653">
        <ele>1015.6</ele>
        <time>2022-05-26T08:50:35Z</time>
      </trkpt>
      <trkpt lat="47.99545" lon="6.82667">
        <ele>1015.5</ele>
        <time>2022-05-26T08:50:37Z</time>
      </trkpt>
      <trkpt lat="47.99547" lon="6.82682">
        <ele>1015.5</ele>
        <time>2022-05-26T08:50:39Z</time>
      </trkpt>
      <trkpt lat="47.99548" lon="6.82701">
        <ele>1013.8</ele>
        <time>2022-05-26T08:50:41Z</time>
      </trkpt>
      <trkpt lat="47.99548" lon="6.82718">
        <ele>1012.3</ele>
        <time>2022-05-26T08:50:43Z</time>
      </trkpt>
      <trkpt lat="47.99546" lon="6.82736">
        <ele>1010.3</ele>
        <time>2022-05-26T08:50:46Z</time>
      </trkpt>
      <trkpt lat="47.99544" lon="6.8275">
        <ele>1007.7</ele>
        <time>2022-05-26T08:50:48Z</time>
      </trkpt>
      <trkpt lat="47.99544" lon="6.82764">
        <ele>1006.7</ele>
        <time>2022-05-26T08:50:50Z</time>
      </trkpt>
      <trkpt lat="47.99546" lon="6.82782">
        <ele>1005</ele>
        <time>2022-05-26T08:50:53Z</time>
      </trkpt>
      <trkpt lat="47.99545" lon="6.82799">
        <ele>1005.6</ele>
        <time>2022-05-26T08:50:56Z</time>
      </trkpt>
      <trkpt lat="47.99544" lon="6.82815">
        <ele>1006.2</ele>
        <time>2022-05-26T08:51:00Z</time>
      </trkpt>
      <trkpt lat="47.99542" lon="6.82833">
        <ele>1002.8</ele>
        <time>2022-05-26T08:51:03Z</time>
      </trkpt>
      <trkpt lat="47.99542" lon="6.82853">
        <ele>1000.4</ele>
        <time>2022-05-26T08:51:06Z</time>
      </trkpt>
      <trkpt lat="47.9954" lon="6.82869">
        <ele>999.4</ele>
        <time>2022-05-26T08:51:08Z</time>
      </trkpt>
      <trkpt lat="47.99539" lon="6.82889">
        <ele>997.2</ele>
        <time>2022-05-26T08:51:10Z</time>
      </trkpt>
      <trkpt lat="47.9954" lon="6.82906">
        <ele>993.6</ele>
        <time>2022-05-26T08:51:12Z</time>
      </trkpt>
      <trkpt lat="47.99542" lon="6.82924">
        <ele>994.4</ele>
        <time>2022-05-26T08:51:15Z</time>
      </trkpt>
      <trkpt lat="47.99547" lon="6.82936">
        <ele>993.5</ele>
        <time>2022-05-26T08:51:17Z</time>
      </trkpt>
      <trkpt lat="47.99552" lon="6.82947">
        <ele>993</ele>
        <time>2022-05-26T08:51:19Z</time>
      </trkpt>
      <trkpt lat="47.9956" lon="6.82962">
        <ele>990.2</ele>
        <time>2022-05-26T08:51:22Z</time>
      </trkpt>
      <trkpt lat="47.99565" lon="6.82977">
        <ele>986.8</ele>
        <time>2022-05-26T08:51:25Z</time>
      </trkpt>
      <trkpt lat="47.99565" lon="6.82995">
        <ele>983.6</ele>
        <time>2022-05-26T08:51:28Z</time>
      </trkpt>
      <trkpt lat="47.99566" lon="6.83014">
        <ele>984.9</ele>
        <time>2022-05-26T08:51:31Z</time>
      </trkpt>
      <trkpt lat="47.99568" lon="6.83031">
        <ele>981.4</ele>
        <time>2022-05-26T08:51:34Z</time>
      </trkpt>
      <trkpt lat="47.99571" lon="6.83044">
        <ele>979.3</ele>
        <time>2022-05-26T08:51:37Z</time>
      </trkpt>
      <trkpt lat="47.99574" lon="6.83061">
        <ele>979</ele>
        <time>2022-05-26T08:51:40Z</time>
      </trkpt>
      <trkpt lat="47.99579" lon="6.83077">
        <ele>975.3</ele>
        <time>2022-05-26T08:51:43Z</time>
      </trkpt>
      <trkpt lat="47.99582" lon="6.83092">
        <ele>972.1</ele>
        <time>2022-05-26T08:51:47Z</time>
      </trkpt>
      <trkpt lat="47.99583" lon="6.83106">
        <ele>968.9</ele>
        <time>2022-05-26T08:51:51Z</time>
      </trkpt>
      <trkpt lat="47.99584" lon="6.83119">
        <ele>968.2</ele>
        <time>2022-05-26T08:51:54Z</time>
      </trkpt>
      <trkpt lat="47.99589" lon="6.83134">
        <ele>965</ele>
        <time>2022-05-26T08:51:57Z</time>
      </trkpt>
      <trkpt lat="47.99594" lon="6.83151">
        <ele>960.8</ele>
        <time>2022-05-26T08:52:00Z</time>
      </trkpt>
      <trkpt lat="47.996" lon="6.83164">
        <ele>960.5</ele>
        <time>2022-05-26T08:52:03Z</time>
      </trkpt>
      <trkpt lat="47.99606" lon="6.83174">
        <ele>956.2</ele>
        <time>2022-05-26T08:52:07Z</time>
      </trkpt>
      <trkpt lat="47.99616" lon="6.8318">
        <ele>954.2</ele>
        <time>2022-05-26T08:52:11Z</time>
      </trkpt>
      <trkpt lat="47.9962" lon="6.83193">
        <ele>950.9</ele>
        <time>2022-05-26T08:52:16Z</time>
      </trkpt>
      <trkpt lat="47.99616" lon="6.83212">
        <ele>948.5</ele>
        <time>2022-05-26T08:52:19Z</time>
      </trkpt>
      <trkpt lat="47.99615" lon="6.83226">
        <ele>945.1</ele>
        <time>2022-05-26T08:52:21Z</time>
      </trkpt>
      <trkpt lat="47.99612" lon="6.83243">
        <ele>942.4</ele>
        <time>2022-05-26T08:52:23Z</time>
      </trkpt>
      <trkpt lat="47.9961" lon="6.83258">
        <ele>939.6</ele>
        <time>2022-05-26T08:52:25Z</time>
      </trkpt>
      <trkpt lat="47.99607" lon="6.83275">
        <ele>937.2</ele>
        <time>2022-05-26T08:52:27Z</time>
      </trkpt>
      <trkpt lat="47.99604" lon="6.83291">
        <ele>935.1</ele>
        <time>2022-05-26T08:52:29Z</time>
      </trkpt>
      <trkpt lat="47.996" lon="6.83309">
        <ele>932.6</ele>
        <time>2022-05-26T08:52:32Z</time>
      </trkpt>
      <trkpt lat="47.99597" lon="6.83322">
        <ele>931.6</ele>
        <time>2022-05-26T08:52:34Z</time>
      </trkpt>
      <trkpt lat="47.99593" lon="6.83338">
        <ele>929.6</ele>
        <time>2022-05-26T08:52:37Z</time>
      </trkpt>
      <trkpt lat="47.99593" lon="6.83352">
        <ele>927.5</ele>
        <time>2022-05-26T08:52:40Z</time>
      </trkpt>
      <trkpt lat="47.99594" lon="6.83368">
        <ele>925.9</ele>
        <time>2022-05-26T08:52:45Z</time>
      </trkpt>
      <trkpt lat="47.99594" lon="6.83379">
        <ele>923.7</ele>
        <time>2022-05-26T08:52:51Z</time>
      </trkpt>
      <trkpt lat="47.99594" lon="6.8338">
        <ele>923.8</ele>
        <time>2022-05-26T08:53:47Z</time>
      </trkpt>
      <trkpt lat="47.99587" lon="6.83388">
        <ele>920.5</ele>
        <time>2022-05-26T08:53:52Z</time>
      </trkpt>
      <trkpt lat="47.9958" lon="6.83404">
        <ele>918.8</ele>
        <time>2022-05-26T08:53:55Z</time>
      </trkpt>
      <trkpt lat="47.99573" lon="6.83422">
        <ele>916.2</ele>
        <time>2022-05-26T08:53:58Z</time>
      </trkpt>
      <trkpt lat="47.99568" lon="6.83433">
        <ele>915.5</ele>
        <time>2022-05-26T08:54:00Z</time>
      </trkpt>
      <trkpt lat="47.99562" lon="6.83451">
        <ele>914.4</ele>
        <time>2022-05-26T08:54:03Z</time>
      </trkpt>
      <trkpt lat="47.99558" lon="6.83464">
        <ele>913.1</ele>
        <time>2022-05-26T08:54:05Z</time>
      </trkpt>
      <trkpt lat="47.99556" lon="6.83481">
        <ele>908.4</ele>
        <time>2022-05-26T08:54:07Z</time>
      </trkpt>
      <trkpt lat="47.99555" lon="6.83497">
        <ele>907.9</ele>
        <time>2022-05-26T08:54:09Z</time>
      </trkpt>
      <trkpt lat="47.99554" lon="6.83513">
        <ele>906</ele>
        <time>2022-05-26T08:54:12Z</time>
      </trkpt>
      <trkpt lat="47.99552" lon="6.83531">
        <ele>905.5</ele>
        <time>2022-05-26T08:54:15Z</time>
      </trkpt>
      <trkpt lat="47.99553" lon="6.83546">
        <ele>905.2</ele>
        <time>2022-05-26T08:54:17Z</time>
      </trkpt>
      <trkpt lat="47.99553" lon="6.83565">
        <ele>901.1</ele>
        <time>2022-05-26T08:54:19Z</time>
      </trkpt>
      <trkpt lat="47.99551" lon="6.83586">
        <ele>897.9</ele>
        <time>2022-05-26T08:54:21Z</time>
      </trkpt>
      <trkpt lat="47.99554" lon="6.83609">
        <ele>896.7</ele>
        <time>2022-05-26T08:54:23Z</time>
      </trkpt>
      <trkpt lat="47.99557" lon="6.83627">
        <ele>897.6</ele>
        <time>2022-05-26T08:54:25Z</time>
      </trkpt>
      <trkpt lat="47.99562" lon="6.83641">
        <ele>897.8</ele>
        <time>2022-05-26T08:54:27Z</time>
      </trkpt>
      <trkpt lat="47.99563" lon="6.83657">
        <ele>896.4</ele>
        <time>2022-05-26T08:54:30Z</time>
      </trkpt>
      <trkpt lat="47.99559" lon="6.83669">
        <ele>895.2</ele>
        <time>2022-05-26T08:54:32Z</time>
      </trkpt>
      <trkpt lat="47.99553" lon="6.83684">
        <ele>893.5</ele>
        <time>2022-05-26T08:54:34Z</time>
      </trkpt>
      <trkpt lat="47.99545" lon="6.83695">
        <ele>892.7</ele>
        <time>2022-05-26T08:54:36Z</time>
      </trkpt>
      <trkpt lat="47.99537" lon="6.83701">
        <ele>892</ele>
        <time>2022-05-26T08:54:38Z</time>
      </trkpt>
      <trkpt lat="47.99526" lon="6.83706">
        <ele>890</ele>
        <time>2022-05-26T08:54:40Z</time>
      </trkpt>
      <trkpt lat="47.99514" lon="6.83708">
        <ele>889.2</ele>
        <time>2022-05-26T08:54:42Z</time>
      </trkpt>
      <trkpt lat="47.99502" lon="6.83708">
        <ele>889</ele>
        <time>2022-05-26T08:54:45Z</time>
      </trkpt>
      <trkpt lat="47.99492" lon="6.83716">
        <ele>887.4</ele>
        <time>2022-05-26T08:54:49Z</time>
      </trkpt>
      <trkpt lat="47.99484" lon="6.83728">
        <ele>885.8</ele>
        <time>2022-05-26T08:54:52Z</time>
      </trkpt>
      <trkpt lat="47.99478" lon="6.83739">
        <ele>887.2</ele>
        <time>2022-05-26T08:54:54Z</time>
      </trkpt>
      <trkpt lat="47.99474" lon="6.83758">
        <ele>882.6</ele>
        <time>2022-05-26T08:54:57Z</time>
      </trkpt>
      <trkpt lat="47.99473" lon="6.83777">
        <ele>883.2</ele>
        <time>2022-05-26T08:55:00Z</time>
      </trkpt>
      <trkpt lat="47.99474" lon="6.8379">
        <ele>880.7</ele>
        <time>2022-05-26T08:55:02Z</time>
      </trkpt>
      <trkpt lat="47.99477" lon="6.83804">
        <ele>879.9</ele>
        <time>2022-05-26T08:55:04Z</time>
      </trkpt>
      <trkpt lat="47.99479" lon="6.83817">
        <ele>877.4</ele>
        <time>2022-05-26T08:55:06Z</time>
      </trkpt>
      <trkpt lat="47.99481" lon="6.83831">
        <ele>873.4</ele>
        <time>2022-05-26T08:55:08Z</time>
      </trkpt>
      <trkpt lat="47.99479" lon="6.83849">
        <ele>871.6</ele>
        <time>2022-05-26T08:55:11Z</time>
      </trkpt>
      <trkpt lat="47.99476" lon="6.83863">
        <ele>869.4</ele>
        <time>2022-05-26T08:55:14Z</time>
      </trkpt>
      <trkpt lat="47.99468" lon="6.83873">
        <ele>869.2</ele>
        <time>2022-05-26T08:55:18Z</time>
      </trkpt>
      <trkpt lat="47.99474" lon="6.83885">
        <ele>867.9</ele>
        <time>2022-05-26T08:55:23Z</time>
      </trkpt>
      <trkpt lat="47.99485" lon="6.83897">
        <ele>867.3</ele>
        <time>2022-05-26T08:55:26Z</time>
      </trkpt>
      <trkpt lat="47.99493" lon="6.83907">
        <ele>867</ele>
        <time>2022-05-26T08:55:28Z</time>
      </trkpt>
      <trkpt lat="47.995" lon="6.83919">
        <ele>865.3</ele>
        <time>2022-05-26T08:55:30Z</time>
      </trkpt>
      <trkpt lat="47.99508" lon="6.83932">
        <ele>864.1</ele>
        <time>2022-05-26T08:55:32Z</time>
      </trkpt>
      <trkpt lat="47.99518" lon="6.83941">
        <ele>862.3</ele>
        <time>2022-05-26T08:55:34Z</time>
      </trkpt>
      <trkpt lat="47.9953" lon="6.83945">
        <ele>860.1</ele>
        <time>2022-05-26T08:55:36Z</time>
      </trkpt>
      <trkpt lat="47.9954" lon="6.83947">
        <ele>859.3</ele>
        <time>2022-05-26T08:55:38Z</time>
      </trkpt>
      <trkpt lat="47.9955" lon="6.83948">
        <ele>857.4</ele>
        <time>2022-05-26T08:55:41Z</time>
      </trkpt>
      <trkpt lat="47.99555" lon="6.83959">
        <ele>854.7</ele>
        <time>2022-05-26T08:55:49Z</time>
      </trkpt>
      <trkpt lat="47.99551" lon="6.83974">
        <ele>851.1</ele>
        <time>2022-05-26T08:55:52Z</time>
      </trkpt>
      <trkpt lat="47.99542" lon="6.83983">
        <ele>848.2</ele>
        <time>2022-05-26T08:55:55Z</time>
      </trkpt>
      <trkpt lat="47.99532" lon="6.83991">
        <ele>848.2</ele>
        <time>2022-05-26T08:55:59Z</time>
      </trkpt>
      <trkpt lat="47.99524" lon="6.84004">
        <ele>844.8</ele>
        <time>2022-05-26T08:56:02Z</time>
      </trkpt>
      <trkpt lat="47.99525" lon="6.84023">
        <ele>842.7</ele>
        <time>2022-05-26T08:56:05Z</time>
      </trkpt>
      <trkpt lat="47.99531" lon="6.84032">
        <ele>841</ele>
        <time>2022-05-26T08:56:07Z</time>
      </trkpt>
      <trkpt lat="47.99543" lon="6.84036">
        <ele>838.5</ele>
        <time>2022-05-26T08:56:10Z</time>
      </trkpt>
      <trkpt lat="47.99556" lon="6.84035">
        <ele>835.8</ele>
        <time>2022-05-26T08:56:13Z</time>
      </trkpt>
      <trkpt lat="47.99569" lon="6.84029">
        <ele>835.4</ele>
        <time>2022-05-26T08:56:16Z</time>
      </trkpt>
      <trkpt lat="47.99577" lon="6.84021">
        <ele>833.7</ele>
        <time>2022-05-26T08:56:19Z</time>
      </trkpt>
      <trkpt lat="47.99588" lon="6.84012">
        <ele>828.2</ele>
        <time>2022-05-26T08:56:22Z</time>
      </trkpt>
      <trkpt lat="47.99597" lon="6.84004">
        <ele>828.6</ele>
        <time>2022-05-26T08:56:25Z</time>
      </trkpt>
      <trkpt lat="47.99607" lon="6.84001">
        <ele>827.6</ele>
        <time>2022-05-26T08:56:32Z</time>
      </trkpt>
      <trkpt lat="47.99603" lon="6.84015">
        <ele>824.5</ele>
        <time>2022-05-26T08:56:40Z</time>
      </trkpt>
      <trkpt lat="47.99598" lon="6.84028">
        <ele>820.6</ele>
        <time>2022-05-26T08:56:43Z</time>
      </trkpt>
      <trkpt lat="47.99595" lon="6.84041">
        <ele>820.1</ele>
        <time>2022-05-26T08:56:45Z</time>
      </trkpt>
      <trkpt lat="47.99592" lon="6.84057">
        <ele>815.7</ele>
        <time>2022-05-26T08:56:47Z</time>
      </trkpt>
      <trkpt lat="47.99589" lon="6.84071">
        <ele>814.1</ele>
        <time>2022-05-26T08:56:49Z</time>
      </trkpt>
      <trkpt lat="47.996" lon="6.84073">
        <ele>814.7</ele>
        <time>2022-05-26T08:56:55Z</time>
      </trkpt>
      <trkpt lat="47.99605" lon="6.84071">
        <ele>814.5</ele>
        <time>2022-05-26T08:57:06Z</time>
      </trkpt>
      <trkpt lat="47.99605" lon="6.84072">
        <ele>814.3</ele>
        <time>2022-05-26T08:57:49Z</time>
      </trkpt>
      <trkpt lat="47.99596" lon="6.84084">
        <ele>812.3</ele>
        <time>2022-05-26T08:57:53Z</time>
      </trkpt>
      <trkpt lat="47.99587" lon="6.8409">
        <ele>812.1</ele>
        <time>2022-05-26T08:57:55Z</time>
      </trkpt>
      <trkpt lat="47.99577" lon="6.84095">
        <ele>812</ele>
        <time>2022-05-26T08:57:58Z</time>
      </trkpt>
      <trkpt lat="47.99568" lon="6.84103">
        <ele>811.7</ele>
        <time>2022-05-26T08:58:01Z</time>
      </trkpt>
      <trkpt lat="47.9956" lon="6.84117">
        <ele>810.1</ele>
        <time>2022-05-26T08:58:05Z</time>
      </trkpt>
      <trkpt lat="47.99554" lon="6.84132">
        <ele>808.9</ele>
        <time>2022-05-26T08:58:07Z</time>
      </trkpt>
      <trkpt lat="47.99545" lon="6.84146">
        <ele>806.3</ele>
        <time>2022-05-26T08:58:09Z</time>
      </trkpt>
      <trkpt lat="47.99535" lon="6.8416">
        <ele>804.2</ele>
        <time>2022-05-26T08:58:11Z</time>
      </trkpt>
      <trkpt lat="47.99525" lon="6.84172">
        <ele>804.6</ele>
        <time>2022-05-26T08:58:13Z</time>
      </trkpt>
      <trkpt lat="47.99516" lon="6.84183">
        <ele>803.8</ele>
        <time>2022-05-26T08:58:15Z</time>
      </trkpt>
      <trkpt lat="47.9951" lon="6.84193">
        <ele>801</ele>
        <time>2022-05-26T08:58:17Z</time>
      </trkpt>
      <trkpt lat="47.99503" lon="6.84204">
        <ele>798.9</ele>
        <time>2022-05-26T08:58:19Z</time>
      </trkpt>
      <trkpt lat="47.99496" lon="6.84218">
        <ele>794.7</ele>
        <time>2022-05-26T08:58:21Z</time>
      </trkpt>
      <trkpt lat="47.9949" lon="6.84233">
        <ele>793.8</ele>
        <time>2022-05-26T08:58:23Z</time>
      </trkpt>
      <trkpt lat="47.99484" lon="6.84247">
        <ele>793.8</ele>
        <time>2022-05-26T08:58:25Z</time>
      </trkpt>
      <trkpt lat="47.99476" lon="6.84257">
        <ele>788.5</ele>
        <time>2022-05-26T08:58:27Z</time>
      </trkpt>
      <trkpt lat="47.99466" lon="6.84265">
        <ele>787.1</ele>
        <time>2022-05-26T08:58:29Z</time>
      </trkpt>
      <trkpt lat="47.99456" lon="6.8427">
        <ele>787.3</ele>
        <time>2022-05-26T08:58:31Z</time>
      </trkpt>
      <trkpt lat="47.99445" lon="6.84274">
        <ele>784.4</ele>
        <time>2022-05-26T08:58:34Z</time>
      </trkpt>
      <trkpt lat="47.99436" lon="6.84277">
        <ele>783</ele>
        <time>2022-05-26T08:58:37Z</time>
      </trkpt>
      <trkpt lat="47.99427" lon="6.84279">
        <ele>781</ele>
        <time>2022-05-26T08:58:40Z</time>
      </trkpt>
      <trkpt lat="47.99415" lon="6.84276">
        <ele>777.6</ele>
        <time>2022-05-26T08:58:44Z</time>
      </trkpt>
      <trkpt lat="47.99404" lon="6.84272">
        <ele>774.4</ele>
        <time>2022-05-26T08:58:48Z</time>
      </trkpt>
      <trkpt lat="47.99395" lon="6.84269">
        <ele>773.3</ele>
        <time>2022-05-26T08:58:51Z</time>
      </trkpt>
      <trkpt lat="47.99386" lon="6.84266">
        <ele>767.7</ele>
        <time>2022-05-26T08:58:54Z</time>
      </trkpt>
      <trkpt lat="47.99376" lon="6.84258">
        <ele>767.3</ele>
        <time>2022-05-26T08:58:56Z</time>
      </trkpt>
      <trkpt lat="47.99367" lon="6.84247">
        <ele>765.7</ele>
        <time>2022-05-26T08:58:58Z</time>
      </trkpt>
      <trkpt lat="47.99358" lon="6.84235">
        <ele>765.2</ele>
        <time>2022-05-26T08:59:01Z</time>
      </trkpt>
      <trkpt lat="47.9935" lon="6.84229">
        <ele>763.3</ele>
        <time>2022-05-26T08:59:04Z</time>
      </trkpt>
      <trkpt lat="47.99343" lon="6.8422">
        <ele>762.7</ele>
        <time>2022-05-26T08:59:06Z</time>
      </trkpt>
      <trkpt lat="47.99335" lon="6.84213">
        <ele>760.3</ele>
        <time>2022-05-26T08:59:08Z</time>
      </trkpt>
      <trkpt lat="47.99337" lon="6.84228">
        <ele>759.2</ele>
        <time>2022-05-26T08:59:16Z</time>
      </trkpt>
      <trkpt lat="47.99339" lon="6.8423">
        <ele>759.1</ele>
        <time>2022-05-26T08:59:20Z</time>
      </trkpt>
      <trkpt lat="47.9934" lon="6.8423">
        <ele>759.1</ele>
        <time>2022-05-26T08:59:31Z</time>
      </trkpt>
      <trkpt lat="47.99344" lon="6.84243">
        <ele>757.9</ele>
        <time>2022-05-26T08:59:37Z</time>
      </trkpt>
      <trkpt lat="47.99349" lon="6.84256">
        <ele>756.6</ele>
        <time>2022-05-26T08:59:41Z</time>
      </trkpt>
      <trkpt lat="47.99355" lon="6.84268">
        <ele>759.5</ele>
        <time>2022-05-26T08:59:47Z</time>
      </trkpt>
      <trkpt lat="47.99363" lon="6.84283">
        <ele>759</ele>
        <time>2022-05-26T08:59:51Z</time>
      </trkpt>
      <trkpt lat="47.99368" lon="6.84302">
        <ele>756.6</ele>
        <time>2022-05-26T08:59:54Z</time>
      </trkpt>
      <trkpt lat="47.99375" lon="6.84321">
        <ele>754.5</ele>
        <time>2022-05-26T08:59:56Z</time>
      </trkpt>
      <trkpt lat="47.99385" lon="6.84339">
        <ele>753.3</ele>
        <time>2022-05-26T08:59:58Z</time>
      </trkpt>
      <trkpt lat="47.99387" lon="6.84358">
        <ele>751.4</ele>
        <time>2022-05-26T09:00:01Z</time>
      </trkpt>
      <trkpt lat="47.9938" lon="6.84375">
        <ele>746.7</ele>
        <time>2022-05-26T09:00:03Z</time>
      </trkpt>
      <trkpt lat="47.99373" lon="6.84395">
        <ele>746.4</ele>
        <time>2022-05-26T09:00:05Z</time>
      </trkpt>
      <trkpt lat="47.9937" lon="6.84417">
        <ele>745.1</ele>
        <time>2022-05-26T09:00:07Z</time>
      </trkpt>
      <trkpt lat="47.99366" lon="6.84437">
        <ele>744</ele>
        <time>2022-05-26T09:00:09Z</time>
      </trkpt>
      <trkpt lat="47.99364" lon="6.84452">
        <ele>743.8</ele>
        <time>2022-05-26T09:00:11Z</time>
      </trkpt>
      <trkpt lat="47.99371" lon="6.84467">
        <ele>741.8</ele>
        <time>2022-05-26T09:00:13Z</time>
      </trkpt>
      <trkpt lat="47.99382" lon="6.8448">
        <ele>739</ele>
        <time>2022-05-26T09:00:15Z</time>
      </trkpt>
      <trkpt lat="47.9939" lon="6.84489">
        <ele>737.4</ele>
        <time>2022-05-26T09:00:17Z</time>
      </trkpt>
      <trkpt lat="47.99393" lon="6.84495">
        <ele>736.4</ele>
        <time>2022-05-26T09:00:27Z</time>
      </trkpt>
      <trkpt lat="47.99393" lon="6.84494">
        <ele>736.7</ele>
        <time>2022-05-26T09:00:34Z</time>
      </trkpt>
      <trkpt lat="47.99384" lon="6.84491">
        <ele>735.2</ele>
        <time>2022-05-26T09:00:55Z</time>
      </trkpt>
      <trkpt lat="47.99377" lon="6.845">
        <ele>730.9</ele>
        <time>2022-05-26T09:01:11Z</time>
      </trkpt>
      <trkpt lat="47.99368" lon="6.845">
        <ele>730.4</ele>
        <time>2022-05-26T09:01:17Z</time>
      </trkpt>
      <trkpt lat="47.99358" lon="6.84499">
        <ele>727.9</ele>
        <time>2022-05-26T09:01:21Z</time>
      </trkpt>
      <trkpt lat="47.99348" lon="6.84499">
        <ele>725</ele>
        <time>2022-05-26T09:01:26Z</time>
      </trkpt>
      <trkpt lat="47.99339" lon="6.84494">
        <ele>722.2</ele>
        <time>2022-05-26T09:01:35Z</time>
      </trkpt>
      <trkpt lat="47.99331" lon="6.84489">
        <ele>720.1</ele>
        <time>2022-05-26T09:01:38Z</time>
      </trkpt>
      <trkpt lat="47.99325" lon="6.84501">
        <ele>717.9</ele>
        <time>2022-05-26T09:01:45Z</time>
      </trkpt>
      <trkpt lat="47.99331" lon="6.84517">
        <ele>713.3</ele>
        <time>2022-05-26T09:01:49Z</time>
      </trkpt>
      <trkpt lat="47.99339" lon="6.84525">
        <ele>712.7</ele>
        <time>2022-05-26T09:01:52Z</time>
      </trkpt>
      <trkpt lat="47.99348" lon="6.84532">
        <ele>712.7</ele>
        <time>2022-05-26T09:02:00Z</time>
      </trkpt>
      <trkpt lat="47.99347" lon="6.84543">
        <ele>709.4</ele>
        <time>2022-05-26T09:02:16Z</time>
      </trkpt>
      <trkpt lat="47.9935" lon="6.8455">
        <ele>708.2</ele>
        <time>2022-05-26T09:02:28Z</time>
      </trkpt>
      <trkpt lat="47.9935" lon="6.84549">
        <ele>707.5</ele>
        <time>2022-05-26T09:02:30Z</time>
      </trkpt>
      <trkpt lat="47.99341" lon="6.84553">
        <ele>703.4</ele>
        <time>2022-05-26T09:02:37Z</time>
      </trkpt>
      <trkpt lat="47.99331" lon="6.84545">
        <ele>700.7</ele>
        <time>2022-05-26T09:02:43Z</time>
      </trkpt>
      <trkpt lat="47.99322" lon="6.84536">
        <ele>697.3</ele>
        <time>2022-05-26T09:02:46Z</time>
      </trkpt>
      <trkpt lat="47.9931" lon="6.84529">
        <ele>695.1</ele>
        <time>2022-05-26T09:02:49Z</time>
      </trkpt>
      <trkpt lat="47.99303" lon="6.84521">
        <ele>694.9</ele>
        <time>2022-05-26T09:02:51Z</time>
      </trkpt>
      <trkpt lat="47.99295" lon="6.84512">
        <ele>695</ele>
        <time>2022-05-26T09:02:54Z</time>
      </trkpt>
      <trkpt lat="47.99294" lon="6.84527">
        <ele>693.1</ele>
        <time>2022-05-26T09:03:01Z</time>
      </trkpt>
      <trkpt lat="47.99297" lon="6.8454">
        <ele>689.7</ele>
        <time>2022-05-26T09:03:05Z</time>
      </trkpt>
      <trkpt lat="47.993" lon="6.84555">
        <ele>687.4</ele>
        <time>2022-05-26T09:03:10Z</time>
      </trkpt>
      <trkpt lat="47.993" lon="6.84571">
        <ele>684.8</ele>
        <time>2022-05-26T09:03:14Z</time>
      </trkpt>
      <trkpt lat="47.99298" lon="6.84589">
        <ele>684.5</ele>
        <time>2022-05-26T09:03:17Z</time>
      </trkpt>
      <trkpt lat="47.99298" lon="6.84603">
        <ele>682.1</ele>
        <time>2022-05-26T09:03:20Z</time>
      </trkpt>
      <trkpt lat="47.99297" lon="6.84622">
        <ele>679.6</ele>
        <time>2022-05-26T09:03:23Z</time>
      </trkpt>
      <trkpt lat="47.99302" lon="6.84638">
        <ele>679.1</ele>
        <time>2022-05-26T09:03:26Z</time>
      </trkpt>
      <trkpt lat="47.99305" lon="6.84653">
        <ele>674.6</ele>
        <time>2022-05-26T09:03:29Z</time>
      </trkpt>
      <trkpt lat="47.99304" lon="6.84667">
        <ele>673.4</ele>
        <time>2022-05-26T09:03:32Z</time>
      </trkpt>
      <trkpt lat="47.99303" lon="6.84683">
        <ele>671.8</ele>
        <time>2022-05-26T09:03:35Z</time>
      </trkpt>
      <trkpt lat="47.99304" lon="6.847">
        <ele>666.8</ele>
        <time>2022-05-26T09:03:37Z</time>
      </trkpt>
      <trkpt lat="47.99305" lon="6.84717">
        <ele>664.8</ele>
        <time>2022-05-26T09:03:39Z</time>
      </trkpt>
      <trkpt lat="47.99308" lon="6.8473">
        <ele>663.3</ele>
        <time>2022-05-26T09:03:41Z</time>
      </trkpt>
      <trkpt lat="47.99315" lon="6.84745">
        <ele>664.3</ele>
        <time>2022-05-26T09:03:44Z</time>
      </trkpt>
      <trkpt lat="47.99318" lon="6.84761">
        <ele>661.4</ele>
        <time>2022-05-26T09:03:47Z</time>
      </trkpt>
      <trkpt lat="47.99313" lon="6.84773">
        <ele>659.4</ele>
        <time>2022-05-26T09:03:52Z</time>
      </trkpt>
      <trkpt lat="47.99304" lon="6.8477">
        <ele>658.7</ele>
        <time>2022-05-26T09:03:54Z</time>
      </trkpt>
      <trkpt lat="47.99295" lon="6.84767">
        <ele>655.1</ele>
        <time>2022-05-26T09:03:56Z</time>
      </trkpt>
      <trkpt lat="47.99284" lon="6.84763">
        <ele>654</ele>
        <time>2022-05-26T09:03:59Z</time>
      </trkpt>
      <trkpt lat="47.99274" lon="6.84758">
        <ele>650.9</ele>
        <time>2022-05-26T09:04:02Z</time>
      </trkpt>
      <trkpt lat="47.99266" lon="6.84748">
        <ele>648.9</ele>
        <time>2022-05-26T09:04:04Z</time>
      </trkpt>
      <trkpt lat="47.99257" lon="6.84743">
        <ele>649.3</ele>
        <time>2022-05-26T09:04:07Z</time>
      </trkpt>
      <trkpt lat="47.99261" lon="6.8475">
        <ele>647.9</ele>
        <time>2022-05-26T09:04:17Z</time>
      </trkpt>
      <trkpt lat="47.99262" lon="6.8475">
        <ele>647.3</ele>
        <time>2022-05-26T09:04:22Z</time>
      </trkpt>
      <trkpt lat="47.99262" lon="6.84749">
        <ele>646.7</ele>
        <time>2022-05-26T09:05:39Z</time>
      </trkpt>
      <trkpt lat="47.99262" lon="6.8475">
        <ele>646.5</ele>
        <time>2022-05-26T09:09:27Z</time>
      </trkpt>
      <trkpt lat="47.99261" lon="6.8475">
        <ele>646.8</ele>
        <time>2022-05-26T09:10:46Z</time>
      </trkpt>
      <trkpt lat="47.9926" lon="6.84749">
        <ele>646.5</ele>
        <time>2022-05-26T09:10:51Z</time>
      </trkpt>
      <trkpt lat="47.9926" lon="6.84748">
        <ele>646.4</ele>
        <time>2022-05-26T09:10:52Z</time>
      </trkpt>
      <trkpt lat="47.9926" lon="6.84747">
        <ele>645.5</ele>
        <time>2022-05-26T09:14:39Z</time>
      </trkpt>
      <trkpt lat="47.9925" lon="6.84736">
        <ele>643.2</ele>
        <time>2022-05-26T09:14:44Z</time>
      </trkpt>
      <trkpt lat="47.99242" lon="6.84727">
        <ele>642</ele>
        <time>2022-05-26T09:14:46Z</time>
      </trkpt>
      <trkpt lat="47.99232" lon="6.84715">
        <ele>639.8</ele>
        <time>2022-05-26T09:14:48Z</time>
      </trkpt>
      <trkpt lat="47.9922" lon="6.84706">
        <ele>638.1</ele>
        <time>2022-05-26T09:14:50Z</time>
      </trkpt>
      <trkpt lat="47.99206" lon="6.84701">
        <ele>635.1</ele>
        <time>2022-05-26T09:14:52Z</time>
      </trkpt>
      <trkpt lat="47.99192" lon="6.84694">
        <ele>634.3</ele>
        <time>2022-05-26T09:14:54Z</time>
      </trkpt>
      <trkpt lat="47.99177" lon="6.84686">
        <ele>630.8</ele>
        <time>2022-05-26T09:14:56Z</time>
      </trkpt>
      <trkpt lat="47.99163" lon="6.8468">
        <ele>627.3</ele>
        <time>2022-05-26T09:14:58Z</time>
      </trkpt>
      <trkpt lat="47.99151" lon="6.84678">
        <ele>629.3</ele>
        <time>2022-05-26T09:15:01Z</time>
      </trkpt>
      <trkpt lat="47.99149" lon="6.84696">
        <ele>627.7</ele>
        <time>2022-05-26T09:15:04Z</time>
      </trkpt>
      <trkpt lat="47.9915" lon="6.84713">
        <ele>625.3</ele>
        <time>2022-05-26T09:15:06Z</time>
      </trkpt>
      <trkpt lat="47.99152" lon="6.84732">
        <ele>623</ele>
        <time>2022-05-26T09:15:08Z</time>
      </trkpt>
      <trkpt lat="47.99153" lon="6.84748">
        <ele>622.9</ele>
        <time>2022-05-26T09:15:10Z</time>
      </trkpt>
      <trkpt lat="47.99145" lon="6.84764">
        <ele>619.9</ele>
        <time>2022-05-26T09:15:13Z</time>
      </trkpt>
      <trkpt lat="47.99132" lon="6.84768">
        <ele>617.6</ele>
        <time>2022-05-26T09:15:15Z</time>
      </trkpt>
      <trkpt lat="47.99118" lon="6.84771">
        <ele>615.2</ele>
        <time>2022-05-26T09:15:17Z</time>
      </trkpt>
      <trkpt lat="47.99108" lon="6.84781">
        <ele>614.5</ele>
        <time>2022-05-26T09:15:19Z</time>
      </trkpt>
      <trkpt lat="47.99105" lon="6.84799">
        <ele>614</ele>
        <time>2022-05-26T09:15:21Z</time>
      </trkpt>
      <trkpt lat="47.99105" lon="6.84819">
        <ele>611.9</ele>
        <time>2022-05-26T09:15:23Z</time>
      </trkpt>
      <trkpt lat="47.99104" lon="6.84837">
        <ele>612.6</ele>
        <time>2022-05-26T09:15:25Z</time>
      </trkpt>
      <trkpt lat="47.99102" lon="6.84852">
        <ele>613.8</ele>
        <time>2022-05-26T09:15:27Z</time>
      </trkpt>
      <trkpt lat="47.99101" lon="6.84866">
        <ele>614.7</ele>
        <time>2022-05-26T09:15:29Z</time>
      </trkpt>
      <trkpt lat="47.99109" lon="6.8488">
        <ele>615.9</ele>
        <time>2022-05-26T09:15:32Z</time>
      </trkpt>
      <trkpt lat="47.99117" lon="6.84889">
        <ele>616.6</ele>
        <time>2022-05-26T09:15:35Z</time>
      </trkpt>
      <trkpt lat="47.99124" lon="6.849">
        <ele>618.4</ele>
        <time>2022-05-26T09:15:39Z</time>
      </trkpt>
      <trkpt lat="47.99127" lon="6.84914">
        <ele>619.1</ele>
        <time>2022-05-26T09:15:44Z</time>
      </trkpt>
      <trkpt lat="47.99135" lon="6.84922">
        <ele>619</ele>
        <time>2022-05-26T09:15:47Z</time>
      </trkpt>
      <trkpt lat="47.99142" lon="6.84931">
        <ele>619.1</ele>
        <time>2022-05-26T09:15:50Z</time>
      </trkpt>
      <trkpt lat="47.9914" lon="6.84948">
        <ele>619.7</ele>
        <time>2022-05-26T09:15:54Z</time>
      </trkpt>
      <trkpt lat="47.99141" lon="6.84964">
        <ele>621.4</ele>
        <time>2022-05-26T09:15:59Z</time>
      </trkpt>
      <trkpt lat="47.99145" lon="6.84978">
        <ele>623.6</ele>
        <time>2022-05-26T09:16:05Z</time>
      </trkpt>
      <trkpt lat="47.99147" lon="6.84992">
        <ele>625.5</ele>
        <time>2022-05-26T09:16:11Z</time>
      </trkpt>
      <trkpt lat="47.99151" lon="6.85005">
        <ele>627.3</ele>
        <time>2022-05-26T09:16:17Z</time>
      </trkpt>
      <trkpt lat="47.99154" lon="6.8502">
        <ele>628.8</ele>
        <time>2022-05-26T09:16:24Z</time>
      </trkpt>
      <trkpt lat="47.99158" lon="6.85032">
        <ele>630.4</ele>
        <time>2022-05-26T09:16:31Z</time>
      </trkpt>
      <trkpt lat="47.99162" lon="6.85046">
        <ele>632.2</ele>
        <time>2022-05-26T09:16:38Z</time>
      </trkpt>
      <trkpt lat="47.99165" lon="6.85058">
        <ele>633.9</ele>
        <time>2022-05-26T09:16:43Z</time>
      </trkpt>
      <trkpt lat="47.99169" lon="6.85071">
        <ele>635.9</ele>
        <time>2022-05-26T09:16:49Z</time>
      </trkpt>
      <trkpt lat="47.99162" lon="6.8508">
        <ele>637.5</ele>
        <time>2022-05-26T09:16:59Z</time>
      </trkpt>
      <trkpt lat="47.99153" lon="6.85077">
        <ele>639.6</ele>
        <time>2022-05-26T09:17:06Z</time>
      </trkpt>
      <trkpt lat="47.99144" lon="6.85069">
        <ele>640.8</ele>
        <time>2022-05-26T09:17:13Z</time>
      </trkpt>
      <trkpt lat="47.99136" lon="6.8506">
        <ele>641.7</ele>
        <time>2022-05-26T09:17:19Z</time>
      </trkpt>
      <trkpt lat="47.99128" lon="6.85052">
        <ele>642.9</ele>
        <time>2022-05-26T09:17:25Z</time>
      </trkpt>
      <trkpt lat="47.99119" lon="6.85046">
        <ele>644.3</ele>
        <time>2022-05-26T09:17:33Z</time>
      </trkpt>
      <trkpt lat="47.99111" lon="6.85038">
        <ele>646.6</ele>
        <time>2022-05-26T09:17:41Z</time>
      </trkpt>
      <trkpt lat="47.99103" lon="6.8503">
        <ele>647.5</ele>
        <time>2022-05-26T09:17:47Z</time>
      </trkpt>
      <trkpt lat="47.99096" lon="6.85021">
        <ele>648.3</ele>
        <time>2022-05-26T09:17:53Z</time>
      </trkpt>
      <trkpt lat="47.99088" lon="6.85011">
        <ele>650.5</ele>
        <time>2022-05-26T09:18:00Z</time>
      </trkpt>
      <trkpt lat="47.99078" lon="6.85006">
        <ele>651.5</ele>
        <time>2022-05-26T09:18:06Z</time>
      </trkpt>
      <trkpt lat="47.99069" lon="6.84999">
        <ele>652.6</ele>
        <time>2022-05-26T09:18:12Z</time>
      </trkpt>
      <trkpt lat="47.99061" lon="6.84991">
        <ele>653.5</ele>
        <time>2022-05-26T09:18:18Z</time>
      </trkpt>
      <trkpt lat="47.99052" lon="6.84983">
        <ele>654.8</ele>
        <time>2022-05-26T09:18:24Z</time>
      </trkpt>
      <trkpt lat="47.99043" lon="6.84975">
        <ele>656.9</ele>
        <time>2022-05-26T09:18:31Z</time>
      </trkpt>
      <trkpt lat="47.99034" lon="6.84967">
        <ele>658.8</ele>
        <time>2022-05-26T09:18:38Z</time>
      </trkpt>
      <trkpt lat="47.99026" lon="6.84962">
        <ele>659.4</ele>
        <time>2022-05-26T09:18:44Z</time>
      </trkpt>
      <trkpt lat="47.99017" lon="6.84956">
        <ele>661.2</ele>
        <time>2022-05-26T09:18:50Z</time>
      </trkpt>
      <trkpt lat="47.99008" lon="6.84953">
        <ele>663.1</ele>
        <time>2022-05-26T09:18:58Z</time>
      </trkpt>
      <trkpt lat="47.98998" lon="6.84951">
        <ele>664.3</ele>
        <time>2022-05-26T09:19:05Z</time>
      </trkpt>
      <trkpt lat="47.98988" lon="6.84949">
        <ele>666.6</ele>
        <time>2022-05-26T09:19:13Z</time>
      </trkpt>
      <trkpt lat="47.98988" lon="6.84964">
        <ele>669.5</ele>
        <time>2022-05-26T09:19:24Z</time>
      </trkpt>
      <trkpt lat="47.98992" lon="6.84976">
        <ele>671.2</ele>
        <time>2022-05-26T09:19:32Z</time>
      </trkpt>
      <trkpt lat="47.98997" lon="6.84988">
        <ele>671.9</ele>
        <time>2022-05-26T09:19:39Z</time>
      </trkpt>
      <trkpt lat="47.99003" lon="6.85">
        <ele>674</ele>
        <time>2022-05-26T09:19:47Z</time>
      </trkpt>
      <trkpt lat="47.99009" lon="6.85012">
        <ele>675.7</ele>
        <time>2022-05-26T09:19:54Z</time>
      </trkpt>
      <trkpt lat="47.99016" lon="6.85022">
        <ele>677</ele>
        <time>2022-05-26T09:20:01Z</time>
      </trkpt>
      <trkpt lat="47.99021" lon="6.85034">
        <ele>678</ele>
        <time>2022-05-26T09:20:08Z</time>
      </trkpt>
      <trkpt lat="47.99026" lon="6.85046">
        <ele>679.4</ele>
        <time>2022-05-26T09:20:13Z</time>
      </trkpt>
      <trkpt lat="47.99031" lon="6.85058">
        <ele>681.7</ele>
        <time>2022-05-26T09:20:20Z</time>
      </trkpt>
      <trkpt lat="47.99035" lon="6.8507">
        <ele>683.5</ele>
        <time>2022-05-26T09:20:28Z</time>
      </trkpt>
      <trkpt lat="47.99039" lon="6.85084">
        <ele>684.6</ele>
        <time>2022-05-26T09:20:35Z</time>
      </trkpt>
      <trkpt lat="47.99044" lon="6.85097">
        <ele>686.4</ele>
        <time>2022-05-26T09:20:43Z</time>
      </trkpt>
      <trkpt lat="47.99049" lon="6.85109">
        <ele>688.3</ele>
        <time>2022-05-26T09:20:50Z</time>
      </trkpt>
      <trkpt lat="47.99054" lon="6.85122">
        <ele>690.1</ele>
        <time>2022-05-26T09:20:58Z</time>
      </trkpt>
      <trkpt lat="47.99059" lon="6.85128">
        <ele>690</ele>
        <time>2022-05-26T09:21:04Z</time>
      </trkpt>
      <trkpt lat="47.99061" lon="6.85132">
        <ele>690</ele>
        <time>2022-05-26T09:21:10Z</time>
      </trkpt>
      <trkpt lat="47.99064" lon="6.85141">
        <ele>691.7</ele>
        <time>2022-05-26T09:21:24Z</time>
      </trkpt>
      <trkpt lat="47.9907" lon="6.85153">
        <ele>693.2</ele>
        <time>2022-05-26T09:21:38Z</time>
      </trkpt>
      <trkpt lat="47.99075" lon="6.85165">
        <ele>695.4</ele>
        <time>2022-05-26T09:21:49Z</time>
      </trkpt>
      <trkpt lat="47.9908" lon="6.85177">
        <ele>698</ele>
        <time>2022-05-26T09:22:00Z</time>
      </trkpt>
      <trkpt lat="47.99083" lon="6.8519">
        <ele>699.5</ele>
        <time>2022-05-26T09:22:11Z</time>
      </trkpt>
      <trkpt lat="47.9909" lon="6.85199">
        <ele>700.7</ele>
        <time>2022-05-26T09:22:24Z</time>
      </trkpt>
      <trkpt lat="47.99092" lon="6.85213">
        <ele>701.1</ele>
        <time>2022-05-26T09:22:34Z</time>
      </trkpt>
      <trkpt lat="47.99094" lon="6.85227">
        <ele>702.7</ele>
        <time>2022-05-26T09:22:40Z</time>
      </trkpt>
      <trkpt lat="47.99098" lon="6.8524">
        <ele>704.7</ele>
        <time>2022-05-26T09:22:46Z</time>
      </trkpt>
      <trkpt lat="47.99102" lon="6.85253">
        <ele>706.4</ele>
        <time>2022-05-26T09:22:53Z</time>
      </trkpt>
      <trkpt lat="47.99104" lon="6.85266">
        <ele>707.5</ele>
        <time>2022-05-26T09:23:00Z</time>
      </trkpt>
      <trkpt lat="47.99108" lon="6.85281">
        <ele>710</ele>
        <time>2022-05-26T09:23:08Z</time>
      </trkpt>
      <trkpt lat="47.9911" lon="6.85296">
        <ele>711.3</ele>
        <time>2022-05-26T09:23:15Z</time>
      </trkpt>
      <trkpt lat="47.99115" lon="6.8531">
        <ele>713.2</ele>
        <time>2022-05-26T09:23:23Z</time>
      </trkpt>
      <trkpt lat="47.99116" lon="6.85324">
        <ele>714.6</ele>
        <time>2022-05-26T09:23:31Z</time>
      </trkpt>
      <trkpt lat="47.9912" lon="6.85338">
        <ele>716.8</ele>
        <time>2022-05-26T09:23:43Z</time>
      </trkpt>
      <trkpt lat="47.99121" lon="6.85353">
        <ele>718.6</ele>
        <time>2022-05-26T09:23:50Z</time>
      </trkpt>
      <trkpt lat="47.99122" lon="6.85368">
        <ele>719.7</ele>
        <time>2022-05-26T09:23:56Z</time>
      </trkpt>
      <trkpt lat="47.99127" lon="6.85381">
        <ele>721.3</ele>
        <time>2022-05-26T09:24:04Z</time>
      </trkpt>
      <trkpt lat="47.99129" lon="6.85396">
        <ele>722.8</ele>
        <time>2022-05-26T09:24:13Z</time>
      </trkpt>
      <trkpt lat="47.99132" lon="6.85409">
        <ele>724.9</ele>
        <time>2022-05-26T09:24:27Z</time>
      </trkpt>
      <trkpt lat="47.99138" lon="6.85421">
        <ele>727.8</ele>
        <time>2022-05-26T09:24:45Z</time>
      </trkpt>
      <trkpt lat="47.99139" lon="6.85434">
        <ele>729.6</ele>
        <time>2022-05-26T09:24:57Z</time>
      </trkpt>
      <trkpt lat="47.9914" lon="6.85448">
        <ele>732.3</ele>
        <time>2022-05-26T09:25:11Z</time>
      </trkpt>
      <trkpt lat="47.9914" lon="6.85462">
        <ele>734.1</ele>
        <time>2022-05-26T09:25:21Z</time>
      </trkpt>
      <trkpt lat="47.9914" lon="6.85477">
        <ele>736.1</ele>
        <time>2022-05-26T09:25:31Z</time>
      </trkpt>
      <trkpt lat="47.9914" lon="6.85491">
        <ele>737.9</ele>
        <time>2022-05-26T09:25:43Z</time>
      </trkpt>
      <trkpt lat="47.99141" lon="6.85496">
        <ele>738.7</ele>
        <time>2022-05-26T09:25:50Z</time>
      </trkpt>
      <trkpt lat="47.99142" lon="6.85496">
        <ele>738.8</ele>
        <time>2022-05-26T09:25:59Z</time>
      </trkpt>
      <trkpt lat="47.99141" lon="6.85497">
        <ele>738.8</ele>
        <time>2022-05-26T09:26:01Z</time>
      </trkpt>
      <trkpt lat="47.99141" lon="6.85498">
        <ele>739.1</ele>
        <time>2022-05-26T09:26:14Z</time>
      </trkpt>
      <trkpt lat="47.9914" lon="6.85511">
        <ele>742.5</ele>
        <time>2022-05-26T09:26:33Z</time>
      </trkpt>
      <trkpt lat="47.99139" lon="6.85523">
        <ele>745.7</ele>
        <time>2022-05-26T09:26:49Z</time>
      </trkpt>
      <trkpt lat="47.99136" lon="6.85538">
        <ele>748</ele>
        <time>2022-05-26T09:27:01Z</time>
      </trkpt>
      <trkpt lat="47.99133" lon="6.85552">
        <ele>748.5</ele>
        <time>2022-05-26T09:27:09Z</time>
      </trkpt>
      <trkpt lat="47.99134" lon="6.85561">
        <ele>750.2</ele>
        <time>2022-05-26T09:27:19Z</time>
      </trkpt>
      <trkpt lat="47.99134" lon="6.85566">
        <ele>752.2</ele>
        <time>2022-05-26T09:27:31Z</time>
      </trkpt>
      <trkpt lat="47.99132" lon="6.8557">
        <ele>754.8</ele>
        <time>2022-05-26T09:27:47Z</time>
      </trkpt>
      <trkpt lat="47.99131" lon="6.8557">
        <ele>755.1</ele>
        <time>2022-05-26T09:27:48Z</time>
      </trkpt>
      <trkpt lat="47.99128" lon="6.85583">
        <ele>757.4</ele>
        <time>2022-05-26T09:28:05Z</time>
      </trkpt>
      <trkpt lat="47.99126" lon="6.85585">
        <ele>758.4</ele>
        <time>2022-05-26T09:28:12Z</time>
      </trkpt>
      <trkpt lat="47.99127" lon="6.85585">
        <ele>758.3</ele>
        <time>2022-05-26T09:28:19Z</time>
      </trkpt>
      <trkpt lat="47.99126" lon="6.85586">
        <ele>758.5</ele>
        <time>2022-05-26T09:28:21Z</time>
      </trkpt>
      <trkpt lat="47.99124" lon="6.85589">
        <ele>759.1</ele>
        <time>2022-05-26T09:28:27Z</time>
      </trkpt>
      <trkpt lat="47.99125" lon="6.8559">
        <ele>759.6</ele>
        <time>2022-05-26T09:28:34Z</time>
      </trkpt>
      <trkpt lat="47.99125" lon="6.85591">
        <ele>759.9</ele>
        <time>2022-05-26T09:28:35Z</time>
      </trkpt>
      <trkpt lat="47.99121" lon="6.85604">
        <ele>762.6</ele>
        <time>2022-05-26T09:28:50Z</time>
      </trkpt>
      <trkpt lat="47.99117" lon="6.85619">
        <ele>765.2</ele>
        <time>2022-05-26T09:29:04Z</time>
      </trkpt>
      <trkpt lat="47.99114" lon="6.85631">
        <ele>767.4</ele>
        <time>2022-05-26T09:29:18Z</time>
      </trkpt>
      <trkpt lat="47.99113" lon="6.85645">
        <ele>770.2</ele>
        <time>2022-05-26T09:29:32Z</time>
      </trkpt>
      <trkpt lat="47.99113" lon="6.85659">
        <ele>773.4</ele>
        <time>2022-05-26T09:29:51Z</time>
      </trkpt>
      <trkpt lat="47.99113" lon="6.8566">
        <ele>773.7</ele>
        <time>2022-05-26T09:29:52Z</time>
      </trkpt>
      <trkpt lat="47.99113" lon="6.85673">
        <ele>775.6</ele>
        <time>2022-05-26T09:30:06Z</time>
      </trkpt>
      <trkpt lat="47.99107" lon="6.85683">
        <ele>777.9</ele>
        <time>2022-05-26T09:30:18Z</time>
      </trkpt>
      <trkpt lat="47.99107" lon="6.85697">
        <ele>780.2</ele>
        <time>2022-05-26T09:30:31Z</time>
      </trkpt>
      <trkpt lat="47.99108" lon="6.85711">
        <ele>782.6</ele>
        <time>2022-05-26T09:30:46Z</time>
      </trkpt>
      <trkpt lat="47.99107" lon="6.85724">
        <ele>784.2</ele>
        <time>2022-05-26T09:30:58Z</time>
      </trkpt>
      <trkpt lat="47.99108" lon="6.85733">
        <ele>785.4</ele>
        <time>2022-05-26T09:31:09Z</time>
      </trkpt>
      <trkpt lat="47.99109" lon="6.85748">
        <ele>786.7</ele>
        <time>2022-05-26T09:31:21Z</time>
      </trkpt>
      <trkpt lat="47.99109" lon="6.85762">
        <ele>789</ele>
        <time>2022-05-26T09:31:28Z</time>
      </trkpt>
      <trkpt lat="47.99108" lon="6.85776">
        <ele>789.6</ele>
        <time>2022-05-26T09:31:34Z</time>
      </trkpt>
      <trkpt lat="47.99112" lon="6.85791">
        <ele>791</ele>
        <time>2022-05-26T09:31:40Z</time>
      </trkpt>
      <trkpt lat="47.99114" lon="6.85805">
        <ele>792.8</ele>
        <time>2022-05-26T09:31:47Z</time>
      </trkpt>
      <trkpt lat="47.99112" lon="6.85811">
        <ele>793.5</ele>
        <time>2022-05-26T09:31:55Z</time>
      </trkpt>
      <trkpt lat="47.99112" lon="6.8581">
        <ele>793.8</ele>
        <time>2022-05-26T09:31:57Z</time>
      </trkpt>
      <trkpt lat="47.99111" lon="6.8581">
        <ele>793.7</ele>
        <time>2022-05-26T09:31:59Z</time>
      </trkpt>
      <trkpt lat="47.99112" lon="6.8581">
        <ele>793.6</ele>
        <time>2022-05-26T09:32:44Z</time>
      </trkpt>
      <trkpt lat="47.99106" lon="6.85799">
        <ele>795.3</ele>
        <time>2022-05-26T09:33:16Z</time>
      </trkpt>
      <trkpt lat="47.99101" lon="6.85787">
        <ele>797</ele>
        <time>2022-05-26T09:33:24Z</time>
      </trkpt>
      <trkpt lat="47.99096" lon="6.85774">
        <ele>798.1</ele>
        <time>2022-05-26T09:33:32Z</time>
      </trkpt>
      <trkpt lat="47.99092" lon="6.85762">
        <ele>800.5</ele>
        <time>2022-05-26T09:33:39Z</time>
      </trkpt>
      <trkpt lat="47.99085" lon="6.85753">
        <ele>801.6</ele>
        <time>2022-05-26T09:33:45Z</time>
      </trkpt>
      <trkpt lat="47.9908" lon="6.85741">
        <ele>803.5</ele>
        <time>2022-05-26T09:33:53Z</time>
      </trkpt>
      <trkpt lat="47.99075" lon="6.85729">
        <ele>804.8</ele>
        <time>2022-05-26T09:34:00Z</time>
      </trkpt>
      <trkpt lat="47.99071" lon="6.85716">
        <ele>806.4</ele>
        <time>2022-05-26T09:34:07Z</time>
      </trkpt>
      <trkpt lat="47.99067" lon="6.85703">
        <ele>807.1</ele>
        <time>2022-05-26T09:34:13Z</time>
      </trkpt>
      <trkpt lat="47.99063" lon="6.8569">
        <ele>808.2</ele>
        <time>2022-05-26T09:34:19Z</time>
      </trkpt>
      <trkpt lat="47.99059" lon="6.85678">
        <ele>808.5</ele>
        <time>2022-05-26T09:34:25Z</time>
      </trkpt>
      <trkpt lat="47.99054" lon="6.85665">
        <ele>809.8</ele>
        <time>2022-05-26T09:34:31Z</time>
      </trkpt>
      <trkpt lat="47.9905" lon="6.85651">
        <ele>812.5</ele>
        <time>2022-05-26T09:34:38Z</time>
      </trkpt>
      <trkpt lat="47.99046" lon="6.85639">
        <ele>814.3</ele>
        <time>2022-05-26T09:34:45Z</time>
      </trkpt>
      <trkpt lat="47.99043" lon="6.85625">
        <ele>815.7</ele>
        <time>2022-05-26T09:34:53Z</time>
      </trkpt>
      <trkpt lat="47.99041" lon="6.8561">
        <ele>816</ele>
        <time>2022-05-26T09:35:01Z</time>
      </trkpt>
      <trkpt lat="47.99037" lon="6.85598">
        <ele>819</ele>
        <time>2022-05-26T09:35:08Z</time>
      </trkpt>
      <trkpt lat="47.99033" lon="6.85585">
        <ele>820.2</ele>
        <time>2022-05-26T09:35:14Z</time>
      </trkpt>
      <trkpt lat="47.99029" lon="6.85572">
        <ele>821.5</ele>
        <time>2022-05-26T09:35:20Z</time>
      </trkpt>
      <trkpt lat="47.99025" lon="6.85559">
        <ele>823.7</ele>
        <time>2022-05-26T09:35:28Z</time>
      </trkpt>
      <trkpt lat="47.9902" lon="6.85546">
        <ele>824.4</ele>
        <time>2022-05-26T09:35:34Z</time>
      </trkpt>
      <trkpt lat="47.99015" lon="6.85534">
        <ele>825.4</ele>
        <time>2022-05-26T09:35:39Z</time>
      </trkpt>
      <trkpt lat="47.99008" lon="6.85525">
        <ele>825.4</ele>
        <time>2022-05-26T09:35:44Z</time>
      </trkpt>
      <trkpt lat="47.99002" lon="6.85513">
        <ele>825.7</ele>
        <time>2022-05-26T09:35:49Z</time>
      </trkpt>
      <trkpt lat="47.98995" lon="6.85499">
        <ele>826</ele>
        <time>2022-05-26T09:35:53Z</time>
      </trkpt>
      <trkpt lat="47.98988" lon="6.85487">
        <ele>827.2</ele>
        <time>2022-05-26T09:35:57Z</time>
      </trkpt>
      <trkpt lat="47.98981" lon="6.85478">
        <ele>828.9</ele>
        <time>2022-05-26T09:36:02Z</time>
      </trkpt>
      <trkpt lat="47.98973" lon="6.8547">
        <ele>830.7</ele>
        <time>2022-05-26T09:36:10Z</time>
      </trkpt>
      <trkpt lat="47.98964" lon="6.85463">
        <ele>831.7</ele>
        <time>2022-05-26T09:36:16Z</time>
      </trkpt>
      <trkpt lat="47.98954" lon="6.85458">
        <ele>833.7</ele>
        <time>2022-05-26T09:36:24Z</time>
      </trkpt>
      <trkpt lat="47.98946" lon="6.85452">
        <ele>835.8</ele>
        <time>2022-05-26T09:36:31Z</time>
      </trkpt>
      <trkpt lat="47.98937" lon="6.85445">
        <ele>837.3</ele>
        <time>2022-05-26T09:36:40Z</time>
      </trkpt>
      <trkpt lat="47.98928" lon="6.85441">
        <ele>840.5</ele>
        <time>2022-05-26T09:36:48Z</time>
      </trkpt>
      <trkpt lat="47.98918" lon="6.85437">
        <ele>842.4</ele>
        <time>2022-05-26T09:36:57Z</time>
      </trkpt>
      <trkpt lat="47.98909" lon="6.85433">
        <ele>843.9</ele>
        <time>2022-05-26T09:37:06Z</time>
      </trkpt>
      <trkpt lat="47.989" lon="6.85429">
        <ele>845.6</ele>
        <time>2022-05-26T09:37:14Z</time>
      </trkpt>
      <trkpt lat="47.9889" lon="6.85424">
        <ele>846.4</ele>
        <time>2022-05-26T09:37:21Z</time>
      </trkpt>
      <trkpt lat="47.98881" lon="6.85419">
        <ele>847.3</ele>
        <time>2022-05-26T09:37:28Z</time>
      </trkpt>
      <trkpt lat="47.98872" lon="6.85413">
        <ele>848.6</ele>
        <time>2022-05-26T09:37:35Z</time>
      </trkpt>
      <trkpt lat="47.98862" lon="6.85408">
        <ele>850.2</ele>
        <time>2022-05-26T09:37:42Z</time>
      </trkpt>
      <trkpt lat="47.98853" lon="6.85403">
        <ele>852.5</ele>
        <time>2022-05-26T09:37:50Z</time>
      </trkpt>
      <trkpt lat="47.98843" lon="6.85399">
        <ele>854</ele>
        <time>2022-05-26T09:37:57Z</time>
      </trkpt>
      <trkpt lat="47.98834" lon="6.85394">
        <ele>855.7</ele>
        <time>2022-05-26T09:38:05Z</time>
      </trkpt>
      <trkpt lat="47.98825" lon="6.85388">
        <ele>857.5</ele>
        <time>2022-05-26T09:38:13Z</time>
      </trkpt>
      <trkpt lat="47.98816" lon="6.85384">
        <ele>859</ele>
        <time>2022-05-26T09:38:20Z</time>
      </trkpt>
      <trkpt lat="47.98807" lon="6.85382">
        <ele>860.5</ele>
        <time>2022-05-26T09:38:27Z</time>
      </trkpt>
      <trkpt lat="47.98797" lon="6.85379">
        <ele>861.7</ele>
        <time>2022-05-26T09:38:34Z</time>
      </trkpt>
      <trkpt lat="47.98788" lon="6.85376">
        <ele>862.8</ele>
        <time>2022-05-26T09:38:41Z</time>
      </trkpt>
      <trkpt lat="47.98779" lon="6.85373">
        <ele>864.5</ele>
        <time>2022-05-26T09:38:47Z</time>
      </trkpt>
      <trkpt lat="47.98769" lon="6.85369">
        <ele>864.8</ele>
        <time>2022-05-26T09:38:52Z</time>
      </trkpt>
      <trkpt lat="47.98761" lon="6.85366">
        <ele>865.4</ele>
        <time>2022-05-26T09:38:57Z</time>
      </trkpt>
      <trkpt lat="47.98751" lon="6.85363">
        <ele>866</ele>
        <time>2022-05-26T09:39:02Z</time>
      </trkpt>
      <trkpt lat="47.98741" lon="6.85359">
        <ele>867.2</ele>
        <time>2022-05-26T09:39:08Z</time>
      </trkpt>
      <trkpt lat="47.98732" lon="6.85357">
        <ele>867.2</ele>
        <time>2022-05-26T09:39:14Z</time>
      </trkpt>
      <trkpt lat="47.98723" lon="6.85358">
        <ele>867.9</ele>
        <time>2022-05-26T09:39:25Z</time>
      </trkpt>
      <trkpt lat="47.98722" lon="6.85358">
        <ele>865.7</ele>
        <time>2022-05-26T09:41:58Z</time>
      </trkpt>
      <trkpt lat="47.98712" lon="6.85357">
        <ele>865.5</ele>
        <time>2022-05-26T09:42:13Z</time>
      </trkpt>
      <trkpt lat="47.98702" lon="6.85352">
        <ele>864.8</ele>
        <time>2022-05-26T09:42:18Z</time>
      </trkpt>
      <trkpt lat="47.98691" lon="6.85349">
        <ele>866.3</ele>
        <time>2022-05-26T09:42:22Z</time>
      </trkpt>
      <trkpt lat="47.98681" lon="6.85348">
        <ele>866.1</ele>
        <time>2022-05-26T09:42:26Z</time>
      </trkpt>
      <trkpt lat="47.98671" lon="6.85348">
        <ele>866.8</ele>
        <time>2022-05-26T09:42:31Z</time>
      </trkpt>
      <trkpt lat="47.98662" lon="6.8535">
        <ele>868.3</ele>
        <time>2022-05-26T09:42:36Z</time>
      </trkpt>
      <trkpt lat="47.98652" lon="6.85351">
        <ele>869</ele>
        <time>2022-05-26T09:42:42Z</time>
      </trkpt>
      <trkpt lat="47.98642" lon="6.85352">
        <ele>870</ele>
        <time>2022-05-26T09:42:48Z</time>
      </trkpt>
      <trkpt lat="47.98633" lon="6.85355">
        <ele>871</ele>
        <time>2022-05-26T09:42:53Z</time>
      </trkpt>
      <trkpt lat="47.98624" lon="6.85356">
        <ele>871.9</ele>
        <time>2022-05-26T09:42:58Z</time>
      </trkpt>
      <trkpt lat="47.98614" lon="6.85359">
        <ele>872.2</ele>
        <time>2022-05-26T09:43:03Z</time>
      </trkpt>
      <trkpt lat="47.98603" lon="6.85361">
        <ele>872.8</ele>
        <time>2022-05-26T09:43:09Z</time>
      </trkpt>
      <trkpt lat="47.98594" lon="6.85361">
        <ele>872.7</ele>
        <time>2022-05-26T09:43:14Z</time>
      </trkpt>
      <trkpt lat="47.98583" lon="6.85361">
        <ele>872.5</ele>
        <time>2022-05-26T09:43:19Z</time>
      </trkpt>
      <trkpt lat="47.98572" lon="6.85364">
        <ele>871.9</ele>
        <time>2022-05-26T09:43:24Z</time>
      </trkpt>
      <trkpt lat="47.98562" lon="6.8537">
        <ele>872.3</ele>
        <time>2022-05-26T09:43:29Z</time>
      </trkpt>
      <trkpt lat="47.98554" lon="6.85376">
        <ele>872.6</ele>
        <time>2022-05-26T09:43:33Z</time>
      </trkpt>
      <trkpt lat="47.98546" lon="6.85385">
        <ele>872.1</ele>
        <time>2022-05-26T09:43:37Z</time>
      </trkpt>
      <trkpt lat="47.98539" lon="6.85395">
        <ele>872.3</ele>
        <time>2022-05-26T09:43:41Z</time>
      </trkpt>
      <trkpt lat="47.98531" lon="6.85407">
        <ele>873.1</ele>
        <time>2022-05-26T09:43:46Z</time>
      </trkpt>
      <trkpt lat="47.98525" lon="6.8542">
        <ele>873.3</ele>
        <time>2022-05-26T09:43:51Z</time>
      </trkpt>
      <trkpt lat="47.9852" lon="6.85434">
        <ele>873.8</ele>
        <time>2022-05-26T09:43:56Z</time>
      </trkpt>
      <trkpt lat="47.98517" lon="6.85447">
        <ele>874</ele>
        <time>2022-05-26T09:44:02Z</time>
      </trkpt>
      <trkpt lat="47.98515" lon="6.85462">
        <ele>874.8</ele>
        <time>2022-05-26T09:44:07Z</time>
      </trkpt>
      <trkpt lat="47.98514" lon="6.85476">
        <ele>874.7</ele>
        <time>2022-05-26T09:44:12Z</time>
      </trkpt>
      <trkpt lat="47.98512" lon="6.85489">
        <ele>875.3</ele>
        <time>2022-05-26T09:44:17Z</time>
      </trkpt>
      <trkpt lat="47.98512" lon="6.85505">
        <ele>876.4</ele>
        <time>2022-05-26T09:44:24Z</time>
      </trkpt>
      <trkpt lat="47.98511" lon="6.85519">
        <ele>877.4</ele>
        <time>2022-05-26T09:44:30Z</time>
      </trkpt>
      <trkpt lat="47.98512" lon="6.85533">
        <ele>878.3</ele>
        <time>2022-05-26T09:44:36Z</time>
      </trkpt>
      <trkpt lat="47.98512" lon="6.85547">
        <ele>878.9</ele>
        <time>2022-05-26T09:44:44Z</time>
      </trkpt>
      <trkpt lat="47.98512" lon="6.85562">
        <ele>880.4</ele>
        <time>2022-05-26T09:44:53Z</time>
      </trkpt>
      <trkpt lat="47.98511" lon="6.85577">
        <ele>881.7</ele>
        <time>2022-05-26T09:45:00Z</time>
      </trkpt>
      <trkpt lat="47.98511" lon="6.85592">
        <ele>883.3</ele>
        <time>2022-05-26T09:45:07Z</time>
      </trkpt>
      <trkpt lat="47.98511" lon="6.85606">
        <ele>885.4</ele>
        <time>2022-05-26T09:45:16Z</time>
      </trkpt>
      <trkpt lat="47.9851" lon="6.8562">
        <ele>886.7</ele>
        <time>2022-05-26T09:45:25Z</time>
      </trkpt>
      <trkpt lat="47.9851" lon="6.85634">
        <ele>887.3</ele>
        <time>2022-05-26T09:45:33Z</time>
      </trkpt>
      <trkpt lat="47.98506" lon="6.85647">
        <ele>889</ele>
        <time>2022-05-26T09:45:41Z</time>
      </trkpt>
      <trkpt lat="47.98504" lon="6.85662">
        <ele>890.5</ele>
        <time>2022-05-26T09:45:49Z</time>
      </trkpt>
      <trkpt lat="47.98509" lon="6.85675">
        <ele>891.9</ele>
        <time>2022-05-26T09:45:55Z</time>
      </trkpt>
      <trkpt lat="47.98517" lon="6.85683">
        <ele>892.6</ele>
        <time>2022-05-26T09:46:02Z</time>
      </trkpt>
      <trkpt lat="47.98519" lon="6.85696">
        <ele>894.2</ele>
        <time>2022-05-26T09:46:08Z</time>
      </trkpt>
      <trkpt lat="47.9852" lon="6.8571">
        <ele>895.4</ele>
        <time>2022-05-26T09:46:14Z</time>
      </trkpt>
      <trkpt lat="47.98522" lon="6.85724">
        <ele>897.2</ele>
        <time>2022-05-26T09:46:23Z</time>
      </trkpt>
      <trkpt lat="47.98514" lon="6.85733">
        <ele>897.4</ele>
        <time>2022-05-26T09:46:30Z</time>
      </trkpt>
      <trkpt lat="47.98505" lon="6.8574">
        <ele>898.5</ele>
        <time>2022-05-26T09:46:36Z</time>
      </trkpt>
      <trkpt lat="47.98497" lon="6.85747">
        <ele>899.6</ele>
        <time>2022-05-26T09:46:41Z</time>
      </trkpt>
      <trkpt lat="47.98488" lon="6.85751">
        <ele>899.7</ele>
        <time>2022-05-26T09:46:47Z</time>
      </trkpt>
      <trkpt lat="47.98478" lon="6.85757">
        <ele>900.7</ele>
        <time>2022-05-26T09:46:54Z</time>
      </trkpt>
      <trkpt lat="47.9847" lon="6.85761">
        <ele>901</ele>
        <time>2022-05-26T09:47:00Z</time>
      </trkpt>
      <trkpt lat="47.98459" lon="6.85761">
        <ele>901.6</ele>
        <time>2022-05-26T09:47:07Z</time>
      </trkpt>
      <trkpt lat="47.9845" lon="6.8576">
        <ele>902.3</ele>
        <time>2022-05-26T09:47:14Z</time>
      </trkpt>
      <trkpt lat="47.98441" lon="6.85758">
        <ele>903.8</ele>
        <time>2022-05-26T09:47:20Z</time>
      </trkpt>
      <trkpt lat="47.98432" lon="6.85754">
        <ele>904.1</ele>
        <time>2022-05-26T09:47:26Z</time>
      </trkpt>
      <trkpt lat="47.98423" lon="6.85748">
        <ele>904.9</ele>
        <time>2022-05-26T09:47:31Z</time>
      </trkpt>
      <trkpt lat="47.98415" lon="6.85739">
        <ele>904.9</ele>
        <time>2022-05-26T09:47:36Z</time>
      </trkpt>
      <trkpt lat="47.98406" lon="6.8573">
        <ele>905.7</ele>
        <time>2022-05-26T09:47:42Z</time>
      </trkpt>
      <trkpt lat="47.984" lon="6.85718">
        <ele>906</ele>
        <time>2022-05-26T09:47:49Z</time>
      </trkpt>
      <trkpt lat="47.9839" lon="6.85712">
        <ele>906.7</ele>
        <time>2022-05-26T09:47:55Z</time>
      </trkpt>
      <trkpt lat="47.98385" lon="6.85723">
        <ele>909.6</ele>
        <time>2022-05-26T09:48:02Z</time>
      </trkpt>
      <trkpt lat="47.98387" lon="6.85737">
        <ele>910</ele>
        <time>2022-05-26T09:48:08Z</time>
      </trkpt>
      <trkpt lat="47.98389" lon="6.85751">
        <ele>910.7</ele>
        <time>2022-05-26T09:48:13Z</time>
      </trkpt>
      <trkpt lat="47.98392" lon="6.85766">
        <ele>911.6</ele>
        <time>2022-05-26T09:48:18Z</time>
      </trkpt>
      <trkpt lat="47.98395" lon="6.8578">
        <ele>913.2</ele>
        <time>2022-05-26T09:48:23Z</time>
      </trkpt>
      <trkpt lat="47.984" lon="6.85793">
        <ele>914.4</ele>
        <time>2022-05-26T09:48:28Z</time>
      </trkpt>
      <trkpt lat="47.98403" lon="6.85807">
        <ele>915.4</ele>
        <time>2022-05-26T09:48:34Z</time>
      </trkpt>
      <trkpt lat="47.98404" lon="6.8582">
        <ele>916.5</ele>
        <time>2022-05-26T09:48:40Z</time>
      </trkpt>
      <trkpt lat="47.98405" lon="6.85834">
        <ele>917.3</ele>
        <time>2022-05-26T09:48:47Z</time>
      </trkpt>
      <trkpt lat="47.9841" lon="6.85848">
        <ele>918.4</ele>
        <time>2022-05-26T09:48:53Z</time>
      </trkpt>
      <trkpt lat="47.98413" lon="6.85863">
        <ele>919.8</ele>
        <time>2022-05-26T09:49:00Z</time>
      </trkpt>
      <trkpt lat="47.98417" lon="6.85877">
        <ele>921.7</ele>
        <time>2022-05-26T09:49:08Z</time>
      </trkpt>
      <trkpt lat="47.98422" lon="6.8589">
        <ele>922.7</ele>
        <time>2022-05-26T09:49:15Z</time>
      </trkpt>
      <trkpt lat="47.98427" lon="6.85903">
        <ele>923.7</ele>
        <time>2022-05-26T09:49:23Z</time>
      </trkpt>
      <trkpt lat="47.98433" lon="6.85914">
        <ele>925.2</ele>
        <time>2022-05-26T09:49:30Z</time>
      </trkpt>
      <trkpt lat="47.98441" lon="6.85925">
        <ele>926.9</ele>
        <time>2022-05-26T09:49:36Z</time>
      </trkpt>
      <trkpt lat="47.98449" lon="6.85934">
        <ele>927.4</ele>
        <time>2022-05-26T09:49:42Z</time>
      </trkpt>
      <trkpt lat="47.98458" lon="6.85941">
        <ele>928.7</ele>
        <time>2022-05-26T09:49:49Z</time>
      </trkpt>
      <trkpt lat="47.98467" lon="6.85948">
        <ele>929.9</ele>
        <time>2022-05-26T09:49:56Z</time>
      </trkpt>
      <trkpt lat="47.98476" lon="6.85953">
        <ele>930.6</ele>
        <time>2022-05-26T09:50:01Z</time>
      </trkpt>
      <trkpt lat="47.98483" lon="6.85962">
        <ele>931.8</ele>
        <time>2022-05-26T09:50:07Z</time>
      </trkpt>
      <trkpt lat="47.98487" lon="6.85976">
        <ele>933.3</ele>
        <time>2022-05-26T09:50:15Z</time>
      </trkpt>
      <trkpt lat="47.98491" lon="6.85989">
        <ele>935</ele>
        <time>2022-05-26T09:50:22Z</time>
      </trkpt>
      <trkpt lat="47.98497" lon="6.85999">
        <ele>936.4</ele>
        <time>2022-05-26T09:50:30Z</time>
      </trkpt>
      <trkpt lat="47.98503" lon="6.8601">
        <ele>937.1</ele>
        <time>2022-05-26T09:50:37Z</time>
      </trkpt>
      <trkpt lat="47.98513" lon="6.86017">
        <ele>938</ele>
        <time>2022-05-26T09:50:44Z</time>
      </trkpt>
      <trkpt lat="47.98521" lon="6.86024">
        <ele>939</ele>
        <time>2022-05-26T09:50:50Z</time>
      </trkpt>
      <trkpt lat="47.98529" lon="6.86032">
        <ele>940.3</ele>
        <time>2022-05-26T09:50:56Z</time>
      </trkpt>
      <trkpt lat="47.98539" lon="6.86037">
        <ele>941.6</ele>
        <time>2022-05-26T09:51:02Z</time>
      </trkpt>
      <trkpt lat="47.98548" lon="6.86041">
        <ele>941.7</ele>
        <time>2022-05-26T09:51:07Z</time>
      </trkpt>
      <trkpt lat="47.98559" lon="6.86043">
        <ele>942.4</ele>
        <time>2022-05-26T09:51:12Z</time>
      </trkpt>
      <trkpt lat="47.98569" lon="6.86041">
        <ele>942.9</ele>
        <time>2022-05-26T09:51:17Z</time>
      </trkpt>
      <trkpt lat="47.98578" lon="6.86035">
        <ele>944</ele>
        <time>2022-05-26T09:51:22Z</time>
      </trkpt>
      <trkpt lat="47.98587" lon="6.86028">
        <ele>944.2</ele>
        <time>2022-05-26T09:51:27Z</time>
      </trkpt>
      <trkpt lat="47.98596" lon="6.8602">
        <ele>943.8</ele>
        <time>2022-05-26T09:51:31Z</time>
      </trkpt>
      <trkpt lat="47.98604" lon="6.86013">
        <ele>944.8</ele>
        <time>2022-05-26T09:51:35Z</time>
      </trkpt>
      <trkpt lat="47.98613" lon="6.86008">
        <ele>945.1</ele>
        <time>2022-05-26T09:51:39Z</time>
      </trkpt>
      <trkpt lat="47.98622" lon="6.86003">
        <ele>945</ele>
        <time>2022-05-26T09:51:44Z</time>
      </trkpt>
      <trkpt lat="47.98633" lon="6.85999">
        <ele>945.2</ele>
        <time>2022-05-26T09:51:49Z</time>
      </trkpt>
      <trkpt lat="47.98642" lon="6.85994">
        <ele>945.9</ele>
        <time>2022-05-26T09:51:53Z</time>
      </trkpt>
      <trkpt lat="47.98651" lon="6.85991">
        <ele>946.1</ele>
        <time>2022-05-26T09:51:57Z</time>
      </trkpt>
      <trkpt lat="47.98662" lon="6.85989">
        <ele>946.1</ele>
        <time>2022-05-26T09:52:01Z</time>
      </trkpt>
      <trkpt lat="47.98673" lon="6.85985">
        <ele>947.7</ele>
        <time>2022-05-26T09:52:05Z</time>
      </trkpt>
      <trkpt lat="47.98684" lon="6.85983">
        <ele>947.7</ele>
        <time>2022-05-26T09:52:09Z</time>
      </trkpt>
      <trkpt lat="47.98696" lon="6.85979">
        <ele>947.9</ele>
        <time>2022-05-26T09:52:13Z</time>
      </trkpt>
      <trkpt lat="47.98707" lon="6.85975">
        <ele>948.4</ele>
        <time>2022-05-26T09:52:17Z</time>
      </trkpt>
      <trkpt lat="47.98717" lon="6.85971">
        <ele>949.5</ele>
        <time>2022-05-26T09:52:21Z</time>
      </trkpt>
      <trkpt lat="47.98728" lon="6.85966">
        <ele>949.8</ele>
        <time>2022-05-26T09:52:25Z</time>
      </trkpt>
      <trkpt lat="47.98739" lon="6.85962">
        <ele>949.8</ele>
        <time>2022-05-26T09:52:29Z</time>
      </trkpt>
      <trkpt lat="47.98748" lon="6.85958">
        <ele>951.6</ele>
        <time>2022-05-26T09:52:32Z</time>
      </trkpt>
      <trkpt lat="47.98759" lon="6.85955">
        <ele>950.9</ele>
        <time>2022-05-26T09:52:36Z</time>
      </trkpt>
      <trkpt lat="47.9877" lon="6.85953">
        <ele>951.4</ele>
        <time>2022-05-26T09:52:40Z</time>
      </trkpt>
      <trkpt lat="47.98781" lon="6.85952">
        <ele>951.8</ele>
        <time>2022-05-26T09:52:44Z</time>
      </trkpt>
      <trkpt lat="47.98792" lon="6.85953">
        <ele>952.6</ele>
        <time>2022-05-26T09:52:48Z</time>
      </trkpt>
      <trkpt lat="47.98803" lon="6.85955">
        <ele>952.4</ele>
        <time>2022-05-26T09:52:52Z</time>
      </trkpt>
      <trkpt lat="47.98812" lon="6.85961">
        <ele>951.9</ele>
        <time>2022-05-26T09:52:56Z</time>
      </trkpt>
      <trkpt lat="47.98819" lon="6.8597">
        <ele>952.5</ele>
        <time>2022-05-26T09:53:00Z</time>
      </trkpt>
      <trkpt lat="47.98825" lon="6.8598">
        <ele>951.8</ele>
        <time>2022-05-26T09:53:05Z</time>
      </trkpt>
      <trkpt lat="47.9883" lon="6.8599">
        <ele>951.4</ele>
        <time>2022-05-26T09:53:13Z</time>
      </trkpt>
      <trkpt lat="47.98829" lon="6.85989">
        <ele>950.1</ele>
        <time>2022-05-26T09:54:54Z</time>
      </trkpt>
      <trkpt lat="47.98824" lon="6.85978">
        <ele>950.2</ele>
        <time>2022-05-26T09:55:00Z</time>
      </trkpt>
      <trkpt lat="47.98817" lon="6.85967">
        <ele>950.4</ele>
        <time>2022-05-26T09:55:05Z</time>
      </trkpt>
      <trkpt lat="47.98811" lon="6.85955">
        <ele>950</ele>
        <time>2022-05-26T09:55:11Z</time>
      </trkpt>
      <trkpt lat="47.98813" lon="6.85968">
        <ele>950.1</ele>
        <time>2022-05-26T09:55:27Z</time>
      </trkpt>
      <trkpt lat="47.98815" lon="6.85972">
        <ele>949.9</ele>
        <time>2022-05-26T09:55:31Z</time>
      </trkpt>
      <trkpt lat="47.98816" lon="6.85972">
        <ele>949.2</ele>
        <time>2022-05-26T09:56:25Z</time>
      </trkpt>
      <trkpt lat="47.98824" lon="6.8598">
        <ele>948.5</ele>
        <time>2022-05-26T09:56:30Z</time>
      </trkpt>
      <trkpt lat="47.98826" lon="6.85982">
        <ele>948.7</ele>
        <time>2022-05-26T09:56:34Z</time>
      </trkpt>
      <trkpt lat="47.98825" lon="6.85982">
        <ele>947.7</ele>
        <time>2022-05-26T09:57:44Z</time>
      </trkpt>
      <trkpt lat="47.98825" lon="6.85983">
        <ele>946.7</ele>
        <time>2022-05-26T09:58:46Z</time>
      </trkpt>
      <trkpt lat="47.98825" lon="6.85985">
        <ele>946.6</ele>
        <time>2022-05-26T09:58:55Z</time>
      </trkpt>
      <trkpt lat="47.98826" lon="6.85986">
        <ele>946.4</ele>
        <time>2022-05-26T09:58:59Z</time>
      </trkpt>
      <trkpt lat="47.98831" lon="6.85998">
        <ele>946.1</ele>
        <time>2022-05-26T09:59:07Z</time>
      </trkpt>
      <trkpt lat="47.98837" lon="6.86013">
        <ele>945.8</ele>
        <time>2022-05-26T09:59:12Z</time>
      </trkpt>
      <trkpt lat="47.98843" lon="6.8603">
        <ele>943.1</ele>
        <time>2022-05-26T09:59:15Z</time>
      </trkpt>
      <trkpt lat="47.98847" lon="6.86044">
        <ele>944.1</ele>
        <time>2022-05-26T09:59:17Z</time>
      </trkpt>
      <trkpt lat="47.98853" lon="6.8606">
        <ele>942.2</ele>
        <time>2022-05-26T09:59:19Z</time>
      </trkpt>
      <trkpt lat="47.98858" lon="6.86077">
        <ele>941.2</ele>
        <time>2022-05-26T09:59:21Z</time>
      </trkpt>
      <trkpt lat="47.98863" lon="6.86097">
        <ele>937.2</ele>
        <time>2022-05-26T09:59:23Z</time>
      </trkpt>
      <trkpt lat="47.98868" lon="6.86117">
        <ele>939.4</ele>
        <time>2022-05-26T09:59:25Z</time>
      </trkpt>
      <trkpt lat="47.98873" lon="6.86138">
        <ele>936.7</ele>
        <time>2022-05-26T09:59:27Z</time>
      </trkpt>
      <trkpt lat="47.98878" lon="6.8616">
        <ele>938.2</ele>
        <time>2022-05-26T09:59:29Z</time>
      </trkpt>
      <trkpt lat="47.98879" lon="6.86183">
        <ele>934.8</ele>
        <time>2022-05-26T09:59:31Z</time>
      </trkpt>
      <trkpt lat="47.98878" lon="6.86207">
        <ele>934.2</ele>
        <time>2022-05-26T09:59:33Z</time>
      </trkpt>
      <trkpt lat="47.98876" lon="6.86234">
        <ele>933.1</ele>
        <time>2022-05-26T09:59:35Z</time>
      </trkpt>
      <trkpt lat="47.98876" lon="6.86247">
        <ele>931.5</ele>
        <time>2022-05-26T09:59:36Z</time>
      </trkpt>
      <trkpt lat="47.98876" lon="6.86261">
        <ele>929.2</ele>
        <time>2022-05-26T09:59:37Z</time>
      </trkpt>
      <trkpt lat="47.98875" lon="6.86274">
        <ele>929.3</ele>
        <time>2022-05-26T09:59:38Z</time>
      </trkpt>
      <trkpt lat="47.98874" lon="6.86288">
        <ele>930.2</ele>
        <time>2022-05-26T09:59:39Z</time>
      </trkpt>
      <trkpt lat="47.9887" lon="6.86314">
        <ele>930</ele>
        <time>2022-05-26T09:59:41Z</time>
      </trkpt>
      <trkpt lat="47.98866" lon="6.86338">
        <ele>928.1</ele>
        <time>2022-05-26T09:59:43Z</time>
      </trkpt>
      <trkpt lat="47.98863" lon="6.86359">
        <ele>928.1</ele>
        <time>2022-05-26T09:59:45Z</time>
      </trkpt>
      <trkpt lat="47.98857" lon="6.8638">
        <ele>927.4</ele>
        <time>2022-05-26T09:59:47Z</time>
      </trkpt>
      <trkpt lat="47.98848" lon="6.86399">
        <ele>925.9</ele>
        <time>2022-05-26T09:59:49Z</time>
      </trkpt>
      <trkpt lat="47.98837" lon="6.86418">
        <ele>926</ele>
        <time>2022-05-26T09:59:51Z</time>
      </trkpt>
      <trkpt lat="47.98827" lon="6.86437">
        <ele>924.9</ele>
        <time>2022-05-26T09:59:53Z</time>
      </trkpt>
      <trkpt lat="47.98817" lon="6.86457">
        <ele>923</ele>
        <time>2022-05-26T09:59:55Z</time>
      </trkpt>
      <trkpt lat="47.98806" lon="6.86478">
        <ele>919.5</ele>
        <time>2022-05-26T09:59:57Z</time>
      </trkpt>
      <trkpt lat="47.98796" lon="6.86496">
        <ele>916.8</ele>
        <time>2022-05-26T09:59:59Z</time>
      </trkpt>
      <trkpt lat="47.98786" lon="6.8651">
        <ele>917</ele>
        <time>2022-05-26T10:00:01Z</time>
      </trkpt>
      <trkpt lat="47.98774" lon="6.86522">
        <ele>913</ele>
        <time>2022-05-26T10:00:03Z</time>
      </trkpt>
      <trkpt lat="47.98762" lon="6.86535">
        <ele>914.6</ele>
        <time>2022-05-26T10:00:05Z</time>
      </trkpt>
      <trkpt lat="47.98751" lon="6.8655">
        <ele>911.4</ele>
        <time>2022-05-26T10:00:07Z</time>
      </trkpt>
      <trkpt lat="47.98742" lon="6.86568">
        <ele>910.2</ele>
        <time>2022-05-26T10:00:09Z</time>
      </trkpt>
      <trkpt lat="47.98734" lon="6.86591">
        <ele>904.1</ele>
        <time>2022-05-26T10:00:11Z</time>
      </trkpt>
      <trkpt lat="47.98729" lon="6.86604">
        <ele>902.8</ele>
        <time>2022-05-26T10:00:12Z</time>
      </trkpt>
      <trkpt lat="47.98723" lon="6.86616">
        <ele>903.2</ele>
        <time>2022-05-26T10:00:13Z</time>
      </trkpt>
      <trkpt lat="47.98717" lon="6.86627">
        <ele>903.3</ele>
        <time>2022-05-26T10:00:14Z</time>
      </trkpt>
      <trkpt lat="47.98711" lon="6.86639">
        <ele>903.3</ele>
        <time>2022-05-26T10:00:15Z</time>
      </trkpt>
      <trkpt lat="47.98706" lon="6.86651">
        <ele>903.4</ele>
        <time>2022-05-26T10:00:16Z</time>
      </trkpt>
      <trkpt lat="47.98701" lon="6.86665">
        <ele>900.9</ele>
        <time>2022-05-26T10:00:17Z</time>
      </trkpt>
      <trkpt lat="47.98696" lon="6.86679">
        <ele>898.9</ele>
        <time>2022-05-26T10:00:18Z</time>
      </trkpt>
      <trkpt lat="47.98691" lon="6.86694">
        <ele>897.4</ele>
        <time>2022-05-26T10:00:19Z</time>
      </trkpt>
      <trkpt lat="47.98687" lon="6.86709">
        <ele>896.2</ele>
        <time>2022-05-26T10:00:20Z</time>
      </trkpt>
      <trkpt lat="47.98683" lon="6.86724">
        <ele>895.4</ele>
        <time>2022-05-26T10:00:21Z</time>
      </trkpt>
      <trkpt lat="47.98681" lon="6.86739">
        <ele>894.6</ele>
        <time>2022-05-26T10:00:22Z</time>
      </trkpt>
      <trkpt lat="47.98679" lon="6.86754">
        <ele>894.9</ele>
        <time>2022-05-26T10:00:23Z</time>
      </trkpt>
      <trkpt lat="47.98678" lon="6.8677">
        <ele>893.8</ele>
        <time>2022-05-26T10:00:24Z</time>
      </trkpt>
      <trkpt lat="47.98677" lon="6.86785">
        <ele>893.4</ele>
        <time>2022-05-26T10:00:25Z</time>
      </trkpt>
      <trkpt lat="47.98677" lon="6.868">
        <ele>892.3</ele>
        <time>2022-05-26T10:00:26Z</time>
      </trkpt>
      <trkpt lat="47.98677" lon="6.86814">
        <ele>890.4</ele>
        <time>2022-05-26T10:00:27Z</time>
      </trkpt>
      <trkpt lat="47.9868" lon="6.86828">
        <ele>888.3</ele>
        <time>2022-05-26T10:00:28Z</time>
      </trkpt>
      <trkpt lat="47.98683" lon="6.86841">
        <ele>887.1</ele>
        <time>2022-05-26T10:00:29Z</time>
      </trkpt>
      <trkpt lat="47.98689" lon="6.86852">
        <ele>887.1</ele>
        <time>2022-05-26T10:00:30Z</time>
      </trkpt>
      <trkpt lat="47.98695" lon="6.86863">
        <ele>887.5</ele>
        <time>2022-05-26T10:00:31Z</time>
      </trkpt>
      <trkpt lat="47.98702" lon="6.86873">
        <ele>887.9</ele>
        <time>2022-05-26T10:00:32Z</time>
      </trkpt>
      <trkpt lat="47.98708" lon="6.86883">
        <ele>887.1</ele>
        <time>2022-05-26T10:00:33Z</time>
      </trkpt>
      <trkpt lat="47.98719" lon="6.86903">
        <ele>886.3</ele>
        <time>2022-05-26T10:00:35Z</time>
      </trkpt>
      <trkpt lat="47.98728" lon="6.86925">
        <ele>884.5</ele>
        <time>2022-05-26T10:00:37Z</time>
      </trkpt>
      <trkpt lat="47.98737" lon="6.86939">
        <ele>883.4</ele>
        <time>2022-05-26T10:00:39Z</time>
      </trkpt>
      <trkpt lat="47.98745" lon="6.86949">
        <ele>884.3</ele>
        <time>2022-05-26T10:00:41Z</time>
      </trkpt>
      <trkpt lat="47.98755" lon="6.86958">
        <ele>881.9</ele>
        <time>2022-05-26T10:00:43Z</time>
      </trkpt>
      <trkpt lat="47.98762" lon="6.86968">
        <ele>881.1</ele>
        <time>2022-05-26T10:00:45Z</time>
      </trkpt>
      <trkpt lat="47.98764" lon="6.86981">
        <ele>880.6</ele>
        <time>2022-05-26T10:00:47Z</time>
      </trkpt>
      <trkpt lat="47.98758" lon="6.86997">
        <ele>881.2</ele>
        <time>2022-05-26T10:00:50Z</time>
      </trkpt>
      <trkpt lat="47.98755" lon="6.87011">
        <ele>882.1</ele>
        <time>2022-05-26T10:00:53Z</time>
      </trkpt>
      <trkpt lat="47.98757" lon="6.87026">
        <ele>882.1</ele>
        <time>2022-05-26T10:00:57Z</time>
      </trkpt>
      <trkpt lat="47.98757" lon="6.8704">
        <ele>883</ele>
        <time>2022-05-26T10:01:02Z</time>
      </trkpt>
      <trkpt lat="47.98758" lon="6.87055">
        <ele>884.4</ele>
        <time>2022-05-26T10:01:08Z</time>
      </trkpt>
      <trkpt lat="47.98757" lon="6.87071">
        <ele>885.9</ele>
        <time>2022-05-26T10:01:14Z</time>
      </trkpt>
      <trkpt lat="47.9876" lon="6.87086">
        <ele>886.9</ele>
        <time>2022-05-26T10:01:20Z</time>
      </trkpt>
      <trkpt lat="47.98764" lon="6.871">
        <ele>887.9</ele>
        <time>2022-05-26T10:01:26Z</time>
      </trkpt>
      <trkpt lat="47.98769" lon="6.87113">
        <ele>888.7</ele>
        <time>2022-05-26T10:01:32Z</time>
      </trkpt>
      <trkpt lat="47.9877" lon="6.87127">
        <ele>890</ele>
        <time>2022-05-26T10:01:38Z</time>
      </trkpt>
      <trkpt lat="47.9877" lon="6.87141">
        <ele>891.6</ele>
        <time>2022-05-26T10:01:44Z</time>
      </trkpt>
      <trkpt lat="47.9877" lon="6.87156">
        <ele>892.9</ele>
        <time>2022-05-26T10:01:50Z</time>
      </trkpt>
      <trkpt lat="47.98769" lon="6.87172">
        <ele>893.8</ele>
        <time>2022-05-26T10:01:56Z</time>
      </trkpt>
      <trkpt lat="47.98769" lon="6.87187">
        <ele>894.5</ele>
        <time>2022-05-26T10:02:02Z</time>
      </trkpt>
      <trkpt lat="47.98768" lon="6.87204">
        <ele>895.3</ele>
        <time>2022-05-26T10:02:08Z</time>
      </trkpt>
      <trkpt lat="47.98768" lon="6.87219">
        <ele>895.4</ele>
        <time>2022-05-26T10:02:13Z</time>
      </trkpt>
      <trkpt lat="47.98769" lon="6.87234">
        <ele>895.9</ele>
        <time>2022-05-26T10:02:18Z</time>
      </trkpt>
      <trkpt lat="47.9877" lon="6.87249">
        <ele>897</ele>
        <time>2022-05-26T10:02:23Z</time>
      </trkpt>
      <trkpt lat="47.98771" lon="6.87263">
        <ele>897.9</ele>
        <time>2022-05-26T10:02:28Z</time>
      </trkpt>
      <trkpt lat="47.98775" lon="6.87278">
        <ele>898.7</ele>
        <time>2022-05-26T10:02:33Z</time>
      </trkpt>
      <trkpt lat="47.98779" lon="6.87292">
        <ele>899</ele>
        <time>2022-05-26T10:02:38Z</time>
      </trkpt>
      <trkpt lat="47.98782" lon="6.87307">
        <ele>899.5</ele>
        <time>2022-05-26T10:02:43Z</time>
      </trkpt>
      <trkpt lat="47.98786" lon="6.8732">
        <ele>900.1</ele>
        <time>2022-05-26T10:02:48Z</time>
      </trkpt>
      <trkpt lat="47.9879" lon="6.87333">
        <ele>900.9</ele>
        <time>2022-05-26T10:02:53Z</time>
      </trkpt>
      <trkpt lat="47.98795" lon="6.87346">
        <ele>901.7</ele>
        <time>2022-05-26T10:02:58Z</time>
      </trkpt>
      <trkpt lat="47.988" lon="6.87359">
        <ele>903.1</ele>
        <time>2022-05-26T10:03:03Z</time>
      </trkpt>
      <trkpt lat="47.98806" lon="6.87371">
        <ele>903.3</ele>
        <time>2022-05-26T10:03:08Z</time>
      </trkpt>
      <trkpt lat="47.98812" lon="6.87384">
        <ele>904.1</ele>
        <time>2022-05-26T10:03:13Z</time>
      </trkpt>
      <trkpt lat="47.98818" lon="6.87397">
        <ele>904.8</ele>
        <time>2022-05-26T10:03:18Z</time>
      </trkpt>
      <trkpt lat="47.98824" lon="6.87411">
        <ele>905.4</ele>
        <time>2022-05-26T10:03:23Z</time>
      </trkpt>
      <trkpt lat="47.9883" lon="6.87425">
        <ele>906.3</ele>
        <time>2022-05-26T10:03:28Z</time>
      </trkpt>
      <trkpt lat="47.98835" lon="6.87439">
        <ele>906.1</ele>
        <time>2022-05-26T10:03:33Z</time>
      </trkpt>
      <trkpt lat="47.98841" lon="6.87451">
        <ele>906.3</ele>
        <time>2022-05-26T10:03:37Z</time>
      </trkpt>
      <trkpt lat="47.98846" lon="6.87463">
        <ele>906.9</ele>
        <time>2022-05-26T10:03:41Z</time>
      </trkpt>
      <trkpt lat="47.98852" lon="6.87476">
        <ele>907.2</ele>
        <time>2022-05-26T10:03:45Z</time>
      </trkpt>
      <trkpt lat="47.98856" lon="6.87488">
        <ele>907.2</ele>
        <time>2022-05-26T10:03:49Z</time>
      </trkpt>
      <trkpt lat="47.98861" lon="6.87501">
        <ele>907.7</ele>
        <time>2022-05-26T10:03:53Z</time>
      </trkpt>
      <trkpt lat="47.98865" lon="6.87514">
        <ele>908.3</ele>
        <time>2022-05-26T10:03:57Z</time>
      </trkpt>
      <trkpt lat="47.9887" lon="6.87527">
        <ele>909</ele>
        <time>2022-05-26T10:04:01Z</time>
      </trkpt>
      <trkpt lat="47.98874" lon="6.8754">
        <ele>909.3</ele>
        <time>2022-05-26T10:04:05Z</time>
      </trkpt>
      <trkpt lat="47.9888" lon="6.87553">
        <ele>909.4</ele>
        <time>2022-05-26T10:04:09Z</time>
      </trkpt>
      <trkpt lat="47.98884" lon="6.87566">
        <ele>910.4</ele>
        <time>2022-05-26T10:04:13Z</time>
      </trkpt>
      <trkpt lat="47.98888" lon="6.87578">
        <ele>910.8</ele>
        <time>2022-05-26T10:04:17Z</time>
      </trkpt>
      <trkpt lat="47.98896" lon="6.87568">
        <ele>912.3</ele>
        <time>2022-05-26T10:04:25Z</time>
      </trkpt>
      <trkpt lat="47.98892" lon="6.87552">
        <ele>914.5</ele>
        <time>2022-05-26T10:04:30Z</time>
      </trkpt>
      <trkpt lat="47.98888" lon="6.87538">
        <ele>914.2</ele>
        <time>2022-05-26T10:04:34Z</time>
      </trkpt>
      <trkpt lat="47.98885" lon="6.87523">
        <ele>915.2</ele>
        <time>2022-05-26T10:04:39Z</time>
      </trkpt>
      <trkpt lat="47.98882" lon="6.87506">
        <ele>915.9</ele>
        <time>2022-05-26T10:04:44Z</time>
      </trkpt>
      <trkpt lat="47.9888" lon="6.87493">
        <ele>916.4</ele>
        <time>2022-05-26T10:04:48Z</time>
      </trkpt>
      <trkpt lat="47.98878" lon="6.87479">
        <ele>916.2</ele>
        <time>2022-05-26T10:04:52Z</time>
      </trkpt>
      <trkpt lat="47.98875" lon="6.87465">
        <ele>917</ele>
        <time>2022-05-26T10:04:56Z</time>
      </trkpt>
      <trkpt lat="47.98871" lon="6.8745">
        <ele>917.1</ele>
        <time>2022-05-26T10:05:00Z</time>
      </trkpt>
      <trkpt lat="47.98867" lon="6.87436">
        <ele>918.2</ele>
        <time>2022-05-26T10:05:05Z</time>
      </trkpt>
      <trkpt lat="47.98864" lon="6.87422">
        <ele>918.3</ele>
        <time>2022-05-26T10:05:09Z</time>
      </trkpt>
      <trkpt lat="47.9886" lon="6.87407">
        <ele>918.1</ele>
        <time>2022-05-26T10:05:13Z</time>
      </trkpt>
      <trkpt lat="47.98856" lon="6.87391">
        <ele>917.7</ele>
        <time>2022-05-26T10:05:17Z</time>
      </trkpt>
      <trkpt lat="47.98853" lon="6.87374">
        <ele>918.4</ele>
        <time>2022-05-26T10:05:21Z</time>
      </trkpt>
      <trkpt lat="47.98852" lon="6.8736">
        <ele>918.6</ele>
        <time>2022-05-26T10:05:25Z</time>
      </trkpt>
      <trkpt lat="47.98857" lon="6.87348">
        <ele>919.2</ele>
        <time>2022-05-26T10:05:29Z</time>
      </trkpt>
      <trkpt lat="47.98865" lon="6.87353">
        <ele>920.2</ele>
        <time>2022-05-26T10:05:35Z</time>
      </trkpt>
      <trkpt lat="47.98869" lon="6.87367">
        <ele>921.3</ele>
        <time>2022-05-26T10:05:40Z</time>
      </trkpt>
      <trkpt lat="47.98874" lon="6.87381">
        <ele>922.4</ele>
        <time>2022-05-26T10:05:45Z</time>
      </trkpt>
      <trkpt lat="47.98879" lon="6.87393">
        <ele>923.4</ele>
        <time>2022-05-26T10:05:50Z</time>
      </trkpt>
      <trkpt lat="47.98885" lon="6.87406">
        <ele>924.5</ele>
        <time>2022-05-26T10:05:56Z</time>
      </trkpt>
      <trkpt lat="47.98891" lon="6.87417">
        <ele>925.9</ele>
        <time>2022-05-26T10:06:02Z</time>
      </trkpt>
      <trkpt lat="47.98897" lon="6.87427">
        <ele>926.8</ele>
        <time>2022-05-26T10:06:08Z</time>
      </trkpt>
      <trkpt lat="47.98904" lon="6.8744">
        <ele>927.3</ele>
        <time>2022-05-26T10:06:14Z</time>
      </trkpt>
      <trkpt lat="47.9891" lon="6.87451">
        <ele>928.6</ele>
        <time>2022-05-26T10:06:19Z</time>
      </trkpt>
      <trkpt lat="47.98916" lon="6.87462">
        <ele>929.3</ele>
        <time>2022-05-26T10:06:24Z</time>
      </trkpt>
      <trkpt lat="47.98921" lon="6.87473">
        <ele>930</ele>
        <time>2022-05-26T10:06:29Z</time>
      </trkpt>
      <trkpt lat="47.98927" lon="6.87486">
        <ele>931.4</ele>
        <time>2022-05-26T10:06:35Z</time>
      </trkpt>
      <trkpt lat="47.98933" lon="6.87497">
        <ele>932.9</ele>
        <time>2022-05-26T10:06:40Z</time>
      </trkpt>
      <trkpt lat="47.98938" lon="6.8751">
        <ele>934.2</ele>
        <time>2022-05-26T10:06:46Z</time>
      </trkpt>
      <trkpt lat="47.98943" lon="6.87524">
        <ele>936.1</ele>
        <time>2022-05-26T10:06:52Z</time>
      </trkpt>
      <trkpt lat="47.98946" lon="6.87539">
        <ele>937.4</ele>
        <time>2022-05-26T10:06:58Z</time>
      </trkpt>
      <trkpt lat="47.98948" lon="6.87552">
        <ele>938.8</ele>
        <time>2022-05-26T10:07:04Z</time>
      </trkpt>
      <trkpt lat="47.98952" lon="6.87566">
        <ele>939.8</ele>
        <time>2022-05-26T10:07:10Z</time>
      </trkpt>
      <trkpt lat="47.98956" lon="6.87581">
        <ele>939.9</ele>
        <time>2022-05-26T10:07:15Z</time>
      </trkpt>
      <trkpt lat="47.98958" lon="6.87595">
        <ele>940.5</ele>
        <time>2022-05-26T10:07:19Z</time>
      </trkpt>
      <trkpt lat="47.9896" lon="6.87609">
        <ele>941.1</ele>
        <time>2022-05-26T10:07:23Z</time>
      </trkpt>
      <trkpt lat="47.98961" lon="6.87623">
        <ele>941</ele>
        <time>2022-05-26T10:07:27Z</time>
      </trkpt>
      <trkpt lat="47.98964" lon="6.87637">
        <ele>941.5</ele>
        <time>2022-05-26T10:07:31Z</time>
      </trkpt>
      <trkpt lat="47.98967" lon="6.8765">
        <ele>942</ele>
        <time>2022-05-26T10:07:35Z</time>
      </trkpt>
      <trkpt lat="47.98969" lon="6.87664">
        <ele>943.4</ele>
        <time>2022-05-26T10:07:40Z</time>
      </trkpt>
      <trkpt lat="47.9897" lon="6.87679">
        <ele>945.5</ele>
        <time>2022-05-26T10:07:45Z</time>
      </trkpt>
      <trkpt lat="47.98973" lon="6.87694">
        <ele>947.3</ele>
        <time>2022-05-26T10:07:50Z</time>
      </trkpt>
      <trkpt lat="47.98977" lon="6.87708">
        <ele>947.7</ele>
        <time>2022-05-26T10:07:55Z</time>
      </trkpt>
      <trkpt lat="47.98983" lon="6.87722">
        <ele>949.1</ele>
        <time>2022-05-26T10:08:00Z</time>
      </trkpt>
      <trkpt lat="47.98987" lon="6.87734">
        <ele>949.9</ele>
        <time>2022-05-26T10:08:04Z</time>
      </trkpt>
      <trkpt lat="47.98989" lon="6.87749">
        <ele>948.6</ele>
        <time>2022-05-26T10:08:08Z</time>
      </trkpt>
      <trkpt lat="47.98991" lon="6.87766">
        <ele>949.7</ele>
        <time>2022-05-26T10:08:12Z</time>
      </trkpt>
      <trkpt lat="47.98994" lon="6.87782">
        <ele>950.7</ele>
        <time>2022-05-26T10:08:16Z</time>
      </trkpt>
      <trkpt lat="47.98996" lon="6.87798">
        <ele>949.6</ele>
        <time>2022-05-26T10:08:20Z</time>
      </trkpt>
      <trkpt lat="47.98997" lon="6.87814">
        <ele>950.4</ele>
        <time>2022-05-26T10:08:24Z</time>
      </trkpt>
      <trkpt lat="47.98998" lon="6.8783">
        <ele>951.3</ele>
        <time>2022-05-26T10:08:28Z</time>
      </trkpt>
      <trkpt lat="47.98998" lon="6.87845">
        <ele>951.4</ele>
        <time>2022-05-26T10:08:32Z</time>
      </trkpt>
      <trkpt lat="47.98997" lon="6.8786">
        <ele>951.3</ele>
        <time>2022-05-26T10:08:36Z</time>
      </trkpt>
      <trkpt lat="47.98995" lon="6.87873">
        <ele>953.4</ele>
        <time>2022-05-26T10:08:40Z</time>
      </trkpt>
      <trkpt lat="47.98994" lon="6.8789">
        <ele>953.1</ele>
        <time>2022-05-26T10:08:45Z</time>
      </trkpt>
      <trkpt lat="47.98993" lon="6.87903">
        <ele>955</ele>
        <time>2022-05-26T10:08:49Z</time>
      </trkpt>
      <trkpt lat="47.98992" lon="6.87919">
        <ele>956</ele>
        <time>2022-05-26T10:08:54Z</time>
      </trkpt>
      <trkpt lat="47.9899" lon="6.87934">
        <ele>956.8</ele>
        <time>2022-05-26T10:08:59Z</time>
      </trkpt>
      <trkpt lat="47.98989" lon="6.87949">
        <ele>958.2</ele>
        <time>2022-05-26T10:09:04Z</time>
      </trkpt>
      <trkpt lat="47.98988" lon="6.87966">
        <ele>958.7</ele>
        <time>2022-05-26T10:09:09Z</time>
      </trkpt>
      <trkpt lat="47.98986" lon="6.87979">
        <ele>959.3</ele>
        <time>2022-05-26T10:09:13Z</time>
      </trkpt>
      <trkpt lat="47.98984" lon="6.87994">
        <ele>960.5</ele>
        <time>2022-05-26T10:09:18Z</time>
      </trkpt>
      <trkpt lat="47.98983" lon="6.8801">
        <ele>961.9</ele>
        <time>2022-05-26T10:09:23Z</time>
      </trkpt>
      <trkpt lat="47.98984" lon="6.88026">
        <ele>962.4</ele>
        <time>2022-05-26T10:09:28Z</time>
      </trkpt>
      <trkpt lat="47.98983" lon="6.8804">
        <ele>963.7</ele>
        <time>2022-05-26T10:09:33Z</time>
      </trkpt>
      <trkpt lat="47.98981" lon="6.88054">
        <ele>964.8</ele>
        <time>2022-05-26T10:09:38Z</time>
      </trkpt>
      <trkpt lat="47.98979" lon="6.88068">
        <ele>966.1</ele>
        <time>2022-05-26T10:09:43Z</time>
      </trkpt>
      <trkpt lat="47.98977" lon="6.88082">
        <ele>966.9</ele>
        <time>2022-05-26T10:09:48Z</time>
      </trkpt>
      <trkpt lat="47.98975" lon="6.88096">
        <ele>968.4</ele>
        <time>2022-05-26T10:09:53Z</time>
      </trkpt>
      <trkpt lat="47.98973" lon="6.8811">
        <ele>968.9</ele>
        <time>2022-05-26T10:09:58Z</time>
      </trkpt>
      <trkpt lat="47.9897" lon="6.88124">
        <ele>969.9</ele>
        <time>2022-05-26T10:10:03Z</time>
      </trkpt>
      <trkpt lat="47.98968" lon="6.88138">
        <ele>971.3</ele>
        <time>2022-05-26T10:10:08Z</time>
      </trkpt>
      <trkpt lat="47.98966" lon="6.88152">
        <ele>972.1</ele>
        <time>2022-05-26T10:10:13Z</time>
      </trkpt>
      <trkpt lat="47.98965" lon="6.88166">
        <ele>973.3</ele>
        <time>2022-05-26T10:10:18Z</time>
      </trkpt>
      <trkpt lat="47.98963" lon="6.8818">
        <ele>974.8</ele>
        <time>2022-05-26T10:10:23Z</time>
      </trkpt>
      <trkpt lat="47.98963" lon="6.88194">
        <ele>976.9</ele>
        <time>2022-05-26T10:10:28Z</time>
      </trkpt>
      <trkpt lat="47.98961" lon="6.88209">
        <ele>978.8</ele>
        <time>2022-05-26T10:10:34Z</time>
      </trkpt>
      <trkpt lat="47.98961" lon="6.88223">
        <ele>980</ele>
        <time>2022-05-26T10:10:40Z</time>
      </trkpt>
      <trkpt lat="47.9896" lon="6.88237">
        <ele>981.5</ele>
        <time>2022-05-26T10:10:46Z</time>
      </trkpt>
      <trkpt lat="47.9896" lon="6.88252">
        <ele>982.4</ele>
        <time>2022-05-26T10:10:52Z</time>
      </trkpt>
      <trkpt lat="47.9896" lon="6.88267">
        <ele>984</ele>
        <time>2022-05-26T10:10:58Z</time>
      </trkpt>
      <trkpt lat="47.98959" lon="6.88282">
        <ele>984.5</ele>
        <time>2022-05-26T10:11:04Z</time>
      </trkpt>
      <trkpt lat="47.9896" lon="6.88298">
        <ele>986.3</ele>
        <time>2022-05-26T10:11:10Z</time>
      </trkpt>
      <trkpt lat="47.98962" lon="6.88313">
        <ele>986.8</ele>
        <time>2022-05-26T10:11:15Z</time>
      </trkpt>
      <trkpt lat="47.98964" lon="6.88327">
        <ele>988.4</ele>
        <time>2022-05-26T10:11:20Z</time>
      </trkpt>
      <trkpt lat="47.98967" lon="6.8834">
        <ele>989.9</ele>
        <time>2022-05-26T10:11:25Z</time>
      </trkpt>
      <trkpt lat="47.9897" lon="6.88354">
        <ele>990.8</ele>
        <time>2022-05-26T10:11:30Z</time>
      </trkpt>
      <trkpt lat="47.98973" lon="6.88367">
        <ele>993.1</ele>
        <time>2022-05-26T10:11:35Z</time>
      </trkpt>
      <trkpt lat="47.98975" lon="6.88381">
        <ele>993.3</ele>
        <time>2022-05-26T10:11:40Z</time>
      </trkpt>
      <trkpt lat="47.98976" lon="6.88397">
        <ele>994.8</ele>
        <time>2022-05-26T10:11:45Z</time>
      </trkpt>
      <trkpt lat="47.98977" lon="6.88413">
        <ele>996.1</ele>
        <time>2022-05-26T10:11:50Z</time>
      </trkpt>
      <trkpt lat="47.98976" lon="6.88428">
        <ele>996.9</ele>
        <time>2022-05-26T10:11:55Z</time>
      </trkpt>
      <trkpt lat="47.98975" lon="6.88444">
        <ele>997.8</ele>
        <time>2022-05-26T10:12:00Z</time>
      </trkpt>
      <trkpt lat="47.98974" lon="6.88461">
        <ele>999</ele>
        <time>2022-05-26T10:12:05Z</time>
      </trkpt>
      <trkpt lat="47.98972" lon="6.88477">
        <ele>999.5</ele>
        <time>2022-05-26T10:12:10Z</time>
      </trkpt>
      <trkpt lat="47.98968" lon="6.88492">
        <ele>1000.1</ele>
        <time>2022-05-26T10:12:14Z</time>
      </trkpt>
      <trkpt lat="47.98963" lon="6.88507">
        <ele>999.9</ele>
        <time>2022-05-26T10:12:18Z</time>
      </trkpt>
      <trkpt lat="47.98959" lon="6.88522">
        <ele>999.9</ele>
        <time>2022-05-26T10:12:22Z</time>
      </trkpt>
      <trkpt lat="47.98954" lon="6.88536">
        <ele>999.4</ele>
        <time>2022-05-26T10:12:26Z</time>
      </trkpt>
      <trkpt lat="47.98949" lon="6.8855">
        <ele>1000.9</ele>
        <time>2022-05-26T10:12:30Z</time>
      </trkpt>
      <trkpt lat="47.98943" lon="6.88564">
        <ele>1001</ele>
        <time>2022-05-26T10:12:34Z</time>
      </trkpt>
      <trkpt lat="47.98938" lon="6.88578">
        <ele>1001.2</ele>
        <time>2022-05-26T10:12:38Z</time>
      </trkpt>
      <trkpt lat="47.98931" lon="6.88592">
        <ele>1001.7</ele>
        <time>2022-05-26T10:12:42Z</time>
      </trkpt>
      <trkpt lat="47.98924" lon="6.88605">
        <ele>1002.2</ele>
        <time>2022-05-26T10:12:46Z</time>
      </trkpt>
      <trkpt lat="47.98917" lon="6.88617">
        <ele>1002.9</ele>
        <time>2022-05-26T10:12:50Z</time>
      </trkpt>
      <trkpt lat="47.98908" lon="6.88629">
        <ele>1004</ele>
        <time>2022-05-26T10:12:54Z</time>
      </trkpt>
      <trkpt lat="47.98899" lon="6.88641">
        <ele>1003.1</ele>
        <time>2022-05-26T10:12:58Z</time>
      </trkpt>
      <trkpt lat="47.98892" lon="6.8865">
        <ele>1004.8</ele>
        <time>2022-05-26T10:13:01Z</time>
      </trkpt>
      <trkpt lat="47.98885" lon="6.88664">
        <ele>1005</ele>
        <time>2022-05-26T10:13:05Z</time>
      </trkpt>
      <trkpt lat="47.98879" lon="6.88678">
        <ele>1007.6</ele>
        <time>2022-05-26T10:13:09Z</time>
      </trkpt>
      <trkpt lat="47.98875" lon="6.88693">
        <ele>1006.7</ele>
        <time>2022-05-26T10:13:13Z</time>
      </trkpt>
      <trkpt lat="47.98874" lon="6.88708">
        <ele>1008.8</ele>
        <time>2022-05-26T10:13:17Z</time>
      </trkpt>
      <trkpt lat="47.98874" lon="6.88722">
        <ele>1009.4</ele>
        <time>2022-05-26T10:13:21Z</time>
      </trkpt>
      <trkpt lat="47.98875" lon="6.88737">
        <ele>1009.5</ele>
        <time>2022-05-26T10:13:25Z</time>
      </trkpt>
      <trkpt lat="47.98876" lon="6.88751">
        <ele>1010.2</ele>
        <time>2022-05-26T10:13:29Z</time>
      </trkpt>
      <trkpt lat="47.98878" lon="6.88764">
        <ele>1011.3</ele>
        <time>2022-05-26T10:13:33Z</time>
      </trkpt>
      <trkpt lat="47.9888" lon="6.88777">
        <ele>1012.9</ele>
        <time>2022-05-26T10:13:37Z</time>
      </trkpt>
      <trkpt lat="47.98882" lon="6.88794">
        <ele>1013.3</ele>
        <time>2022-05-26T10:13:42Z</time>
      </trkpt>
      <trkpt lat="47.98885" lon="6.88808">
        <ele>1014.5</ele>
        <time>2022-05-26T10:13:46Z</time>
      </trkpt>
      <trkpt lat="47.98887" lon="6.88822">
        <ele>1015</ele>
        <time>2022-05-26T10:13:50Z</time>
      </trkpt>
      <trkpt lat="47.9889" lon="6.88837">
        <ele>1016.3</ele>
        <time>2022-05-26T10:13:54Z</time>
      </trkpt>
      <trkpt lat="47.98891" lon="6.88852">
        <ele>1016.3</ele>
        <time>2022-05-26T10:13:58Z</time>
      </trkpt>
      <trkpt lat="47.98892" lon="6.88867">
        <ele>1016.5</ele>
        <time>2022-05-26T10:14:02Z</time>
      </trkpt>
      <trkpt lat="47.98894" lon="6.88882">
        <ele>1017.6</ele>
        <time>2022-05-26T10:14:06Z</time>
      </trkpt>
      <trkpt lat="47.98898" lon="6.88897">
        <ele>1018.1</ele>
        <time>2022-05-26T10:14:10Z</time>
      </trkpt>
      <trkpt lat="47.98902" lon="6.8891">
        <ele>1018.8</ele>
        <time>2022-05-26T10:14:14Z</time>
      </trkpt>
      <trkpt lat="47.98907" lon="6.88924">
        <ele>1019</ele>
        <time>2022-05-26T10:14:18Z</time>
      </trkpt>
      <trkpt lat="47.98912" lon="6.88936">
        <ele>1020.3</ele>
        <time>2022-05-26T10:14:22Z</time>
      </trkpt>
      <trkpt lat="47.98918" lon="6.8895">
        <ele>1021.6</ele>
        <time>2022-05-26T10:14:27Z</time>
      </trkpt>
      <trkpt lat="47.98924" lon="6.88964">
        <ele>1022.5</ele>
        <time>2022-05-26T10:14:32Z</time>
      </trkpt>
      <trkpt lat="47.98929" lon="6.88978">
        <ele>1024</ele>
        <time>2022-05-26T10:14:37Z</time>
      </trkpt>
      <trkpt lat="47.98934" lon="6.88992">
        <ele>1025.3</ele>
        <time>2022-05-26T10:14:42Z</time>
      </trkpt>
      <trkpt lat="47.98939" lon="6.89005">
        <ele>1025.6</ele>
        <time>2022-05-26T10:14:47Z</time>
      </trkpt>
      <trkpt lat="47.98942" lon="6.8902">
        <ele>1026.6</ele>
        <time>2022-05-26T10:14:52Z</time>
      </trkpt>
      <trkpt lat="47.98945" lon="6.89034">
        <ele>1027.2</ele>
        <time>2022-05-26T10:14:56Z</time>
      </trkpt>
      <trkpt lat="47.98948" lon="6.89047">
        <ele>1026.8</ele>
        <time>2022-05-26T10:15:00Z</time>
      </trkpt>
      <trkpt lat="47.98952" lon="6.89063">
        <ele>1027.9</ele>
        <time>2022-05-26T10:15:05Z</time>
      </trkpt>
      <trkpt lat="47.98954" lon="6.89076">
        <ele>1028.1</ele>
        <time>2022-05-26T10:15:09Z</time>
      </trkpt>
      <trkpt lat="47.98956" lon="6.89091">
        <ele>1029.1</ele>
        <time>2022-05-26T10:15:14Z</time>
      </trkpt>
      <trkpt lat="47.98957" lon="6.89105">
        <ele>1030.2</ele>
        <time>2022-05-26T10:15:18Z</time>
      </trkpt>
      <trkpt lat="47.98954" lon="6.8912">
        <ele>1030.3</ele>
        <time>2022-05-26T10:15:23Z</time>
      </trkpt>
      <trkpt lat="47.98951" lon="6.89133">
        <ele>1032.3</ele>
        <time>2022-05-26T10:15:28Z</time>
      </trkpt>
      <trkpt lat="47.98946" lon="6.89145">
        <ele>1033.3</ele>
        <time>2022-05-26T10:15:34Z</time>
      </trkpt>
      <trkpt lat="47.98941" lon="6.89157">
        <ele>1035.1</ele>
        <time>2022-05-26T10:15:40Z</time>
      </trkpt>
      <trkpt lat="47.98935" lon="6.8917">
        <ele>1035.3</ele>
        <time>2022-05-26T10:15:46Z</time>
      </trkpt>
      <trkpt lat="47.9893" lon="6.89181">
        <ele>1037.2</ele>
        <time>2022-05-26T10:15:51Z</time>
      </trkpt>
      <trkpt lat="47.98924" lon="6.89194">
        <ele>1038.7</ele>
        <time>2022-05-26T10:15:57Z</time>
      </trkpt>
      <trkpt lat="47.98918" lon="6.89206">
        <ele>1040</ele>
        <time>2022-05-26T10:16:02Z</time>
      </trkpt>
      <trkpt lat="47.98912" lon="6.89216">
        <ele>1041.3</ele>
        <time>2022-05-26T10:16:07Z</time>
      </trkpt>
      <trkpt lat="47.98906" lon="6.89228">
        <ele>1042.2</ele>
        <time>2022-05-26T10:16:12Z</time>
      </trkpt>
      <trkpt lat="47.98901" lon="6.8924">
        <ele>1042.3</ele>
        <time>2022-05-26T10:16:17Z</time>
      </trkpt>
      <trkpt lat="47.98896" lon="6.89252">
        <ele>1041.3</ele>
        <time>2022-05-26T10:16:21Z</time>
      </trkpt>
      <trkpt lat="47.9889" lon="6.89266">
        <ele>1041.7</ele>
        <time>2022-05-26T10:16:25Z</time>
      </trkpt>
      <trkpt lat="47.98888" lon="6.89279">
        <ele>1040.6</ele>
        <time>2022-05-26T10:16:28Z</time>
      </trkpt>
      <trkpt lat="47.98885" lon="6.89295">
        <ele>1040.4</ele>
        <time>2022-05-26T10:16:31Z</time>
      </trkpt>
      <trkpt lat="47.98882" lon="6.8931">
        <ele>1041</ele>
        <time>2022-05-26T10:16:34Z</time>
      </trkpt>
      <trkpt lat="47.98879" lon="6.89326">
        <ele>1041.1</ele>
        <time>2022-05-26T10:16:37Z</time>
      </trkpt>
      <trkpt lat="47.98875" lon="6.89339">
        <ele>1041.1</ele>
        <time>2022-05-26T10:16:40Z</time>
      </trkpt>
      <trkpt lat="47.98873" lon="6.89355">
        <ele>1040.9</ele>
        <time>2022-05-26T10:16:43Z</time>
      </trkpt>
      <trkpt lat="47.98871" lon="6.89369">
        <ele>1041.9</ele>
        <time>2022-05-26T10:16:46Z</time>
      </trkpt>
      <trkpt lat="47.98868" lon="6.89383">
        <ele>1042.1</ele>
        <time>2022-05-26T10:16:49Z</time>
      </trkpt>
      <trkpt lat="47.98868" lon="6.89398">
        <ele>1041.9</ele>
        <time>2022-05-26T10:16:52Z</time>
      </trkpt>
      <trkpt lat="47.98868" lon="6.89413">
        <ele>1042.5</ele>
        <time>2022-05-26T10:16:55Z</time>
      </trkpt>
      <trkpt lat="47.98867" lon="6.89432">
        <ele>1042</ele>
        <time>2022-05-26T10:16:59Z</time>
      </trkpt>
      <trkpt lat="47.98866" lon="6.89448">
        <ele>1042.1</ele>
        <time>2022-05-26T10:17:02Z</time>
      </trkpt>
      <trkpt lat="47.98865" lon="6.89464">
        <ele>1042</ele>
        <time>2022-05-26T10:17:05Z</time>
      </trkpt>
      <trkpt lat="47.98864" lon="6.89483">
        <ele>1041.2</ele>
        <time>2022-05-26T10:17:08Z</time>
      </trkpt>
      <trkpt lat="47.98863" lon="6.89497">
        <ele>1039.2</ele>
        <time>2022-05-26T10:17:10Z</time>
      </trkpt>
      <trkpt lat="47.98861" lon="6.89512">
        <ele>1039.8</ele>
        <time>2022-05-26T10:17:12Z</time>
      </trkpt>
      <trkpt lat="47.98858" lon="6.89526">
        <ele>1039</ele>
        <time>2022-05-26T10:17:14Z</time>
      </trkpt>
      <trkpt lat="47.98853" lon="6.89538">
        <ele>1039.2</ele>
        <time>2022-05-26T10:17:16Z</time>
      </trkpt>
      <trkpt lat="47.9885" lon="6.89551">
        <ele>1039.9</ele>
        <time>2022-05-26T10:17:18Z</time>
      </trkpt>
      <trkpt lat="47.98845" lon="6.89568">
        <ele>1042</ele>
        <time>2022-05-26T10:17:21Z</time>
      </trkpt>
      <trkpt lat="47.98842" lon="6.8958">
        <ele>1040.4</ele>
        <time>2022-05-26T10:17:24Z</time>
      </trkpt>
      <trkpt lat="47.98841" lon="6.89595">
        <ele>1041</ele>
        <time>2022-05-26T10:17:27Z</time>
      </trkpt>
      <trkpt lat="47.9884" lon="6.89612">
        <ele>1040.1</ele>
        <time>2022-05-26T10:17:31Z</time>
      </trkpt>
      <trkpt lat="47.98839" lon="6.89628">
        <ele>1041.8</ele>
        <time>2022-05-26T10:17:35Z</time>
      </trkpt>
      <trkpt lat="47.9884" lon="6.89644">
        <ele>1041.1</ele>
        <time>2022-05-26T10:17:40Z</time>
      </trkpt>
      <trkpt lat="47.98843" lon="6.89657">
        <ele>1043.7</ele>
        <time>2022-05-26T10:17:44Z</time>
      </trkpt>
      <trkpt lat="47.98847" lon="6.89671">
        <ele>1044.7</ele>
        <time>2022-05-26T10:17:49Z</time>
      </trkpt>
      <trkpt lat="47.98852" lon="6.89684">
        <ele>1045.7</ele>
        <time>2022-05-26T10:17:54Z</time>
      </trkpt>
      <trkpt lat="47.9885" lon="6.89699">
        <ele>1046.4</ele>
        <time>2022-05-26T10:18:00Z</time>
      </trkpt>
      <trkpt lat="47.98844" lon="6.89703">
        <ele>1047.4</ele>
        <time>2022-05-26T10:18:08Z</time>
      </trkpt>
      <trkpt lat="47.98849" lon="6.897">
        <ele>1047.4</ele>
        <time>2022-05-26T10:19:06Z</time>
      </trkpt>
      <trkpt lat="47.98849" lon="6.89701">
        <ele>1047.4</ele>
        <time>2022-05-26T10:22:39Z</time>
      </trkpt>
      <trkpt lat="47.98848" lon="6.89701">
        <ele>1047.2</ele>
        <time>2022-05-26T10:22:57Z</time>
      </trkpt>
      <trkpt lat="47.98839" lon="6.89696">
        <ele>1047.2</ele>
        <time>2022-05-26T10:23:03Z</time>
      </trkpt>
      <trkpt lat="47.98831" lon="6.89685">
        <ele>1047.2</ele>
        <time>2022-05-26T10:23:08Z</time>
      </trkpt>
      <trkpt lat="47.98824" lon="6.89676">
        <ele>1047.6</ele>
        <time>2022-05-26T10:23:12Z</time>
      </trkpt>
      <trkpt lat="47.98816" lon="6.89667">
        <ele>1047.8</ele>
        <time>2022-05-26T10:23:16Z</time>
      </trkpt>
      <trkpt lat="47.98807" lon="6.89657">
        <ele>1047.9</ele>
        <time>2022-05-26T10:23:20Z</time>
      </trkpt>
      <trkpt lat="47.98799" lon="6.89649">
        <ele>1049.1</ele>
        <time>2022-05-26T10:23:24Z</time>
      </trkpt>
      <trkpt lat="47.9879" lon="6.8964">
        <ele>1050.1</ele>
        <time>2022-05-26T10:23:29Z</time>
      </trkpt>
      <trkpt lat="47.98781" lon="6.89634">
        <ele>1049.4</ele>
        <time>2022-05-26T10:23:33Z</time>
      </trkpt>
      <trkpt lat="47.98772" lon="6.89631">
        <ele>1051.3</ele>
        <time>2022-05-26T10:23:37Z</time>
      </trkpt>
      <trkpt lat="47.98762" lon="6.89629">
        <ele>1052.2</ele>
        <time>2022-05-26T10:23:42Z</time>
      </trkpt>
      <trkpt lat="47.98752" lon="6.89628">
        <ele>1052.7</ele>
        <time>2022-05-26T10:23:47Z</time>
      </trkpt>
      <trkpt lat="47.98741" lon="6.8963">
        <ele>1054</ele>
        <time>2022-05-26T10:23:53Z</time>
      </trkpt>
      <trkpt lat="47.98732" lon="6.89631">
        <ele>1053.8</ele>
        <time>2022-05-26T10:23:58Z</time>
      </trkpt>
      <trkpt lat="47.98722" lon="6.89632">
        <ele>1056.2</ele>
        <time>2022-05-26T10:24:04Z</time>
      </trkpt>
      <trkpt lat="47.98712" lon="6.89632">
        <ele>1056.8</ele>
        <time>2022-05-26T10:24:09Z</time>
      </trkpt>
      <trkpt lat="47.98701" lon="6.89633">
        <ele>1057.8</ele>
        <time>2022-05-26T10:24:14Z</time>
      </trkpt>
      <trkpt lat="47.9869" lon="6.89635">
        <ele>1058</ele>
        <time>2022-05-26T10:24:19Z</time>
      </trkpt>
      <trkpt lat="47.98681" lon="6.89637">
        <ele>1059.4</ele>
        <time>2022-05-26T10:24:23Z</time>
      </trkpt>
      <trkpt lat="47.98672" lon="6.8964">
        <ele>1059.1</ele>
        <time>2022-05-26T10:24:28Z</time>
      </trkpt>
      <trkpt lat="47.98662" lon="6.89643">
        <ele>1061.4</ele>
        <time>2022-05-26T10:24:33Z</time>
      </trkpt>
      <trkpt lat="47.98651" lon="6.89645">
        <ele>1060.9</ele>
        <time>2022-05-26T10:24:38Z</time>
      </trkpt>
      <trkpt lat="47.98641" lon="6.89646">
        <ele>1061.2</ele>
        <time>2022-05-26T10:24:42Z</time>
      </trkpt>
      <trkpt lat="47.9863" lon="6.89649">
        <ele>1062.4</ele>
        <time>2022-05-26T10:24:47Z</time>
      </trkpt>
      <trkpt lat="47.9862" lon="6.89649">
        <ele>1064.1</ele>
        <time>2022-05-26T10:24:53Z</time>
      </trkpt>
      <trkpt lat="47.98611" lon="6.89652">
        <ele>1064.8</ele>
        <time>2022-05-26T10:24:58Z</time>
      </trkpt>
      <trkpt lat="47.98601" lon="6.89658">
        <ele>1065.9</ele>
        <time>2022-05-26T10:25:03Z</time>
      </trkpt>
      <trkpt lat="47.98591" lon="6.89668">
        <ele>1066.3</ele>
        <time>2022-05-26T10:25:08Z</time>
      </trkpt>
      <trkpt lat="47.98582" lon="6.89676">
        <ele>1066.1</ele>
        <time>2022-05-26T10:25:12Z</time>
      </trkpt>
      <trkpt lat="47.98572" lon="6.89683">
        <ele>1066.1</ele>
        <time>2022-05-26T10:25:16Z</time>
      </trkpt>
      <trkpt lat="47.98563" lon="6.89689">
        <ele>1065.8</ele>
        <time>2022-05-26T10:25:19Z</time>
      </trkpt>
      <trkpt lat="47.98555" lon="6.89695">
        <ele>1066.4</ele>
        <time>2022-05-26T10:25:22Z</time>
      </trkpt>
      <trkpt lat="47.98546" lon="6.89701">
        <ele>1067.5</ele>
        <time>2022-05-26T10:25:26Z</time>
      </trkpt>
      <trkpt lat="47.98536" lon="6.89706">
        <ele>1068.5</ele>
        <time>2022-05-26T10:25:31Z</time>
      </trkpt>
      <trkpt lat="47.98525" lon="6.89712">
        <ele>1070.6</ele>
        <time>2022-05-26T10:25:37Z</time>
      </trkpt>
      <trkpt lat="47.98516" lon="6.89718">
        <ele>1073</ele>
        <time>2022-05-26T10:25:42Z</time>
      </trkpt>
      <trkpt lat="47.98506" lon="6.89724">
        <ele>1073.6</ele>
        <time>2022-05-26T10:25:46Z</time>
      </trkpt>
      <trkpt lat="47.98497" lon="6.89731">
        <ele>1074.4</ele>
        <time>2022-05-26T10:25:51Z</time>
      </trkpt>
      <trkpt lat="47.98488" lon="6.89735">
        <ele>1075.9</ele>
        <time>2022-05-26T10:25:57Z</time>
      </trkpt>
      <trkpt lat="47.98478" lon="6.89743">
        <ele>1075.2</ele>
        <time>2022-05-26T10:26:03Z</time>
      </trkpt>
      <trkpt lat="47.9847" lon="6.89753">
        <ele>1078.4</ele>
        <time>2022-05-26T10:26:08Z</time>
      </trkpt>
      <trkpt lat="47.98464" lon="6.89766">
        <ele>1079.3</ele>
        <time>2022-05-26T10:26:13Z</time>
      </trkpt>
      <trkpt lat="47.9846" lon="6.89781">
        <ele>1079.3</ele>
        <time>2022-05-26T10:26:18Z</time>
      </trkpt>
      <trkpt lat="47.98454" lon="6.89792">
        <ele>1080.5</ele>
        <time>2022-05-26T10:26:23Z</time>
      </trkpt>
      <trkpt lat="47.98446" lon="6.89801">
        <ele>1081.6</ele>
        <time>2022-05-26T10:26:29Z</time>
      </trkpt>
      <trkpt lat="47.98438" lon="6.8981">
        <ele>1081.7</ele>
        <time>2022-05-26T10:26:34Z</time>
      </trkpt>
      <trkpt lat="47.98431" lon="6.8982">
        <ele>1082.3</ele>
        <time>2022-05-26T10:26:38Z</time>
      </trkpt>
      <trkpt lat="47.98425" lon="6.89831">
        <ele>1079.9</ele>
        <time>2022-05-26T10:26:41Z</time>
      </trkpt>
      <trkpt lat="47.98421" lon="6.89849">
        <ele>1081.4</ele>
        <time>2022-05-26T10:26:44Z</time>
      </trkpt>
      <trkpt lat="47.98421" lon="6.89864">
        <ele>1080.3</ele>
        <time>2022-05-26T10:26:46Z</time>
      </trkpt>
      <trkpt lat="47.98421" lon="6.89881">
        <ele>1079.1</ele>
        <time>2022-05-26T10:26:48Z</time>
      </trkpt>
      <trkpt lat="47.9842" lon="6.89898">
        <ele>1075.3</ele>
        <time>2022-05-26T10:26:50Z</time>
      </trkpt>
      <trkpt lat="47.98419" lon="6.89912">
        <ele>1076.6</ele>
        <time>2022-05-26T10:26:52Z</time>
      </trkpt>
      <trkpt lat="47.98418" lon="6.89926">
        <ele>1075.3</ele>
        <time>2022-05-26T10:26:54Z</time>
      </trkpt>
      <trkpt lat="47.98419" lon="6.8994">
        <ele>1075</ele>
        <time>2022-05-26T10:26:56Z</time>
      </trkpt>
      <trkpt lat="47.98419" lon="6.89956">
        <ele>1074.8</ele>
        <time>2022-05-26T10:26:58Z</time>
      </trkpt>
      <trkpt lat="47.98419" lon="6.89972">
        <ele>1074.7</ele>
        <time>2022-05-26T10:27:00Z</time>
      </trkpt>
      <trkpt lat="47.98419" lon="6.89989">
        <ele>1073.8</ele>
        <time>2022-05-26T10:27:02Z</time>
      </trkpt>
      <trkpt lat="47.98418" lon="6.90006">
        <ele>1073.2</ele>
        <time>2022-05-26T10:27:04Z</time>
      </trkpt>
      <trkpt lat="47.98418" lon="6.90023">
        <ele>1073</ele>
        <time>2022-05-26T10:27:06Z</time>
      </trkpt>
      <trkpt lat="47.98417" lon="6.9004">
        <ele>1073.9</ele>
        <time>2022-05-26T10:27:08Z</time>
      </trkpt>
      <trkpt lat="47.98417" lon="6.90058">
        <ele>1070.9</ele>
        <time>2022-05-26T10:27:10Z</time>
      </trkpt>
      <trkpt lat="47.98417" lon="6.90075">
        <ele>1071.6</ele>
        <time>2022-05-26T10:27:12Z</time>
      </trkpt>
      <trkpt lat="47.98416" lon="6.90092">
        <ele>1071.5</ele>
        <time>2022-05-26T10:27:14Z</time>
      </trkpt>
      <trkpt lat="47.98416" lon="6.90108">
        <ele>1071.6</ele>
        <time>2022-05-26T10:27:16Z</time>
      </trkpt>
      <trkpt lat="47.98413" lon="6.90122">
        <ele>1071.5</ele>
        <time>2022-05-26T10:27:18Z</time>
      </trkpt>
      <trkpt lat="47.9841" lon="6.90136">
        <ele>1071.3</ele>
        <time>2022-05-26T10:27:20Z</time>
      </trkpt>
      <trkpt lat="47.98406" lon="6.90152">
        <ele>1070.5</ele>
        <time>2022-05-26T10:27:22Z</time>
      </trkpt>
      <trkpt lat="47.98403" lon="6.9017">
        <ele>1069.7</ele>
        <time>2022-05-26T10:27:24Z</time>
      </trkpt>
      <trkpt lat="47.98402" lon="6.90188">
        <ele>1069.8</ele>
        <time>2022-05-26T10:27:26Z</time>
      </trkpt>
      <trkpt lat="47.98401" lon="6.90202">
        <ele>1070.2</ele>
        <time>2022-05-26T10:27:28Z</time>
      </trkpt>
      <trkpt lat="47.984" lon="6.90216">
        <ele>1070.3</ele>
        <time>2022-05-26T10:27:30Z</time>
      </trkpt>
      <trkpt lat="47.984" lon="6.90234">
        <ele>1071.2</ele>
        <time>2022-05-26T10:27:33Z</time>
      </trkpt>
      <trkpt lat="47.98401" lon="6.90255">
        <ele>1071.5</ele>
        <time>2022-05-26T10:27:36Z</time>
      </trkpt>
      <trkpt lat="47.98401" lon="6.90269">
        <ele>1070.4</ele>
        <time>2022-05-26T10:27:38Z</time>
      </trkpt>
      <trkpt lat="47.98401" lon="6.90284">
        <ele>1070.8</ele>
        <time>2022-05-26T10:27:40Z</time>
      </trkpt>
      <trkpt lat="47.98402" lon="6.90299">
        <ele>1071.1</ele>
        <time>2022-05-26T10:27:42Z</time>
      </trkpt>
      <trkpt lat="47.98402" lon="6.90316">
        <ele>1069.8</ele>
        <time>2022-05-26T10:27:44Z</time>
      </trkpt>
      <trkpt lat="47.98402" lon="6.90333">
        <ele>1069.7</ele>
        <time>2022-05-26T10:27:46Z</time>
      </trkpt>
      <trkpt lat="47.98403" lon="6.90349">
        <ele>1070.1</ele>
        <time>2022-05-26T10:27:48Z</time>
      </trkpt>
      <trkpt lat="47.98402" lon="6.90365">
        <ele>1069.7</ele>
        <time>2022-05-26T10:27:50Z</time>
      </trkpt>
      <trkpt lat="47.98401" lon="6.90381">
        <ele>1069.1</ele>
        <time>2022-05-26T10:27:52Z</time>
      </trkpt>
      <trkpt lat="47.98402" lon="6.90397">
        <ele>1069.5</ele>
        <time>2022-05-26T10:27:54Z</time>
      </trkpt>
      <trkpt lat="47.98403" lon="6.90413">
        <ele>1069.6</ele>
        <time>2022-05-26T10:27:56Z</time>
      </trkpt>
      <trkpt lat="47.98404" lon="6.90428">
        <ele>1069.3</ele>
        <time>2022-05-26T10:27:58Z</time>
      </trkpt>
      <trkpt lat="47.98407" lon="6.90442">
        <ele>1069.8</ele>
        <time>2022-05-26T10:28:00Z</time>
      </trkpt>
      <trkpt lat="47.98408" lon="6.90456">
        <ele>1070.4</ele>
        <time>2022-05-26T10:28:02Z</time>
      </trkpt>
      <trkpt lat="47.9841" lon="6.90469">
        <ele>1070</ele>
        <time>2022-05-26T10:28:04Z</time>
      </trkpt>
      <trkpt lat="47.98412" lon="6.90483">
        <ele>1070.1</ele>
        <time>2022-05-26T10:28:06Z</time>
      </trkpt>
      <trkpt lat="47.98413" lon="6.90502">
        <ele>1069.5</ele>
        <time>2022-05-26T10:28:09Z</time>
      </trkpt>
      <trkpt lat="47.98411" lon="6.90522">
        <ele>1069.3</ele>
        <time>2022-05-26T10:28:12Z</time>
      </trkpt>
      <trkpt lat="47.98409" lon="6.90536">
        <ele>1069.3</ele>
        <time>2022-05-26T10:28:14Z</time>
      </trkpt>
      <trkpt lat="47.98406" lon="6.9055">
        <ele>1070.4</ele>
        <time>2022-05-26T10:28:16Z</time>
      </trkpt>
      <trkpt lat="47.98402" lon="6.90565">
        <ele>1071.1</ele>
        <time>2022-05-26T10:28:19Z</time>
      </trkpt>
      <trkpt lat="47.98397" lon="6.9058">
        <ele>1070.2</ele>
        <time>2022-05-26T10:28:22Z</time>
      </trkpt>
      <trkpt lat="47.98392" lon="6.90595">
        <ele>1069.3</ele>
        <time>2022-05-26T10:28:25Z</time>
      </trkpt>
      <trkpt lat="47.98387" lon="6.9061">
        <ele>1070.6</ele>
        <time>2022-05-26T10:28:28Z</time>
      </trkpt>
      <trkpt lat="47.98381" lon="6.90627">
        <ele>1071.6</ele>
        <time>2022-05-26T10:28:31Z</time>
      </trkpt>
      <trkpt lat="47.98374" lon="6.9064">
        <ele>1070.4</ele>
        <time>2022-05-26T10:28:34Z</time>
      </trkpt>
      <trkpt lat="47.98371" lon="6.90658">
        <ele>1068</ele>
        <time>2022-05-26T10:28:37Z</time>
      </trkpt>
      <trkpt lat="47.98364" lon="6.90673">
        <ele>1068.6</ele>
        <time>2022-05-26T10:28:40Z</time>
      </trkpt>
      <trkpt lat="47.98359" lon="6.9069">
        <ele>1069.2</ele>
        <time>2022-05-26T10:28:43Z</time>
      </trkpt>
      <trkpt lat="47.98356" lon="6.90709">
        <ele>1067</ele>
        <time>2022-05-26T10:28:46Z</time>
      </trkpt>
      <trkpt lat="47.98353" lon="6.90724">
        <ele>1067.5</ele>
        <time>2022-05-26T10:28:48Z</time>
      </trkpt>
      <trkpt lat="47.98352" lon="6.90741">
        <ele>1067.7</ele>
        <time>2022-05-26T10:28:50Z</time>
      </trkpt>
      <trkpt lat="47.98354" lon="6.90759">
        <ele>1067.8</ele>
        <time>2022-05-26T10:28:52Z</time>
      </trkpt>
      <trkpt lat="47.98355" lon="6.90775">
        <ele>1067.6</ele>
        <time>2022-05-26T10:28:54Z</time>
      </trkpt>
      <trkpt lat="47.98358" lon="6.9079">
        <ele>1067.7</ele>
        <time>2022-05-26T10:28:56Z</time>
      </trkpt>
      <trkpt lat="47.98359" lon="6.90805">
        <ele>1067.2</ele>
        <time>2022-05-26T10:28:58Z</time>
      </trkpt>
      <trkpt lat="47.98362" lon="6.90821">
        <ele>1065.4</ele>
        <time>2022-05-26T10:29:00Z</time>
      </trkpt>
      <trkpt lat="47.98363" lon="6.90836">
        <ele>1066.3</ele>
        <time>2022-05-26T10:29:02Z</time>
      </trkpt>
      <trkpt lat="47.98365" lon="6.90851">
        <ele>1065.3</ele>
        <time>2022-05-26T10:29:04Z</time>
      </trkpt>
      <trkpt lat="47.98369" lon="6.90866">
        <ele>1062.5</ele>
        <time>2022-05-26T10:29:06Z</time>
      </trkpt>
      <trkpt lat="47.98376" lon="6.90881">
        <ele>1062.2</ele>
        <time>2022-05-26T10:29:08Z</time>
      </trkpt>
      <trkpt lat="47.98383" lon="6.90895">
        <ele>1063.6</ele>
        <time>2022-05-26T10:29:10Z</time>
      </trkpt>
      <trkpt lat="47.98391" lon="6.90909">
        <ele>1064.1</ele>
        <time>2022-05-26T10:29:12Z</time>
      </trkpt>
      <trkpt lat="47.98399" lon="6.90924">
        <ele>1063.9</ele>
        <time>2022-05-26T10:29:14Z</time>
      </trkpt>
      <trkpt lat="47.98409" lon="6.90939">
        <ele>1062.1</ele>
        <time>2022-05-26T10:29:16Z</time>
      </trkpt>
      <trkpt lat="47.98419" lon="6.90955">
        <ele>1060.7</ele>
        <time>2022-05-26T10:29:18Z</time>
      </trkpt>
      <trkpt lat="47.98429" lon="6.90971">
        <ele>1060.4</ele>
        <time>2022-05-26T10:29:20Z</time>
      </trkpt>
      <trkpt lat="47.9844" lon="6.90987">
        <ele>1058</ele>
        <time>2022-05-26T10:29:22Z</time>
      </trkpt>
      <trkpt lat="47.98447" lon="6.91003">
        <ele>1059.1</ele>
        <time>2022-05-26T10:29:24Z</time>
      </trkpt>
      <trkpt lat="47.98453" lon="6.9102">
        <ele>1057.6</ele>
        <time>2022-05-26T10:29:26Z</time>
      </trkpt>
      <trkpt lat="47.98458" lon="6.91037">
        <ele>1059.1</ele>
        <time>2022-05-26T10:29:28Z</time>
      </trkpt>
      <trkpt lat="47.98464" lon="6.91054">
        <ele>1059.2</ele>
        <time>2022-05-26T10:29:30Z</time>
      </trkpt>
      <trkpt lat="47.9847" lon="6.91069">
        <ele>1059.2</ele>
        <time>2022-05-26T10:29:32Z</time>
      </trkpt>
      <trkpt lat="47.98476" lon="6.91084">
        <ele>1058.8</ele>
        <time>2022-05-26T10:29:34Z</time>
      </trkpt>
      <trkpt lat="47.98481" lon="6.91098">
        <ele>1059</ele>
        <time>2022-05-26T10:29:36Z</time>
      </trkpt>
      <trkpt lat="47.98485" lon="6.91112">
        <ele>1059.1</ele>
        <time>2022-05-26T10:29:38Z</time>
      </trkpt>
      <trkpt lat="47.9849" lon="6.91125">
        <ele>1059.5</ele>
        <time>2022-05-26T10:29:40Z</time>
      </trkpt>
      <trkpt lat="47.98496" lon="6.91137">
        <ele>1059.4</ele>
        <time>2022-05-26T10:29:42Z</time>
      </trkpt>
      <trkpt lat="47.98502" lon="6.91148">
        <ele>1060.2</ele>
        <time>2022-05-26T10:29:44Z</time>
      </trkpt>
      <trkpt lat="47.98509" lon="6.91158">
        <ele>1060.2</ele>
        <time>2022-05-26T10:29:46Z</time>
      </trkpt>
      <trkpt lat="47.98516" lon="6.91167">
        <ele>1060</ele>
        <time>2022-05-26T10:29:48Z</time>
      </trkpt>
      <trkpt lat="47.98522" lon="6.91178">
        <ele>1059.6</ele>
        <time>2022-05-26T10:29:50Z</time>
      </trkpt>
      <trkpt lat="47.98527" lon="6.91192">
        <ele>1059.7</ele>
        <time>2022-05-26T10:29:52Z</time>
      </trkpt>
      <trkpt lat="47.9853" lon="6.91206">
        <ele>1060.3</ele>
        <time>2022-05-26T10:29:54Z</time>
      </trkpt>
      <trkpt lat="47.98533" lon="6.9122">
        <ele>1060.3</ele>
        <time>2022-05-26T10:29:56Z</time>
      </trkpt>
      <trkpt lat="47.98535" lon="6.91235">
        <ele>1058.1</ele>
        <time>2022-05-26T10:29:58Z</time>
      </trkpt>
      <trkpt lat="47.98539" lon="6.91251">
        <ele>1057.5</ele>
        <time>2022-05-26T10:30:00Z</time>
      </trkpt>
      <trkpt lat="47.98543" lon="6.91267">
        <ele>1057.5</ele>
        <time>2022-05-26T10:30:02Z</time>
      </trkpt>
      <trkpt lat="47.98545" lon="6.91283">
        <ele>1056.3</ele>
        <time>2022-05-26T10:30:04Z</time>
      </trkpt>
      <trkpt lat="47.98547" lon="6.913">
        <ele>1055.3</ele>
        <time>2022-05-26T10:30:06Z</time>
      </trkpt>
      <trkpt lat="47.98548" lon="6.91317">
        <ele>1056.1</ele>
        <time>2022-05-26T10:30:08Z</time>
      </trkpt>
      <trkpt lat="47.98551" lon="6.91336">
        <ele>1054.1</ele>
        <time>2022-05-26T10:30:10Z</time>
      </trkpt>
      <trkpt lat="47.98553" lon="6.91355">
        <ele>1054.6</ele>
        <time>2022-05-26T10:30:12Z</time>
      </trkpt>
      <trkpt lat="47.98556" lon="6.91375">
        <ele>1053.6</ele>
        <time>2022-05-26T10:30:14Z</time>
      </trkpt>
      <trkpt lat="47.9856" lon="6.91394">
        <ele>1053.7</ele>
        <time>2022-05-26T10:30:16Z</time>
      </trkpt>
      <trkpt lat="47.98563" lon="6.91414">
        <ele>1054.2</ele>
        <time>2022-05-26T10:30:18Z</time>
      </trkpt>
      <trkpt lat="47.98568" lon="6.91432">
        <ele>1051.9</ele>
        <time>2022-05-26T10:30:20Z</time>
      </trkpt>
      <trkpt lat="47.98573" lon="6.91449">
        <ele>1052.9</ele>
        <time>2022-05-26T10:30:22Z</time>
      </trkpt>
      <trkpt lat="47.98577" lon="6.91465">
        <ele>1053.9</ele>
        <time>2022-05-26T10:30:24Z</time>
      </trkpt>
      <trkpt lat="47.9858" lon="6.91481">
        <ele>1054.3</ele>
        <time>2022-05-26T10:30:26Z</time>
      </trkpt>
      <trkpt lat="47.98579" lon="6.91498">
        <ele>1052.1</ele>
        <time>2022-05-26T10:30:28Z</time>
      </trkpt>
      <trkpt lat="47.98578" lon="6.91514">
        <ele>1052.6</ele>
        <time>2022-05-26T10:30:30Z</time>
      </trkpt>
      <trkpt lat="47.98577" lon="6.91529">
        <ele>1052.6</ele>
        <time>2022-05-26T10:30:32Z</time>
      </trkpt>
      <trkpt lat="47.98578" lon="6.91544">
        <ele>1051.5</ele>
        <time>2022-05-26T10:30:34Z</time>
      </trkpt>
      <trkpt lat="47.9858" lon="6.9156">
        <ele>1051.3</ele>
        <time>2022-05-26T10:30:36Z</time>
      </trkpt>
      <trkpt lat="47.9858" lon="6.91574">
        <ele>1052</ele>
        <time>2022-05-26T10:30:38Z</time>
      </trkpt>
      <trkpt lat="47.9858" lon="6.91588">
        <ele>1051.9</ele>
        <time>2022-05-26T10:30:40Z</time>
      </trkpt>
      <trkpt lat="47.98582" lon="6.91609">
        <ele>1053.3</ele>
        <time>2022-05-26T10:30:43Z</time>
      </trkpt>
      <trkpt lat="47.98587" lon="6.91623">
        <ele>1053.3</ele>
        <time>2022-05-26T10:30:45Z</time>
      </trkpt>
      <trkpt lat="47.98593" lon="6.91639">
        <ele>1053.2</ele>
        <time>2022-05-26T10:30:47Z</time>
      </trkpt>
      <trkpt lat="47.98597" lon="6.91654">
        <ele>1052</ele>
        <time>2022-05-26T10:30:49Z</time>
      </trkpt>
      <trkpt lat="47.986" lon="6.9167">
        <ele>1053.1</ele>
        <time>2022-05-26T10:30:51Z</time>
      </trkpt>
      <trkpt lat="47.98605" lon="6.91685">
        <ele>1053.1</ele>
        <time>2022-05-26T10:30:53Z</time>
      </trkpt>
      <trkpt lat="47.9861" lon="6.917">
        <ele>1053.8</ele>
        <time>2022-05-26T10:30:55Z</time>
      </trkpt>
      <trkpt lat="47.98616" lon="6.91715">
        <ele>1053.9</ele>
        <time>2022-05-26T10:30:57Z</time>
      </trkpt>
      <trkpt lat="47.98622" lon="6.91731">
        <ele>1053.3</ele>
        <time>2022-05-26T10:30:59Z</time>
      </trkpt>
      <trkpt lat="47.98628" lon="6.91746">
        <ele>1053</ele>
        <time>2022-05-26T10:31:01Z</time>
      </trkpt>
      <trkpt lat="47.98634" lon="6.91762">
        <ele>1053.7</ele>
        <time>2022-05-26T10:31:03Z</time>
      </trkpt>
      <trkpt lat="47.98639" lon="6.91779">
        <ele>1053.8</ele>
        <time>2022-05-26T10:31:05Z</time>
      </trkpt>
      <trkpt lat="47.98642" lon="6.91797">
        <ele>1050.7</ele>
        <time>2022-05-26T10:31:07Z</time>
      </trkpt>
      <trkpt lat="47.98644" lon="6.91815">
        <ele>1052.2</ele>
        <time>2022-05-26T10:31:09Z</time>
      </trkpt>
      <trkpt lat="47.98647" lon="6.91832">
        <ele>1052.6</ele>
        <time>2022-05-26T10:31:11Z</time>
      </trkpt>
      <trkpt lat="47.9865" lon="6.91847">
        <ele>1054.4</ele>
        <time>2022-05-26T10:31:13Z</time>
      </trkpt>
      <trkpt lat="47.98653" lon="6.91866">
        <ele>1053.5</ele>
        <time>2022-05-26T10:31:16Z</time>
      </trkpt>
      <trkpt lat="47.98655" lon="6.91883">
        <ele>1054.8</ele>
        <time>2022-05-26T10:31:19Z</time>
      </trkpt>
      <trkpt lat="47.98656" lon="6.91901">
        <ele>1055.4</ele>
        <time>2022-05-26T10:31:22Z</time>
      </trkpt>
      <trkpt lat="47.98659" lon="6.91914">
        <ele>1054.7</ele>
        <time>2022-05-26T10:31:24Z</time>
      </trkpt>
      <trkpt lat="47.98662" lon="6.91927">
        <ele>1053.9</ele>
        <time>2022-05-26T10:31:26Z</time>
      </trkpt>
      <trkpt lat="47.98668" lon="6.9194">
        <ele>1055</ele>
        <time>2022-05-26T10:31:28Z</time>
      </trkpt>
      <trkpt lat="47.98673" lon="6.91951">
        <ele>1055.6</ele>
        <time>2022-05-26T10:31:30Z</time>
      </trkpt>
      <trkpt lat="47.98678" lon="6.91964">
        <ele>1055.2</ele>
        <time>2022-05-26T10:31:32Z</time>
      </trkpt>
      <trkpt lat="47.9868" lon="6.91978">
        <ele>1054.6</ele>
        <time>2022-05-26T10:31:34Z</time>
      </trkpt>
      <trkpt lat="47.98682" lon="6.91992">
        <ele>1056.2</ele>
        <time>2022-05-26T10:31:36Z</time>
      </trkpt>
      <trkpt lat="47.98687" lon="6.92006">
        <ele>1054</ele>
        <time>2022-05-26T10:31:38Z</time>
      </trkpt>
      <trkpt lat="47.98695" lon="6.9202">
        <ele>1051.2</ele>
        <time>2022-05-26T10:31:40Z</time>
      </trkpt>
      <trkpt lat="47.98705" lon="6.92033">
        <ele>1052.4</ele>
        <time>2022-05-26T10:31:42Z</time>
      </trkpt>
      <trkpt lat="47.98717" lon="6.92047">
        <ele>1053.2</ele>
        <time>2022-05-26T10:31:44Z</time>
      </trkpt>
      <trkpt lat="47.98727" lon="6.92064">
        <ele>1050.9</ele>
        <time>2022-05-26T10:31:46Z</time>
      </trkpt>
      <trkpt lat="47.98738" lon="6.9208">
        <ele>1050.5</ele>
        <time>2022-05-26T10:31:48Z</time>
      </trkpt>
      <trkpt lat="47.98751" lon="6.92095">
        <ele>1044.4</ele>
        <time>2022-05-26T10:31:50Z</time>
      </trkpt>
      <trkpt lat="47.98758" lon="6.92104">
        <ele>1043.9</ele>
        <time>2022-05-26T10:31:51Z</time>
      </trkpt>
      <trkpt lat="47.9877" lon="6.92123">
        <ele>1046.1</ele>
        <time>2022-05-26T10:31:53Z</time>
      </trkpt>
      <trkpt lat="47.98779" lon="6.92141">
        <ele>1044.7</ele>
        <time>2022-05-26T10:31:55Z</time>
      </trkpt>
      <trkpt lat="47.98792" lon="6.92154">
        <ele>1045.2</ele>
        <time>2022-05-26T10:31:57Z</time>
      </trkpt>
      <trkpt lat="47.98806" lon="6.92167">
        <ele>1043.2</ele>
        <time>2022-05-26T10:31:59Z</time>
      </trkpt>
      <trkpt lat="47.98817" lon="6.92186">
        <ele>1042</ele>
        <time>2022-05-26T10:32:01Z</time>
      </trkpt>
      <trkpt lat="47.98825" lon="6.92209">
        <ele>1039.6</ele>
        <time>2022-05-26T10:32:03Z</time>
      </trkpt>
      <trkpt lat="47.98833" lon="6.92233">
        <ele>1039.5</ele>
        <time>2022-05-26T10:32:05Z</time>
      </trkpt>
      <trkpt lat="47.98841" lon="6.92254">
        <ele>1038.4</ele>
        <time>2022-05-26T10:32:07Z</time>
      </trkpt>
      <trkpt lat="47.98849" lon="6.92274">
        <ele>1039.9</ele>
        <time>2022-05-26T10:32:09Z</time>
      </trkpt>
      <trkpt lat="47.98855" lon="6.92291">
        <ele>1044.1</ele>
        <time>2022-05-26T10:32:11Z</time>
      </trkpt>
      <trkpt lat="47.9886" lon="6.92305">
        <ele>1045.4</ele>
        <time>2022-05-26T10:32:13Z</time>
      </trkpt>
      <trkpt lat="47.98863" lon="6.92322">
        <ele>1046.4</ele>
        <time>2022-05-26T10:32:16Z</time>
      </trkpt>
      <trkpt lat="47.98866" lon="6.92336">
        <ele>1048.9</ele>
        <time>2022-05-26T10:32:20Z</time>
      </trkpt>
      <trkpt lat="47.98872" lon="6.92351">
        <ele>1050.3</ele>
        <time>2022-05-26T10:32:25Z</time>
      </trkpt>
      <trkpt lat="47.98878" lon="6.92362">
        <ele>1050.9</ele>
        <time>2022-05-26T10:32:29Z</time>
      </trkpt>
      <trkpt lat="47.98884" lon="6.92374">
        <ele>1052.6</ele>
        <time>2022-05-26T10:32:33Z</time>
      </trkpt>
      <trkpt lat="47.9889" lon="6.92385">
        <ele>1053.9</ele>
        <time>2022-05-26T10:32:37Z</time>
      </trkpt>
      <trkpt lat="47.98897" lon="6.92395">
        <ele>1053.5</ele>
        <time>2022-05-26T10:32:41Z</time>
      </trkpt>
      <trkpt lat="47.98903" lon="6.92407">
        <ele>1055.4</ele>
        <time>2022-05-26T10:32:45Z</time>
      </trkpt>
      <trkpt lat="47.98909" lon="6.92418">
        <ele>1057</ele>
        <time>2022-05-26T10:32:49Z</time>
      </trkpt>
      <trkpt lat="47.98915" lon="6.9243">
        <ele>1057.3</ele>
        <time>2022-05-26T10:32:53Z</time>
      </trkpt>
      <trkpt lat="47.98922" lon="6.92443">
        <ele>1058.2</ele>
        <time>2022-05-26T10:32:57Z</time>
      </trkpt>
      <trkpt lat="47.98929" lon="6.92457">
        <ele>1059.3</ele>
        <time>2022-05-26T10:33:01Z</time>
      </trkpt>
      <trkpt lat="47.98936" lon="6.9247">
        <ele>1060.2</ele>
        <time>2022-05-26T10:33:05Z</time>
      </trkpt>
      <trkpt lat="47.98942" lon="6.92481">
        <ele>1060.6</ele>
        <time>2022-05-26T10:33:09Z</time>
      </trkpt>
      <trkpt lat="47.9895" lon="6.92493">
        <ele>1060.3</ele>
        <time>2022-05-26T10:33:13Z</time>
      </trkpt>
      <trkpt lat="47.98957" lon="6.92504">
        <ele>1061.5</ele>
        <time>2022-05-26T10:33:16Z</time>
      </trkpt>
      <trkpt lat="47.98963" lon="6.92515">
        <ele>1061.2</ele>
        <time>2022-05-26T10:33:19Z</time>
      </trkpt>
      <trkpt lat="47.9897" lon="6.92527">
        <ele>1060.5</ele>
        <time>2022-05-26T10:33:22Z</time>
      </trkpt>
      <trkpt lat="47.98977" lon="6.9254">
        <ele>1059.7</ele>
        <time>2022-05-26T10:33:25Z</time>
      </trkpt>
      <trkpt lat="47.98984" lon="6.92555">
        <ele>1059.9</ele>
        <time>2022-05-26T10:33:28Z</time>
      </trkpt>
      <trkpt lat="47.9899" lon="6.92571">
        <ele>1059.3</ele>
        <time>2022-05-26T10:33:31Z</time>
      </trkpt>
      <trkpt lat="47.98998" lon="6.92586">
        <ele>1059.1</ele>
        <time>2022-05-26T10:33:34Z</time>
      </trkpt>
      <trkpt lat="47.99006" lon="6.92602">
        <ele>1060</ele>
        <time>2022-05-26T10:33:37Z</time>
      </trkpt>
      <trkpt lat="47.99013" lon="6.92617">
        <ele>1059.5</ele>
        <time>2022-05-26T10:33:40Z</time>
      </trkpt>
      <trkpt lat="47.9902" lon="6.92633">
        <ele>1060.2</ele>
        <time>2022-05-26T10:33:43Z</time>
      </trkpt>
      <trkpt lat="47.99025" lon="6.92648">
        <ele>1059.3</ele>
        <time>2022-05-26T10:33:46Z</time>
      </trkpt>
      <trkpt lat="47.9903" lon="6.92664">
        <ele>1060.3</ele>
        <time>2022-05-26T10:33:49Z</time>
      </trkpt>
      <trkpt lat="47.99035" lon="6.92678">
        <ele>1061.5</ele>
        <time>2022-05-26T10:33:52Z</time>
      </trkpt>
      <trkpt lat="47.99043" lon="6.92691">
        <ele>1060.5</ele>
        <time>2022-05-26T10:33:55Z</time>
      </trkpt>
      <trkpt lat="47.99052" lon="6.92702">
        <ele>1060.4</ele>
        <time>2022-05-26T10:33:59Z</time>
      </trkpt>
      <trkpt lat="47.99057" lon="6.92701">
        <ele>1060.9</ele>
        <time>2022-05-26T10:34:14Z</time>
      </trkpt>
      <trkpt lat="47.99056" lon="6.92701">
        <ele>1061</ele>
        <time>2022-05-26T10:34:15Z</time>
      </trkpt>
      <trkpt lat="47.99057" lon="6.927">
        <ele>1060.6</ele>
        <time>2022-05-26T10:34:17Z</time>
      </trkpt>
      <trkpt lat="47.99056" lon="6.927">
        <ele>1060.8</ele>
        <time>2022-05-26T10:34:37Z</time>
      </trkpt>
      <trkpt lat="47.99056" lon="6.92701">
        <ele>1061.2</ele>
        <time>2022-05-26T10:35:15Z</time>
      </trkpt>
      <trkpt lat="47.99052" lon="6.92704">
        <ele>1061.5</ele>
        <time>2022-05-26T10:35:21Z</time>
      </trkpt>
      <trkpt lat="47.99053" lon="6.92704">
        <ele>1060.9</ele>
        <time>2022-05-26T10:35:40Z</time>
      </trkpt>
      <trkpt lat="47.99052" lon="6.92704">
        <ele>1060.5</ele>
        <time>2022-05-26T10:36:36Z</time>
      </trkpt>
      <trkpt lat="47.99052" lon="6.92703">
        <ele>1060.4</ele>
        <time>2022-05-26T10:37:19Z</time>
      </trkpt>
      <trkpt lat="47.99052" lon="6.92702">
        <ele>1065.2</ele>
        <time>2022-05-26T10:50:57Z</time>
      </trkpt>
      <trkpt lat="47.99052" lon="6.92701">
        <ele>1065.4</ele>
        <time>2022-05-26T10:50:59Z</time>
      </trkpt>
      <trkpt lat="47.99053" lon="6.92701">
        <ele>1066.2</ele>
        <time>2022-05-26T10:53:13Z</time>
      </trkpt>
      <trkpt lat="47.99052" lon="6.92702">
        <ele>1066.6</ele>
        <time>2022-05-26T10:53:41Z</time>
      </trkpt>
      <trkpt lat="47.99053" lon="6.92702">
        <ele>1067.5</ele>
        <time>2022-05-26T10:54:33Z</time>
      </trkpt>
      <trkpt lat="47.99052" lon="6.92703">
        <ele>1068</ele>
        <time>2022-05-26T10:56:18Z</time>
      </trkpt>
      <trkpt lat="47.99052" lon="6.92704">
        <ele>1068.4</ele>
        <time>2022-05-26T10:56:24Z</time>
      </trkpt>
      <trkpt lat="47.99052" lon="6.92705">
        <ele>1068.6</ele>
        <time>2022-05-26T10:56:51Z</time>
      </trkpt>
      <trkpt lat="47.99052" lon="6.92706">
        <ele>1068.5</ele>
        <time>2022-05-26T10:57:01Z</time>
      </trkpt>
      <trkpt lat="47.99052" lon="6.92707">
        <ele>1068.6</ele>
        <time>2022-05-26T10:57:10Z</time>
      </trkpt>
      <trkpt lat="47.99052" lon="6.92708">
        <ele>1068.5</ele>
        <time>2022-05-26T10:57:38Z</time>
      </trkpt>
      <trkpt lat="47.99051" lon="6.92708">
        <ele>1068.8</ele>
        <time>2022-05-26T10:57:40Z</time>
      </trkpt>
      <trkpt lat="47.9905" lon="6.92708">
        <ele>1068.8</ele>
        <time>2022-05-26T10:57:46Z</time>
      </trkpt>
      <trkpt lat="47.99051" lon="6.92709">
        <ele>1068.5</ele>
        <time>2022-05-26T10:57:52Z</time>
      </trkpt>
      <trkpt lat="47.99051" lon="6.9271">
        <ele>1068.8</ele>
        <time>2022-05-26T10:57:57Z</time>
      </trkpt>
      <trkpt lat="47.99051" lon="6.92708">
        <ele>1068.9</ele>
        <time>2022-05-26T10:58:06Z</time>
      </trkpt>
      <trkpt lat="47.9905" lon="6.92708">
        <ele>1069.2</ele>
        <time>2022-05-26T10:58:17Z</time>
      </trkpt>
      <trkpt lat="47.9905" lon="6.92709">
        <ele>1069.2</ele>
        <time>2022-05-26T10:58:32Z</time>
      </trkpt>
      <trkpt lat="47.9905" lon="6.92708">
        <ele>1069.2</ele>
        <time>2022-05-26T10:58:36Z</time>
      </trkpt>
      <trkpt lat="47.99051" lon="6.92701">
        <ele>1068.3</ele>
        <time>2022-05-26T10:58:50Z</time>
      </trkpt>
      <trkpt lat="47.99051" lon="6.927">
        <ele>1068.7</ele>
        <time>2022-05-26T10:58:54Z</time>
      </trkpt>
      <trkpt lat="47.99052" lon="6.92701">
        <ele>1068.2</ele>
        <time>2022-05-26T10:58:59Z</time>
      </trkpt>
      <trkpt lat="47.99053" lon="6.92701">
        <ele>1068.1</ele>
        <time>2022-05-26T10:59:00Z</time>
      </trkpt>
      <trkpt lat="47.99053" lon="6.92702">
        <ele>1069</ele>
        <time>2022-05-26T10:59:03Z</time>
      </trkpt>
      <trkpt lat="47.99053" lon="6.92703">
        <ele>1068.4</ele>
        <time>2022-05-26T10:59:06Z</time>
      </trkpt>
      <trkpt lat="47.99053" lon="6.92702">
        <ele>1069.3</ele>
        <time>2022-05-26T11:01:20Z</time>
      </trkpt>
      <trkpt lat="47.99054" lon="6.92701">
        <ele>1069.9</ele>
        <time>2022-05-26T11:04:15Z</time>
      </trkpt>
      <trkpt lat="47.99052" lon="6.92705">
        <ele>1070.9</ele>
        <time>2022-05-26T11:05:44Z</time>
      </trkpt>
      <trkpt lat="47.99051" lon="6.92705">
        <ele>1071.1</ele>
        <time>2022-05-26T11:07:06Z</time>
      </trkpt>
      <trkpt lat="47.99051" lon="6.92712">
        <ele>1071.2</ele>
        <time>2022-05-26T11:07:27Z</time>
      </trkpt>
      <trkpt lat="47.9905" lon="6.9271">
        <ele>1071.4</ele>
        <time>2022-05-26T11:07:41Z</time>
      </trkpt>
      <trkpt lat="47.9905" lon="6.92709">
        <ele>1071.8</ele>
        <time>2022-05-26T11:07:54Z</time>
      </trkpt>
      <trkpt lat="47.9905" lon="6.92725">
        <ele>1071.8</ele>
        <time>2022-05-26T11:08:20Z</time>
      </trkpt>
      <trkpt lat="47.99056" lon="6.92737">
        <ele>1071.8</ele>
        <time>2022-05-26T11:08:23Z</time>
      </trkpt>
      <trkpt lat="47.99062" lon="6.9275">
        <ele>1071.2</ele>
        <time>2022-05-26T11:08:26Z</time>
      </trkpt>
      <trkpt lat="47.99065" lon="6.92764">
        <ele>1071.3</ele>
        <time>2022-05-26T11:08:29Z</time>
      </trkpt>
      <trkpt lat="47.99068" lon="6.92778">
        <ele>1072.1</ele>
        <time>2022-05-26T11:08:32Z</time>
      </trkpt>
      <trkpt lat="47.9907" lon="6.92795">
        <ele>1072.5</ele>
        <time>2022-05-26T11:08:36Z</time>
      </trkpt>
      <trkpt lat="47.99071" lon="6.92808">
        <ele>1073.1</ele>
        <time>2022-05-26T11:08:40Z</time>
      </trkpt>
      <trkpt lat="47.99073" lon="6.92824">
        <ele>1073.6</ele>
        <time>2022-05-26T11:08:45Z</time>
      </trkpt>
      <trkpt lat="47.99076" lon="6.9284">
        <ele>1074.3</ele>
        <time>2022-05-26T11:08:50Z</time>
      </trkpt>
      <trkpt lat="47.99076" lon="6.92856">
        <ele>1074.3</ele>
        <time>2022-05-26T11:08:54Z</time>
      </trkpt>
      <trkpt lat="47.99076" lon="6.9287">
        <ele>1074.4</ele>
        <time>2022-05-26T11:08:57Z</time>
      </trkpt>
      <trkpt lat="47.99074" lon="6.92887">
        <ele>1074.3</ele>
        <time>2022-05-26T11:09:01Z</time>
      </trkpt>
      <trkpt lat="47.99075" lon="6.92904">
        <ele>1074.1</ele>
        <time>2022-05-26T11:09:05Z</time>
      </trkpt>
      <trkpt lat="47.99075" lon="6.92918">
        <ele>1074.7</ele>
        <time>2022-05-26T11:09:08Z</time>
      </trkpt>
      <trkpt lat="47.99077" lon="6.92934">
        <ele>1074.8</ele>
        <time>2022-05-26T11:09:12Z</time>
      </trkpt>
      <trkpt lat="47.99077" lon="6.92949">
        <ele>1075.3</ele>
        <time>2022-05-26T11:09:16Z</time>
      </trkpt>
      <trkpt lat="47.99073" lon="6.92963">
        <ele>1077</ele>
        <time>2022-05-26T11:09:22Z</time>
      </trkpt>
      <trkpt lat="47.99069" lon="6.92976">
        <ele>1078.3</ele>
        <time>2022-05-26T11:09:29Z</time>
      </trkpt>
      <trkpt lat="47.99065" lon="6.9299">
        <ele>1079.3</ele>
        <time>2022-05-26T11:09:36Z</time>
      </trkpt>
      <trkpt lat="47.99061" lon="6.93003">
        <ele>1081.2</ele>
        <time>2022-05-26T11:09:44Z</time>
      </trkpt>
      <trkpt lat="47.99056" lon="6.93015">
        <ele>1082.5</ele>
        <time>2022-05-26T11:09:53Z</time>
      </trkpt>
      <trkpt lat="47.99049" lon="6.93025">
        <ele>1083.7</ele>
        <time>2022-05-26T11:10:00Z</time>
      </trkpt>
      <trkpt lat="47.99043" lon="6.93035">
        <ele>1085.1</ele>
        <time>2022-05-26T11:10:07Z</time>
      </trkpt>
      <trkpt lat="47.99038" lon="6.93048">
        <ele>1086.2</ele>
        <time>2022-05-26T11:10:14Z</time>
      </trkpt>
      <trkpt lat="47.99036" lon="6.93062">
        <ele>1087.5</ele>
        <time>2022-05-26T11:10:20Z</time>
      </trkpt>
      <trkpt lat="47.99037" lon="6.93077">
        <ele>1088.8</ele>
        <time>2022-05-26T11:10:28Z</time>
      </trkpt>
      <trkpt lat="47.99035" lon="6.9309">
        <ele>1090.3</ele>
        <time>2022-05-26T11:10:39Z</time>
      </trkpt>
      <trkpt lat="47.99033" lon="6.93097">
        <ele>1091.1</ele>
        <time>2022-05-26T11:10:49Z</time>
      </trkpt>
      <trkpt lat="47.99033" lon="6.93098">
        <ele>1091.2</ele>
        <time>2022-05-26T11:10:53Z</time>
      </trkpt>
      <trkpt lat="47.99027" lon="6.93109">
        <ele>1092</ele>
        <time>2022-05-26T11:11:00Z</time>
      </trkpt>
      <trkpt lat="47.99026" lon="6.93123">
        <ele>1093.7</ele>
        <time>2022-05-26T11:11:09Z</time>
      </trkpt>
      <trkpt lat="47.99023" lon="6.93127">
        <ele>1094.8</ele>
        <time>2022-05-26T11:11:15Z</time>
      </trkpt>
      <trkpt lat="47.99014" lon="6.93132">
        <ele>1098</ele>
        <time>2022-05-26T11:11:31Z</time>
      </trkpt>
      <trkpt lat="47.99006" lon="6.9314">
        <ele>1099.8</ele>
        <time>2022-05-26T11:11:48Z</time>
      </trkpt>
      <trkpt lat="47.98998" lon="6.93148">
        <ele>1101.5</ele>
        <time>2022-05-26T11:12:01Z</time>
      </trkpt>
      <trkpt lat="47.9899" lon="6.93155">
        <ele>1104</ele>
        <time>2022-05-26T11:12:17Z</time>
      </trkpt>
      <trkpt lat="47.98983" lon="6.93164">
        <ele>1105.7</ele>
        <time>2022-05-26T11:12:28Z</time>
      </trkpt>
      <trkpt lat="47.98976" lon="6.93172">
        <ele>1108.4</ele>
        <time>2022-05-26T11:12:42Z</time>
      </trkpt>
      <trkpt lat="47.98971" lon="6.93185">
        <ele>1110.4</ele>
        <time>2022-05-26T11:12:55Z</time>
      </trkpt>
      <trkpt lat="47.9897" lon="6.93198">
        <ele>1111.4</ele>
        <time>2022-05-26T11:13:04Z</time>
      </trkpt>
      <trkpt lat="47.98968" lon="6.93212">
        <ele>1113.7</ele>
        <time>2022-05-26T11:13:19Z</time>
      </trkpt>
      <trkpt lat="47.98962" lon="6.93222">
        <ele>1115</ele>
        <time>2022-05-26T11:13:28Z</time>
      </trkpt>
      <trkpt lat="47.98958" lon="6.93234">
        <ele>1116.7</ele>
        <time>2022-05-26T11:13:40Z</time>
      </trkpt>
      <trkpt lat="47.98957" lon="6.93249">
        <ele>1118.3</ele>
        <time>2022-05-26T11:13:52Z</time>
      </trkpt>
      <trkpt lat="47.98954" lon="6.93262">
        <ele>1120.6</ele>
        <time>2022-05-26T11:14:06Z</time>
      </trkpt>
      <trkpt lat="47.98949" lon="6.93274">
        <ele>1123.3</ele>
        <time>2022-05-26T11:14:20Z</time>
      </trkpt>
      <trkpt lat="47.98941" lon="6.93282">
        <ele>1124.4</ele>
        <time>2022-05-26T11:14:31Z</time>
      </trkpt>
      <trkpt lat="47.98932" lon="6.93288">
        <ele>1126.1</ele>
        <time>2022-05-26T11:14:42Z</time>
      </trkpt>
      <trkpt lat="47.98927" lon="6.93299">
        <ele>1127.3</ele>
        <time>2022-05-26T11:14:52Z</time>
      </trkpt>
      <trkpt lat="47.98925" lon="6.93304">
        <ele>1127.7</ele>
        <time>2022-05-26T11:14:57Z</time>
      </trkpt>
      <trkpt lat="47.98924" lon="6.93305">
        <ele>1127.8</ele>
        <time>2022-05-26T11:14:58Z</time>
      </trkpt>
      <trkpt lat="47.98917" lon="6.93313">
        <ele>1128.4</ele>
        <time>2022-05-26T11:15:08Z</time>
      </trkpt>
      <trkpt lat="47.98913" lon="6.93325">
        <ele>1130</ele>
        <time>2022-05-26T11:15:15Z</time>
      </trkpt>
      <trkpt lat="47.98909" lon="6.93338">
        <ele>1131.3</ele>
        <time>2022-05-26T11:15:22Z</time>
      </trkpt>
      <trkpt lat="47.98909" lon="6.93354">
        <ele>1132.7</ele>
        <time>2022-05-26T11:15:28Z</time>
      </trkpt>
      <trkpt lat="47.98909" lon="6.93368">
        <ele>1133.9</ele>
        <time>2022-05-26T11:15:33Z</time>
      </trkpt>
      <trkpt lat="47.98914" lon="6.93383">
        <ele>1134.6</ele>
        <time>2022-05-26T11:15:39Z</time>
      </trkpt>
      <trkpt lat="47.98916" lon="6.93399">
        <ele>1134.6</ele>
        <time>2022-05-26T11:15:44Z</time>
      </trkpt>
      <trkpt lat="47.98918" lon="6.93415">
        <ele>1134.6</ele>
        <time>2022-05-26T11:15:48Z</time>
      </trkpt>
      <trkpt lat="47.98922" lon="6.93428">
        <ele>1134.4</ele>
        <time>2022-05-26T11:15:52Z</time>
      </trkpt>
      <trkpt lat="47.98923" lon="6.93444">
        <ele>1134.4</ele>
        <time>2022-05-26T11:15:56Z</time>
      </trkpt>
      <trkpt lat="47.98926" lon="6.93458">
        <ele>1134.4</ele>
        <time>2022-05-26T11:16:00Z</time>
      </trkpt>
      <trkpt lat="47.98929" lon="6.93473">
        <ele>1135.3</ele>
        <time>2022-05-26T11:16:05Z</time>
      </trkpt>
      <trkpt lat="47.98933" lon="6.93486">
        <ele>1135.3</ele>
        <time>2022-05-26T11:16:09Z</time>
      </trkpt>
      <trkpt lat="47.98937" lon="6.93499">
        <ele>1136.1</ele>
        <time>2022-05-26T11:16:13Z</time>
      </trkpt>
      <trkpt lat="47.98941" lon="6.93514">
        <ele>1136.3</ele>
        <time>2022-05-26T11:16:17Z</time>
      </trkpt>
      <trkpt lat="47.98944" lon="6.9353">
        <ele>1136.8</ele>
        <time>2022-05-26T11:16:21Z</time>
      </trkpt>
      <trkpt lat="47.98946" lon="6.93545">
        <ele>1136.5</ele>
        <time>2022-05-26T11:16:25Z</time>
      </trkpt>
      <trkpt lat="47.98948" lon="6.9356">
        <ele>1137.6</ele>
        <time>2022-05-26T11:16:29Z</time>
      </trkpt>
      <trkpt lat="47.9895" lon="6.93575">
        <ele>1138.9</ele>
        <time>2022-05-26T11:16:33Z</time>
      </trkpt>
      <trkpt lat="47.98952" lon="6.93588">
        <ele>1138.8</ele>
        <time>2022-05-26T11:16:37Z</time>
      </trkpt>
      <trkpt lat="47.98954" lon="6.93601">
        <ele>1139.3</ele>
        <time>2022-05-26T11:16:41Z</time>
      </trkpt>
      <trkpt lat="47.98956" lon="6.93617">
        <ele>1139.8</ele>
        <time>2022-05-26T11:16:46Z</time>
      </trkpt>
      <trkpt lat="47.98958" lon="6.93633">
        <ele>1140.5</ele>
        <time>2022-05-26T11:16:51Z</time>
      </trkpt>
      <trkpt lat="47.9896" lon="6.93647">
        <ele>1140.8</ele>
        <time>2022-05-26T11:16:55Z</time>
      </trkpt>
      <trkpt lat="47.98961" lon="6.93665">
        <ele>1140.9</ele>
        <time>2022-05-26T11:16:59Z</time>
      </trkpt>
      <trkpt lat="47.98962" lon="6.93682">
        <ele>1140.1</ele>
        <time>2022-05-26T11:17:03Z</time>
      </trkpt>
      <trkpt lat="47.98961" lon="6.93699">
        <ele>1141.5</ele>
        <time>2022-05-26T11:17:07Z</time>
      </trkpt>
      <trkpt lat="47.98961" lon="6.93716">
        <ele>1142.5</ele>
        <time>2022-05-26T11:17:11Z</time>
      </trkpt>
      <trkpt lat="47.9896" lon="6.93731">
        <ele>1142.8</ele>
        <time>2022-05-26T11:17:15Z</time>
      </trkpt>
      <trkpt lat="47.98959" lon="6.93746">
        <ele>1143.6</ele>
        <time>2022-05-26T11:17:19Z</time>
      </trkpt>
      <trkpt lat="47.9896" lon="6.93761">
        <ele>1145.1</ele>
        <time>2022-05-26T11:17:24Z</time>
      </trkpt>
      <trkpt lat="47.98962" lon="6.93776">
        <ele>1146.3</ele>
        <time>2022-05-26T11:17:29Z</time>
      </trkpt>
      <trkpt lat="47.98967" lon="6.9379">
        <ele>1147.1</ele>
        <time>2022-05-26T11:17:34Z</time>
      </trkpt>
      <trkpt lat="47.98971" lon="6.93803">
        <ele>1148.5</ele>
        <time>2022-05-26T11:17:39Z</time>
      </trkpt>
      <trkpt lat="47.98976" lon="6.93816">
        <ele>1149</ele>
        <time>2022-05-26T11:17:44Z</time>
      </trkpt>
      <trkpt lat="47.98979" lon="6.9383">
        <ele>1149.5</ele>
        <time>2022-05-26T11:17:49Z</time>
      </trkpt>
      <trkpt lat="47.98982" lon="6.93844">
        <ele>1150.7</ele>
        <time>2022-05-26T11:17:54Z</time>
      </trkpt>
      <trkpt lat="47.98986" lon="6.93858">
        <ele>1151.4</ele>
        <time>2022-05-26T11:17:59Z</time>
      </trkpt>
      <trkpt lat="47.98988" lon="6.93871">
        <ele>1152.2</ele>
        <time>2022-05-26T11:18:04Z</time>
      </trkpt>
      <trkpt lat="47.98992" lon="6.93883">
        <ele>1153.1</ele>
        <time>2022-05-26T11:18:09Z</time>
      </trkpt>
      <trkpt lat="47.99001" lon="6.93878">
        <ele>1153.9</ele>
        <time>2022-05-26T11:18:16Z</time>
      </trkpt>
      <trkpt lat="47.99012" lon="6.93879">
        <ele>1154.9</ele>
        <time>2022-05-26T11:18:22Z</time>
      </trkpt>
      <trkpt lat="47.99021" lon="6.93872">
        <ele>1155.5</ele>
        <time>2022-05-26T11:18:28Z</time>
      </trkpt>
      <trkpt lat="47.9903" lon="6.93868">
        <ele>1156.9</ele>
        <time>2022-05-26T11:18:33Z</time>
      </trkpt>
      <trkpt lat="47.99038" lon="6.93861">
        <ele>1157.8</ele>
        <time>2022-05-26T11:18:39Z</time>
      </trkpt>
      <trkpt lat="47.99043" lon="6.93854">
        <ele>1157.1</ele>
        <time>2022-05-26T11:18:45Z</time>
      </trkpt>
      <trkpt lat="47.9905" lon="6.93842">
        <ele>1156.5</ele>
        <time>2022-05-26T11:18:57Z</time>
      </trkpt>
      <trkpt lat="47.99052" lon="6.93825">
        <ele>1156.5</ele>
        <time>2022-05-26T11:19:01Z</time>
      </trkpt>
      <trkpt lat="47.99053" lon="6.93811">
        <ele>1155.1</ele>
        <time>2022-05-26T11:19:04Z</time>
      </trkpt>
      <trkpt lat="47.99055" lon="6.93796">
        <ele>1152.6</ele>
        <time>2022-05-26T11:19:07Z</time>
      </trkpt>
      <trkpt lat="47.99055" lon="6.93777">
        <ele>1150.1</ele>
        <time>2022-05-26T11:19:10Z</time>
      </trkpt>
      <trkpt lat="47.99056" lon="6.93763">
        <ele>1150</ele>
        <time>2022-05-26T11:19:12Z</time>
      </trkpt>
      <trkpt lat="47.99057" lon="6.93748">
        <ele>1146.5</ele>
        <time>2022-05-26T11:19:15Z</time>
      </trkpt>
      <trkpt lat="47.99066" lon="6.93743">
        <ele>1142.9</ele>
        <time>2022-05-26T11:19:19Z</time>
      </trkpt>
      <trkpt lat="47.99078" lon="6.9375">
        <ele>1143.5</ele>
        <time>2022-05-26T11:19:23Z</time>
      </trkpt>
      <trkpt lat="47.99087" lon="6.93755">
        <ele>1141.3</ele>
        <time>2022-05-26T11:19:25Z</time>
      </trkpt>
      <trkpt lat="47.99095" lon="6.93762">
        <ele>1139.4</ele>
        <time>2022-05-26T11:19:27Z</time>
      </trkpt>
      <trkpt lat="47.99106" lon="6.93765">
        <ele>1138.2</ele>
        <time>2022-05-26T11:19:29Z</time>
      </trkpt>
      <trkpt lat="47.99118" lon="6.93767">
        <ele>1139</ele>
        <time>2022-05-26T11:19:31Z</time>
      </trkpt>
      <trkpt lat="47.99128" lon="6.93771">
        <ele>1135.9</ele>
        <time>2022-05-26T11:19:33Z</time>
      </trkpt>
      <trkpt lat="47.99137" lon="6.93776">
        <ele>1133.5</ele>
        <time>2022-05-26T11:19:35Z</time>
      </trkpt>
      <trkpt lat="47.99147" lon="6.9378">
        <ele>1133.3</ele>
        <time>2022-05-26T11:19:37Z</time>
      </trkpt>
      <trkpt lat="47.99159" lon="6.93786">
        <ele>1132.9</ele>
        <time>2022-05-26T11:19:39Z</time>
      </trkpt>
      <trkpt lat="47.9917" lon="6.93791">
        <ele>1130.6</ele>
        <time>2022-05-26T11:19:41Z</time>
      </trkpt>
      <trkpt lat="47.99181" lon="6.93798">
        <ele>1129.9</ele>
        <time>2022-05-26T11:19:43Z</time>
      </trkpt>
      <trkpt lat="47.9919" lon="6.93804">
        <ele>1128.6</ele>
        <time>2022-05-26T11:19:45Z</time>
      </trkpt>
      <trkpt lat="47.99199" lon="6.93811">
        <ele>1126.5</ele>
        <time>2022-05-26T11:19:47Z</time>
      </trkpt>
      <trkpt lat="47.9921" lon="6.93819">
        <ele>1124.5</ele>
        <time>2022-05-26T11:19:49Z</time>
      </trkpt>
      <trkpt lat="47.99223" lon="6.93833">
        <ele>1124.7</ele>
        <time>2022-05-26T11:19:51Z</time>
      </trkpt>
      <trkpt lat="47.99235" lon="6.93843">
        <ele>1123.4</ele>
        <time>2022-05-26T11:19:53Z</time>
      </trkpt>
      <trkpt lat="47.99246" lon="6.93851">
        <ele>1120.2</ele>
        <time>2022-05-26T11:19:55Z</time>
      </trkpt>
      <trkpt lat="47.99257" lon="6.93863">
        <ele>1117.8</ele>
        <time>2022-05-26T11:19:57Z</time>
      </trkpt>
      <trkpt lat="47.99268" lon="6.93874">
        <ele>1115.1</ele>
        <time>2022-05-26T11:19:59Z</time>
      </trkpt>
      <trkpt lat="47.99278" lon="6.93883">
        <ele>1113.5</ele>
        <time>2022-05-26T11:20:01Z</time>
      </trkpt>
      <trkpt lat="47.9929" lon="6.93885">
        <ele>1112.9</ele>
        <time>2022-05-26T11:20:04Z</time>
      </trkpt>
      <trkpt lat="47.99301" lon="6.93891">
        <ele>1110.6</ele>
        <time>2022-05-26T11:20:08Z</time>
      </trkpt>
      <trkpt lat="47.99312" lon="6.93894">
        <ele>1107.9</ele>
        <time>2022-05-26T11:20:11Z</time>
      </trkpt>
      <trkpt lat="47.99323" lon="6.93901">
        <ele>1107.7</ele>
        <time>2022-05-26T11:20:14Z</time>
      </trkpt>
      <trkpt lat="47.99334" lon="6.93911">
        <ele>1104.2</ele>
        <time>2022-05-26T11:20:18Z</time>
      </trkpt>
      <trkpt lat="47.99344" lon="6.93914">
        <ele>1101.6</ele>
        <time>2022-05-26T11:20:20Z</time>
      </trkpt>
      <trkpt lat="47.99356" lon="6.93917">
        <ele>1100.1</ele>
        <time>2022-05-26T11:20:22Z</time>
      </trkpt>
      <trkpt lat="47.99367" lon="6.93921">
        <ele>1101.4</ele>
        <time>2022-05-26T11:20:24Z</time>
      </trkpt>
      <trkpt lat="47.99378" lon="6.93928">
        <ele>1101.6</ele>
        <time>2022-05-26T11:20:26Z</time>
      </trkpt>
      <trkpt lat="47.99386" lon="6.93935">
        <ele>1096.5</ele>
        <time>2022-05-26T11:20:28Z</time>
      </trkpt>
      <trkpt lat="47.99397" lon="6.93945">
        <ele>1094.8</ele>
        <time>2022-05-26T11:20:31Z</time>
      </trkpt>
      <trkpt lat="47.99406" lon="6.9395">
        <ele>1092.6</ele>
        <time>2022-05-26T11:20:34Z</time>
      </trkpt>
      <trkpt lat="47.99416" lon="6.93953">
        <ele>1090.9</ele>
        <time>2022-05-26T11:20:37Z</time>
      </trkpt>
      <trkpt lat="47.99425" lon="6.93961">
        <ele>1090.7</ele>
        <time>2022-05-26T11:20:41Z</time>
      </trkpt>
      <trkpt lat="47.99437" lon="6.93969">
        <ele>1089.4</ele>
        <time>2022-05-26T11:20:44Z</time>
      </trkpt>
      <trkpt lat="47.99448" lon="6.93975">
        <ele>1087.8</ele>
        <time>2022-05-26T11:20:47Z</time>
      </trkpt>
      <trkpt lat="47.99457" lon="6.93978">
        <ele>1085.8</ele>
        <time>2022-05-26T11:20:50Z</time>
      </trkpt>
      <trkpt lat="47.9947" lon="6.93984">
        <ele>1082.1</ele>
        <time>2022-05-26T11:20:53Z</time>
      </trkpt>
      <trkpt lat="47.99478" lon="6.93987">
        <ele>1082.2</ele>
        <time>2022-05-26T11:20:56Z</time>
      </trkpt>
      <trkpt lat="47.99487" lon="6.93991">
        <ele>1081.5</ele>
        <time>2022-05-26T11:21:01Z</time>
      </trkpt>
      <trkpt lat="47.99497" lon="6.93999">
        <ele>1078.9</ele>
        <time>2022-05-26T11:21:06Z</time>
      </trkpt>
      <trkpt lat="47.99505" lon="6.94005">
        <ele>1078.4</ele>
        <time>2022-05-26T11:21:10Z</time>
      </trkpt>
      <trkpt lat="47.99516" lon="6.9401">
        <ele>1077.9</ele>
        <time>2022-05-26T11:21:14Z</time>
      </trkpt>
      <trkpt lat="47.99524" lon="6.94018">
        <ele>1076.7</ele>
        <time>2022-05-26T11:21:17Z</time>
      </trkpt>
      <trkpt lat="47.99532" lon="6.94026">
        <ele>1073.7</ele>
        <time>2022-05-26T11:21:25Z</time>
      </trkpt>
      <trkpt lat="47.99542" lon="6.94031">
        <ele>1071.9</ele>
        <time>2022-05-26T11:21:29Z</time>
      </trkpt>
      <trkpt lat="47.99552" lon="6.94033">
        <ele>1068.9</ele>
        <time>2022-05-26T11:21:34Z</time>
      </trkpt>
      <trkpt lat="47.99563" lon="6.94038">
        <ele>1067.4</ele>
        <time>2022-05-26T11:21:39Z</time>
      </trkpt>
      <trkpt lat="47.99571" lon="6.94043">
        <ele>1066</ele>
        <time>2022-05-26T11:21:42Z</time>
      </trkpt>
      <trkpt lat="47.99582" lon="6.94047">
        <ele>1063.6</ele>
        <time>2022-05-26T11:21:46Z</time>
      </trkpt>
      <trkpt lat="47.99593" lon="6.94051">
        <ele>1066</ele>
        <time>2022-05-26T11:21:49Z</time>
      </trkpt>
      <trkpt lat="47.99606" lon="6.94052">
        <ele>1064</ele>
        <time>2022-05-26T11:21:51Z</time>
      </trkpt>
      <trkpt lat="47.99617" lon="6.94052">
        <ele>1062</ele>
        <time>2022-05-26T11:21:53Z</time>
      </trkpt>
      <trkpt lat="47.99627" lon="6.94054">
        <ele>1059.7</ele>
        <time>2022-05-26T11:21:55Z</time>
      </trkpt>
      <trkpt lat="47.99638" lon="6.9406">
        <ele>1057.3</ele>
        <time>2022-05-26T11:21:58Z</time>
      </trkpt>
      <trkpt lat="47.99647" lon="6.94067">
        <ele>1057.5</ele>
        <time>2022-05-26T11:22:02Z</time>
      </trkpt>
      <trkpt lat="47.99657" lon="6.94074">
        <ele>1055</ele>
        <time>2022-05-26T11:22:05Z</time>
      </trkpt>
      <trkpt lat="47.99667" lon="6.94078">
        <ele>1054.5</ele>
        <time>2022-05-26T11:22:09Z</time>
      </trkpt>
      <trkpt lat="47.99677" lon="6.94083">
        <ele>1053.6</ele>
        <time>2022-05-26T11:22:12Z</time>
      </trkpt>
      <trkpt lat="47.99686" lon="6.94087">
        <ele>1053.8</ele>
        <time>2022-05-26T11:22:14Z</time>
      </trkpt>
      <trkpt lat="47.99696" lon="6.94089">
        <ele>1050.6</ele>
        <time>2022-05-26T11:22:17Z</time>
      </trkpt>
      <trkpt lat="47.99706" lon="6.94088">
        <ele>1049.6</ele>
        <time>2022-05-26T11:22:22Z</time>
      </trkpt>
      <trkpt lat="47.99707" lon="6.94088">
        <ele>1049.5</ele>
        <time>2022-05-26T11:22:24Z</time>
      </trkpt>
      <trkpt lat="47.99707" lon="6.94089">
        <ele>1049.3</ele>
        <time>2022-05-26T11:22:34Z</time>
      </trkpt>
      <trkpt lat="47.99711" lon="6.94091">
        <ele>1049.2</ele>
        <time>2022-05-26T11:22:40Z</time>
      </trkpt>
      <trkpt lat="47.9972" lon="6.94098">
        <ele>1047.7</ele>
        <time>2022-05-26T11:22:46Z</time>
      </trkpt>
      <trkpt lat="47.9973" lon="6.94106">
        <ele>1046.8</ele>
        <time>2022-05-26T11:22:50Z</time>
      </trkpt>
      <trkpt lat="47.99736" lon="6.94118">
        <ele>1044.8</ele>
        <time>2022-05-26T11:22:54Z</time>
      </trkpt>
      <trkpt lat="47.99741" lon="6.94129">
        <ele>1042.2</ele>
        <time>2022-05-26T11:22:56Z</time>
      </trkpt>
      <trkpt lat="47.99747" lon="6.94144">
        <ele>1039.5</ele>
        <time>2022-05-26T11:22:58Z</time>
      </trkpt>
      <trkpt lat="47.99754" lon="6.94158">
        <ele>1037.4</ele>
        <time>2022-05-26T11:23:00Z</time>
      </trkpt>
      <trkpt lat="47.99761" lon="6.94168">
        <ele>1036</ele>
        <time>2022-05-26T11:23:02Z</time>
      </trkpt>
      <trkpt lat="47.99774" lon="6.94171">
        <ele>1037.5</ele>
        <time>2022-05-26T11:23:04Z</time>
      </trkpt>
      <trkpt lat="47.99787" lon="6.94168">
        <ele>1038.9</ele>
        <time>2022-05-26T11:23:06Z</time>
      </trkpt>
      <trkpt lat="47.99798" lon="6.94164">
        <ele>1038.1</ele>
        <time>2022-05-26T11:23:08Z</time>
      </trkpt>
      <trkpt lat="47.99807" lon="6.94161">
        <ele>1034.5</ele>
        <time>2022-05-26T11:23:10Z</time>
      </trkpt>
      <trkpt lat="47.99818" lon="6.94159">
        <ele>1035.6</ele>
        <time>2022-05-26T11:23:12Z</time>
      </trkpt>
      <trkpt lat="47.9983" lon="6.94157">
        <ele>1035.1</ele>
        <time>2022-05-26T11:23:14Z</time>
      </trkpt>
      <trkpt lat="47.99841" lon="6.94157">
        <ele>1034</ele>
        <time>2022-05-26T11:23:16Z</time>
      </trkpt>
      <trkpt lat="47.99852" lon="6.94157">
        <ele>1034.9</ele>
        <time>2022-05-26T11:23:18Z</time>
      </trkpt>
      <trkpt lat="47.99863" lon="6.94161">
        <ele>1033.6</ele>
        <time>2022-05-26T11:23:20Z</time>
      </trkpt>
      <trkpt lat="47.99873" lon="6.94165">
        <ele>1030.7</ele>
        <time>2022-05-26T11:23:22Z</time>
      </trkpt>
      <trkpt lat="47.99885" lon="6.94169">
        <ele>1029.4</ele>
        <time>2022-05-26T11:23:24Z</time>
      </trkpt>
      <trkpt lat="47.99896" lon="6.94177">
        <ele>1027.5</ele>
        <time>2022-05-26T11:23:26Z</time>
      </trkpt>
      <trkpt lat="47.99907" lon="6.94185">
        <ele>1024.6</ele>
        <time>2022-05-26T11:23:28Z</time>
      </trkpt>
      <trkpt lat="47.99918" lon="6.94189">
        <ele>1022.4</ele>
        <time>2022-05-26T11:23:30Z</time>
      </trkpt>
      <trkpt lat="47.99929" lon="6.94188">
        <ele>1022.5</ele>
        <time>2022-05-26T11:23:32Z</time>
      </trkpt>
      <trkpt lat="47.99936" lon="6.94174">
        <ele>1021.6</ele>
        <time>2022-05-26T11:23:35Z</time>
      </trkpt>
      <trkpt lat="47.99936" lon="6.94159">
        <ele>1016.2</ele>
        <time>2022-05-26T11:23:38Z</time>
      </trkpt>
      <trkpt lat="47.9993" lon="6.94143">
        <ele>1013.3</ele>
        <time>2022-05-26T11:23:40Z</time>
      </trkpt>
      <trkpt lat="47.99924" lon="6.94125">
        <ele>1012.9</ele>
        <time>2022-05-26T11:23:42Z</time>
      </trkpt>
      <trkpt lat="47.99923" lon="6.94108">
        <ele>1011.1</ele>
        <time>2022-05-26T11:23:44Z</time>
      </trkpt>
      <trkpt lat="47.99923" lon="6.94095">
        <ele>1010.7</ele>
        <time>2022-05-26T11:23:49Z</time>
      </trkpt>
      <trkpt lat="47.99923" lon="6.94094">
        <ele>1009.9</ele>
        <time>2022-05-26T11:23:58Z</time>
      </trkpt>
      <trkpt lat="47.99923" lon="6.94093">
        <ele>1010.3</ele>
        <time>2022-05-26T11:24:10Z</time>
      </trkpt>
      <trkpt lat="47.99923" lon="6.9409">
        <ele>1010.2</ele>
        <time>2022-05-26T11:24:15Z</time>
      </trkpt>
      <trkpt lat="47.99924" lon="6.9409">
        <ele>1010.6</ele>
        <time>2022-05-26T11:24:19Z</time>
      </trkpt>
      <trkpt lat="47.99924" lon="6.94089">
        <ele>1010.3</ele>
        <time>2022-05-26T11:24:22Z</time>
      </trkpt>
      <trkpt lat="47.99931" lon="6.941">
        <ele>1009.9</ele>
        <time>2022-05-26T11:24:36Z</time>
      </trkpt>
      <trkpt lat="47.99938" lon="6.94109">
        <ele>1007</ele>
        <time>2022-05-26T11:24:39Z</time>
      </trkpt>
      <trkpt lat="47.99945" lon="6.94117">
        <ele>1003.8</ele>
        <time>2022-05-26T11:24:42Z</time>
      </trkpt>
      <trkpt lat="47.99956" lon="6.94125">
        <ele>1002.8</ele>
        <time>2022-05-26T11:24:46Z</time>
      </trkpt>
      <trkpt lat="47.99964" lon="6.94132">
        <ele>1002.1</ele>
        <time>2022-05-26T11:24:49Z</time>
      </trkpt>
      <trkpt lat="47.99974" lon="6.94141">
        <ele>999.5</ele>
        <time>2022-05-26T11:24:52Z</time>
      </trkpt>
      <trkpt lat="47.99982" lon="6.94149">
        <ele>999.1</ele>
        <time>2022-05-26T11:24:55Z</time>
      </trkpt>
      <trkpt lat="47.99991" lon="6.94162">
        <ele>997.6</ele>
        <time>2022-05-26T11:24:58Z</time>
      </trkpt>
      <trkpt lat="47.99999" lon="6.9417">
        <ele>995.8</ele>
        <time>2022-05-26T11:25:00Z</time>
      </trkpt>
      <trkpt lat="48.00007" lon="6.94177">
        <ele>993.5</ele>
        <time>2022-05-26T11:25:03Z</time>
      </trkpt>
      <trkpt lat="48.00017" lon="6.94188">
        <ele>991.1</ele>
        <time>2022-05-26T11:25:07Z</time>
      </trkpt>
      <trkpt lat="48.00024" lon="6.94198">
        <ele>989.8</ele>
        <time>2022-05-26T11:25:09Z</time>
      </trkpt>
      <trkpt lat="48.0003" lon="6.94215">
        <ele>988.2</ele>
        <time>2022-05-26T11:25:12Z</time>
      </trkpt>
      <trkpt lat="48.00035" lon="6.94226">
        <ele>987.7</ele>
        <time>2022-05-26T11:25:14Z</time>
      </trkpt>
      <trkpt lat="48.00041" lon="6.9424">
        <ele>985.8</ele>
        <time>2022-05-26T11:25:17Z</time>
      </trkpt>
      <trkpt lat="48.00046" lon="6.94251">
        <ele>984.9</ele>
        <time>2022-05-26T11:25:20Z</time>
      </trkpt>
      <trkpt lat="48.00052" lon="6.94269">
        <ele>980</ele>
        <time>2022-05-26T11:25:23Z</time>
      </trkpt>
      <trkpt lat="48.00054" lon="6.94286">
        <ele>979.1</ele>
        <time>2022-05-26T11:25:25Z</time>
      </trkpt>
      <trkpt lat="48.00053" lon="6.94305">
        <ele>978.1</ele>
        <time>2022-05-26T11:25:27Z</time>
      </trkpt>
      <trkpt lat="48.00049" lon="6.94329">
        <ele>977.3</ele>
        <time>2022-05-26T11:25:29Z</time>
      </trkpt>
      <trkpt lat="48.00045" lon="6.94342">
        <ele>976.7</ele>
        <time>2022-05-26T11:25:30Z</time>
      </trkpt>
      <trkpt lat="48.0004" lon="6.94355">
        <ele>975.9</ele>
        <time>2022-05-26T11:25:31Z</time>
      </trkpt>
      <trkpt lat="48.00036" lon="6.94368">
        <ele>974.2</ele>
        <time>2022-05-26T11:25:32Z</time>
      </trkpt>
      <trkpt lat="48.00029" lon="6.94392">
        <ele>972.7</ele>
        <time>2022-05-26T11:25:34Z</time>
      </trkpt>
      <trkpt lat="48.00024" lon="6.94415">
        <ele>972</ele>
        <time>2022-05-26T11:25:36Z</time>
      </trkpt>
      <trkpt lat="48.0003" lon="6.94434">
        <ele>970.2</ele>
        <time>2022-05-26T11:25:38Z</time>
      </trkpt>
      <trkpt lat="48.00044" lon="6.94447">
        <ele>968.9</ele>
        <time>2022-05-26T11:25:40Z</time>
      </trkpt>
      <trkpt lat="48.00057" lon="6.94459">
        <ele>967</ele>
        <time>2022-05-26T11:25:42Z</time>
      </trkpt>
      <trkpt lat="48.00062" lon="6.94475">
        <ele>965.1</ele>
        <time>2022-05-26T11:25:44Z</time>
      </trkpt>
      <trkpt lat="48.00058" lon="6.945">
        <ele>964.5</ele>
        <time>2022-05-26T11:25:46Z</time>
      </trkpt>
      <trkpt lat="48.00053" lon="6.94522">
        <ele>964.3</ele>
        <time>2022-05-26T11:25:48Z</time>
      </trkpt>
      <trkpt lat="48.00046" lon="6.94542">
        <ele>963.6</ele>
        <time>2022-05-26T11:25:50Z</time>
      </trkpt>
      <trkpt lat="48.00039" lon="6.94557">
        <ele>964.3</ele>
        <time>2022-05-26T11:25:53Z</time>
      </trkpt>
      <trkpt lat="48.00041" lon="6.94569">
        <ele>964.6</ele>
        <time>2022-05-26T11:25:58Z</time>
      </trkpt>
      <trkpt lat="48.00045" lon="6.94564">
        <ele>964.1</ele>
        <time>2022-05-26T11:26:08Z</time>
      </trkpt>
      <trkpt lat="48.00045" lon="6.94563">
        <ele>964</ele>
        <time>2022-05-26T11:27:07Z</time>
      </trkpt>
      <trkpt lat="48.00044" lon="6.94563">
        <ele>963.6</ele>
        <time>2022-05-26T11:27:44Z</time>
      </trkpt>
      <trkpt lat="48.00045" lon="6.94562">
        <ele>964.2</ele>
        <time>2022-05-26T11:28:43Z</time>
      </trkpt>
      <trkpt lat="48.00053" lon="6.94553">
        <ele>964.6</ele>
        <time>2022-05-26T11:28:52Z</time>
      </trkpt>
      <trkpt lat="48.00061" lon="6.94559">
        <ele>964.8</ele>
        <time>2022-05-26T11:29:02Z</time>
      </trkpt>
      <trkpt lat="48.00069" lon="6.94566">
        <ele>966.1</ele>
        <time>2022-05-26T11:29:10Z</time>
      </trkpt>
      <trkpt lat="48.00077" lon="6.94575">
        <ele>966.7</ele>
        <time>2022-05-26T11:29:19Z</time>
      </trkpt>
      <trkpt lat="48.00077" lon="6.94576">
        <ele>966.8</ele>
        <time>2022-05-26T11:29:22Z</time>
      </trkpt>
      <trkpt lat="48.00084" lon="6.94588">
        <ele>967.4</ele>
        <time>2022-05-26T11:29:34Z</time>
      </trkpt>
      <trkpt lat="48.00091" lon="6.94601">
        <ele>967.8</ele>
        <time>2022-05-26T11:29:39Z</time>
      </trkpt>
      <trkpt lat="48.00098" lon="6.94612">
        <ele>969.1</ele>
        <time>2022-05-26T11:29:45Z</time>
      </trkpt>
      <trkpt lat="48.00107" lon="6.94619">
        <ele>970.5</ele>
        <time>2022-05-26T11:29:51Z</time>
      </trkpt>
      <trkpt lat="48.00116" lon="6.94624">
        <ele>970.9</ele>
        <time>2022-05-26T11:29:56Z</time>
      </trkpt>
      <trkpt lat="48.00126" lon="6.94627">
        <ele>972.7</ele>
        <time>2022-05-26T11:30:02Z</time>
      </trkpt>
      <trkpt lat="48.00135" lon="6.94632">
        <ele>973.4</ele>
        <time>2022-05-26T11:30:09Z</time>
      </trkpt>
      <trkpt lat="48.00143" lon="6.9464">
        <ele>973.2</ele>
        <time>2022-05-26T11:30:15Z</time>
      </trkpt>
      <trkpt lat="48.00152" lon="6.94643">
        <ele>974.2</ele>
        <time>2022-05-26T11:30:20Z</time>
      </trkpt>
      <trkpt lat="48.00161" lon="6.94644">
        <ele>975.5</ele>
        <time>2022-05-26T11:30:25Z</time>
      </trkpt>
      <trkpt lat="48.0017" lon="6.94644">
        <ele>976.9</ele>
        <time>2022-05-26T11:30:30Z</time>
      </trkpt>
      <trkpt lat="48.0018" lon="6.94643">
        <ele>978.2</ele>
        <time>2022-05-26T11:30:35Z</time>
      </trkpt>
      <trkpt lat="48.0019" lon="6.94642">
        <ele>978.2</ele>
        <time>2022-05-26T11:30:41Z</time>
      </trkpt>
      <trkpt lat="48.002" lon="6.94646">
        <ele>979.1</ele>
        <time>2022-05-26T11:30:47Z</time>
      </trkpt>
      <trkpt lat="48.00209" lon="6.9465">
        <ele>979.5</ele>
        <time>2022-05-26T11:30:52Z</time>
      </trkpt>
      <trkpt lat="48.00219" lon="6.94652">
        <ele>981</ele>
        <time>2022-05-26T11:30:57Z</time>
      </trkpt>
      <trkpt lat="48.00227" lon="6.9466">
        <ele>982.1</ele>
        <time>2022-05-26T11:31:02Z</time>
      </trkpt>
      <trkpt lat="48.00235" lon="6.94668">
        <ele>982.4</ele>
        <time>2022-05-26T11:31:07Z</time>
      </trkpt>
      <trkpt lat="48.00242" lon="6.94677">
        <ele>983.3</ele>
        <time>2022-05-26T11:31:12Z</time>
      </trkpt>
      <trkpt lat="48.00252" lon="6.94683">
        <ele>984.7</ele>
        <time>2022-05-26T11:31:18Z</time>
      </trkpt>
      <trkpt lat="48.00262" lon="6.94686">
        <ele>984.9</ele>
        <time>2022-05-26T11:31:23Z</time>
      </trkpt>
      <trkpt lat="48.00271" lon="6.94687">
        <ele>985.3</ele>
        <time>2022-05-26T11:31:28Z</time>
      </trkpt>
      <trkpt lat="48.00281" lon="6.9469">
        <ele>986</ele>
        <time>2022-05-26T11:31:33Z</time>
      </trkpt>
      <trkpt lat="48.0029" lon="6.94693">
        <ele>987.7</ele>
        <time>2022-05-26T11:31:38Z</time>
      </trkpt>
      <trkpt lat="48.00299" lon="6.94695">
        <ele>988.6</ele>
        <time>2022-05-26T11:31:43Z</time>
      </trkpt>
      <trkpt lat="48.00308" lon="6.94697">
        <ele>989.3</ele>
        <time>2022-05-26T11:31:48Z</time>
      </trkpt>
      <trkpt lat="48.00318" lon="6.94701">
        <ele>990.4</ele>
        <time>2022-05-26T11:31:54Z</time>
      </trkpt>
      <trkpt lat="48.00326" lon="6.94704">
        <ele>991.6</ele>
        <time>2022-05-26T11:31:59Z</time>
      </trkpt>
      <trkpt lat="48.00336" lon="6.94705">
        <ele>992</ele>
        <time>2022-05-26T11:32:04Z</time>
      </trkpt>
      <trkpt lat="48.00346" lon="6.94707">
        <ele>992.9</ele>
        <time>2022-05-26T11:32:09Z</time>
      </trkpt>
      <trkpt lat="48.00355" lon="6.94712">
        <ele>993.8</ele>
        <time>2022-05-26T11:32:14Z</time>
      </trkpt>
      <trkpt lat="48.00365" lon="6.94715">
        <ele>995.1</ele>
        <time>2022-05-26T11:32:20Z</time>
      </trkpt>
      <trkpt lat="48.00375" lon="6.94719">
        <ele>995.6</ele>
        <time>2022-05-26T11:32:26Z</time>
      </trkpt>
      <trkpt lat="48.00383" lon="6.94725">
        <ele>997.9</ele>
        <time>2022-05-26T11:32:32Z</time>
      </trkpt>
      <trkpt lat="48.00393" lon="6.94725">
        <ele>999</ele>
        <time>2022-05-26T11:32:37Z</time>
      </trkpt>
      <trkpt lat="48.00402" lon="6.94728">
        <ele>999.4</ele>
        <time>2022-05-26T11:32:42Z</time>
      </trkpt>
      <trkpt lat="48.00412" lon="6.94731">
        <ele>1001</ele>
        <time>2022-05-26T11:32:48Z</time>
      </trkpt>
      <trkpt lat="48.00422" lon="6.94735">
        <ele>1001.8</ele>
        <time>2022-05-26T11:32:54Z</time>
      </trkpt>
      <trkpt lat="48.00432" lon="6.94738">
        <ele>1003.3</ele>
        <time>2022-05-26T11:33:00Z</time>
      </trkpt>
      <trkpt lat="48.00443" lon="6.94741">
        <ele>1004.1</ele>
        <time>2022-05-26T11:33:06Z</time>
      </trkpt>
      <trkpt lat="48.00452" lon="6.94745">
        <ele>1005.9</ele>
        <time>2022-05-26T11:33:11Z</time>
      </trkpt>
      <trkpt lat="48.00461" lon="6.94751">
        <ele>1007.2</ele>
        <time>2022-05-26T11:33:17Z</time>
      </trkpt>
      <trkpt lat="48.0047" lon="6.94756">
        <ele>1008.4</ele>
        <time>2022-05-26T11:33:23Z</time>
      </trkpt>
      <trkpt lat="48.00479" lon="6.94764">
        <ele>1010.1</ele>
        <time>2022-05-26T11:33:29Z</time>
      </trkpt>
      <trkpt lat="48.00485" lon="6.94774">
        <ele>1011.2</ele>
        <time>2022-05-26T11:33:35Z</time>
      </trkpt>
      <trkpt lat="48.00493" lon="6.94783">
        <ele>1012.3</ele>
        <time>2022-05-26T11:33:41Z</time>
      </trkpt>
      <trkpt lat="48.005" lon="6.94793">
        <ele>1014</ele>
        <time>2022-05-26T11:33:47Z</time>
      </trkpt>
      <trkpt lat="48.00507" lon="6.94802">
        <ele>1015.6</ele>
        <time>2022-05-26T11:33:53Z</time>
      </trkpt>
      <trkpt lat="48.00515" lon="6.94813">
        <ele>1016.4</ele>
        <time>2022-05-26T11:33:59Z</time>
      </trkpt>
      <trkpt lat="48.00522" lon="6.94823">
        <ele>1017.4</ele>
        <time>2022-05-26T11:34:05Z</time>
      </trkpt>
      <trkpt lat="48.00528" lon="6.94833">
        <ele>1018.7</ele>
        <time>2022-05-26T11:34:11Z</time>
      </trkpt>
      <trkpt lat="48.00535" lon="6.94844">
        <ele>1020.1</ele>
        <time>2022-05-26T11:34:17Z</time>
      </trkpt>
      <trkpt lat="48.00542" lon="6.94856">
        <ele>1021.1</ele>
        <time>2022-05-26T11:34:23Z</time>
      </trkpt>
      <trkpt lat="48.00546" lon="6.94868">
        <ele>1022.4</ele>
        <time>2022-05-26T11:34:29Z</time>
      </trkpt>
      <trkpt lat="48.00549" lon="6.94882">
        <ele>1023.6</ele>
        <time>2022-05-26T11:34:35Z</time>
      </trkpt>
      <trkpt lat="48.00555" lon="6.94892">
        <ele>1024.9</ele>
        <time>2022-05-26T11:34:40Z</time>
      </trkpt>
      <trkpt lat="48.00562" lon="6.94903">
        <ele>1026.1</ele>
        <time>2022-05-26T11:34:46Z</time>
      </trkpt>
      <trkpt lat="48.00566" lon="6.94915">
        <ele>1027.2</ele>
        <time>2022-05-26T11:34:52Z</time>
      </trkpt>
      <trkpt lat="48.00573" lon="6.94927">
        <ele>1028.1</ele>
        <time>2022-05-26T11:34:58Z</time>
      </trkpt>
      <trkpt lat="48.00579" lon="6.94938">
        <ele>1029.5</ele>
        <time>2022-05-26T11:35:04Z</time>
      </trkpt>
      <trkpt lat="48.00585" lon="6.94951">
        <ele>1031.3</ele>
        <time>2022-05-26T11:35:11Z</time>
      </trkpt>
      <trkpt lat="48.00592" lon="6.94961">
        <ele>1032</ele>
        <time>2022-05-26T11:35:17Z</time>
      </trkpt>
      <trkpt lat="48.00599" lon="6.94971">
        <ele>1033.2</ele>
        <time>2022-05-26T11:35:23Z</time>
      </trkpt>
      <trkpt lat="48.00604" lon="6.94983">
        <ele>1034.7</ele>
        <time>2022-05-26T11:35:29Z</time>
      </trkpt>
      <trkpt lat="48.0061" lon="6.94994">
        <ele>1035.7</ele>
        <time>2022-05-26T11:35:35Z</time>
      </trkpt>
      <trkpt lat="48.00615" lon="6.95007">
        <ele>1037</ele>
        <time>2022-05-26T11:35:41Z</time>
      </trkpt>
      <trkpt lat="48.00619" lon="6.95019">
        <ele>1038.2</ele>
        <time>2022-05-26T11:35:47Z</time>
      </trkpt>
      <trkpt lat="48.00623" lon="6.95034">
        <ele>1039.5</ele>
        <time>2022-05-26T11:35:53Z</time>
      </trkpt>
      <trkpt lat="48.00628" lon="6.95045">
        <ele>1040.1</ele>
        <time>2022-05-26T11:35:58Z</time>
      </trkpt>
      <trkpt lat="48.00631" lon="6.9506">
        <ele>1041.5</ele>
        <time>2022-05-26T11:36:03Z</time>
      </trkpt>
      <trkpt lat="48.00635" lon="6.95073">
        <ele>1042.4</ele>
        <time>2022-05-26T11:36:08Z</time>
      </trkpt>
      <trkpt lat="48.00638" lon="6.95086">
        <ele>1042.3</ele>
        <time>2022-05-26T11:36:13Z</time>
      </trkpt>
      <trkpt lat="48.00642" lon="6.95099">
        <ele>1043.1</ele>
        <time>2022-05-26T11:36:17Z</time>
      </trkpt>
      <trkpt lat="48.00651" lon="6.95108">
        <ele>1043.5</ele>
        <time>2022-05-26T11:36:22Z</time>
      </trkpt>
      <trkpt lat="48.0066" lon="6.95117">
        <ele>1043.5</ele>
        <time>2022-05-26T11:36:26Z</time>
      </trkpt>
      <trkpt lat="48.00669" lon="6.95125">
        <ele>1043</ele>
        <time>2022-05-26T11:36:29Z</time>
      </trkpt>
      <trkpt lat="48.00677" lon="6.95136">
        <ele>1042.5</ele>
        <time>2022-05-26T11:36:32Z</time>
      </trkpt>
      <trkpt lat="48.00684" lon="6.9515">
        <ele>1042.9</ele>
        <time>2022-05-26T11:36:35Z</time>
      </trkpt>
      <trkpt lat="48.00689" lon="6.95163">
        <ele>1044.4</ele>
        <time>2022-05-26T11:36:38Z</time>
      </trkpt>
      <trkpt lat="48.00694" lon="6.95175">
        <ele>1044.5</ele>
        <time>2022-05-26T11:36:41Z</time>
      </trkpt>
      <trkpt lat="48.00698" lon="6.95191">
        <ele>1045.4</ele>
        <time>2022-05-26T11:36:45Z</time>
      </trkpt>
      <trkpt lat="48.00703" lon="6.95206">
        <ele>1046.8</ele>
        <time>2022-05-26T11:36:49Z</time>
      </trkpt>
      <trkpt lat="48.0071" lon="6.9522">
        <ele>1046.7</ele>
        <time>2022-05-26T11:36:53Z</time>
      </trkpt>
      <trkpt lat="48.00715" lon="6.95236">
        <ele>1047.8</ele>
        <time>2022-05-26T11:36:57Z</time>
      </trkpt>
      <trkpt lat="48.00719" lon="6.95251">
        <ele>1047.9</ele>
        <time>2022-05-26T11:37:01Z</time>
      </trkpt>
      <trkpt lat="48.00719" lon="6.95266">
        <ele>1049.1</ele>
        <time>2022-05-26T11:37:05Z</time>
      </trkpt>
      <trkpt lat="48.00721" lon="6.95281">
        <ele>1050</ele>
        <time>2022-05-26T11:37:09Z</time>
      </trkpt>
      <trkpt lat="48.00721" lon="6.95296">
        <ele>1050.1</ele>
        <time>2022-05-26T11:37:13Z</time>
      </trkpt>
      <trkpt lat="48.00721" lon="6.95312">
        <ele>1050.5</ele>
        <time>2022-05-26T11:37:18Z</time>
      </trkpt>
      <trkpt lat="48.00719" lon="6.95327">
        <ele>1052.5</ele>
        <time>2022-05-26T11:37:23Z</time>
      </trkpt>
      <trkpt lat="48.00716" lon="6.95342">
        <ele>1052.9</ele>
        <time>2022-05-26T11:37:28Z</time>
      </trkpt>
      <trkpt lat="48.00714" lon="6.95356">
        <ele>1054.4</ele>
        <time>2022-05-26T11:37:33Z</time>
      </trkpt>
      <trkpt lat="48.00712" lon="6.95371">
        <ele>1055.6</ele>
        <time>2022-05-26T11:37:38Z</time>
      </trkpt>
      <trkpt lat="48.00707" lon="6.95383">
        <ele>1056.9</ele>
        <time>2022-05-26T11:37:43Z</time>
      </trkpt>
      <trkpt lat="48.00705" lon="6.95399">
        <ele>1057.9</ele>
        <time>2022-05-26T11:37:49Z</time>
      </trkpt>
      <trkpt lat="48.00702" lon="6.95413">
        <ele>1059.6</ele>
        <time>2022-05-26T11:37:54Z</time>
      </trkpt>
      <trkpt lat="48.00697" lon="6.95425">
        <ele>1060.3</ele>
        <time>2022-05-26T11:37:59Z</time>
      </trkpt>
      <trkpt lat="48.00691" lon="6.95436">
        <ele>1060.9</ele>
        <time>2022-05-26T11:38:05Z</time>
      </trkpt>
      <trkpt lat="48.00684" lon="6.95446">
        <ele>1062.2</ele>
        <time>2022-05-26T11:38:11Z</time>
      </trkpt>
      <trkpt lat="48.00677" lon="6.95457">
        <ele>1062.4</ele>
        <time>2022-05-26T11:38:16Z</time>
      </trkpt>
      <trkpt lat="48.0067" lon="6.95467">
        <ele>1063.6</ele>
        <time>2022-05-26T11:38:21Z</time>
      </trkpt>
      <trkpt lat="48.00663" lon="6.95478">
        <ele>1063.1</ele>
        <time>2022-05-26T11:38:26Z</time>
      </trkpt>
      <trkpt lat="48.00656" lon="6.95488">
        <ele>1065.1</ele>
        <time>2022-05-26T11:38:31Z</time>
      </trkpt>
      <trkpt lat="48.00649" lon="6.95498">
        <ele>1065.6</ele>
        <time>2022-05-26T11:38:36Z</time>
      </trkpt>
      <trkpt lat="48.00643" lon="6.95509">
        <ele>1066.6</ele>
        <time>2022-05-26T11:38:41Z</time>
      </trkpt>
      <trkpt lat="48.00637" lon="6.95522">
        <ele>1067.8</ele>
        <time>2022-05-26T11:38:47Z</time>
      </trkpt>
      <trkpt lat="48.00632" lon="6.95536">
        <ele>1068.9</ele>
        <time>2022-05-26T11:38:53Z</time>
      </trkpt>
      <trkpt lat="48.00628" lon="6.95548">
        <ele>1070.1</ele>
        <time>2022-05-26T11:38:58Z</time>
      </trkpt>
      <trkpt lat="48.00621" lon="6.95559">
        <ele>1071</ele>
        <time>2022-05-26T11:39:04Z</time>
      </trkpt>
      <trkpt lat="48.00615" lon="6.95571">
        <ele>1071.9</ele>
        <time>2022-05-26T11:39:10Z</time>
      </trkpt>
      <trkpt lat="48.00608" lon="6.95581">
        <ele>1073.5</ele>
        <time>2022-05-26T11:39:16Z</time>
      </trkpt>
      <trkpt lat="48.00602" lon="6.95591">
        <ele>1075.1</ele>
        <time>2022-05-26T11:39:22Z</time>
      </trkpt>
      <trkpt lat="48.00595" lon="6.95603">
        <ele>1076.1</ele>
        <time>2022-05-26T11:39:27Z</time>
      </trkpt>
      <trkpt lat="48.00587" lon="6.95612">
        <ele>1077.1</ele>
        <time>2022-05-26T11:39:33Z</time>
      </trkpt>
      <trkpt lat="48.00579" lon="6.9562">
        <ele>1077.8</ele>
        <time>2022-05-26T11:39:40Z</time>
      </trkpt>
      <trkpt lat="48.00571" lon="6.95628">
        <ele>1079.6</ele>
        <time>2022-05-26T11:39:45Z</time>
      </trkpt>
      <trkpt lat="48.00563" lon="6.95638">
        <ele>1080.3</ele>
        <time>2022-05-26T11:39:51Z</time>
      </trkpt>
      <trkpt lat="48.00555" lon="6.95647">
        <ele>1081.4</ele>
        <time>2022-05-26T11:39:56Z</time>
      </trkpt>
      <trkpt lat="48.00548" lon="6.95657">
        <ele>1082.9</ele>
        <time>2022-05-26T11:40:02Z</time>
      </trkpt>
      <trkpt lat="48.00542" lon="6.95668">
        <ele>1083.3</ele>
        <time>2022-05-26T11:40:08Z</time>
      </trkpt>
      <trkpt lat="48.00535" lon="6.95681">
        <ele>1084.9</ele>
        <time>2022-05-26T11:40:14Z</time>
      </trkpt>
      <trkpt lat="48.00529" lon="6.95692">
        <ele>1085.7</ele>
        <time>2022-05-26T11:40:20Z</time>
      </trkpt>
      <trkpt lat="48.00522" lon="6.957">
        <ele>1087.1</ele>
        <time>2022-05-26T11:40:26Z</time>
      </trkpt>
      <trkpt lat="48.00513" lon="6.95707">
        <ele>1088.6</ele>
        <time>2022-05-26T11:40:32Z</time>
      </trkpt>
      <trkpt lat="48.00503" lon="6.95713">
        <ele>1089.9</ele>
        <time>2022-05-26T11:40:38Z</time>
      </trkpt>
      <trkpt lat="48.00495" lon="6.95718">
        <ele>1091.4</ele>
        <time>2022-05-26T11:40:43Z</time>
      </trkpt>
      <trkpt lat="48.00485" lon="6.95723">
        <ele>1092.4</ele>
        <time>2022-05-26T11:40:48Z</time>
      </trkpt>
      <trkpt lat="48.00476" lon="6.95729">
        <ele>1092.5</ele>
        <time>2022-05-26T11:40:53Z</time>
      </trkpt>
      <trkpt lat="48.00467" lon="6.95733">
        <ele>1093.2</ele>
        <time>2022-05-26T11:40:57Z</time>
      </trkpt>
      <trkpt lat="48.00458" lon="6.9574">
        <ele>1094.4</ele>
        <time>2022-05-26T11:41:01Z</time>
      </trkpt>
      <trkpt lat="48.00448" lon="6.95745">
        <ele>1093.7</ele>
        <time>2022-05-26T11:41:05Z</time>
      </trkpt>
      <trkpt lat="48.00439" lon="6.9575">
        <ele>1093.5</ele>
        <time>2022-05-26T11:41:09Z</time>
      </trkpt>
      <trkpt lat="48.0043" lon="6.95754">
        <ele>1094.2</ele>
        <time>2022-05-26T11:41:13Z</time>
      </trkpt>
      <trkpt lat="48.00422" lon="6.95759">
        <ele>1094.4</ele>
        <time>2022-05-26T11:41:19Z</time>
      </trkpt>
      <trkpt lat="48.0042" lon="6.95762">
        <ele>1094.2</ele>
        <time>2022-05-26T11:41:24Z</time>
      </trkpt>
      <trkpt lat="48.00419" lon="6.95761">
        <ele>1094.5</ele>
        <time>2022-05-26T11:41:47Z</time>
      </trkpt>
      <trkpt lat="48.00419" lon="6.9576">
        <ele>1094.2</ele>
        <time>2022-05-26T11:41:50Z</time>
      </trkpt>
      <trkpt lat="48.00419" lon="6.95761">
        <ele>1094.2</ele>
        <time>2022-05-26T11:42:49Z</time>
      </trkpt>
      <trkpt lat="48.00418" lon="6.95761">
        <ele>1094</ele>
        <time>2022-05-26T11:44:21Z</time>
      </trkpt>
      <trkpt lat="48.00418" lon="6.95762">
        <ele>1094</ele>
        <time>2022-05-26T11:44:52Z</time>
      </trkpt>
      <trkpt lat="48.00418" lon="6.95763">
        <ele>1093.8</ele>
        <time>2022-05-26T11:45:37Z</time>
      </trkpt>
      <trkpt lat="48.00408" lon="6.95769">
        <ele>1094.1</ele>
        <time>2022-05-26T11:45:56Z</time>
      </trkpt>
      <trkpt lat="48.00399" lon="6.95775">
        <ele>1093.8</ele>
        <time>2022-05-26T11:46:00Z</time>
      </trkpt>
      <trkpt lat="48.00388" lon="6.95781">
        <ele>1093.9</ele>
        <time>2022-05-26T11:46:04Z</time>
      </trkpt>
      <trkpt lat="48.00378" lon="6.95785">
        <ele>1093.8</ele>
        <time>2022-05-26T11:46:08Z</time>
      </trkpt>
      <trkpt lat="48.00369" lon="6.95789">
        <ele>1093.4</ele>
        <time>2022-05-26T11:46:12Z</time>
      </trkpt>
      <trkpt lat="48.00359" lon="6.95798">
        <ele>1094.1</ele>
        <time>2022-05-26T11:46:16Z</time>
      </trkpt>
      <trkpt lat="48.00351" lon="6.95807">
        <ele>1093.3</ele>
        <time>2022-05-26T11:46:19Z</time>
      </trkpt>
      <trkpt lat="48.00344" lon="6.95819">
        <ele>1093</ele>
        <time>2022-05-26T11:46:22Z</time>
      </trkpt>
      <trkpt lat="48.00338" lon="6.95833">
        <ele>1093.4</ele>
        <time>2022-05-26T11:46:25Z</time>
      </trkpt>
      <trkpt lat="48.00332" lon="6.95848">
        <ele>1092.7</ele>
        <time>2022-05-26T11:46:28Z</time>
      </trkpt>
      <trkpt lat="48.00325" lon="6.95864">
        <ele>1093.4</ele>
        <time>2022-05-26T11:46:31Z</time>
      </trkpt>
      <trkpt lat="48.0032" lon="6.95876">
        <ele>1092.4</ele>
        <time>2022-05-26T11:46:33Z</time>
      </trkpt>
      <trkpt lat="48.00315" lon="6.95888">
        <ele>1090.9</ele>
        <time>2022-05-26T11:46:35Z</time>
      </trkpt>
      <trkpt lat="48.0031" lon="6.959">
        <ele>1091</ele>
        <time>2022-05-26T11:46:37Z</time>
      </trkpt>
      <trkpt lat="48.00305" lon="6.95914">
        <ele>1090.9</ele>
        <time>2022-05-26T11:46:39Z</time>
      </trkpt>
      <trkpt lat="48.003" lon="6.95929">
        <ele>1090.6</ele>
        <time>2022-05-26T11:46:41Z</time>
      </trkpt>
      <trkpt lat="48.00295" lon="6.95945">
        <ele>1088.1</ele>
        <time>2022-05-26T11:46:43Z</time>
      </trkpt>
      <trkpt lat="48.00291" lon="6.95959">
        <ele>1088.9</ele>
        <time>2022-05-26T11:46:45Z</time>
      </trkpt>
      <trkpt lat="48.00285" lon="6.95978">
        <ele>1087.7</ele>
        <time>2022-05-26T11:46:48Z</time>
      </trkpt>
      <trkpt lat="48.00282" lon="6.95994">
        <ele>1084.3</ele>
        <time>2022-05-26T11:46:50Z</time>
      </trkpt>
      <trkpt lat="48.00277" lon="6.96011">
        <ele>1086.8</ele>
        <time>2022-05-26T11:46:52Z</time>
      </trkpt>
      <trkpt lat="48.00272" lon="6.9603">
        <ele>1085.7</ele>
        <time>2022-05-26T11:46:54Z</time>
      </trkpt>
      <trkpt lat="48.00269" lon="6.96048">
        <ele>1083.6</ele>
        <time>2022-05-26T11:46:56Z</time>
      </trkpt>
      <trkpt lat="48.00265" lon="6.96062">
        <ele>1080.4</ele>
        <time>2022-05-26T11:46:58Z</time>
      </trkpt>
      <trkpt lat="48.00262" lon="6.9608">
        <ele>1081.8</ele>
        <time>2022-05-26T11:47:01Z</time>
      </trkpt>
      <trkpt lat="48.0026" lon="6.96098">
        <ele>1079</ele>
        <time>2022-05-26T11:47:03Z</time>
      </trkpt>
      <trkpt lat="48.00258" lon="6.96116">
        <ele>1076.4</ele>
        <time>2022-05-26T11:47:05Z</time>
      </trkpt>
      <trkpt lat="48.00256" lon="6.96133">
        <ele>1072.4</ele>
        <time>2022-05-26T11:47:07Z</time>
      </trkpt>
      <trkpt lat="48.00253" lon="6.96149">
        <ele>1071.9</ele>
        <time>2022-05-26T11:47:09Z</time>
      </trkpt>
      <trkpt lat="48.00251" lon="6.96164">
        <ele>1070</ele>
        <time>2022-05-26T11:47:11Z</time>
      </trkpt>
      <trkpt lat="48.00247" lon="6.96179">
        <ele>1070.8</ele>
        <time>2022-05-26T11:47:13Z</time>
      </trkpt>
      <trkpt lat="48.00245" lon="6.96194">
        <ele>1068</ele>
        <time>2022-05-26T11:47:15Z</time>
      </trkpt>
      <trkpt lat="48.00244" lon="6.9621">
        <ele>1069</ele>
        <time>2022-05-26T11:47:17Z</time>
      </trkpt>
      <trkpt lat="48.00244" lon="6.96227">
        <ele>1065.3</ele>
        <time>2022-05-26T11:47:19Z</time>
      </trkpt>
      <trkpt lat="48.00243" lon="6.9624">
        <ele>1063.4</ele>
        <time>2022-05-26T11:47:21Z</time>
      </trkpt>
      <trkpt lat="48.00242" lon="6.96255">
        <ele>1064.5</ele>
        <time>2022-05-26T11:47:23Z</time>
      </trkpt>
      <trkpt lat="48.0024" lon="6.96272">
        <ele>1061.5</ele>
        <time>2022-05-26T11:47:25Z</time>
      </trkpt>
      <trkpt lat="48.0024" lon="6.96289">
        <ele>1058.9</ele>
        <time>2022-05-26T11:47:27Z</time>
      </trkpt>
      <trkpt lat="48.00243" lon="6.96305">
        <ele>1054.8</ele>
        <time>2022-05-26T11:47:29Z</time>
      </trkpt>
      <trkpt lat="48.00246" lon="6.96319">
        <ele>1055.9</ele>
        <time>2022-05-26T11:47:31Z</time>
      </trkpt>
      <trkpt lat="48.00251" lon="6.96332">
        <ele>1052.4</ele>
        <time>2022-05-26T11:47:33Z</time>
      </trkpt>
      <trkpt lat="48.00257" lon="6.96348">
        <ele>1052.6</ele>
        <time>2022-05-26T11:47:35Z</time>
      </trkpt>
      <trkpt lat="48.00261" lon="6.96366">
        <ele>1048.5</ele>
        <time>2022-05-26T11:47:37Z</time>
      </trkpt>
      <trkpt lat="48.00267" lon="6.96384">
        <ele>1046.2</ele>
        <time>2022-05-26T11:47:39Z</time>
      </trkpt>
      <trkpt lat="48.0027" lon="6.96402">
        <ele>1048</ele>
        <time>2022-05-26T11:47:41Z</time>
      </trkpt>
      <trkpt lat="48.00274" lon="6.96419">
        <ele>1046.1</ele>
        <time>2022-05-26T11:47:43Z</time>
      </trkpt>
      <trkpt lat="48.00278" lon="6.96437">
        <ele>1042.4</ele>
        <time>2022-05-26T11:47:45Z</time>
      </trkpt>
      <trkpt lat="48.00282" lon="6.9645">
        <ele>1043.1</ele>
        <time>2022-05-26T11:47:47Z</time>
      </trkpt>
      <trkpt lat="48.0029" lon="6.96467">
        <ele>1041.5</ele>
        <time>2022-05-26T11:47:50Z</time>
      </trkpt>
      <trkpt lat="48.00295" lon="6.9648">
        <ele>1035.3</ele>
        <time>2022-05-26T11:47:52Z</time>
      </trkpt>
      <trkpt lat="48.00303" lon="6.96496">
        <ele>1036.3</ele>
        <time>2022-05-26T11:47:55Z</time>
      </trkpt>
      <trkpt lat="48.0031" lon="6.96508">
        <ele>1036.5</ele>
        <time>2022-05-26T11:47:57Z</time>
      </trkpt>
      <trkpt lat="48.0032" lon="6.96519">
        <ele>1033.3</ele>
        <time>2022-05-26T11:48:00Z</time>
      </trkpt>
      <trkpt lat="48.00329" lon="6.96527">
        <ele>1031</ele>
        <time>2022-05-26T11:48:02Z</time>
      </trkpt>
      <trkpt lat="48.00337" lon="6.96534">
        <ele>1030.4</ele>
        <time>2022-05-26T11:48:04Z</time>
      </trkpt>
      <trkpt lat="48.00346" lon="6.96545">
        <ele>1029.2</ele>
        <time>2022-05-26T11:48:06Z</time>
      </trkpt>
      <trkpt lat="48.00355" lon="6.96557">
        <ele>1027.6</ele>
        <time>2022-05-26T11:48:08Z</time>
      </trkpt>
      <trkpt lat="48.00365" lon="6.96568">
        <ele>1025.8</ele>
        <time>2022-05-26T11:48:10Z</time>
      </trkpt>
      <trkpt lat="48.00375" lon="6.96582">
        <ele>1023</ele>
        <time>2022-05-26T11:48:12Z</time>
      </trkpt>
      <trkpt lat="48.00384" lon="6.96596">
        <ele>1022.6</ele>
        <time>2022-05-26T11:48:14Z</time>
      </trkpt>
      <trkpt lat="48.00393" lon="6.96609">
        <ele>1016.5</ele>
        <time>2022-05-26T11:48:16Z</time>
      </trkpt>
      <trkpt lat="48.00402" lon="6.9662">
        <ele>1018.7</ele>
        <time>2022-05-26T11:48:18Z</time>
      </trkpt>
      <trkpt lat="48.0041" lon="6.96631">
        <ele>1017.9</ele>
        <time>2022-05-26T11:48:20Z</time>
      </trkpt>
      <trkpt lat="48.00421" lon="6.96639">
        <ele>1013.5</ele>
        <time>2022-05-26T11:48:23Z</time>
      </trkpt>
      <trkpt lat="48.00432" lon="6.96645">
        <ele>1011.2</ele>
        <time>2022-05-26T11:48:26Z</time>
      </trkpt>
      <trkpt lat="48.00441" lon="6.96648">
        <ele>1009.5</ele>
        <time>2022-05-26T11:48:28Z</time>
      </trkpt>
      <trkpt lat="48.00451" lon="6.96646">
        <ele>1006.2</ele>
        <time>2022-05-26T11:48:30Z</time>
      </trkpt>
      <trkpt lat="48.0046" lon="6.96643">
        <ele>1003.3</ele>
        <time>2022-05-26T11:48:32Z</time>
      </trkpt>
      <trkpt lat="48.00472" lon="6.9664">
        <ele>1003.4</ele>
        <time>2022-05-26T11:48:34Z</time>
      </trkpt>
      <trkpt lat="48.00486" lon="6.96639">
        <ele>1000.6</ele>
        <time>2022-05-26T11:48:36Z</time>
      </trkpt>
      <trkpt lat="48.00497" lon="6.96637">
        <ele>997.4</ele>
        <time>2022-05-26T11:48:37Z</time>
      </trkpt>
      <trkpt lat="48.00506" lon="6.96633">
        <ele>996.8</ele>
        <time>2022-05-26T11:48:38Z</time>
      </trkpt>
      <trkpt lat="48.00516" lon="6.96629">
        <ele>997.3</ele>
        <time>2022-05-26T11:48:39Z</time>
      </trkpt>
      <trkpt lat="48.00532" lon="6.9662">
        <ele>999</ele>
        <time>2022-05-26T11:48:41Z</time>
      </trkpt>
      <trkpt lat="48.0054" lon="6.96616">
        <ele>999.3</ele>
        <time>2022-05-26T11:48:43Z</time>
      </trkpt>
      <trkpt lat="48.00548" lon="6.96608">
        <ele>998.4</ele>
        <time>2022-05-26T11:48:47Z</time>
      </trkpt>
      <trkpt lat="48.0054" lon="6.96613">
        <ele>998.6</ele>
        <time>2022-05-26T11:48:53Z</time>
      </trkpt>
      <trkpt lat="48.00531" lon="6.96618">
        <ele>998.6</ele>
        <time>2022-05-26T11:49:11Z</time>
      </trkpt>
      <trkpt lat="48.00521" lon="6.96621">
        <ele>998.7</ele>
        <time>2022-05-26T11:49:17Z</time>
      </trkpt>
      <trkpt lat="48.00512" lon="6.96627">
        <ele>999.7</ele>
        <time>2022-05-26T11:49:21Z</time>
      </trkpt>
      <trkpt lat="48.00503" lon="6.96631">
        <ele>1000.4</ele>
        <time>2022-05-26T11:49:25Z</time>
      </trkpt>
      <trkpt lat="48.00493" lon="6.96632">
        <ele>1002.5</ele>
        <time>2022-05-26T11:49:30Z</time>
      </trkpt>
      <trkpt lat="48.00484" lon="6.96635">
        <ele>1003.4</ele>
        <time>2022-05-26T11:49:36Z</time>
      </trkpt>
      <trkpt lat="48.00474" lon="6.96635">
        <ele>1005.8</ele>
        <time>2022-05-26T11:49:43Z</time>
      </trkpt>
      <trkpt lat="48.00464" lon="6.96638">
        <ele>1007</ele>
        <time>2022-05-26T11:49:50Z</time>
      </trkpt>
      <trkpt lat="48.00454" lon="6.96639">
        <ele>1008.8</ele>
        <time>2022-05-26T11:49:57Z</time>
      </trkpt>
      <trkpt lat="48.00444" lon="6.96638">
        <ele>1009.8</ele>
        <time>2022-05-26T11:50:04Z</time>
      </trkpt>
      <trkpt lat="48.00435" lon="6.96631">
        <ele>1011.7</ele>
        <time>2022-05-26T11:50:10Z</time>
      </trkpt>
      <trkpt lat="48.00426" lon="6.96627">
        <ele>1013.5</ele>
        <time>2022-05-26T11:50:17Z</time>
      </trkpt>
      <trkpt lat="48.00417" lon="6.96624">
        <ele>1015</ele>
        <time>2022-05-26T11:50:24Z</time>
      </trkpt>
      <trkpt lat="48.00409" lon="6.96618">
        <ele>1015.7</ele>
        <time>2022-05-26T11:50:31Z</time>
      </trkpt>
      <trkpt lat="48.00401" lon="6.96611">
        <ele>1017.6</ele>
        <time>2022-05-26T11:50:38Z</time>
      </trkpt>
      <trkpt lat="48.00396" lon="6.96599">
        <ele>1018.8</ele>
        <time>2022-05-26T11:50:45Z</time>
      </trkpt>
      <trkpt lat="48.00388" lon="6.96591">
        <ele>1020.9</ele>
        <time>2022-05-26T11:50:53Z</time>
      </trkpt>
      <trkpt lat="48.00379" lon="6.96596">
        <ele>1022.7</ele>
        <time>2022-05-26T11:51:01Z</time>
      </trkpt>
      <trkpt lat="48.0038" lon="6.9661">
        <ele>1024.1</ele>
        <time>2022-05-26T11:51:08Z</time>
      </trkpt>
      <trkpt lat="48.00381" lon="6.96625">
        <ele>1025</ele>
        <time>2022-05-26T11:51:16Z</time>
      </trkpt>
      <trkpt lat="48.00381" lon="6.9664">
        <ele>1026</ele>
        <time>2022-05-26T11:51:23Z</time>
      </trkpt>
      <trkpt lat="48.00379" lon="6.96655">
        <ele>1027</ele>
        <time>2022-05-26T11:51:29Z</time>
      </trkpt>
      <trkpt lat="48.00379" lon="6.96669">
        <ele>1027.3</ele>
        <time>2022-05-26T11:51:34Z</time>
      </trkpt>
      <trkpt lat="48.00377" lon="6.96683">
        <ele>1028</ele>
        <time>2022-05-26T11:51:39Z</time>
      </trkpt>
      <trkpt lat="48.00376" lon="6.96699">
        <ele>1028.1</ele>
        <time>2022-05-26T11:51:44Z</time>
      </trkpt>
      <trkpt lat="48.00381" lon="6.96711">
        <ele>1029.7</ele>
        <time>2022-05-26T11:51:50Z</time>
      </trkpt>
      <trkpt lat="48.00387" lon="6.96722">
        <ele>1030.9</ele>
        <time>2022-05-26T11:51:55Z</time>
      </trkpt>
      <trkpt lat="48.00395" lon="6.96729">
        <ele>1032</ele>
        <time>2022-05-26T11:52:02Z</time>
      </trkpt>
      <trkpt lat="48.00401" lon="6.96739">
        <ele>1032.2</ele>
        <time>2022-05-26T11:52:08Z</time>
      </trkpt>
      <trkpt lat="48.00408" lon="6.96749">
        <ele>1033</ele>
        <time>2022-05-26T11:52:14Z</time>
      </trkpt>
      <trkpt lat="48.00413" lon="6.96761">
        <ele>1033.6</ele>
        <time>2022-05-26T11:52:20Z</time>
      </trkpt>
      <trkpt lat="48.0042" lon="6.96773">
        <ele>1034.5</ele>
        <time>2022-05-26T11:52:26Z</time>
      </trkpt>
      <trkpt lat="48.00431" lon="6.96773">
        <ele>1036.3</ele>
        <time>2022-05-26T11:52:32Z</time>
      </trkpt>
      <trkpt lat="48.0044" lon="6.96767">
        <ele>1037.1</ele>
        <time>2022-05-26T11:52:40Z</time>
      </trkpt>
      <trkpt lat="48.00449" lon="6.96768">
        <ele>1038.3</ele>
        <time>2022-05-26T11:52:46Z</time>
      </trkpt>
      <trkpt lat="48.00459" lon="6.96768">
        <ele>1039</ele>
        <time>2022-05-26T11:53:00Z</time>
      </trkpt>
      <trkpt lat="48.00468" lon="6.96767">
        <ele>1040.1</ele>
        <time>2022-05-26T11:53:11Z</time>
      </trkpt>
      <trkpt lat="48.00478" lon="6.96769">
        <ele>1040.8</ele>
        <time>2022-05-26T11:53:20Z</time>
      </trkpt>
      <trkpt lat="48.00487" lon="6.96769">
        <ele>1042.4</ele>
        <time>2022-05-26T11:53:30Z</time>
      </trkpt>
      <trkpt lat="48.00496" lon="6.96767">
        <ele>1044</ele>
        <time>2022-05-26T11:53:41Z</time>
      </trkpt>
      <trkpt lat="48.00505" lon="6.96763">
        <ele>1044.1</ele>
        <time>2022-05-26T11:53:50Z</time>
      </trkpt>
      <trkpt lat="48.00513" lon="6.96757">
        <ele>1046.1</ele>
        <time>2022-05-26T11:53:59Z</time>
      </trkpt>
      <trkpt lat="48.0052" lon="6.96747">
        <ele>1046.2</ele>
        <time>2022-05-26T11:54:10Z</time>
      </trkpt>
      <trkpt lat="48.00529" lon="6.96746">
        <ele>1047</ele>
        <time>2022-05-26T11:54:29Z</time>
      </trkpt>
      <trkpt lat="48.00538" lon="6.96741">
        <ele>1047.9</ele>
        <time>2022-05-26T11:54:43Z</time>
      </trkpt>
      <trkpt lat="48.00544" lon="6.96731">
        <ele>1049.7</ele>
        <time>2022-05-26T11:54:55Z</time>
      </trkpt>
      <trkpt lat="48.00552" lon="6.96723">
        <ele>1050.5</ele>
        <time>2022-05-26T11:55:09Z</time>
      </trkpt>
      <trkpt lat="48.00561" lon="6.96725">
        <ele>1051.7</ele>
        <time>2022-05-26T11:55:22Z</time>
      </trkpt>
      <trkpt lat="48.00569" lon="6.96718">
        <ele>1051.9</ele>
        <time>2022-05-26T11:55:34Z</time>
      </trkpt>
      <trkpt lat="48.00576" lon="6.96709">
        <ele>1052.7</ele>
        <time>2022-05-26T11:55:45Z</time>
      </trkpt>
      <trkpt lat="48.00585" lon="6.96705">
        <ele>1053.5</ele>
        <time>2022-05-26T11:55:55Z</time>
      </trkpt>
      <trkpt lat="48.00595" lon="6.96706">
        <ele>1055.2</ele>
        <time>2022-05-26T11:56:03Z</time>
      </trkpt>
      <trkpt lat="48.00603" lon="6.96702">
        <ele>1056.2</ele>
        <time>2022-05-26T11:56:12Z</time>
      </trkpt>
      <trkpt lat="48.00613" lon="6.96702">
        <ele>1057.2</ele>
        <time>2022-05-26T11:56:22Z</time>
      </trkpt>
      <trkpt lat="48.00622" lon="6.96702">
        <ele>1058.1</ele>
        <time>2022-05-26T11:56:31Z</time>
      </trkpt>
      <trkpt lat="48.00631" lon="6.96699">
        <ele>1059.2</ele>
        <time>2022-05-26T11:56:40Z</time>
      </trkpt>
      <trkpt lat="48.0064" lon="6.96698">
        <ele>1059.8</ele>
        <time>2022-05-26T11:56:50Z</time>
      </trkpt>
      <trkpt lat="48.00644" lon="6.96699">
        <ele>1060.4</ele>
        <time>2022-05-26T11:56:57Z</time>
      </trkpt>
      <trkpt lat="48.00644" lon="6.96698">
        <ele>1060.5</ele>
        <time>2022-05-26T11:56:58Z</time>
      </trkpt>
      <trkpt lat="48.00653" lon="6.96695">
        <ele>1062</ele>
        <time>2022-05-26T11:57:06Z</time>
      </trkpt>
      <trkpt lat="48.00663" lon="6.96693">
        <ele>1063.6</ele>
        <time>2022-05-26T11:57:14Z</time>
      </trkpt>
      <trkpt lat="48.00673" lon="6.9669">
        <ele>1064.3</ele>
        <time>2022-05-26T11:57:19Z</time>
      </trkpt>
      <trkpt lat="48.00682" lon="6.96685">
        <ele>1065.8</ele>
        <time>2022-05-26T11:57:25Z</time>
      </trkpt>
      <trkpt lat="48.00691" lon="6.96681">
        <ele>1066.6</ele>
        <time>2022-05-26T11:57:32Z</time>
      </trkpt>
      <trkpt lat="48.00701" lon="6.96685">
        <ele>1067.9</ele>
        <time>2022-05-26T11:57:38Z</time>
      </trkpt>
      <trkpt lat="48.00711" lon="6.96686">
        <ele>1069.1</ele>
        <time>2022-05-26T11:57:45Z</time>
      </trkpt>
      <trkpt lat="48.00721" lon="6.96686">
        <ele>1070.6</ele>
        <time>2022-05-26T11:57:52Z</time>
      </trkpt>
      <trkpt lat="48.00731" lon="6.96689">
        <ele>1070.9</ele>
        <time>2022-05-26T11:57:59Z</time>
      </trkpt>
      <trkpt lat="48.00739" lon="6.96693">
        <ele>1072.5</ele>
        <time>2022-05-26T11:58:06Z</time>
      </trkpt>
      <trkpt lat="48.00748" lon="6.967">
        <ele>1073.3</ele>
        <time>2022-05-26T11:58:13Z</time>
      </trkpt>
      <trkpt lat="48.00758" lon="6.96708">
        <ele>1074.6</ele>
        <time>2022-05-26T11:58:19Z</time>
      </trkpt>
      <trkpt lat="48.00766" lon="6.96716">
        <ele>1075.9</ele>
        <time>2022-05-26T11:58:24Z</time>
      </trkpt>
      <trkpt lat="48.00772" lon="6.96726">
        <ele>1076.9</ele>
        <time>2022-05-26T11:58:30Z</time>
      </trkpt>
      <trkpt lat="48.0078" lon="6.96734">
        <ele>1077.7</ele>
        <time>2022-05-26T11:58:35Z</time>
      </trkpt>
      <trkpt lat="48.00785" lon="6.96746">
        <ele>1079.8</ele>
        <time>2022-05-26T11:58:43Z</time>
      </trkpt>
      <trkpt lat="48.0079" lon="6.96759">
        <ele>1080.9</ele>
        <time>2022-05-26T11:58:50Z</time>
      </trkpt>
      <trkpt lat="48.00797" lon="6.96768">
        <ele>1081.6</ele>
        <time>2022-05-26T11:58:58Z</time>
      </trkpt>
      <trkpt lat="48.00799" lon="6.96769">
        <ele>1081.6</ele>
        <time>2022-05-26T11:59:03Z</time>
      </trkpt>
      <trkpt lat="48.00799" lon="6.9677">
        <ele>1081.8</ele>
        <time>2022-05-26T11:59:05Z</time>
      </trkpt>
      <trkpt lat="48.00805" lon="6.96781">
        <ele>1082.4</ele>
        <time>2022-05-26T11:59:14Z</time>
      </trkpt>
      <trkpt lat="48.00809" lon="6.96788">
        <ele>1083.6</ele>
        <time>2022-05-26T11:59:27Z</time>
      </trkpt>
      <trkpt lat="48.00815" lon="6.96801">
        <ele>1084.8</ele>
        <time>2022-05-26T11:59:36Z</time>
      </trkpt>
      <trkpt lat="48.0082" lon="6.96813">
        <ele>1085.9</ele>
        <time>2022-05-26T11:59:42Z</time>
      </trkpt>
      <trkpt lat="48.00825" lon="6.96824">
        <ele>1087</ele>
        <time>2022-05-26T11:59:48Z</time>
      </trkpt>
      <trkpt lat="48.00832" lon="6.96834">
        <ele>1088.1</ele>
        <time>2022-05-26T11:59:56Z</time>
      </trkpt>
      <trkpt lat="48.00836" lon="6.96846">
        <ele>1089.6</ele>
        <time>2022-05-26T12:00:06Z</time>
      </trkpt>
      <trkpt lat="48.00842" lon="6.96858">
        <ele>1090.4</ele>
        <time>2022-05-26T12:00:12Z</time>
      </trkpt>
      <trkpt lat="48.00848" lon="6.96868">
        <ele>1091.2</ele>
        <time>2022-05-26T12:00:17Z</time>
      </trkpt>
      <trkpt lat="48.00856" lon="6.96879">
        <ele>1092.2</ele>
        <time>2022-05-26T12:00:22Z</time>
      </trkpt>
      <trkpt lat="48.00863" lon="6.9689">
        <ele>1093.6</ele>
        <time>2022-05-26T12:00:28Z</time>
      </trkpt>
      <trkpt lat="48.00871" lon="6.96896">
        <ele>1094.5</ele>
        <time>2022-05-26T12:00:33Z</time>
      </trkpt>
      <trkpt lat="48.0088" lon="6.96902">
        <ele>1095.7</ele>
        <time>2022-05-26T12:00:38Z</time>
      </trkpt>
      <trkpt lat="48.00889" lon="6.96906">
        <ele>1096.9</ele>
        <time>2022-05-26T12:00:48Z</time>
      </trkpt>
      <trkpt lat="48.00899" lon="6.96909">
        <ele>1099.4</ele>
        <time>2022-05-26T12:00:54Z</time>
      </trkpt>
      <trkpt lat="48.00901" lon="6.96918">
        <ele>1100.6</ele>
        <time>2022-05-26T12:01:18Z</time>
      </trkpt>
      <trkpt lat="48.009" lon="6.96918">
        <ele>1100.6</ele>
        <time>2022-05-26T12:01:19Z</time>
      </trkpt>
      <trkpt lat="48.009" lon="6.96919">
        <ele>1100.8</ele>
        <time>2022-05-26T12:01:58Z</time>
      </trkpt>
      <trkpt lat="48.00899" lon="6.96919">
        <ele>1100.8</ele>
        <time>2022-05-26T12:02:12Z</time>
      </trkpt>
      <trkpt lat="48.009" lon="6.9692">
        <ele>1100.6</ele>
        <time>2022-05-26T12:02:31Z</time>
      </trkpt>
      <trkpt lat="48.009" lon="6.96921">
        <ele>1100.7</ele>
        <time>2022-05-26T12:02:40Z</time>
      </trkpt>
      <trkpt lat="48.009" lon="6.96922">
        <ele>1101.1</ele>
        <time>2022-05-26T12:03:25Z</time>
      </trkpt>
      <trkpt lat="48.00901" lon="6.96922">
        <ele>1100.9</ele>
        <time>2022-05-26T12:03:29Z</time>
      </trkpt>
      <trkpt lat="48.00902" lon="6.96921">
        <ele>1100.9</ele>
        <time>2022-05-26T12:03:33Z</time>
      </trkpt>
      <trkpt lat="48.00902" lon="6.96922">
        <ele>1100.7</ele>
        <time>2022-05-26T12:03:34Z</time>
      </trkpt>
      <trkpt lat="48.00911" lon="6.96917">
        <ele>1099.6</ele>
        <time>2022-05-26T12:03:40Z</time>
      </trkpt>
      <trkpt lat="48.00918" lon="6.96914">
        <ele>1099.6</ele>
        <time>2022-05-26T12:03:50Z</time>
      </trkpt>
      <trkpt lat="48.00924" lon="6.96917">
        <ele>1100</ele>
        <time>2022-05-26T12:03:58Z</time>
      </trkpt>
      <trkpt lat="48.00932" lon="6.96925">
        <ele>1101.4</ele>
        <time>2022-05-26T12:04:09Z</time>
      </trkpt>
      <trkpt lat="48.00941" lon="6.9693">
        <ele>1102.4</ele>
        <time>2022-05-26T12:04:16Z</time>
      </trkpt>
      <trkpt lat="48.00952" lon="6.96932">
        <ele>1102.9</ele>
        <time>2022-05-26T12:04:21Z</time>
      </trkpt>
      <trkpt lat="48.00961" lon="6.96931">
        <ele>1103.2</ele>
        <time>2022-05-26T12:04:31Z</time>
      </trkpt>
      <trkpt lat="48.0097" lon="6.96932">
        <ele>1105</ele>
        <time>2022-05-26T12:04:43Z</time>
      </trkpt>
      <trkpt lat="48.00979" lon="6.96932">
        <ele>1105.8</ele>
        <time>2022-05-26T12:04:53Z</time>
      </trkpt>
      <trkpt lat="48.00989" lon="6.96929">
        <ele>1107.5</ele>
        <time>2022-05-26T12:05:04Z</time>
      </trkpt>
      <trkpt lat="48.00997" lon="6.96935">
        <ele>1107.7</ele>
        <time>2022-05-26T12:05:10Z</time>
      </trkpt>
      <trkpt lat="48.01007" lon="6.96936">
        <ele>1109.2</ele>
        <time>2022-05-26T12:05:20Z</time>
      </trkpt>
      <trkpt lat="48.01016" lon="6.96937">
        <ele>1110.3</ele>
        <time>2022-05-26T12:05:33Z</time>
      </trkpt>
      <trkpt lat="48.01026" lon="6.96937">
        <ele>1110.9</ele>
        <time>2022-05-26T12:05:39Z</time>
      </trkpt>
      <trkpt lat="48.01036" lon="6.96938">
        <ele>1111.9</ele>
        <time>2022-05-26T12:05:43Z</time>
      </trkpt>
      <trkpt lat="48.01047" lon="6.9694">
        <ele>1113</ele>
        <time>2022-05-26T12:05:48Z</time>
      </trkpt>
      <trkpt lat="48.01056" lon="6.96939">
        <ele>1113.3</ele>
        <time>2022-05-26T12:05:53Z</time>
      </trkpt>
      <trkpt lat="48.01066" lon="6.96937">
        <ele>1114.6</ele>
        <time>2022-05-26T12:05:58Z</time>
      </trkpt>
      <trkpt lat="48.01075" lon="6.96936">
        <ele>1114.7</ele>
        <time>2022-05-26T12:06:03Z</time>
      </trkpt>
      <trkpt lat="48.01085" lon="6.96931">
        <ele>1115.3</ele>
        <time>2022-05-26T12:06:08Z</time>
      </trkpt>
      <trkpt lat="48.01091" lon="6.96921">
        <ele>1117</ele>
        <time>2022-05-26T12:06:13Z</time>
      </trkpt>
      <trkpt lat="48.01095" lon="6.96914">
        <ele>1117</ele>
        <time>2022-05-26T12:06:18Z</time>
      </trkpt>
      <trkpt lat="48.01098" lon="6.96901">
        <ele>1116</ele>
        <time>2022-05-26T12:06:28Z</time>
      </trkpt>
      <trkpt lat="48.01106" lon="6.96893">
        <ele>1114.2</ele>
        <time>2022-05-26T12:06:34Z</time>
      </trkpt>
      <trkpt lat="48.01116" lon="6.96889">
        <ele>1111.3</ele>
        <time>2022-05-26T12:06:38Z</time>
      </trkpt>
      <trkpt lat="48.01125" lon="6.96885">
        <ele>1112.3</ele>
        <time>2022-05-26T12:06:41Z</time>
      </trkpt>
      <trkpt lat="48.01135" lon="6.96885">
        <ele>1112.5</ele>
        <time>2022-05-26T12:06:46Z</time>
      </trkpt>
      <trkpt lat="48.01144" lon="6.96882">
        <ele>1114.7</ele>
        <time>2022-05-26T12:06:54Z</time>
      </trkpt>
      <trkpt lat="48.01154" lon="6.9688">
        <ele>1116.8</ele>
        <time>2022-05-26T12:07:10Z</time>
      </trkpt>
      <trkpt lat="48.0116" lon="6.9689">
        <ele>1118.6</ele>
        <time>2022-05-26T12:07:22Z</time>
      </trkpt>
      <trkpt lat="48.01154" lon="6.96901">
        <ele>1120.1</ele>
        <time>2022-05-26T12:07:31Z</time>
      </trkpt>
      <trkpt lat="48.01152" lon="6.96914">
        <ele>1121.8</ele>
        <time>2022-05-26T12:07:41Z</time>
      </trkpt>
      <trkpt lat="48.01146" lon="6.96924">
        <ele>1123.4</ele>
        <time>2022-05-26T12:07:51Z</time>
      </trkpt>
      <trkpt lat="48.01149" lon="6.96927">
        <ele>1124</ele>
        <time>2022-05-26T12:08:01Z</time>
      </trkpt>
      <trkpt lat="48.0115" lon="6.96927">
        <ele>1124.2</ele>
        <time>2022-05-26T12:08:19Z</time>
      </trkpt>
      <trkpt lat="48.01151" lon="6.96927">
        <ele>1124.1</ele>
        <time>2022-05-26T12:08:24Z</time>
      </trkpt>
      <trkpt lat="48.01151" lon="6.96928">
        <ele>1123.9</ele>
        <time>2022-05-26T12:08:48Z</time>
      </trkpt>
      <trkpt lat="48.01152" lon="6.96928">
        <ele>1123.8</ele>
        <time>2022-05-26T12:09:17Z</time>
      </trkpt>
      <trkpt lat="48.01152" lon="6.96927">
        <ele>1124</ele>
        <time>2022-05-26T12:09:25Z</time>
      </trkpt>
      <trkpt lat="48.01152" lon="6.96928">
        <ele>1123.9</ele>
        <time>2022-05-26T12:09:26Z</time>
      </trkpt>
      <trkpt lat="48.01161" lon="6.96931">
        <ele>1125.5</ele>
        <time>2022-05-26T12:09:44Z</time>
      </trkpt>
      <trkpt lat="48.01162" lon="6.96931">
        <ele>1125.4</ele>
        <time>2022-05-26T12:09:46Z</time>
      </trkpt>
      <trkpt lat="48.01171" lon="6.96934">
        <ele>1126.6</ele>
        <time>2022-05-26T12:10:01Z</time>
      </trkpt>
      <trkpt lat="48.0118" lon="6.96936">
        <ele>1127.8</ele>
        <time>2022-05-26T12:10:08Z</time>
      </trkpt>
      <trkpt lat="48.0119" lon="6.96938">
        <ele>1128.3</ele>
        <time>2022-05-26T12:10:14Z</time>
      </trkpt>
      <trkpt lat="48.01199" lon="6.96942">
        <ele>1129.2</ele>
        <time>2022-05-26T12:10:19Z</time>
      </trkpt>
      <trkpt lat="48.01209" lon="6.96945">
        <ele>1130.8</ele>
        <time>2022-05-26T12:10:25Z</time>
      </trkpt>
      <trkpt lat="48.01218" lon="6.96949">
        <ele>1131</ele>
        <time>2022-05-26T12:10:30Z</time>
      </trkpt>
      <trkpt lat="48.01227" lon="6.96951">
        <ele>1132.3</ele>
        <time>2022-05-26T12:10:35Z</time>
      </trkpt>
      <trkpt lat="48.01237" lon="6.96951">
        <ele>1133.3</ele>
        <time>2022-05-26T12:10:41Z</time>
      </trkpt>
      <trkpt lat="48.01246" lon="6.96943">
        <ele>1134.7</ele>
        <time>2022-05-26T12:10:47Z</time>
      </trkpt>
      <trkpt lat="48.01254" lon="6.96937">
        <ele>1134.7</ele>
        <time>2022-05-26T12:10:51Z</time>
      </trkpt>
      <trkpt lat="48.01263" lon="6.96929">
        <ele>1135.6</ele>
        <time>2022-05-26T12:10:55Z</time>
      </trkpt>
      <trkpt lat="48.01271" lon="6.96923">
        <ele>1135.8</ele>
        <time>2022-05-26T12:11:00Z</time>
      </trkpt>
      <trkpt lat="48.0128" lon="6.96916">
        <ele>1137.1</ele>
        <time>2022-05-26T12:11:05Z</time>
      </trkpt>
      <trkpt lat="48.01289" lon="6.96913">
        <ele>1138.2</ele>
        <time>2022-05-26T12:11:11Z</time>
      </trkpt>
      <trkpt lat="48.01298" lon="6.96909">
        <ele>1138.5</ele>
        <time>2022-05-26T12:11:15Z</time>
      </trkpt>
      <trkpt lat="48.01308" lon="6.96904">
        <ele>1139.2</ele>
        <time>2022-05-26T12:11:20Z</time>
      </trkpt>
      <trkpt lat="48.01316" lon="6.96894">
        <ele>1139.1</ele>
        <time>2022-05-26T12:11:26Z</time>
      </trkpt>
      <trkpt lat="48.01321" lon="6.9688">
        <ele>1137.8</ele>
        <time>2022-05-26T12:11:31Z</time>
      </trkpt>
      <trkpt lat="48.01325" lon="6.96863">
        <ele>1136.8</ele>
        <time>2022-05-26T12:11:35Z</time>
      </trkpt>
      <trkpt lat="48.01331" lon="6.9685">
        <ele>1137.5</ele>
        <time>2022-05-26T12:11:39Z</time>
      </trkpt>
      <trkpt lat="48.01341" lon="6.96846">
        <ele>1133.8</ele>
        <time>2022-05-26T12:11:42Z</time>
      </trkpt>
      <trkpt lat="48.01351" lon="6.96848">
        <ele>1132.6</ele>
        <time>2022-05-26T12:11:45Z</time>
      </trkpt>
      <trkpt lat="48.01364" lon="6.96846">
        <ele>1134.1</ele>
        <time>2022-05-26T12:11:48Z</time>
      </trkpt>
      <trkpt lat="48.01374" lon="6.96844">
        <ele>1132</ele>
        <time>2022-05-26T12:11:50Z</time>
      </trkpt>
      <trkpt lat="48.01385" lon="6.96844">
        <ele>1129.5</ele>
        <time>2022-05-26T12:11:52Z</time>
      </trkpt>
      <trkpt lat="48.01395" lon="6.96848">
        <ele>1127.2</ele>
        <time>2022-05-26T12:11:54Z</time>
      </trkpt>
      <trkpt lat="48.01406" lon="6.96854">
        <ele>1127.9</ele>
        <time>2022-05-26T12:11:56Z</time>
      </trkpt>
      <trkpt lat="48.0142" lon="6.96862">
        <ele>1127.2</ele>
        <time>2022-05-26T12:11:58Z</time>
      </trkpt>
      <trkpt lat="48.01436" lon="6.96871">
        <ele>1125.8</ele>
        <time>2022-05-26T12:12:00Z</time>
      </trkpt>
      <trkpt lat="48.01445" lon="6.96876">
        <ele>1123.8</ele>
        <time>2022-05-26T12:12:01Z</time>
      </trkpt>
      <trkpt lat="48.01453" lon="6.96882">
        <ele>1123.5</ele>
        <time>2022-05-26T12:12:02Z</time>
      </trkpt>
      <trkpt lat="48.01462" lon="6.96889">
        <ele>1123.8</ele>
        <time>2022-05-26T12:12:03Z</time>
      </trkpt>
      <trkpt lat="48.0147" lon="6.96896">
        <ele>1123.1</ele>
        <time>2022-05-26T12:12:04Z</time>
      </trkpt>
      <trkpt lat="48.01478" lon="6.96903">
        <ele>1122.3</ele>
        <time>2022-05-26T12:12:05Z</time>
      </trkpt>
      <trkpt lat="48.01486" lon="6.96911">
        <ele>1123.3</ele>
        <time>2022-05-26T12:12:06Z</time>
      </trkpt>
      <trkpt lat="48.01494" lon="6.96921">
        <ele>1125.1</ele>
        <time>2022-05-26T12:12:07Z</time>
      </trkpt>
      <trkpt lat="48.01501" lon="6.96931">
        <ele>1124.3</ele>
        <time>2022-05-26T12:12:08Z</time>
      </trkpt>
      <trkpt lat="48.01508" lon="6.96942">
        <ele>1121.5</ele>
        <time>2022-05-26T12:12:09Z</time>
      </trkpt>
      <trkpt lat="48.01515" lon="6.96954">
        <ele>1119.4</ele>
        <time>2022-05-26T12:12:10Z</time>
      </trkpt>
      <trkpt lat="48.01521" lon="6.96965">
        <ele>1119.1</ele>
        <time>2022-05-26T12:12:11Z</time>
      </trkpt>
      <trkpt lat="48.01528" lon="6.96975">
        <ele>1118.2</ele>
        <time>2022-05-26T12:12:12Z</time>
      </trkpt>
      <trkpt lat="48.01541" lon="6.96993">
        <ele>1115.5</ele>
        <time>2022-05-26T12:12:14Z</time>
      </trkpt>
      <trkpt lat="48.01548" lon="6.97001">
        <ele>1113.9</ele>
        <time>2022-05-26T12:12:15Z</time>
      </trkpt>
      <trkpt lat="48.01555" lon="6.97011">
        <ele>1110.6</ele>
        <time>2022-05-26T12:12:16Z</time>
      </trkpt>
      <trkpt lat="48.01561" lon="6.97021">
        <ele>1109.1</ele>
        <time>2022-05-26T12:12:17Z</time>
      </trkpt>
      <trkpt lat="48.01567" lon="6.97033">
        <ele>1108.6</ele>
        <time>2022-05-26T12:12:18Z</time>
      </trkpt>
      <trkpt lat="48.01573" lon="6.97045">
        <ele>1111.9</ele>
        <time>2022-05-26T12:12:19Z</time>
      </trkpt>
      <trkpt lat="48.01578" lon="6.97057">
        <ele>1112.4</ele>
        <time>2022-05-26T12:12:20Z</time>
      </trkpt>
      <trkpt lat="48.01584" lon="6.9707">
        <ele>1111.8</ele>
        <time>2022-05-26T12:12:21Z</time>
      </trkpt>
      <trkpt lat="48.01589" lon="6.97083">
        <ele>1109.3</ele>
        <time>2022-05-26T12:12:22Z</time>
      </trkpt>
      <trkpt lat="48.01595" lon="6.97096">
        <ele>1109.6</ele>
        <time>2022-05-26T12:12:23Z</time>
      </trkpt>
      <trkpt lat="48.016" lon="6.97109">
        <ele>1108.2</ele>
        <time>2022-05-26T12:12:24Z</time>
      </trkpt>
      <trkpt lat="48.01606" lon="6.97123">
        <ele>1106</ele>
        <time>2022-05-26T12:12:25Z</time>
      </trkpt>
      <trkpt lat="48.01611" lon="6.97137">
        <ele>1105.3</ele>
        <time>2022-05-26T12:12:26Z</time>
      </trkpt>
      <trkpt lat="48.01616" lon="6.9715">
        <ele>1103.9</ele>
        <time>2022-05-26T12:12:27Z</time>
      </trkpt>
      <trkpt lat="48.0162" lon="6.97162">
        <ele>1103.2</ele>
        <time>2022-05-26T12:12:28Z</time>
      </trkpt>
      <trkpt lat="48.01622" lon="6.97185">
        <ele>1103.5</ele>
        <time>2022-05-26T12:12:30Z</time>
      </trkpt>
      <trkpt lat="48.01614" lon="6.97203">
        <ele>1101.3</ele>
        <time>2022-05-26T12:12:32Z</time>
      </trkpt>
      <trkpt lat="48.01606" lon="6.9721">
        <ele>1100.7</ele>
        <time>2022-05-26T12:12:33Z</time>
      </trkpt>
      <trkpt lat="48.01591" lon="6.97219">
        <ele>1098.1</ele>
        <time>2022-05-26T12:12:35Z</time>
      </trkpt>
      <trkpt lat="48.01576" lon="6.97225">
        <ele>1096.6</ele>
        <time>2022-05-26T12:12:37Z</time>
      </trkpt>
      <trkpt lat="48.01561" lon="6.97231">
        <ele>1090.5</ele>
        <time>2022-05-26T12:12:39Z</time>
      </trkpt>
      <trkpt lat="48.01544" lon="6.97239">
        <ele>1089.1</ele>
        <time>2022-05-26T12:12:41Z</time>
      </trkpt>
      <trkpt lat="48.0153" lon="6.97254">
        <ele>1087.8</ele>
        <time>2022-05-26T12:12:43Z</time>
      </trkpt>
      <trkpt lat="48.01524" lon="6.97264">
        <ele>1087.1</ele>
        <time>2022-05-26T12:12:44Z</time>
      </trkpt>
      <trkpt lat="48.0152" lon="6.97277">
        <ele>1088.4</ele>
        <time>2022-05-26T12:12:45Z</time>
      </trkpt>
      <trkpt lat="48.01515" lon="6.973">
        <ele>1087.3</ele>
        <time>2022-05-26T12:12:47Z</time>
      </trkpt>
      <trkpt lat="48.01511" lon="6.97322">
        <ele>1087.7</ele>
        <time>2022-05-26T12:12:49Z</time>
      </trkpt>
      <trkpt lat="48.01502" lon="6.9734">
        <ele>1089.4</ele>
        <time>2022-05-26T12:12:51Z</time>
      </trkpt>
      <trkpt lat="48.01488" lon="6.97353">
        <ele>1090.3</ele>
        <time>2022-05-26T12:12:53Z</time>
      </trkpt>
      <trkpt lat="48.01474" lon="6.97368">
        <ele>1086.4</ele>
        <time>2022-05-26T12:12:55Z</time>
      </trkpt>
      <trkpt lat="48.01463" lon="6.97387">
        <ele>1085.3</ele>
        <time>2022-05-26T12:12:57Z</time>
      </trkpt>
      <trkpt lat="48.01454" lon="6.97404">
        <ele>1082.2</ele>
        <time>2022-05-26T12:12:59Z</time>
      </trkpt>
      <trkpt lat="48.01444" lon="6.97422">
        <ele>1081.2</ele>
        <time>2022-05-26T12:13:01Z</time>
      </trkpt>
      <trkpt lat="48.01433" lon="6.97438">
        <ele>1081.9</ele>
        <time>2022-05-26T12:13:03Z</time>
      </trkpt>
      <trkpt lat="48.01419" lon="6.97446">
        <ele>1082.7</ele>
        <time>2022-05-26T12:13:05Z</time>
      </trkpt>
      <trkpt lat="48.01405" lon="6.97455">
        <ele>1085.1</ele>
        <time>2022-05-26T12:13:07Z</time>
      </trkpt>
      <trkpt lat="48.01394" lon="6.97469">
        <ele>1080</ele>
        <time>2022-05-26T12:13:09Z</time>
      </trkpt>
      <trkpt lat="48.01384" lon="6.97484">
        <ele>1076.4</ele>
        <time>2022-05-26T12:13:11Z</time>
      </trkpt>
      <trkpt lat="48.01376" lon="6.97499">
        <ele>1080.8</ele>
        <time>2022-05-26T12:13:13Z</time>
      </trkpt>
      <trkpt lat="48.01367" lon="6.97512">
        <ele>1079.9</ele>
        <time>2022-05-26T12:13:15Z</time>
      </trkpt>
      <trkpt lat="48.01357" lon="6.97525">
        <ele>1079.1</ele>
        <time>2022-05-26T12:13:17Z</time>
      </trkpt>
      <trkpt lat="48.01346" lon="6.97538">
        <ele>1076.6</ele>
        <time>2022-05-26T12:13:19Z</time>
      </trkpt>
      <trkpt lat="48.01335" lon="6.97546">
        <ele>1078.9</ele>
        <time>2022-05-26T12:13:21Z</time>
      </trkpt>
      <trkpt lat="48.01323" lon="6.97551">
        <ele>1076.7</ele>
        <time>2022-05-26T12:13:23Z</time>
      </trkpt>
      <trkpt lat="48.01312" lon="6.97559">
        <ele>1079.5</ele>
        <time>2022-05-26T12:13:25Z</time>
      </trkpt>
      <trkpt lat="48.01304" lon="6.97571">
        <ele>1079.4</ele>
        <time>2022-05-26T12:13:27Z</time>
      </trkpt>
      <trkpt lat="48.01297" lon="6.97583">
        <ele>1078.7</ele>
        <time>2022-05-26T12:13:29Z</time>
      </trkpt>
      <trkpt lat="48.01292" lon="6.97595">
        <ele>1077.3</ele>
        <time>2022-05-26T12:13:31Z</time>
      </trkpt>
      <trkpt lat="48.01285" lon="6.97606">
        <ele>1077.8</ele>
        <time>2022-05-26T12:13:33Z</time>
      </trkpt>
      <trkpt lat="48.01278" lon="6.97616">
        <ele>1077.8</ele>
        <time>2022-05-26T12:13:35Z</time>
      </trkpt>
      <trkpt lat="48.01271" lon="6.97627">
        <ele>1077.2</ele>
        <time>2022-05-26T12:13:37Z</time>
      </trkpt>
      <trkpt lat="48.01265" lon="6.9764">
        <ele>1076.6</ele>
        <time>2022-05-26T12:13:39Z</time>
      </trkpt>
      <trkpt lat="48.01261" lon="6.97653">
        <ele>1077.4</ele>
        <time>2022-05-26T12:13:41Z</time>
      </trkpt>
      <trkpt lat="48.01257" lon="6.97671">
        <ele>1075.8</ele>
        <time>2022-05-26T12:13:44Z</time>
      </trkpt>
      <trkpt lat="48.0126" lon="6.97684">
        <ele>1076.1</ele>
        <time>2022-05-26T12:13:48Z</time>
      </trkpt>
      <trkpt lat="48.01261" lon="6.97684">
        <ele>1076.1</ele>
        <time>2022-05-26T12:13:52Z</time>
      </trkpt>
      <trkpt lat="48.01261" lon="6.97683">
        <ele>1076.3</ele>
        <time>2022-05-26T12:14:08Z</time>
      </trkpt>
      <trkpt lat="48.01262" lon="6.97682">
        <ele>1075.9</ele>
        <time>2022-05-26T12:14:32Z</time>
      </trkpt>
      <trkpt lat="48.01273" lon="6.9769">
        <ele>1073.1</ele>
        <time>2022-05-26T12:14:36Z</time>
      </trkpt>
      <trkpt lat="48.01283" lon="6.97701">
        <ele>1071.1</ele>
        <time>2022-05-26T12:14:38Z</time>
      </trkpt>
      <trkpt lat="48.01294" lon="6.97713">
        <ele>1064.4</ele>
        <time>2022-05-26T12:14:40Z</time>
      </trkpt>
      <trkpt lat="48.01306" lon="6.97723">
        <ele>1063.3</ele>
        <time>2022-05-26T12:14:42Z</time>
      </trkpt>
      <trkpt lat="48.01319" lon="6.97733">
        <ele>1061.9</ele>
        <time>2022-05-26T12:14:44Z</time>
      </trkpt>
      <trkpt lat="48.01329" lon="6.97744">
        <ele>1062.4</ele>
        <time>2022-05-26T12:14:46Z</time>
      </trkpt>
      <trkpt lat="48.01334" lon="6.97761">
        <ele>1060.3</ele>
        <time>2022-05-26T12:14:48Z</time>
      </trkpt>
      <trkpt lat="48.01339" lon="6.97779">
        <ele>1058.7</ele>
        <time>2022-05-26T12:14:50Z</time>
      </trkpt>
      <trkpt lat="48.01347" lon="6.97793">
        <ele>1057.7</ele>
        <time>2022-05-26T12:14:52Z</time>
      </trkpt>
      <trkpt lat="48.01355" lon="6.97804">
        <ele>1056.8</ele>
        <time>2022-05-26T12:14:54Z</time>
      </trkpt>
      <trkpt lat="48.01362" lon="6.97815">
        <ele>1056.7</ele>
        <time>2022-05-26T12:14:58Z</time>
      </trkpt>
      <trkpt lat="48.01368" lon="6.9783">
        <ele>1056.4</ele>
        <time>2022-05-26T12:15:02Z</time>
      </trkpt>
      <trkpt lat="48.0137" lon="6.97844">
        <ele>1055.5</ele>
        <time>2022-05-26T12:15:07Z</time>
      </trkpt>
      <trkpt lat="48.01369" lon="6.97858">
        <ele>1052.6</ele>
        <time>2022-05-26T12:15:12Z</time>
      </trkpt>
      <trkpt lat="48.01378" lon="6.97863">
        <ele>1052.1</ele>
        <time>2022-05-26T12:15:16Z</time>
      </trkpt>
      <trkpt lat="48.01387" lon="6.97877">
        <ele>1049.3</ele>
        <time>2022-05-26T12:15:19Z</time>
      </trkpt>
      <trkpt lat="48.01393" lon="6.97892">
        <ele>1047.5</ele>
        <time>2022-05-26T12:15:21Z</time>
      </trkpt>
      <trkpt lat="48.01397" lon="6.97905">
        <ele>1048.2</ele>
        <time>2022-05-26T12:15:23Z</time>
      </trkpt>
      <trkpt lat="48.01399" lon="6.9792">
        <ele>1048.2</ele>
        <time>2022-05-26T12:15:27Z</time>
      </trkpt>
      <trkpt lat="48.01407" lon="6.97909">
        <ele>1045.6</ele>
        <time>2022-05-26T12:15:33Z</time>
      </trkpt>
      <trkpt lat="48.01416" lon="6.97917">
        <ele>1043</ele>
        <time>2022-05-26T12:15:41Z</time>
      </trkpt>
      <trkpt lat="48.01424" lon="6.97925">
        <ele>1041.3</ele>
        <time>2022-05-26T12:15:44Z</time>
      </trkpt>
      <trkpt lat="48.01433" lon="6.97932">
        <ele>1036.8</ele>
        <time>2022-05-26T12:15:47Z</time>
      </trkpt>
      <trkpt lat="48.01442" lon="6.97936">
        <ele>1034.1</ele>
        <time>2022-05-26T12:15:49Z</time>
      </trkpt>
      <trkpt lat="48.01453" lon="6.97947">
        <ele>1036.4</ele>
        <time>2022-05-26T12:15:52Z</time>
      </trkpt>
      <trkpt lat="48.01457" lon="6.9796">
        <ele>1035.9</ele>
        <time>2022-05-26T12:15:54Z</time>
      </trkpt>
      <trkpt lat="48.01462" lon="6.97971">
        <ele>1036.4</ele>
        <time>2022-05-26T12:15:56Z</time>
      </trkpt>
      <trkpt lat="48.01473" lon="6.97977">
        <ele>1031.3</ele>
        <time>2022-05-26T12:15:59Z</time>
      </trkpt>
      <trkpt lat="48.01485" lon="6.97985">
        <ele>1029.3</ele>
        <time>2022-05-26T12:16:02Z</time>
      </trkpt>
      <trkpt lat="48.01495" lon="6.97982">
        <ele>1027.4</ele>
        <time>2022-05-26T12:16:06Z</time>
      </trkpt>
      <trkpt lat="48.01506" lon="6.9798">
        <ele>1026</ele>
        <time>2022-05-26T12:16:11Z</time>
      </trkpt>
      <trkpt lat="48.01516" lon="6.97978">
        <ele>1023.2</ele>
        <time>2022-05-26T12:16:14Z</time>
      </trkpt>
      <trkpt lat="48.01525" lon="6.97972">
        <ele>1020.9</ele>
        <time>2022-05-26T12:16:17Z</time>
      </trkpt>
      <trkpt lat="48.01534" lon="6.97976">
        <ele>1017.7</ele>
        <time>2022-05-26T12:16:20Z</time>
      </trkpt>
      <trkpt lat="48.01541" lon="6.97987">
        <ele>1016.7</ele>
        <time>2022-05-26T12:16:23Z</time>
      </trkpt>
      <trkpt lat="48.01549" lon="6.97997">
        <ele>1016.4</ele>
        <time>2022-05-26T12:16:27Z</time>
      </trkpt>
      <trkpt lat="48.01556" lon="6.98005">
        <ele>1013.6</ele>
        <time>2022-05-26T12:16:30Z</time>
      </trkpt>
      <trkpt lat="48.01565" lon="6.97995">
        <ele>1013.5</ele>
        <time>2022-05-26T12:16:33Z</time>
      </trkpt>
      <trkpt lat="48.01572" lon="6.97983">
        <ele>1011.4</ele>
        <time>2022-05-26T12:16:35Z</time>
      </trkpt>
      <trkpt lat="48.01581" lon="6.9797">
        <ele>1007.7</ele>
        <time>2022-05-26T12:16:37Z</time>
      </trkpt>
      <trkpt lat="48.01588" lon="6.97957">
        <ele>1006.6</ele>
        <time>2022-05-26T12:16:39Z</time>
      </trkpt>
      <trkpt lat="48.01597" lon="6.97945">
        <ele>1006</ele>
        <time>2022-05-26T12:16:42Z</time>
      </trkpt>
      <trkpt lat="48.01606" lon="6.97938">
        <ele>1003.9</ele>
        <time>2022-05-26T12:16:45Z</time>
      </trkpt>
      <trkpt lat="48.01619" lon="6.97935">
        <ele>999.9</ele>
        <time>2022-05-26T12:16:48Z</time>
      </trkpt>
      <trkpt lat="48.0163" lon="6.97934">
        <ele>998.3</ele>
        <time>2022-05-26T12:16:50Z</time>
      </trkpt>
      <trkpt lat="48.0164" lon="6.97933">
        <ele>998.2</ele>
        <time>2022-05-26T12:16:52Z</time>
      </trkpt>
      <trkpt lat="48.0165" lon="6.97934">
        <ele>998.6</ele>
        <time>2022-05-26T12:16:56Z</time>
      </trkpt>
      <trkpt lat="48.01655" lon="6.97941">
        <ele>998.5</ele>
        <time>2022-05-26T12:17:03Z</time>
      </trkpt>
      <trkpt lat="48.01656" lon="6.97941">
        <ele>998.3</ele>
        <time>2022-05-26T12:17:08Z</time>
      </trkpt>
      <trkpt lat="48.01656" lon="6.9794">
        <ele>998.4</ele>
        <time>2022-05-26T12:17:09Z</time>
      </trkpt>
      <trkpt lat="48.01655" lon="6.97939">
        <ele>998.6</ele>
        <time>2022-05-26T12:17:18Z</time>
      </trkpt>
      <trkpt lat="48.01655" lon="6.97938">
        <ele>998.6</ele>
        <time>2022-05-26T12:17:46Z</time>
      </trkpt>
      <trkpt lat="48.01656" lon="6.97938">
        <ele>998.6</ele>
        <time>2022-05-26T12:18:04Z</time>
      </trkpt>
      <trkpt lat="48.01656" lon="6.97937">
        <ele>998.3</ele>
        <time>2022-05-26T12:18:45Z</time>
      </trkpt>
      <trkpt lat="48.01666" lon="6.97937">
        <ele>998.1</ele>
        <time>2022-05-26T12:18:54Z</time>
      </trkpt>
      <trkpt lat="48.01677" lon="6.97942">
        <ele>996.3</ele>
        <time>2022-05-26T12:18:58Z</time>
      </trkpt>
      <trkpt lat="48.01688" lon="6.97951">
        <ele>996.5</ele>
        <time>2022-05-26T12:19:01Z</time>
      </trkpt>
      <trkpt lat="48.01699" lon="6.9796">
        <ele>998.2</ele>
        <time>2022-05-26T12:19:04Z</time>
      </trkpt>
      <trkpt lat="48.01709" lon="6.97961">
        <ele>997.2</ele>
        <time>2022-05-26T12:19:06Z</time>
      </trkpt>
      <trkpt lat="48.01721" lon="6.97963">
        <ele>994.6</ele>
        <time>2022-05-26T12:19:09Z</time>
      </trkpt>
      <trkpt lat="48.0173" lon="6.97963">
        <ele>995.7</ele>
        <time>2022-05-26T12:19:11Z</time>
      </trkpt>
      <trkpt lat="48.0174" lon="6.97961">
        <ele>993.7</ele>
        <time>2022-05-26T12:19:13Z</time>
      </trkpt>
      <trkpt lat="48.0175" lon="6.97954">
        <ele>994.9</ele>
        <time>2022-05-26T12:19:16Z</time>
      </trkpt>
      <trkpt lat="48.01759" lon="6.97947">
        <ele>993.7</ele>
        <time>2022-05-26T12:19:19Z</time>
      </trkpt>
      <trkpt lat="48.01768" lon="6.97936">
        <ele>994.3</ele>
        <time>2022-05-26T12:19:22Z</time>
      </trkpt>
      <trkpt lat="48.01776" lon="6.97923">
        <ele>993.7</ele>
        <time>2022-05-26T12:19:25Z</time>
      </trkpt>
      <trkpt lat="48.01784" lon="6.9791">
        <ele>994.1</ele>
        <time>2022-05-26T12:19:28Z</time>
      </trkpt>
      <trkpt lat="48.01791" lon="6.97896">
        <ele>994.6</ele>
        <time>2022-05-26T12:19:31Z</time>
      </trkpt>
      <trkpt lat="48.01796" lon="6.97881">
        <ele>994.8</ele>
        <time>2022-05-26T12:19:34Z</time>
      </trkpt>
      <trkpt lat="48.018" lon="6.97865">
        <ele>994.5</ele>
        <time>2022-05-26T12:19:37Z</time>
      </trkpt>
      <trkpt lat="48.01803" lon="6.97848">
        <ele>994.5</ele>
        <time>2022-05-26T12:19:40Z</time>
      </trkpt>
      <trkpt lat="48.01807" lon="6.97833">
        <ele>994.2</ele>
        <time>2022-05-26T12:19:43Z</time>
      </trkpt>
      <trkpt lat="48.0181" lon="6.9782">
        <ele>995.7</ele>
        <time>2022-05-26T12:19:46Z</time>
      </trkpt>
      <trkpt lat="48.01816" lon="6.97808">
        <ele>994.9</ele>
        <time>2022-05-26T12:19:49Z</time>
      </trkpt>
      <trkpt lat="48.01822" lon="6.97797">
        <ele>995.3</ele>
        <time>2022-05-26T12:19:54Z</time>
      </trkpt>
      <trkpt lat="48.0182" lon="6.97792">
        <ele>994.3</ele>
        <time>2022-05-26T12:20:04Z</time>
      </trkpt>
      <trkpt lat="48.01819" lon="6.97792">
        <ele>994.4</ele>
        <time>2022-05-26T12:20:38Z</time>
      </trkpt>
      <trkpt lat="48.01818" lon="6.97791">
        <ele>994.2</ele>
        <time>2022-05-26T12:20:42Z</time>
      </trkpt>
      <trkpt lat="48.01818" lon="6.97792">
        <ele>994.2</ele>
        <time>2022-05-26T12:21:26Z</time>
      </trkpt>
      <trkpt lat="48.01819" lon="6.97792">
        <ele>994</ele>
        <time>2022-05-26T12:22:28Z</time>
      </trkpt>
      <trkpt lat="48.01819" lon="6.97793">
        <ele>994.1</ele>
        <time>2022-05-26T12:22:47Z</time>
      </trkpt>
      <trkpt lat="48.01819" lon="6.97795">
        <ele>995.1</ele>
        <time>2022-05-26T12:22:50Z</time>
      </trkpt>
      <trkpt lat="48.01819" lon="6.97796">
        <ele>994.9</ele>
        <time>2022-05-26T12:23:32Z</time>
      </trkpt>
      <trkpt lat="48.0182" lon="6.97796">
        <ele>994.9</ele>
        <time>2022-05-26T12:24:01Z</time>
      </trkpt>
      <trkpt lat="48.01818" lon="6.97796">
        <ele>994.5</ele>
        <time>2022-05-26T12:24:33Z</time>
      </trkpt>
      <trkpt lat="48.01818" lon="6.97795">
        <ele>994.4</ele>
        <time>2022-05-26T12:26:39Z</time>
      </trkpt>
      <trkpt lat="48.01819" lon="6.97795">
        <ele>994.2</ele>
        <time>2022-05-26T12:27:09Z</time>
      </trkpt>
      <trkpt lat="48.0182" lon="6.97794">
        <ele>994.2</ele>
        <time>2022-05-26T12:27:14Z</time>
      </trkpt>
      <trkpt lat="48.01821" lon="6.97793">
        <ele>994.3</ele>
        <time>2022-05-26T12:27:36Z</time>
      </trkpt>
      <trkpt lat="48.01821" lon="6.97792">
        <ele>993.9</ele>
        <time>2022-05-26T12:28:08Z</time>
      </trkpt>
      <trkpt lat="48.01822" lon="6.97791">
        <ele>993.7</ele>
        <time>2022-05-26T12:28:11Z</time>
      </trkpt>
      <trkpt lat="48.0183" lon="6.97781">
        <ele>994.6</ele>
        <time>2022-05-26T12:28:17Z</time>
      </trkpt>
      <trkpt lat="48.01839" lon="6.97772">
        <ele>994.1</ele>
        <time>2022-05-26T12:28:21Z</time>
      </trkpt>
      <trkpt lat="48.01849" lon="6.97761">
        <ele>994.3</ele>
        <time>2022-05-26T12:28:25Z</time>
      </trkpt>
      <trkpt lat="48.01857" lon="6.97753">
        <ele>994.1</ele>
        <time>2022-05-26T12:28:28Z</time>
      </trkpt>
      <trkpt lat="48.01865" lon="6.97745">
        <ele>993.9</ele>
        <time>2022-05-26T12:28:31Z</time>
      </trkpt>
      <trkpt lat="48.01872" lon="6.97732">
        <ele>995.3</ele>
        <time>2022-05-26T12:28:34Z</time>
      </trkpt>
      <trkpt lat="48.01879" lon="6.97721">
        <ele>994.2</ele>
        <time>2022-05-26T12:28:37Z</time>
      </trkpt>
      <trkpt lat="48.01886" lon="6.97708">
        <ele>994.4</ele>
        <time>2022-05-26T12:28:40Z</time>
      </trkpt>
      <trkpt lat="48.0189" lon="6.97691">
        <ele>994.6</ele>
        <time>2022-05-26T12:28:43Z</time>
      </trkpt>
      <trkpt lat="48.01889" lon="6.97678">
        <ele>994.1</ele>
        <time>2022-05-26T12:28:45Z</time>
      </trkpt>
      <trkpt lat="48.01888" lon="6.97664">
        <ele>994.3</ele>
        <time>2022-05-26T12:28:47Z</time>
      </trkpt>
      <trkpt lat="48.01886" lon="6.97648">
        <ele>993.4</ele>
        <time>2022-05-26T12:28:50Z</time>
      </trkpt>
      <trkpt lat="48.01883" lon="6.97634">
        <ele>994</ele>
        <time>2022-05-26T12:28:52Z</time>
      </trkpt>
      <trkpt lat="48.0188" lon="6.9762">
        <ele>994.1</ele>
        <time>2022-05-26T12:28:54Z</time>
      </trkpt>
      <trkpt lat="48.01876" lon="6.97604">
        <ele>993.9</ele>
        <time>2022-05-26T12:28:56Z</time>
      </trkpt>
      <trkpt lat="48.01874" lon="6.97588">
        <ele>993.6</ele>
        <time>2022-05-26T12:28:58Z</time>
      </trkpt>
      <trkpt lat="48.01874" lon="6.97573">
        <ele>993.2</ele>
        <time>2022-05-26T12:29:00Z</time>
      </trkpt>
      <trkpt lat="48.01876" lon="6.9756">
        <ele>993.4</ele>
        <time>2022-05-26T12:29:02Z</time>
      </trkpt>
      <trkpt lat="48.01883" lon="6.97546">
        <ele>992.2</ele>
        <time>2022-05-26T12:29:05Z</time>
      </trkpt>
      <trkpt lat="48.01891" lon="6.97538">
        <ele>992.8</ele>
        <time>2022-05-26T12:29:08Z</time>
      </trkpt>
      <trkpt lat="48.01899" lon="6.97526">
        <ele>993.4</ele>
        <time>2022-05-26T12:29:11Z</time>
      </trkpt>
      <trkpt lat="48.01908" lon="6.97515">
        <ele>994.2</ele>
        <time>2022-05-26T12:29:14Z</time>
      </trkpt>
      <trkpt lat="48.01915" lon="6.97503">
        <ele>992.6</ele>
        <time>2022-05-26T12:29:17Z</time>
      </trkpt>
      <trkpt lat="48.01919" lon="6.97487">
        <ele>991.7</ele>
        <time>2022-05-26T12:29:20Z</time>
      </trkpt>
      <trkpt lat="48.01922" lon="6.97469">
        <ele>991.8</ele>
        <time>2022-05-26T12:29:23Z</time>
      </trkpt>
      <trkpt lat="48.01927" lon="6.97457">
        <ele>990.6</ele>
        <time>2022-05-26T12:29:25Z</time>
      </trkpt>
      <trkpt lat="48.01933" lon="6.97446">
        <ele>991.3</ele>
        <time>2022-05-26T12:29:27Z</time>
      </trkpt>
      <trkpt lat="48.0194" lon="6.97433">
        <ele>990.2</ele>
        <time>2022-05-26T12:29:29Z</time>
      </trkpt>
      <trkpt lat="48.01946" lon="6.97414">
        <ele>989.7</ele>
        <time>2022-05-26T12:29:31Z</time>
      </trkpt>
      <trkpt lat="48.01951" lon="6.97394">
        <ele>989.6</ele>
        <time>2022-05-26T12:29:33Z</time>
      </trkpt>
      <trkpt lat="48.01956" lon="6.97377">
        <ele>989.1</ele>
        <time>2022-05-26T12:29:35Z</time>
      </trkpt>
      <trkpt lat="48.01962" lon="6.97357">
        <ele>986</ele>
        <time>2022-05-26T12:29:37Z</time>
      </trkpt>
      <trkpt lat="48.01968" lon="6.97334">
        <ele>983.8</ele>
        <time>2022-05-26T12:29:39Z</time>
      </trkpt>
      <trkpt lat="48.01972" lon="6.97312">
        <ele>984.2</ele>
        <time>2022-05-26T12:29:41Z</time>
      </trkpt>
      <trkpt lat="48.01972" lon="6.97288">
        <ele>982.3</ele>
        <time>2022-05-26T12:29:43Z</time>
      </trkpt>
      <trkpt lat="48.01971" lon="6.97266">
        <ele>980.4</ele>
        <time>2022-05-26T12:29:45Z</time>
      </trkpt>
      <trkpt lat="48.01972" lon="6.97247">
        <ele>981.2</ele>
        <time>2022-05-26T12:29:47Z</time>
      </trkpt>
      <trkpt lat="48.01974" lon="6.97229">
        <ele>979.3</ele>
        <time>2022-05-26T12:29:50Z</time>
      </trkpt>
      <trkpt lat="48.01977" lon="6.97244">
        <ele>981.6</ele>
        <time>2022-05-26T12:30:00Z</time>
      </trkpt>
      <trkpt lat="48.01976" lon="6.9726">
        <ele>982.7</ele>
        <time>2022-05-26T12:30:05Z</time>
      </trkpt>
      <trkpt lat="48.01977" lon="6.97275">
        <ele>983.8</ele>
        <time>2022-05-26T12:30:10Z</time>
      </trkpt>
      <trkpt lat="48.01977" lon="6.97289">
        <ele>985.2</ele>
        <time>2022-05-26T12:30:16Z</time>
      </trkpt>
      <trkpt lat="48.01977" lon="6.97303">
        <ele>986.2</ele>
        <time>2022-05-26T12:30:21Z</time>
      </trkpt>
      <trkpt lat="48.01979" lon="6.97318">
        <ele>987.2</ele>
        <time>2022-05-26T12:30:26Z</time>
      </trkpt>
      <trkpt lat="48.01979" lon="6.97333">
        <ele>988.2</ele>
        <time>2022-05-26T12:30:31Z</time>
      </trkpt>
      <trkpt lat="48.01979" lon="6.97347">
        <ele>989.2</ele>
        <time>2022-05-26T12:30:36Z</time>
      </trkpt>
      <trkpt lat="48.01977" lon="6.9736">
        <ele>990.5</ele>
        <time>2022-05-26T12:30:41Z</time>
      </trkpt>
      <trkpt lat="48.01979" lon="6.97374">
        <ele>991.6</ele>
        <time>2022-05-26T12:30:46Z</time>
      </trkpt>
      <trkpt lat="48.01982" lon="6.97389">
        <ele>992.9</ele>
        <time>2022-05-26T12:30:52Z</time>
      </trkpt>
      <trkpt lat="48.01985" lon="6.97403">
        <ele>994.5</ele>
        <time>2022-05-26T12:30:58Z</time>
      </trkpt>
      <trkpt lat="48.01985" lon="6.97418">
        <ele>995.3</ele>
        <time>2022-05-26T12:31:03Z</time>
      </trkpt>
      <trkpt lat="48.01984" lon="6.97431">
        <ele>996.5</ele>
        <time>2022-05-26T12:31:08Z</time>
      </trkpt>
      <trkpt lat="48.01982" lon="6.97446">
        <ele>997.6</ele>
        <time>2022-05-26T12:31:13Z</time>
      </trkpt>
      <trkpt lat="48.01979" lon="6.9746">
        <ele>998.8</ele>
        <time>2022-05-26T12:31:18Z</time>
      </trkpt>
      <trkpt lat="48.01978" lon="6.97474">
        <ele>999.8</ele>
        <time>2022-05-26T12:31:23Z</time>
      </trkpt>
      <trkpt lat="48.01976" lon="6.9749">
        <ele>1001.2</ele>
        <time>2022-05-26T12:31:29Z</time>
      </trkpt>
      <trkpt lat="48.01973" lon="6.97503">
        <ele>1002.2</ele>
        <time>2022-05-26T12:31:34Z</time>
      </trkpt>
      <trkpt lat="48.01971" lon="6.97519">
        <ele>1003.3</ele>
        <time>2022-05-26T12:31:40Z</time>
      </trkpt>
      <trkpt lat="48.01971" lon="6.97533">
        <ele>1004.3</ele>
        <time>2022-05-26T12:31:45Z</time>
      </trkpt>
      <trkpt lat="48.01972" lon="6.97549">
        <ele>1005.5</ele>
        <time>2022-05-26T12:31:51Z</time>
      </trkpt>
      <trkpt lat="48.01972" lon="6.97563">
        <ele>1006.2</ele>
        <time>2022-05-26T12:31:56Z</time>
      </trkpt>
      <trkpt lat="48.01974" lon="6.97577">
        <ele>1007.6</ele>
        <time>2022-05-26T12:32:01Z</time>
      </trkpt>
      <trkpt lat="48.01976" lon="6.9759">
        <ele>1008.3</ele>
        <time>2022-05-26T12:32:06Z</time>
      </trkpt>
      <trkpt lat="48.01979" lon="6.97604">
        <ele>1009.1</ele>
        <time>2022-05-26T12:32:11Z</time>
      </trkpt>
      <trkpt lat="48.01983" lon="6.97618">
        <ele>1010.1</ele>
        <time>2022-05-26T12:32:16Z</time>
      </trkpt>
      <trkpt lat="48.01986" lon="6.97631">
        <ele>1010.9</ele>
        <time>2022-05-26T12:32:21Z</time>
      </trkpt>
      <trkpt lat="48.01992" lon="6.97645">
        <ele>1012.5</ele>
        <time>2022-05-26T12:32:27Z</time>
      </trkpt>
      <trkpt lat="48.01999" lon="6.97654">
        <ele>1013.7</ele>
        <time>2022-05-26T12:32:33Z</time>
      </trkpt>
      <trkpt lat="48.02006" lon="6.97645">
        <ele>1014.7</ele>
        <time>2022-05-26T12:32:40Z</time>
      </trkpt>
      <trkpt lat="48.02009" lon="6.97632">
        <ele>1015.8</ele>
        <time>2022-05-26T12:32:46Z</time>
      </trkpt>
      <trkpt lat="48.02011" lon="6.97617">
        <ele>1016.6</ele>
        <time>2022-05-26T12:32:52Z</time>
      </trkpt>
      <trkpt lat="48.02015" lon="6.97603">
        <ele>1018.3</ele>
        <time>2022-05-26T12:32:59Z</time>
      </trkpt>
      <trkpt lat="48.02019" lon="6.9759">
        <ele>1018.7</ele>
        <time>2022-05-26T12:33:05Z</time>
      </trkpt>
      <trkpt lat="48.02024" lon="6.97578">
        <ele>1020.1</ele>
        <time>2022-05-26T12:33:11Z</time>
      </trkpt>
      <trkpt lat="48.02031" lon="6.97568">
        <ele>1021.5</ele>
        <time>2022-05-26T12:33:16Z</time>
      </trkpt>
      <trkpt lat="48.02037" lon="6.97557">
        <ele>1022.3</ele>
        <time>2022-05-26T12:33:21Z</time>
      </trkpt>
      <trkpt lat="48.02043" lon="6.97546">
        <ele>1023.6</ele>
        <time>2022-05-26T12:33:27Z</time>
      </trkpt>
      <trkpt lat="48.02048" lon="6.97531">
        <ele>1024.8</ele>
        <time>2022-05-26T12:33:33Z</time>
      </trkpt>
      <trkpt lat="48.02052" lon="6.97519">
        <ele>1025.2</ele>
        <time>2022-05-26T12:33:38Z</time>
      </trkpt>
      <trkpt lat="48.02054" lon="6.97503">
        <ele>1026.3</ele>
        <time>2022-05-26T12:33:44Z</time>
      </trkpt>
      <trkpt lat="48.02058" lon="6.97491">
        <ele>1028.2</ele>
        <time>2022-05-26T12:33:49Z</time>
      </trkpt>
      <trkpt lat="48.02061" lon="6.97478">
        <ele>1028.6</ele>
        <time>2022-05-26T12:33:55Z</time>
      </trkpt>
      <trkpt lat="48.02066" lon="6.97465">
        <ele>1029.8</ele>
        <time>2022-05-26T12:34:01Z</time>
      </trkpt>
      <trkpt lat="48.0207" lon="6.97451">
        <ele>1030.7</ele>
        <time>2022-05-26T12:34:07Z</time>
      </trkpt>
      <trkpt lat="48.02074" lon="6.97439">
        <ele>1032.5</ele>
        <time>2022-05-26T12:34:13Z</time>
      </trkpt>
      <trkpt lat="48.02079" lon="6.97425">
        <ele>1032.8</ele>
        <time>2022-05-26T12:34:19Z</time>
      </trkpt>
      <trkpt lat="48.02083" lon="6.97411">
        <ele>1033.9</ele>
        <time>2022-05-26T12:34:25Z</time>
      </trkpt>
      <trkpt lat="48.02086" lon="6.97397">
        <ele>1034.9</ele>
        <time>2022-05-26T12:34:31Z</time>
      </trkpt>
      <trkpt lat="48.02088" lon="6.97382">
        <ele>1035.9</ele>
        <time>2022-05-26T12:34:37Z</time>
      </trkpt>
      <trkpt lat="48.0209" lon="6.97367">
        <ele>1037.5</ele>
        <time>2022-05-26T12:34:43Z</time>
      </trkpt>
      <trkpt lat="48.02093" lon="6.97353">
        <ele>1039</ele>
        <time>2022-05-26T12:34:48Z</time>
      </trkpt>
      <trkpt lat="48.02096" lon="6.9734">
        <ele>1039.5</ele>
        <time>2022-05-26T12:34:53Z</time>
      </trkpt>
      <trkpt lat="48.021" lon="6.97326">
        <ele>1041.3</ele>
        <time>2022-05-26T12:34:59Z</time>
      </trkpt>
      <trkpt lat="48.02104" lon="6.97311">
        <ele>1042</ele>
        <time>2022-05-26T12:35:05Z</time>
      </trkpt>
      <trkpt lat="48.02106" lon="6.97296">
        <ele>1043.1</ele>
        <time>2022-05-26T12:35:11Z</time>
      </trkpt>
      <trkpt lat="48.02109" lon="6.97282">
        <ele>1043.4</ele>
        <time>2022-05-26T12:35:16Z</time>
      </trkpt>
      <trkpt lat="48.02112" lon="6.97267">
        <ele>1044.7</ele>
        <time>2022-05-26T12:35:22Z</time>
      </trkpt>
      <trkpt lat="48.02117" lon="6.97256">
        <ele>1045.7</ele>
        <time>2022-05-26T12:35:27Z</time>
      </trkpt>
      <trkpt lat="48.02121" lon="6.97244">
        <ele>1046.4</ele>
        <time>2022-05-26T12:35:32Z</time>
      </trkpt>
      <trkpt lat="48.02124" lon="6.9723">
        <ele>1048</ele>
        <time>2022-05-26T12:35:38Z</time>
      </trkpt>
      <trkpt lat="48.02129" lon="6.97218">
        <ele>1048.3</ele>
        <time>2022-05-26T12:35:43Z</time>
      </trkpt>
      <trkpt lat="48.02131" lon="6.97203">
        <ele>1050</ele>
        <time>2022-05-26T12:35:48Z</time>
      </trkpt>
      <trkpt lat="48.02134" lon="6.97188">
        <ele>1051.5</ele>
        <time>2022-05-26T12:35:54Z</time>
      </trkpt>
      <trkpt lat="48.02138" lon="6.97174">
        <ele>1052.1</ele>
        <time>2022-05-26T12:36:00Z</time>
      </trkpt>
      <trkpt lat="48.02142" lon="6.97161">
        <ele>1053.2</ele>
        <time>2022-05-26T12:36:06Z</time>
      </trkpt>
      <trkpt lat="48.02147" lon="6.97146">
        <ele>1054.3</ele>
        <time>2022-05-26T12:36:12Z</time>
      </trkpt>
      <trkpt lat="48.02151" lon="6.97134">
        <ele>1055.6</ele>
        <time>2022-05-26T12:36:17Z</time>
      </trkpt>
      <trkpt lat="48.02156" lon="6.97122">
        <ele>1055.4</ele>
        <time>2022-05-26T12:36:22Z</time>
      </trkpt>
      <trkpt lat="48.02161" lon="6.97111">
        <ele>1056.9</ele>
        <time>2022-05-26T12:36:27Z</time>
      </trkpt>
      <trkpt lat="48.02168" lon="6.97101">
        <ele>1057.7</ele>
        <time>2022-05-26T12:36:32Z</time>
      </trkpt>
      <trkpt lat="48.02175" lon="6.97093">
        <ele>1059</ele>
        <time>2022-05-26T12:36:37Z</time>
      </trkpt>
      <trkpt lat="48.02182" lon="6.97081">
        <ele>1060.5</ele>
        <time>2022-05-26T12:36:42Z</time>
      </trkpt>
      <trkpt lat="48.02189" lon="6.9707">
        <ele>1062.1</ele>
        <time>2022-05-26T12:36:47Z</time>
      </trkpt>
      <trkpt lat="48.02196" lon="6.9706">
        <ele>1063.1</ele>
        <time>2022-05-26T12:36:52Z</time>
      </trkpt>
      <trkpt lat="48.02202" lon="6.97049">
        <ele>1064</ele>
        <time>2022-05-26T12:36:57Z</time>
      </trkpt>
      <trkpt lat="48.02209" lon="6.97041">
        <ele>1064.9</ele>
        <time>2022-05-26T12:37:02Z</time>
      </trkpt>
      <trkpt lat="48.02217" lon="6.97031">
        <ele>1066</ele>
        <time>2022-05-26T12:37:08Z</time>
      </trkpt>
      <trkpt lat="48.02226" lon="6.97024">
        <ele>1067</ele>
        <time>2022-05-26T12:37:14Z</time>
      </trkpt>
      <trkpt lat="48.02235" lon="6.97021">
        <ele>1067.3</ele>
        <time>2022-05-26T12:37:19Z</time>
      </trkpt>
      <trkpt lat="48.02244" lon="6.97022">
        <ele>1069.2</ele>
        <time>2022-05-26T12:37:24Z</time>
      </trkpt>
      <trkpt lat="48.02254" lon="6.97025">
        <ele>1070.4</ele>
        <time>2022-05-26T12:37:29Z</time>
      </trkpt>
      <trkpt lat="48.02264" lon="6.97029">
        <ele>1070.4</ele>
        <time>2022-05-26T12:37:34Z</time>
      </trkpt>
      <trkpt lat="48.02273" lon="6.97035">
        <ele>1071.4</ele>
        <time>2022-05-26T12:37:39Z</time>
      </trkpt>
      <trkpt lat="48.02282" lon="6.97041">
        <ele>1072.4</ele>
        <time>2022-05-26T12:37:45Z</time>
      </trkpt>
      <trkpt lat="48.02291" lon="6.97051">
        <ele>1073.9</ele>
        <time>2022-05-26T12:37:51Z</time>
      </trkpt>
      <trkpt lat="48.02301" lon="6.97056">
        <ele>1076.4</ele>
        <time>2022-05-26T12:37:57Z</time>
      </trkpt>
      <trkpt lat="48.02311" lon="6.97059">
        <ele>1076.9</ele>
        <time>2022-05-26T12:38:04Z</time>
      </trkpt>
      <trkpt lat="48.0232" lon="6.97064">
        <ele>1078.2</ele>
        <time>2022-05-26T12:38:09Z</time>
      </trkpt>
      <trkpt lat="48.02331" lon="6.97065">
        <ele>1079.1</ele>
        <time>2022-05-26T12:38:14Z</time>
      </trkpt>
      <trkpt lat="48.0234" lon="6.97058">
        <ele>1080.1</ele>
        <time>2022-05-26T12:38:19Z</time>
      </trkpt>
      <trkpt lat="48.02347" lon="6.97048">
        <ele>1081.5</ele>
        <time>2022-05-26T12:38:25Z</time>
      </trkpt>
      <trkpt lat="48.02354" lon="6.97037">
        <ele>1082.8</ele>
        <time>2022-05-26T12:38:31Z</time>
      </trkpt>
      <trkpt lat="48.02362" lon="6.97027">
        <ele>1084</ele>
        <time>2022-05-26T12:38:37Z</time>
      </trkpt>
      <trkpt lat="48.0237" lon="6.97017">
        <ele>1084.8</ele>
        <time>2022-05-26T12:38:43Z</time>
      </trkpt>
      <trkpt lat="48.02377" lon="6.97009">
        <ele>1085.4</ele>
        <time>2022-05-26T12:38:48Z</time>
      </trkpt>
      <trkpt lat="48.02386" lon="6.97002">
        <ele>1086.8</ele>
        <time>2022-05-26T12:38:53Z</time>
      </trkpt>
      <trkpt lat="48.02394" lon="6.96998">
        <ele>1087.8</ele>
        <time>2022-05-26T12:38:58Z</time>
      </trkpt>
      <trkpt lat="48.02403" lon="6.96992">
        <ele>1088.8</ele>
        <time>2022-05-26T12:39:03Z</time>
      </trkpt>
      <trkpt lat="48.02412" lon="6.96989">
        <ele>1089.1</ele>
        <time>2022-05-26T12:39:08Z</time>
      </trkpt>
      <trkpt lat="48.02423" lon="6.96987">
        <ele>1091.1</ele>
        <time>2022-05-26T12:39:14Z</time>
      </trkpt>
      <trkpt lat="48.02434" lon="6.96985">
        <ele>1092</ele>
        <time>2022-05-26T12:39:20Z</time>
      </trkpt>
      <trkpt lat="48.02443" lon="6.96984">
        <ele>1093.2</ele>
        <time>2022-05-26T12:39:25Z</time>
      </trkpt>
      <trkpt lat="48.02452" lon="6.96986">
        <ele>1094.1</ele>
        <time>2022-05-26T12:39:30Z</time>
      </trkpt>
      <trkpt lat="48.02462" lon="6.96987">
        <ele>1094.8</ele>
        <time>2022-05-26T12:39:35Z</time>
      </trkpt>
      <trkpt lat="48.02472" lon="6.96987">
        <ele>1096.3</ele>
        <time>2022-05-26T12:39:40Z</time>
      </trkpt>
      <trkpt lat="48.02481" lon="6.9699">
        <ele>1097.3</ele>
        <time>2022-05-26T12:39:45Z</time>
      </trkpt>
      <trkpt lat="48.0249" lon="6.96996">
        <ele>1098.5</ele>
        <time>2022-05-26T12:39:50Z</time>
      </trkpt>
      <trkpt lat="48.025" lon="6.97001">
        <ele>1099.9</ele>
        <time>2022-05-26T12:39:56Z</time>
      </trkpt>
      <trkpt lat="48.02509" lon="6.97008">
        <ele>1101.2</ele>
        <time>2022-05-26T12:40:02Z</time>
      </trkpt>
      <trkpt lat="48.02518" lon="6.97016">
        <ele>1102</ele>
        <time>2022-05-26T12:40:07Z</time>
      </trkpt>
      <trkpt lat="48.02527" lon="6.97023">
        <ele>1103.2</ele>
        <time>2022-05-26T12:40:13Z</time>
      </trkpt>
      <trkpt lat="48.02537" lon="6.97031">
        <ele>1104.2</ele>
        <time>2022-05-26T12:40:19Z</time>
      </trkpt>
      <trkpt lat="48.02545" lon="6.97037">
        <ele>1105.2</ele>
        <time>2022-05-26T12:40:24Z</time>
      </trkpt>
      <trkpt lat="48.02553" lon="6.97045">
        <ele>1105.8</ele>
        <time>2022-05-26T12:40:29Z</time>
      </trkpt>
      <trkpt lat="48.0256" lon="6.97052">
        <ele>1107.3</ele>
        <time>2022-05-26T12:40:34Z</time>
      </trkpt>
      <trkpt lat="48.02569" lon="6.97062">
        <ele>1107.6</ele>
        <time>2022-05-26T12:40:39Z</time>
      </trkpt>
      <trkpt lat="48.02577" lon="6.97069">
        <ele>1109.5</ele>
        <time>2022-05-26T12:40:43Z</time>
      </trkpt>
      <trkpt lat="48.02585" lon="6.97078">
        <ele>1109.9</ele>
        <time>2022-05-26T12:40:47Z</time>
      </trkpt>
      <trkpt lat="48.02594" lon="6.97089">
        <ele>1110.4</ele>
        <time>2022-05-26T12:40:51Z</time>
      </trkpt>
      <trkpt lat="48.02601" lon="6.97101">
        <ele>1111.6</ele>
        <time>2022-05-26T12:40:56Z</time>
      </trkpt>
      <trkpt lat="48.02606" lon="6.97112">
        <ele>1112.4</ele>
        <time>2022-05-26T12:41:03Z</time>
      </trkpt>
      <trkpt lat="48.02609" lon="6.97114">
        <ele>1112</ele>
        <time>2022-05-26T12:41:08Z</time>
      </trkpt>
      <trkpt lat="48.02609" lon="6.97115">
        <ele>1112.2</ele>
        <time>2022-05-26T12:41:37Z</time>
      </trkpt>
      <trkpt lat="48.02609" lon="6.97114">
        <ele>1112.4</ele>
        <time>2022-05-26T12:42:21Z</time>
      </trkpt>
      <trkpt lat="48.0261" lon="6.97114">
        <ele>1111.9</ele>
        <time>2022-05-26T12:42:23Z</time>
      </trkpt>
      <trkpt lat="48.02611" lon="6.97114">
        <ele>1112.5</ele>
        <time>2022-05-26T12:48:34Z</time>
      </trkpt>
      <trkpt lat="48.02611" lon="6.97113">
        <ele>1112.2</ele>
        <time>2022-05-26T12:48:39Z</time>
      </trkpt>
      <trkpt lat="48.02611" lon="6.97114">
        <ele>1111.8</ele>
        <time>2022-05-26T12:48:46Z</time>
      </trkpt>
      <trkpt lat="48.02612" lon="6.97114">
        <ele>1111.9</ele>
        <time>2022-05-26T12:49:04Z</time>
      </trkpt>
      <trkpt lat="48.02621" lon="6.97124">
        <ele>1111.5</ele>
        <time>2022-05-26T12:49:11Z</time>
      </trkpt>
      <trkpt lat="48.02631" lon="6.97132">
        <ele>1110.5</ele>
        <time>2022-05-26T12:49:15Z</time>
      </trkpt>
      <trkpt lat="48.0264" lon="6.9714">
        <ele>1110.9</ele>
        <time>2022-05-26T12:49:18Z</time>
      </trkpt>
      <trkpt lat="48.0265" lon="6.97148">
        <ele>1109.7</ele>
        <time>2022-05-26T12:49:21Z</time>
      </trkpt>
      <trkpt lat="48.0266" lon="6.97154">
        <ele>1110.1</ele>
        <time>2022-05-26T12:49:24Z</time>
      </trkpt>
      <trkpt lat="48.02672" lon="6.97158">
        <ele>1109.9</ele>
        <time>2022-05-26T12:49:27Z</time>
      </trkpt>
      <trkpt lat="48.02683" lon="6.97155">
        <ele>1111</ele>
        <time>2022-05-26T12:49:30Z</time>
      </trkpt>
      <trkpt lat="48.02694" lon="6.97149">
        <ele>1111.8</ele>
        <time>2022-05-26T12:49:33Z</time>
      </trkpt>
      <trkpt lat="48.02703" lon="6.97145">
        <ele>1109.4</ele>
        <time>2022-05-26T12:49:36Z</time>
      </trkpt>
      <trkpt lat="48.02714" lon="6.97142">
        <ele>1110</ele>
        <time>2022-05-26T12:49:39Z</time>
      </trkpt>
      <trkpt lat="48.02725" lon="6.97145">
        <ele>1111.1</ele>
        <time>2022-05-26T12:49:42Z</time>
      </trkpt>
      <trkpt lat="48.02735" lon="6.97149">
        <ele>1110</ele>
        <time>2022-05-26T12:49:45Z</time>
      </trkpt>
      <trkpt lat="48.02744" lon="6.97154">
        <ele>1111.8</ele>
        <time>2022-05-26T12:49:48Z</time>
      </trkpt>
      <trkpt lat="48.02753" lon="6.9716">
        <ele>1111.2</ele>
        <time>2022-05-26T12:49:51Z</time>
      </trkpt>
      <trkpt lat="48.02761" lon="6.97168">
        <ele>1110.7</ele>
        <time>2022-05-26T12:49:54Z</time>
      </trkpt>
      <trkpt lat="48.02769" lon="6.97178">
        <ele>1111.2</ele>
        <time>2022-05-26T12:49:57Z</time>
      </trkpt>
      <trkpt lat="48.02777" lon="6.97191">
        <ele>1110.9</ele>
        <time>2022-05-26T12:50:00Z</time>
      </trkpt>
      <trkpt lat="48.02786" lon="6.97201">
        <ele>1110.9</ele>
        <time>2022-05-26T12:50:03Z</time>
      </trkpt>
      <trkpt lat="48.02794" lon="6.97212">
        <ele>1111.6</ele>
        <time>2022-05-26T12:50:06Z</time>
      </trkpt>
      <trkpt lat="48.02804" lon="6.97219">
        <ele>1111.8</ele>
        <time>2022-05-26T12:50:09Z</time>
      </trkpt>
      <trkpt lat="48.02814" lon="6.97219">
        <ele>1112</ele>
        <time>2022-05-26T12:50:12Z</time>
      </trkpt>
      <trkpt lat="48.02823" lon="6.97211">
        <ele>1110.7</ele>
        <time>2022-05-26T12:50:15Z</time>
      </trkpt>
      <trkpt lat="48.02833" lon="6.972">
        <ele>1111.4</ele>
        <time>2022-05-26T12:50:18Z</time>
      </trkpt>
      <trkpt lat="48.02841" lon="6.97189">
        <ele>1110.4</ele>
        <time>2022-05-26T12:50:21Z</time>
      </trkpt>
      <trkpt lat="48.02848" lon="6.97177">
        <ele>1111.5</ele>
        <time>2022-05-26T12:50:24Z</time>
      </trkpt>
      <trkpt lat="48.02856" lon="6.97164">
        <ele>1109.6</ele>
        <time>2022-05-26T12:50:27Z</time>
      </trkpt>
      <trkpt lat="48.02864" lon="6.9715">
        <ele>1110.1</ele>
        <time>2022-05-26T12:50:30Z</time>
      </trkpt>
      <trkpt lat="48.02872" lon="6.97138">
        <ele>1108</ele>
        <time>2022-05-26T12:50:33Z</time>
      </trkpt>
      <trkpt lat="48.0288" lon="6.97124">
        <ele>1108.8</ele>
        <time>2022-05-26T12:50:36Z</time>
      </trkpt>
      <trkpt lat="48.02889" lon="6.97111">
        <ele>1109.2</ele>
        <time>2022-05-26T12:50:39Z</time>
      </trkpt>
      <trkpt lat="48.02898" lon="6.97098">
        <ele>1108.4</ele>
        <time>2022-05-26T12:50:42Z</time>
      </trkpt>
      <trkpt lat="48.02908" lon="6.97086">
        <ele>1108.2</ele>
        <time>2022-05-26T12:50:45Z</time>
      </trkpt>
      <trkpt lat="48.02917" lon="6.97074">
        <ele>1108.3</ele>
        <time>2022-05-26T12:50:48Z</time>
      </trkpt>
      <trkpt lat="48.02924" lon="6.97064">
        <ele>1107.8</ele>
        <time>2022-05-26T12:50:50Z</time>
      </trkpt>
      <trkpt lat="48.02934" lon="6.97051">
        <ele>1109.9</ele>
        <time>2022-05-26T12:50:53Z</time>
      </trkpt>
      <trkpt lat="48.02942" lon="6.97042">
        <ele>1108.3</ele>
        <time>2022-05-26T12:50:55Z</time>
      </trkpt>
      <trkpt lat="48.0295" lon="6.97033">
        <ele>1105.2</ele>
        <time>2022-05-26T12:50:57Z</time>
      </trkpt>
      <trkpt lat="48.02959" lon="6.97022">
        <ele>1107.9</ele>
        <time>2022-05-26T12:51:00Z</time>
      </trkpt>
      <trkpt lat="48.02966" lon="6.97011">
        <ele>1107.5</ele>
        <time>2022-05-26T12:51:02Z</time>
      </trkpt>
      <trkpt lat="48.02973" lon="6.97001">
        <ele>1106.5</ele>
        <time>2022-05-26T12:51:04Z</time>
      </trkpt>
      <trkpt lat="48.02982" lon="6.96991">
        <ele>1105.9</ele>
        <time>2022-05-26T12:51:06Z</time>
      </trkpt>
      <trkpt lat="48.02992" lon="6.96982">
        <ele>1105.8</ele>
        <time>2022-05-26T12:51:08Z</time>
      </trkpt>
      <trkpt lat="48.03001" lon="6.96976">
        <ele>1105.7</ele>
        <time>2022-05-26T12:51:10Z</time>
      </trkpt>
      <trkpt lat="48.0301" lon="6.96972">
        <ele>1107.2</ele>
        <time>2022-05-26T12:51:12Z</time>
      </trkpt>
      <trkpt lat="48.03019" lon="6.9697">
        <ele>1106.8</ele>
        <time>2022-05-26T12:51:14Z</time>
      </trkpt>
      <trkpt lat="48.03029" lon="6.96969">
        <ele>1105.4</ele>
        <time>2022-05-26T12:51:16Z</time>
      </trkpt>
      <trkpt lat="48.03038" lon="6.96971">
        <ele>1106.7</ele>
        <time>2022-05-26T12:51:18Z</time>
      </trkpt>
      <trkpt lat="48.03048" lon="6.96973">
        <ele>1106.4</ele>
        <time>2022-05-26T12:51:20Z</time>
      </trkpt>
      <trkpt lat="48.03057" lon="6.96978">
        <ele>1106.6</ele>
        <time>2022-05-26T12:51:22Z</time>
      </trkpt>
      <trkpt lat="48.03067" lon="6.96991">
        <ele>1107.7</ele>
        <time>2022-05-26T12:51:25Z</time>
      </trkpt>
      <trkpt lat="48.03074" lon="6.97002">
        <ele>1108.4</ele>
        <time>2022-05-26T12:51:28Z</time>
      </trkpt>
      <trkpt lat="48.03082" lon="6.97012">
        <ele>1108.6</ele>
        <time>2022-05-26T12:51:32Z</time>
      </trkpt>
      <trkpt lat="48.03091" lon="6.97018">
        <ele>1109</ele>
        <time>2022-05-26T12:51:36Z</time>
      </trkpt>
      <trkpt lat="48.03101" lon="6.97024">
        <ele>1107.9</ele>
        <time>2022-05-26T12:51:40Z</time>
      </trkpt>
      <trkpt lat="48.03111" lon="6.97032">
        <ele>1109.1</ele>
        <time>2022-05-26T12:51:44Z</time>
      </trkpt>
      <trkpt lat="48.03118" lon="6.97041">
        <ele>1109.4</ele>
        <time>2022-05-26T12:51:48Z</time>
      </trkpt>
      <trkpt lat="48.03126" lon="6.97051">
        <ele>1111</ele>
        <time>2022-05-26T12:51:54Z</time>
      </trkpt>
      <trkpt lat="48.03133" lon="6.97061">
        <ele>1112.7</ele>
        <time>2022-05-26T12:52:00Z</time>
      </trkpt>
      <trkpt lat="48.03139" lon="6.97074">
        <ele>1114.1</ele>
        <time>2022-05-26T12:52:06Z</time>
      </trkpt>
      <trkpt lat="48.03144" lon="6.97087">
        <ele>1115</ele>
        <time>2022-05-26T12:52:12Z</time>
      </trkpt>
      <trkpt lat="48.03149" lon="6.97099">
        <ele>1116.2</ele>
        <time>2022-05-26T12:52:18Z</time>
      </trkpt>
      <trkpt lat="48.03154" lon="6.97113">
        <ele>1117.6</ele>
        <time>2022-05-26T12:52:24Z</time>
      </trkpt>
      <trkpt lat="48.03159" lon="6.97126">
        <ele>1118.8</ele>
        <time>2022-05-26T12:52:30Z</time>
      </trkpt>
      <trkpt lat="48.03164" lon="6.9714">
        <ele>1119.3</ele>
        <time>2022-05-26T12:52:36Z</time>
      </trkpt>
      <trkpt lat="48.03169" lon="6.97153">
        <ele>1120.9</ele>
        <time>2022-05-26T12:52:42Z</time>
      </trkpt>
      <trkpt lat="48.03174" lon="6.97166">
        <ele>1122.7</ele>
        <time>2022-05-26T12:52:48Z</time>
      </trkpt>
      <trkpt lat="48.03179" lon="6.97178">
        <ele>1123</ele>
        <time>2022-05-26T12:52:54Z</time>
      </trkpt>
      <trkpt lat="48.03185" lon="6.9719">
        <ele>1124.3</ele>
        <time>2022-05-26T12:52:59Z</time>
      </trkpt>
      <trkpt lat="48.03189" lon="6.97205">
        <ele>1124.4</ele>
        <time>2022-05-26T12:53:04Z</time>
      </trkpt>
      <trkpt lat="48.03191" lon="6.97219">
        <ele>1124.8</ele>
        <time>2022-05-26T12:53:09Z</time>
      </trkpt>
      <trkpt lat="48.03194" lon="6.97235">
        <ele>1126.1</ele>
        <time>2022-05-26T12:53:15Z</time>
      </trkpt>
      <trkpt lat="48.03196" lon="6.97249">
        <ele>1126</ele>
        <time>2022-05-26T12:53:20Z</time>
      </trkpt>
      <trkpt lat="48.03198" lon="6.97262">
        <ele>1126.1</ele>
        <time>2022-05-26T12:53:24Z</time>
      </trkpt>
      <trkpt lat="48.03199" lon="6.9728">
        <ele>1123.7</ele>
        <time>2022-05-26T12:53:28Z</time>
      </trkpt>
      <trkpt lat="48.03199" lon="6.97297">
        <ele>1122.3</ele>
        <time>2022-05-26T12:53:32Z</time>
      </trkpt>
      <trkpt lat="48.03199" lon="6.97315">
        <ele>1120.2</ele>
        <time>2022-05-26T12:53:36Z</time>
      </trkpt>
      <trkpt lat="48.03199" lon="6.97332">
        <ele>1120.1</ele>
        <time>2022-05-26T12:53:39Z</time>
      </trkpt>
      <trkpt lat="48.03199" lon="6.97346">
        <ele>1118</ele>
        <time>2022-05-26T12:53:41Z</time>
      </trkpt>
      <trkpt lat="48.032" lon="6.97363">
        <ele>1119.5</ele>
        <time>2022-05-26T12:53:43Z</time>
      </trkpt>
      <trkpt lat="48.03201" lon="6.97382">
        <ele>1116</ele>
        <time>2022-05-26T12:53:45Z</time>
      </trkpt>
      <trkpt lat="48.03203" lon="6.97404">
        <ele>1112.2</ele>
        <time>2022-05-26T12:53:47Z</time>
      </trkpt>
      <trkpt lat="48.03205" lon="6.97424">
        <ele>1112.2</ele>
        <time>2022-05-26T12:53:49Z</time>
      </trkpt>
      <trkpt lat="48.0321" lon="6.97443">
        <ele>1112.9</ele>
        <time>2022-05-26T12:53:51Z</time>
      </trkpt>
      <trkpt lat="48.03214" lon="6.9746">
        <ele>1109.5</ele>
        <time>2022-05-26T12:53:53Z</time>
      </trkpt>
      <trkpt lat="48.03219" lon="6.97475">
        <ele>1110.4</ele>
        <time>2022-05-26T12:53:55Z</time>
      </trkpt>
      <trkpt lat="48.03222" lon="6.97491">
        <ele>1105.9</ele>
        <time>2022-05-26T12:53:57Z</time>
      </trkpt>
      <trkpt lat="48.03224" lon="6.97509">
        <ele>1102.2</ele>
        <time>2022-05-26T12:53:59Z</time>
      </trkpt>
      <trkpt lat="48.03225" lon="6.97528">
        <ele>1103.8</ele>
        <time>2022-05-26T12:54:01Z</time>
      </trkpt>
      <trkpt lat="48.03229" lon="6.97545">
        <ele>1102.9</ele>
        <time>2022-05-26T12:54:03Z</time>
      </trkpt>
      <trkpt lat="48.03232" lon="6.97563">
        <ele>1099.1</ele>
        <time>2022-05-26T12:54:05Z</time>
      </trkpt>
      <trkpt lat="48.03235" lon="6.97579">
        <ele>1097.5</ele>
        <time>2022-05-26T12:54:07Z</time>
      </trkpt>
      <trkpt lat="48.03239" lon="6.97594">
        <ele>1094.4</ele>
        <time>2022-05-26T12:54:09Z</time>
      </trkpt>
      <trkpt lat="48.03242" lon="6.9761">
        <ele>1094.5</ele>
        <time>2022-05-26T12:54:11Z</time>
      </trkpt>
      <trkpt lat="48.03246" lon="6.97624">
        <ele>1095.9</ele>
        <time>2022-05-26T12:54:13Z</time>
      </trkpt>
      <trkpt lat="48.03247" lon="6.97638">
        <ele>1095.4</ele>
        <time>2022-05-26T12:54:15Z</time>
      </trkpt>
      <trkpt lat="48.03249" lon="6.97653">
        <ele>1095</ele>
        <time>2022-05-26T12:54:17Z</time>
      </trkpt>
      <trkpt lat="48.03253" lon="6.9767">
        <ele>1092.6</ele>
        <time>2022-05-26T12:54:19Z</time>
      </trkpt>
      <trkpt lat="48.03257" lon="6.97685">
        <ele>1090.5</ele>
        <time>2022-05-26T12:54:21Z</time>
      </trkpt>
      <trkpt lat="48.03262" lon="6.97697">
        <ele>1089.6</ele>
        <time>2022-05-26T12:54:23Z</time>
      </trkpt>
      <trkpt lat="48.03268" lon="6.97708">
        <ele>1087.7</ele>
        <time>2022-05-26T12:54:25Z</time>
      </trkpt>
      <trkpt lat="48.03274" lon="6.97721">
        <ele>1088.1</ele>
        <time>2022-05-26T12:54:27Z</time>
      </trkpt>
      <trkpt lat="48.03277" lon="6.97736">
        <ele>1087.4</ele>
        <time>2022-05-26T12:54:30Z</time>
      </trkpt>
      <trkpt lat="48.03278" lon="6.97744">
        <ele>1085.6</ele>
        <time>2022-05-26T12:54:37Z</time>
      </trkpt>
      <trkpt lat="48.03278" lon="6.97743">
        <ele>1085.9</ele>
        <time>2022-05-26T12:54:46Z</time>
      </trkpt>
      <trkpt lat="48.03277" lon="6.97737">
        <ele>1086.7</ele>
        <time>2022-05-26T12:54:52Z</time>
      </trkpt>
      <trkpt lat="48.03277" lon="6.97736">
        <ele>1086.9</ele>
        <time>2022-05-26T12:54:55Z</time>
      </trkpt>
      <trkpt lat="48.03273" lon="6.97723">
        <ele>1088.2</ele>
        <time>2022-05-26T12:55:03Z</time>
      </trkpt>
      <trkpt lat="48.03269" lon="6.9771">
        <ele>1088.2</ele>
        <time>2022-05-26T12:55:12Z</time>
      </trkpt>
      <trkpt lat="48.03266" lon="6.97696">
        <ele>1088</ele>
        <time>2022-05-26T12:55:17Z</time>
      </trkpt>
      <trkpt lat="48.03269" lon="6.97683">
        <ele>1087.1</ele>
        <time>2022-05-26T12:55:22Z</time>
      </trkpt>
      <trkpt lat="48.0327" lon="6.97682">
        <ele>1087</ele>
        <time>2022-05-26T12:55:25Z</time>
      </trkpt>
      <trkpt lat="48.03277" lon="6.97674">
        <ele>1084.6</ele>
        <time>2022-05-26T12:55:31Z</time>
      </trkpt>
      <trkpt lat="48.03286" lon="6.9767">
        <ele>1081.6</ele>
        <time>2022-05-26T12:55:39Z</time>
      </trkpt>
      <trkpt lat="48.03297" lon="6.97668">
        <ele>1079.5</ele>
        <time>2022-05-26T12:55:42Z</time>
      </trkpt>
      <trkpt lat="48.03308" lon="6.97665">
        <ele>1076.3</ele>
        <time>2022-05-26T12:55:45Z</time>
      </trkpt>
      <trkpt lat="48.03318" lon="6.97661">
        <ele>1074.6</ele>
        <time>2022-05-26T12:55:49Z</time>
      </trkpt>
      <trkpt lat="48.03328" lon="6.97659">
        <ele>1073.3</ele>
        <time>2022-05-26T12:55:53Z</time>
      </trkpt>
      <trkpt lat="48.0334" lon="6.97657">
        <ele>1069.9</ele>
        <time>2022-05-26T12:55:56Z</time>
      </trkpt>
      <trkpt lat="48.03352" lon="6.9765">
        <ele>1067.4</ele>
        <time>2022-05-26T12:55:59Z</time>
      </trkpt>
      <trkpt lat="48.03362" lon="6.97642">
        <ele>1063.8</ele>
        <time>2022-05-26T12:56:02Z</time>
      </trkpt>
      <trkpt lat="48.03373" lon="6.9764">
        <ele>1060.6</ele>
        <time>2022-05-26T12:56:05Z</time>
      </trkpt>
      <trkpt lat="48.0338" lon="6.9765">
        <ele>1060</ele>
        <time>2022-05-26T12:56:08Z</time>
      </trkpt>
      <trkpt lat="48.03387" lon="6.97663">
        <ele>1057.9</ele>
        <time>2022-05-26T12:56:13Z</time>
      </trkpt>
      <trkpt lat="48.03393" lon="6.97674">
        <ele>1055.5</ele>
        <time>2022-05-26T12:56:18Z</time>
      </trkpt>
      <trkpt lat="48.03394" lon="6.97675">
        <ele>1055.4</ele>
        <time>2022-05-26T12:56:20Z</time>
      </trkpt>
      <trkpt lat="48.03397" lon="6.97682">
        <ele>1053.8</ele>
        <time>2022-05-26T12:56:27Z</time>
      </trkpt>
      <trkpt lat="48.03406" lon="6.97687">
        <ele>1051.4</ele>
        <time>2022-05-26T12:56:52Z</time>
      </trkpt>
      <trkpt lat="48.0341" lon="6.977">
        <ele>1047.7</ele>
        <time>2022-05-26T12:56:57Z</time>
      </trkpt>
      <trkpt lat="48.03407" lon="6.97716">
        <ele>1046.4</ele>
        <time>2022-05-26T12:57:00Z</time>
      </trkpt>
      <trkpt lat="48.03417" lon="6.97711">
        <ele>1042.7</ele>
        <time>2022-05-26T12:57:06Z</time>
      </trkpt>
      <trkpt lat="48.03419" lon="6.97696">
        <ele>1041.2</ele>
        <time>2022-05-26T12:57:08Z</time>
      </trkpt>
      <trkpt lat="48.03421" lon="6.97677">
        <ele>1039.8</ele>
        <time>2022-05-26T12:57:11Z</time>
      </trkpt>
      <trkpt lat="48.0342" lon="6.97659">
        <ele>1038.7</ele>
        <time>2022-05-26T12:57:14Z</time>
      </trkpt>
      <trkpt lat="48.0342" lon="6.97655">
        <ele>1038.1</ele>
        <time>2022-05-26T12:57:17Z</time>
      </trkpt>
      <trkpt lat="48.0342" lon="6.97654">
        <ele>1038.4</ele>
        <time>2022-05-26T12:57:26Z</time>
      </trkpt>
      <trkpt lat="48.03422" lon="6.97668">
        <ele>1039.6</ele>
        <time>2022-05-26T12:57:46Z</time>
      </trkpt>
      <trkpt lat="48.0342" lon="6.97682">
        <ele>1041</ele>
        <time>2022-05-26T12:57:56Z</time>
      </trkpt>
      <trkpt lat="48.03415" lon="6.97695">
        <ele>1042.5</ele>
        <time>2022-05-26T12:58:04Z</time>
      </trkpt>
      <trkpt lat="48.03412" lon="6.97709">
        <ele>1041.3</ele>
        <time>2022-05-26T12:58:10Z</time>
      </trkpt>
      <trkpt lat="48.03409" lon="6.97722">
        <ele>1043.9</ele>
        <time>2022-05-26T12:58:18Z</time>
      </trkpt>
      <trkpt lat="48.03409" lon="6.97724">
        <ele>1045.1</ele>
        <time>2022-05-26T12:58:21Z</time>
      </trkpt>
      <trkpt lat="48.03411" lon="6.97738">
        <ele>1044</ele>
        <time>2022-05-26T12:58:32Z</time>
      </trkpt>
      <trkpt lat="48.03414" lon="6.97751">
        <ele>1043.3</ele>
        <time>2022-05-26T12:58:41Z</time>
      </trkpt>
      <trkpt lat="48.0341" lon="6.97763">
        <ele>1044.1</ele>
        <time>2022-05-26T12:58:53Z</time>
      </trkpt>
      <trkpt lat="48.03401" lon="6.97768">
        <ele>1047.5</ele>
        <time>2022-05-26T12:59:11Z</time>
      </trkpt>
      <trkpt lat="48.03401" lon="6.97769">
        <ele>1048.1</ele>
        <time>2022-05-26T12:59:15Z</time>
      </trkpt>
      <trkpt lat="48.03395" lon="6.97772">
        <ele>1050.6</ele>
        <time>2022-05-26T12:59:30Z</time>
      </trkpt>
      <trkpt lat="48.03393" lon="6.97774">
        <ele>1051.8</ele>
        <time>2022-05-26T12:59:41Z</time>
      </trkpt>
      <trkpt lat="48.03391" lon="6.97776">
        <ele>1053.2</ele>
        <time>2022-05-26T12:59:51Z</time>
      </trkpt>
      <trkpt lat="48.03388" lon="6.97778">
        <ele>1054.9</ele>
        <time>2022-05-26T13:00:01Z</time>
      </trkpt>
      <trkpt lat="48.03386" lon="6.97779">
        <ele>1056.1</ele>
        <time>2022-05-26T13:00:09Z</time>
      </trkpt>
      <trkpt lat="48.03384" lon="6.9778">
        <ele>1057.7</ele>
        <time>2022-05-26T13:00:17Z</time>
      </trkpt>
      <trkpt lat="48.03383" lon="6.9778">
        <ele>1058.5</ele>
        <time>2022-05-26T13:00:25Z</time>
      </trkpt>
      <trkpt lat="48.03382" lon="6.97781">
        <ele>1059.1</ele>
        <time>2022-05-26T13:00:29Z</time>
      </trkpt>
      <trkpt lat="48.03382" lon="6.97782">
        <ele>1059.2</ele>
        <time>2022-05-26T13:00:35Z</time>
      </trkpt>
      <trkpt lat="48.03382" lon="6.9779">
        <ele>1061.3</ele>
        <time>2022-05-26T13:00:49Z</time>
      </trkpt>
      <trkpt lat="48.03383" lon="6.9779">
        <ele>1061.4</ele>
        <time>2022-05-26T13:01:05Z</time>
      </trkpt>
      <trkpt lat="48.03383" lon="6.97791">
        <ele>1060.9</ele>
        <time>2022-05-26T13:01:43Z</time>
      </trkpt>
      <trkpt lat="48.03384" lon="6.97793">
        <ele>1061.4</ele>
        <time>2022-05-26T13:01:47Z</time>
      </trkpt>
      <trkpt lat="48.03385" lon="6.97793">
        <ele>1060.7</ele>
        <time>2022-05-26T13:02:08Z</time>
      </trkpt>
      <trkpt lat="48.03385" lon="6.97794">
        <ele>1061.2</ele>
        <time>2022-05-26T13:02:11Z</time>
      </trkpt>
      <trkpt lat="48.03386" lon="6.97794">
        <ele>1060.9</ele>
        <time>2022-05-26T13:02:14Z</time>
      </trkpt>
      <trkpt lat="48.03386" lon="6.97795">
        <ele>1060.8</ele>
        <time>2022-05-26T13:02:18Z</time>
      </trkpt>
      <trkpt lat="48.03384" lon="6.97796">
        <ele>1060.8</ele>
        <time>2022-05-26T13:02:28Z</time>
      </trkpt>
      <trkpt lat="48.03385" lon="6.97796">
        <ele>1060.6</ele>
        <time>2022-05-26T13:02:35Z</time>
      </trkpt>
      <trkpt lat="48.03385" lon="6.97797">
        <ele>1060.4</ele>
        <time>2022-05-26T13:02:47Z</time>
      </trkpt>
      <trkpt lat="48.03385" lon="6.97798">
        <ele>1061.5</ele>
        <time>2022-05-26T13:03:30Z</time>
      </trkpt>
      <trkpt lat="48.03393" lon="6.97806">
        <ele>1061.8</ele>
        <time>2022-05-26T13:03:36Z</time>
      </trkpt>
      <trkpt lat="48.03401" lon="6.97814">
        <ele>1063.4</ele>
        <time>2022-05-26T13:03:41Z</time>
      </trkpt>
      <trkpt lat="48.03409" lon="6.97823">
        <ele>1060.7</ele>
        <time>2022-05-26T13:03:45Z</time>
      </trkpt>
      <trkpt lat="48.03418" lon="6.97833">
        <ele>1059.6</ele>
        <time>2022-05-26T13:03:49Z</time>
      </trkpt>
      <trkpt lat="48.03428" lon="6.97843">
        <ele>1059.2</ele>
        <time>2022-05-26T13:03:53Z</time>
      </trkpt>
      <trkpt lat="48.0343" lon="6.97856">
        <ele>1061.1</ele>
        <time>2022-05-26T13:03:57Z</time>
      </trkpt>
      <trkpt lat="48.03423" lon="6.9787">
        <ele>1061.3</ele>
        <time>2022-05-26T13:04:02Z</time>
      </trkpt>
      <trkpt lat="48.03415" lon="6.9788">
        <ele>1060.9</ele>
        <time>2022-05-26T13:04:06Z</time>
      </trkpt>
      <trkpt lat="48.03409" lon="6.9789">
        <ele>1061.5</ele>
        <time>2022-05-26T13:04:09Z</time>
      </trkpt>
      <trkpt lat="48.03402" lon="6.979">
        <ele>1061.5</ele>
        <time>2022-05-26T13:04:12Z</time>
      </trkpt>
      <trkpt lat="48.03398" lon="6.97914">
        <ele>1061</ele>
        <time>2022-05-26T13:04:16Z</time>
      </trkpt>
      <trkpt lat="48.03396" lon="6.97931">
        <ele>1059.9</ele>
        <time>2022-05-26T13:04:20Z</time>
      </trkpt>
      <trkpt lat="48.03393" lon="6.97945">
        <ele>1060.1</ele>
        <time>2022-05-26T13:04:23Z</time>
      </trkpt>
      <trkpt lat="48.03392" lon="6.97958">
        <ele>1060.6</ele>
        <time>2022-05-26T13:04:26Z</time>
      </trkpt>
      <trkpt lat="48.03389" lon="6.97971">
        <ele>1059.7</ele>
        <time>2022-05-26T13:04:29Z</time>
      </trkpt>
      <trkpt lat="48.03386" lon="6.97985">
        <ele>1061.1</ele>
        <time>2022-05-26T13:04:32Z</time>
      </trkpt>
      <trkpt lat="48.03383" lon="6.97999">
        <ele>1060.9</ele>
        <time>2022-05-26T13:04:35Z</time>
      </trkpt>
      <trkpt lat="48.03379" lon="6.98013">
        <ele>1062.3</ele>
        <time>2022-05-26T13:04:38Z</time>
      </trkpt>
      <trkpt lat="48.03378" lon="6.98028">
        <ele>1062</ele>
        <time>2022-05-26T13:04:41Z</time>
      </trkpt>
      <trkpt lat="48.03377" lon="6.98045">
        <ele>1062</ele>
        <time>2022-05-26T13:04:45Z</time>
      </trkpt>
      <trkpt lat="48.03376" lon="6.98058">
        <ele>1063.3</ele>
        <time>2022-05-26T13:04:49Z</time>
      </trkpt>
      <trkpt lat="48.03374" lon="6.98074">
        <ele>1064.1</ele>
        <time>2022-05-26T13:04:54Z</time>
      </trkpt>
      <trkpt lat="48.03372" lon="6.98089">
        <ele>1064.4</ele>
        <time>2022-05-26T13:04:59Z</time>
      </trkpt>
      <trkpt lat="48.0337" lon="6.98103">
        <ele>1065.8</ele>
        <time>2022-05-26T13:05:04Z</time>
      </trkpt>
      <trkpt lat="48.0337" lon="6.98119">
        <ele>1067.1</ele>
        <time>2022-05-26T13:05:10Z</time>
      </trkpt>
      <trkpt lat="48.0337" lon="6.98134">
        <ele>1067.3</ele>
        <time>2022-05-26T13:05:15Z</time>
      </trkpt>
      <trkpt lat="48.03371" lon="6.98148">
        <ele>1068.8</ele>
        <time>2022-05-26T13:05:20Z</time>
      </trkpt>
      <trkpt lat="48.03374" lon="6.98161">
        <ele>1070.1</ele>
        <time>2022-05-26T13:05:25Z</time>
      </trkpt>
      <trkpt lat="48.03376" lon="6.98174">
        <ele>1070.5</ele>
        <time>2022-05-26T13:05:30Z</time>
      </trkpt>
      <trkpt lat="48.03376" lon="6.98188">
        <ele>1072.3</ele>
        <time>2022-05-26T13:05:35Z</time>
      </trkpt>
      <trkpt lat="48.03375" lon="6.98202">
        <ele>1073.3</ele>
        <time>2022-05-26T13:05:40Z</time>
      </trkpt>
      <trkpt lat="48.03372" lon="6.98217">
        <ele>1073.2</ele>
        <time>2022-05-26T13:05:46Z</time>
      </trkpt>
      <trkpt lat="48.03368" lon="6.9823">
        <ele>1075</ele>
        <time>2022-05-26T13:05:51Z</time>
      </trkpt>
      <trkpt lat="48.03365" lon="6.98245">
        <ele>1075.7</ele>
        <time>2022-05-26T13:05:57Z</time>
      </trkpt>
      <trkpt lat="48.03361" lon="6.98258">
        <ele>1076.7</ele>
        <time>2022-05-26T13:06:02Z</time>
      </trkpt>
      <trkpt lat="48.03358" lon="6.98273">
        <ele>1077.5</ele>
        <time>2022-05-26T13:06:08Z</time>
      </trkpt>
      <trkpt lat="48.03356" lon="6.98288">
        <ele>1077.9</ele>
        <time>2022-05-26T13:06:13Z</time>
      </trkpt>
      <trkpt lat="48.03352" lon="6.983">
        <ele>1079.7</ele>
        <time>2022-05-26T13:06:18Z</time>
      </trkpt>
      <trkpt lat="48.03347" lon="6.98312">
        <ele>1080.3</ele>
        <time>2022-05-26T13:06:23Z</time>
      </trkpt>
      <trkpt lat="48.03342" lon="6.98325">
        <ele>1080.4</ele>
        <time>2022-05-26T13:06:28Z</time>
      </trkpt>
      <trkpt lat="48.03337" lon="6.98337">
        <ele>1081.3</ele>
        <time>2022-05-26T13:06:33Z</time>
      </trkpt>
      <trkpt lat="48.03332" lon="6.98348">
        <ele>1082.8</ele>
        <time>2022-05-26T13:06:38Z</time>
      </trkpt>
      <trkpt lat="48.03327" lon="6.9836">
        <ele>1083.2</ele>
        <time>2022-05-26T13:06:43Z</time>
      </trkpt>
      <trkpt lat="48.03324" lon="6.98374">
        <ele>1085</ele>
        <time>2022-05-26T13:06:48Z</time>
      </trkpt>
      <trkpt lat="48.03319" lon="6.98387">
        <ele>1085.4</ele>
        <time>2022-05-26T13:06:53Z</time>
      </trkpt>
      <trkpt lat="48.03314" lon="6.98398">
        <ele>1085.7</ele>
        <time>2022-05-26T13:06:58Z</time>
      </trkpt>
      <trkpt lat="48.03309" lon="6.98409">
        <ele>1087.1</ele>
        <time>2022-05-26T13:07:03Z</time>
      </trkpt>
      <trkpt lat="48.03306" lon="6.98422">
        <ele>1088.5</ele>
        <time>2022-05-26T13:07:08Z</time>
      </trkpt>
      <trkpt lat="48.03302" lon="6.98435">
        <ele>1088.9</ele>
        <time>2022-05-26T13:07:13Z</time>
      </trkpt>
      <trkpt lat="48.03296" lon="6.98447">
        <ele>1090.5</ele>
        <time>2022-05-26T13:07:19Z</time>
      </trkpt>
      <trkpt lat="48.03291" lon="6.98458">
        <ele>1090.9</ele>
        <time>2022-05-26T13:07:24Z</time>
      </trkpt>
      <trkpt lat="48.03284" lon="6.98467">
        <ele>1092.8</ele>
        <time>2022-05-26T13:07:29Z</time>
      </trkpt>
      <trkpt lat="48.03277" lon="6.98478">
        <ele>1092.4</ele>
        <time>2022-05-26T13:07:34Z</time>
      </trkpt>
      <trkpt lat="48.03272" lon="6.98489">
        <ele>1094.4</ele>
        <time>2022-05-26T13:07:39Z</time>
      </trkpt>
      <trkpt lat="48.03266" lon="6.98501">
        <ele>1093.8</ele>
        <time>2022-05-26T13:07:44Z</time>
      </trkpt>
      <trkpt lat="48.03262" lon="6.98514">
        <ele>1095.3</ele>
        <time>2022-05-26T13:07:49Z</time>
      </trkpt>
      <trkpt lat="48.03257" lon="6.98527">
        <ele>1096.6</ele>
        <time>2022-05-26T13:07:54Z</time>
      </trkpt>
      <trkpt lat="48.03252" lon="6.9854">
        <ele>1097.1</ele>
        <time>2022-05-26T13:07:59Z</time>
      </trkpt>
      <trkpt lat="48.03247" lon="6.98552">
        <ele>1098</ele>
        <time>2022-05-26T13:08:04Z</time>
      </trkpt>
      <trkpt lat="48.0324" lon="6.98564">
        <ele>1098.4</ele>
        <time>2022-05-26T13:08:09Z</time>
      </trkpt>
      <trkpt lat="48.03234" lon="6.98575">
        <ele>1098.6</ele>
        <time>2022-05-26T13:08:14Z</time>
      </trkpt>
      <trkpt lat="48.03229" lon="6.98587">
        <ele>1100.6</ele>
        <time>2022-05-26T13:08:19Z</time>
      </trkpt>
      <trkpt lat="48.03222" lon="6.986">
        <ele>1100.6</ele>
        <time>2022-05-26T13:08:25Z</time>
      </trkpt>
      <trkpt lat="48.03217" lon="6.98613">
        <ele>1102.2</ele>
        <time>2022-05-26T13:08:30Z</time>
      </trkpt>
      <trkpt lat="48.03212" lon="6.98625">
        <ele>1102.4</ele>
        <time>2022-05-26T13:08:35Z</time>
      </trkpt>
      <trkpt lat="48.03207" lon="6.98637">
        <ele>1102.8</ele>
        <time>2022-05-26T13:08:40Z</time>
      </trkpt>
      <trkpt lat="48.03203" lon="6.98649">
        <ele>1104.2</ele>
        <time>2022-05-26T13:08:45Z</time>
      </trkpt>
      <trkpt lat="48.03199" lon="6.98663">
        <ele>1104.8</ele>
        <time>2022-05-26T13:08:50Z</time>
      </trkpt>
      <trkpt lat="48.03195" lon="6.98677">
        <ele>1104.3</ele>
        <time>2022-05-26T13:08:55Z</time>
      </trkpt>
      <trkpt lat="48.0319" lon="6.98689">
        <ele>1106</ele>
        <time>2022-05-26T13:09:00Z</time>
      </trkpt>
      <trkpt lat="48.03187" lon="6.98702">
        <ele>1106.8</ele>
        <time>2022-05-26T13:09:05Z</time>
      </trkpt>
      <trkpt lat="48.03183" lon="6.98715">
        <ele>1107.9</ele>
        <time>2022-05-26T13:09:10Z</time>
      </trkpt>
      <trkpt lat="48.03177" lon="6.98728">
        <ele>1108.9</ele>
        <time>2022-05-26T13:09:15Z</time>
      </trkpt>
      <trkpt lat="48.03172" lon="6.98741">
        <ele>1109.7</ele>
        <time>2022-05-26T13:09:20Z</time>
      </trkpt>
      <trkpt lat="48.03168" lon="6.98756">
        <ele>1110</ele>
        <time>2022-05-26T13:09:25Z</time>
      </trkpt>
      <trkpt lat="48.03163" lon="6.98767">
        <ele>1110.7</ele>
        <time>2022-05-26T13:09:30Z</time>
      </trkpt>
      <trkpt lat="48.03159" lon="6.9878">
        <ele>1111.8</ele>
        <time>2022-05-26T13:09:35Z</time>
      </trkpt>
      <trkpt lat="48.03155" lon="6.98795">
        <ele>1113.3</ele>
        <time>2022-05-26T13:09:41Z</time>
      </trkpt>
      <trkpt lat="48.03149" lon="6.98806">
        <ele>1114.3</ele>
        <time>2022-05-26T13:09:46Z</time>
      </trkpt>
      <trkpt lat="48.03144" lon="6.98818">
        <ele>1115</ele>
        <time>2022-05-26T13:09:51Z</time>
      </trkpt>
      <trkpt lat="48.03138" lon="6.98829">
        <ele>1115.5</ele>
        <time>2022-05-26T13:09:56Z</time>
      </trkpt>
      <trkpt lat="48.03133" lon="6.9884">
        <ele>1115.6</ele>
        <time>2022-05-26T13:10:01Z</time>
      </trkpt>
      <trkpt lat="48.03128" lon="6.98853">
        <ele>1117.4</ele>
        <time>2022-05-26T13:10:06Z</time>
      </trkpt>
      <trkpt lat="48.03124" lon="6.98865">
        <ele>1118.5</ele>
        <time>2022-05-26T13:10:11Z</time>
      </trkpt>
      <trkpt lat="48.03121" lon="6.98878">
        <ele>1120.1</ele>
        <time>2022-05-26T13:10:16Z</time>
      </trkpt>
      <trkpt lat="48.03122" lon="6.98893">
        <ele>1120.6</ele>
        <time>2022-05-26T13:10:21Z</time>
      </trkpt>
      <trkpt lat="48.03125" lon="6.98907">
        <ele>1121.6</ele>
        <time>2022-05-26T13:10:26Z</time>
      </trkpt>
      <trkpt lat="48.03126" lon="6.98921">
        <ele>1121.3</ele>
        <time>2022-05-26T13:10:31Z</time>
      </trkpt>
      <trkpt lat="48.03123" lon="6.98935">
        <ele>1122.1</ele>
        <time>2022-05-26T13:10:36Z</time>
      </trkpt>
      <trkpt lat="48.03118" lon="6.98946">
        <ele>1122.7</ele>
        <time>2022-05-26T13:10:41Z</time>
      </trkpt>
      <trkpt lat="48.03109" lon="6.98954">
        <ele>1124.6</ele>
        <time>2022-05-26T13:10:46Z</time>
      </trkpt>
      <trkpt lat="48.03099" lon="6.98958">
        <ele>1125.2</ele>
        <time>2022-05-26T13:10:51Z</time>
      </trkpt>
      <trkpt lat="48.0309" lon="6.98962">
        <ele>1126.5</ele>
        <time>2022-05-26T13:10:55Z</time>
      </trkpt>
      <trkpt lat="48.03081" lon="6.98967">
        <ele>1124.8</ele>
        <time>2022-05-26T13:10:59Z</time>
      </trkpt>
      <trkpt lat="48.03073" lon="6.98971">
        <ele>1125.9</ele>
        <time>2022-05-26T13:11:03Z</time>
      </trkpt>
      <trkpt lat="48.03064" lon="6.98978">
        <ele>1125.9</ele>
        <time>2022-05-26T13:11:07Z</time>
      </trkpt>
      <trkpt lat="48.03056" lon="6.98986">
        <ele>1127.5</ele>
        <time>2022-05-26T13:11:12Z</time>
      </trkpt>
      <trkpt lat="48.03048" lon="6.98996">
        <ele>1127.8</ele>
        <time>2022-05-26T13:11:17Z</time>
      </trkpt>
      <trkpt lat="48.03041" lon="6.99006">
        <ele>1129.7</ele>
        <time>2022-05-26T13:11:22Z</time>
      </trkpt>
      <trkpt lat="48.03034" lon="6.99016">
        <ele>1130.4</ele>
        <time>2022-05-26T13:11:27Z</time>
      </trkpt>
      <trkpt lat="48.03027" lon="6.99026">
        <ele>1130.5</ele>
        <time>2022-05-26T13:11:32Z</time>
      </trkpt>
      <trkpt lat="48.03019" lon="6.99033">
        <ele>1132.4</ele>
        <time>2022-05-26T13:11:37Z</time>
      </trkpt>
      <trkpt lat="48.03011" lon="6.99039">
        <ele>1134.1</ele>
        <time>2022-05-26T13:11:42Z</time>
      </trkpt>
      <trkpt lat="48.03002" lon="6.99045">
        <ele>1134.4</ele>
        <time>2022-05-26T13:11:47Z</time>
      </trkpt>
      <trkpt lat="48.02992" lon="6.99051">
        <ele>1135.2</ele>
        <time>2022-05-26T13:11:52Z</time>
      </trkpt>
      <trkpt lat="48.02983" lon="6.99057">
        <ele>1135.1</ele>
        <time>2022-05-26T13:11:56Z</time>
      </trkpt>
      <trkpt lat="48.02975" lon="6.99066">
        <ele>1135.1</ele>
        <time>2022-05-26T13:12:00Z</time>
      </trkpt>
      <trkpt lat="48.02969" lon="6.99076">
        <ele>1135.8</ele>
        <time>2022-05-26T13:12:04Z</time>
      </trkpt>
      <trkpt lat="48.02963" lon="6.99088">
        <ele>1137.2</ele>
        <time>2022-05-26T13:12:08Z</time>
      </trkpt>
      <trkpt lat="48.0296" lon="6.99104">
        <ele>1137.9</ele>
        <time>2022-05-26T13:12:13Z</time>
      </trkpt>
      <trkpt lat="48.0296" lon="6.9912">
        <ele>1139</ele>
        <time>2022-05-26T13:12:18Z</time>
      </trkpt>
      <trkpt lat="48.02961" lon="6.99134">
        <ele>1140.3</ele>
        <time>2022-05-26T13:12:23Z</time>
      </trkpt>
      <trkpt lat="48.02965" lon="6.99149">
        <ele>1141.5</ele>
        <time>2022-05-26T13:12:29Z</time>
      </trkpt>
      <trkpt lat="48.02969" lon="6.99163">
        <ele>1143</ele>
        <time>2022-05-26T13:12:35Z</time>
      </trkpt>
      <trkpt lat="48.02974" lon="6.99176">
        <ele>1144.2</ele>
        <time>2022-05-26T13:12:41Z</time>
      </trkpt>
      <trkpt lat="48.02981" lon="6.99189">
        <ele>1144.8</ele>
        <time>2022-05-26T13:12:47Z</time>
      </trkpt>
      <trkpt lat="48.02985" lon="6.99202">
        <ele>1146.2</ele>
        <time>2022-05-26T13:12:53Z</time>
      </trkpt>
      <trkpt lat="48.02989" lon="6.99215">
        <ele>1148.5</ele>
        <time>2022-05-26T13:12:59Z</time>
      </trkpt>
      <trkpt lat="48.02991" lon="6.99228">
        <ele>1149</ele>
        <time>2022-05-26T13:13:05Z</time>
      </trkpt>
      <trkpt lat="48.02993" lon="6.99241">
        <ele>1150.8</ele>
        <time>2022-05-26T13:13:12Z</time>
      </trkpt>
      <trkpt lat="48.02993" lon="6.99257">
        <ele>1152.7</ele>
        <time>2022-05-26T13:13:19Z</time>
      </trkpt>
      <trkpt lat="48.02993" lon="6.99271">
        <ele>1153.2</ele>
        <time>2022-05-26T13:13:25Z</time>
      </trkpt>
      <trkpt lat="48.02993" lon="6.99285">
        <ele>1154.7</ele>
        <time>2022-05-26T13:13:31Z</time>
      </trkpt>
      <trkpt lat="48.02992" lon="6.99301">
        <ele>1156.1</ele>
        <time>2022-05-26T13:13:37Z</time>
      </trkpt>
      <trkpt lat="48.02989" lon="6.99316">
        <ele>1157.2</ele>
        <time>2022-05-26T13:13:43Z</time>
      </trkpt>
      <trkpt lat="48.02987" lon="6.99331">
        <ele>1158.5</ele>
        <time>2022-05-26T13:13:49Z</time>
      </trkpt>
      <trkpt lat="48.02986" lon="6.99347">
        <ele>1159</ele>
        <time>2022-05-26T13:13:55Z</time>
      </trkpt>
      <trkpt lat="48.02985" lon="6.99362">
        <ele>1160.1</ele>
        <time>2022-05-26T13:14:01Z</time>
      </trkpt>
      <trkpt lat="48.02984" lon="6.99377">
        <ele>1161.1</ele>
        <time>2022-05-26T13:14:06Z</time>
      </trkpt>
      <trkpt lat="48.02981" lon="6.99391">
        <ele>1161.7</ele>
        <time>2022-05-26T13:14:11Z</time>
      </trkpt>
      <trkpt lat="48.02976" lon="6.99405">
        <ele>1161.3</ele>
        <time>2022-05-26T13:14:16Z</time>
      </trkpt>
      <trkpt lat="48.02975" lon="6.9942">
        <ele>1162.1</ele>
        <time>2022-05-26T13:14:21Z</time>
      </trkpt>
      <trkpt lat="48.02975" lon="6.99434">
        <ele>1162.8</ele>
        <time>2022-05-26T13:14:25Z</time>
      </trkpt>
      <trkpt lat="48.02974" lon="6.99449">
        <ele>1163.7</ele>
        <time>2022-05-26T13:14:30Z</time>
      </trkpt>
      <trkpt lat="48.02971" lon="6.99462">
        <ele>1165.4</ele>
        <time>2022-05-26T13:14:35Z</time>
      </trkpt>
      <trkpt lat="48.02969" lon="6.99477">
        <ele>1166.8</ele>
        <time>2022-05-26T13:14:41Z</time>
      </trkpt>
      <trkpt lat="48.02966" lon="6.99491">
        <ele>1168.2</ele>
        <time>2022-05-26T13:14:47Z</time>
      </trkpt>
      <trkpt lat="48.02966" lon="6.99505">
        <ele>1169.6</ele>
        <time>2022-05-26T13:14:53Z</time>
      </trkpt>
      <trkpt lat="48.02965" lon="6.99519">
        <ele>1171.6</ele>
        <time>2022-05-26T13:15:01Z</time>
      </trkpt>
      <trkpt lat="48.02965" lon="6.99533">
        <ele>1172.7</ele>
        <time>2022-05-26T13:15:06Z</time>
      </trkpt>
      <trkpt lat="48.02965" lon="6.99547">
        <ele>1174.2</ele>
        <time>2022-05-26T13:15:12Z</time>
      </trkpt>
      <trkpt lat="48.02966" lon="6.99561">
        <ele>1174.8</ele>
        <time>2022-05-26T13:15:17Z</time>
      </trkpt>
      <trkpt lat="48.02967" lon="6.99575">
        <ele>1176.7</ele>
        <time>2022-05-26T13:15:22Z</time>
      </trkpt>
      <trkpt lat="48.02966" lon="6.99589">
        <ele>1178</ele>
        <time>2022-05-26T13:15:28Z</time>
      </trkpt>
      <trkpt lat="48.02965" lon="6.99604">
        <ele>1179.6</ele>
        <time>2022-05-26T13:15:35Z</time>
      </trkpt>
      <trkpt lat="48.02965" lon="6.99618">
        <ele>1180.9</ele>
        <time>2022-05-26T13:15:40Z</time>
      </trkpt>
      <trkpt lat="48.02965" lon="6.99634">
        <ele>1182.1</ele>
        <time>2022-05-26T13:15:46Z</time>
      </trkpt>
      <trkpt lat="48.02964" lon="6.99648">
        <ele>1183.2</ele>
        <time>2022-05-26T13:15:52Z</time>
      </trkpt>
      <trkpt lat="48.02964" lon="6.99663">
        <ele>1184.1</ele>
        <time>2022-05-26T13:15:58Z</time>
      </trkpt>
      <trkpt lat="48.02964" lon="6.99678">
        <ele>1185.2</ele>
        <time>2022-05-26T13:16:04Z</time>
      </trkpt>
      <trkpt lat="48.02964" lon="6.99693">
        <ele>1186</ele>
        <time>2022-05-26T13:16:10Z</time>
      </trkpt>
      <trkpt lat="48.02964" lon="6.99707">
        <ele>1187</ele>
        <time>2022-05-26T13:16:15Z</time>
      </trkpt>
      <trkpt lat="48.02963" lon="6.9972">
        <ele>1187.9</ele>
        <time>2022-05-26T13:16:20Z</time>
      </trkpt>
      <trkpt lat="48.02963" lon="6.99735">
        <ele>1189.2</ele>
        <time>2022-05-26T13:16:25Z</time>
      </trkpt>
      <trkpt lat="48.02964" lon="6.9975">
        <ele>1189.5</ele>
        <time>2022-05-26T13:16:30Z</time>
      </trkpt>
      <trkpt lat="48.02966" lon="6.99765">
        <ele>1190.4</ele>
        <time>2022-05-26T13:16:35Z</time>
      </trkpt>
      <trkpt lat="48.02968" lon="6.9978">
        <ele>1191.9</ele>
        <time>2022-05-26T13:16:40Z</time>
      </trkpt>
      <trkpt lat="48.02971" lon="6.99795">
        <ele>1192.8</ele>
        <time>2022-05-26T13:16:45Z</time>
      </trkpt>
      <trkpt lat="48.02974" lon="6.9981">
        <ele>1194.3</ele>
        <time>2022-05-26T13:16:50Z</time>
      </trkpt>
      <trkpt lat="48.02977" lon="6.99826">
        <ele>1194.5</ele>
        <time>2022-05-26T13:16:55Z</time>
      </trkpt>
      <trkpt lat="48.0298" lon="6.99842">
        <ele>1195.9</ele>
        <time>2022-05-26T13:17:00Z</time>
      </trkpt>
      <trkpt lat="48.02982" lon="6.99858">
        <ele>1196.6</ele>
        <time>2022-05-26T13:17:05Z</time>
      </trkpt>
      <trkpt lat="48.02983" lon="6.99874">
        <ele>1197.1</ele>
        <time>2022-05-26T13:17:10Z</time>
      </trkpt>
      <trkpt lat="48.02984" lon="6.99891">
        <ele>1198.1</ele>
        <time>2022-05-26T13:17:15Z</time>
      </trkpt>
      <trkpt lat="48.02993" lon="6.99898">
        <ele>1199.7</ele>
        <time>2022-05-26T13:17:20Z</time>
      </trkpt>
      <trkpt lat="48.02999" lon="6.99884">
        <ele>1200.8</ele>
        <time>2022-05-26T13:17:24Z</time>
      </trkpt>
      <trkpt lat="48.03001" lon="6.99867">
        <ele>1200.2</ele>
        <time>2022-05-26T13:17:28Z</time>
      </trkpt>
      <trkpt lat="48.03002" lon="6.99854">
        <ele>1201.2</ele>
        <time>2022-05-26T13:17:31Z</time>
      </trkpt>
      <trkpt lat="48.03004" lon="6.9984">
        <ele>1201.6</ele>
        <time>2022-05-26T13:17:34Z</time>
      </trkpt>
      <trkpt lat="48.03006" lon="6.99825">
        <ele>1203</ele>
        <time>2022-05-26T13:17:37Z</time>
      </trkpt>
      <trkpt lat="48.03009" lon="6.99809">
        <ele>1203</ele>
        <time>2022-05-26T13:17:40Z</time>
      </trkpt>
      <trkpt lat="48.03011" lon="6.99793">
        <ele>1202.8</ele>
        <time>2022-05-26T13:17:43Z</time>
      </trkpt>
      <trkpt lat="48.03013" lon="6.99776">
        <ele>1203.1</ele>
        <time>2022-05-26T13:17:46Z</time>
      </trkpt>
      <trkpt lat="48.03016" lon="6.99759">
        <ele>1203.4</ele>
        <time>2022-05-26T13:17:49Z</time>
      </trkpt>
      <trkpt lat="48.03019" lon="6.99742">
        <ele>1203</ele>
        <time>2022-05-26T13:17:52Z</time>
      </trkpt>
      <trkpt lat="48.03022" lon="6.99725">
        <ele>1203.4</ele>
        <time>2022-05-26T13:17:55Z</time>
      </trkpt>
      <trkpt lat="48.03026" lon="6.99708">
        <ele>1203.9</ele>
        <time>2022-05-26T13:17:58Z</time>
      </trkpt>
      <trkpt lat="48.0303" lon="6.99692">
        <ele>1204.5</ele>
        <time>2022-05-26T13:18:01Z</time>
      </trkpt>
      <trkpt lat="48.03033" lon="6.99675">
        <ele>1205.3</ele>
        <time>2022-05-26T13:18:04Z</time>
      </trkpt>
      <trkpt lat="48.03036" lon="6.99659">
        <ele>1205.5</ele>
        <time>2022-05-26T13:18:07Z</time>
      </trkpt>
      <trkpt lat="48.0304" lon="6.99642">
        <ele>1205.7</ele>
        <time>2022-05-26T13:18:10Z</time>
      </trkpt>
      <trkpt lat="48.03044" lon="6.99626">
        <ele>1204.9</ele>
        <time>2022-05-26T13:18:13Z</time>
      </trkpt>
      <trkpt lat="48.03048" lon="6.9961">
        <ele>1205.8</ele>
        <time>2022-05-26T13:18:16Z</time>
      </trkpt>
      <trkpt lat="48.0305" lon="6.99591">
        <ele>1205.4</ele>
        <time>2022-05-26T13:18:19Z</time>
      </trkpt>
      <trkpt lat="48.03052" lon="6.99574">
        <ele>1204.9</ele>
        <time>2022-05-26T13:18:22Z</time>
      </trkpt>
      <trkpt lat="48.03055" lon="6.9956">
        <ele>1204.5</ele>
        <time>2022-05-26T13:18:24Z</time>
      </trkpt>
      <trkpt lat="48.03058" lon="6.99545">
        <ele>1203.5</ele>
        <time>2022-05-26T13:18:26Z</time>
      </trkpt>
      <trkpt lat="48.0306" lon="6.99529">
        <ele>1203</ele>
        <time>2022-05-26T13:18:28Z</time>
      </trkpt>
      <trkpt lat="48.03063" lon="6.99514">
        <ele>1203.4</ele>
        <time>2022-05-26T13:18:30Z</time>
      </trkpt>
      <trkpt lat="48.03067" lon="6.99498">
        <ele>1203.1</ele>
        <time>2022-05-26T13:18:32Z</time>
      </trkpt>
      <trkpt lat="48.03071" lon="6.99483">
        <ele>1202.9</ele>
        <time>2022-05-26T13:18:34Z</time>
      </trkpt>
      <trkpt lat="48.03077" lon="6.9947">
        <ele>1203.4</ele>
        <time>2022-05-26T13:18:36Z</time>
      </trkpt>
      <trkpt lat="48.03082" lon="6.99456">
        <ele>1203.7</ele>
        <time>2022-05-26T13:18:38Z</time>
      </trkpt>
      <trkpt lat="48.03087" lon="6.99443">
        <ele>1202.6</ele>
        <time>2022-05-26T13:18:40Z</time>
      </trkpt>
      <trkpt lat="48.0309" lon="6.99429">
        <ele>1201.7</ele>
        <time>2022-05-26T13:18:42Z</time>
      </trkpt>
      <trkpt lat="48.03094" lon="6.99415">
        <ele>1201.4</ele>
        <time>2022-05-26T13:18:44Z</time>
      </trkpt>
      <trkpt lat="48.031" lon="6.99401">
        <ele>1202.3</ele>
        <time>2022-05-26T13:18:46Z</time>
      </trkpt>
      <trkpt lat="48.03109" lon="6.99392">
        <ele>1203.1</ele>
        <time>2022-05-26T13:18:48Z</time>
      </trkpt>
      <trkpt lat="48.03118" lon="6.99386">
        <ele>1204.7</ele>
        <time>2022-05-26T13:18:50Z</time>
      </trkpt>
      <trkpt lat="48.03131" lon="6.99382">
        <ele>1204.8</ele>
        <time>2022-05-26T13:18:53Z</time>
      </trkpt>
      <trkpt lat="48.03143" lon="6.99381">
        <ele>1205.8</ele>
        <time>2022-05-26T13:18:56Z</time>
      </trkpt>
      <trkpt lat="48.03154" lon="6.9938">
        <ele>1206</ele>
        <time>2022-05-26T13:19:00Z</time>
      </trkpt>
      <trkpt lat="48.03163" lon="6.99373">
        <ele>1205.4</ele>
        <time>2022-05-26T13:19:06Z</time>
      </trkpt>
      <trkpt lat="48.0317" lon="6.99365">
        <ele>1203</ele>
        <time>2022-05-26T13:19:13Z</time>
      </trkpt>
      <trkpt lat="48.03161" lon="6.99374">
        <ele>1205</ele>
        <time>2022-05-26T13:19:18Z</time>
      </trkpt>
      <trkpt lat="48.03156" lon="6.99388">
        <ele>1206.5</ele>
        <time>2022-05-26T13:19:22Z</time>
      </trkpt>
      <trkpt lat="48.03158" lon="6.99402">
        <ele>1208</ele>
        <time>2022-05-26T13:19:26Z</time>
      </trkpt>
      <trkpt lat="48.03166" lon="6.99409">
        <ele>1209</ele>
        <time>2022-05-26T13:19:32Z</time>
      </trkpt>
      <trkpt lat="48.03173" lon="6.99407">
        <ele>1208.8</ele>
        <time>2022-05-26T13:19:39Z</time>
      </trkpt>
      <trkpt lat="48.03173" lon="6.99406">
        <ele>1208.8</ele>
        <time>2022-05-26T13:19:49Z</time>
      </trkpt>
      <trkpt lat="48.03173" lon="6.99407">
        <ele>1208.5</ele>
        <time>2022-05-26T13:20:38Z</time>
      </trkpt>
      <trkpt lat="48.03173" lon="6.99408">
        <ele>1208.5</ele>
        <time>2022-05-26T13:20:48Z</time>
      </trkpt>
      <trkpt lat="48.03173" lon="6.99409">
        <ele>1208.5</ele>
        <time>2022-05-26T13:20:54Z</time>
      </trkpt>
      <trkpt lat="48.03174" lon="6.99409">
        <ele>1209.2</ele>
        <time>2022-05-26T13:21:27Z</time>
      </trkpt>
      <trkpt lat="48.03174" lon="6.9941">
        <ele>1208.7</ele>
        <time>2022-05-26T13:21:30Z</time>
      </trkpt>
      <trkpt lat="48.03173" lon="6.9941">
        <ele>1208.8</ele>
        <time>2022-05-26T13:21:32Z</time>
      </trkpt>
      <trkpt lat="48.03174" lon="6.9941">
        <ele>1208.8</ele>
        <time>2022-05-26T13:22:50Z</time>
      </trkpt>
      <trkpt lat="48.03173" lon="6.9941">
        <ele>1209.1</ele>
        <time>2022-05-26T13:23:03Z</time>
      </trkpt>
      <trkpt lat="48.03173" lon="6.99409">
        <ele>1208.8</ele>
        <time>2022-05-26T13:24:50Z</time>
      </trkpt>
      <trkpt lat="48.03172" lon="6.9941">
        <ele>1209</ele>
        <time>2022-05-26T13:24:54Z</time>
      </trkpt>
      <trkpt lat="48.03172" lon="6.99409">
        <ele>1209</ele>
        <time>2022-05-26T13:25:12Z</time>
      </trkpt>
      <trkpt lat="48.03165" lon="6.99411">
        <ele>1209.1</ele>
        <time>2022-05-26T13:25:22Z</time>
      </trkpt>
      <trkpt lat="48.03164" lon="6.99412">
        <ele>1208.8</ele>
        <time>2022-05-26T13:25:25Z</time>
      </trkpt>
      <trkpt lat="48.03173" lon="6.99421">
        <ele>1210.5</ele>
        <time>2022-05-26T13:25:33Z</time>
      </trkpt>
      <trkpt lat="48.03182" lon="6.99424">
        <ele>1210.8</ele>
        <time>2022-05-26T13:25:38Z</time>
      </trkpt>
      <trkpt lat="48.03191" lon="6.99427">
        <ele>1211.3</ele>
        <time>2022-05-26T13:25:44Z</time>
      </trkpt>
      <trkpt lat="48.032" lon="6.99429">
        <ele>1211.9</ele>
        <time>2022-05-26T13:25:50Z</time>
      </trkpt>
      <trkpt lat="48.03211" lon="6.99431">
        <ele>1212.4</ele>
        <time>2022-05-26T13:25:57Z</time>
      </trkpt>
      <trkpt lat="48.03221" lon="6.99434">
        <ele>1213</ele>
        <time>2022-05-26T13:26:03Z</time>
      </trkpt>
      <trkpt lat="48.0323" lon="6.99437">
        <ele>1213.2</ele>
        <time>2022-05-26T13:26:08Z</time>
      </trkpt>
      <trkpt lat="48.0324" lon="6.99441">
        <ele>1214.1</ele>
        <time>2022-05-26T13:26:13Z</time>
      </trkpt>
      <trkpt lat="48.0325" lon="6.99445">
        <ele>1214.4</ele>
        <time>2022-05-26T13:26:18Z</time>
      </trkpt>
      <trkpt lat="48.0326" lon="6.99449">
        <ele>1216.1</ele>
        <time>2022-05-26T13:26:23Z</time>
      </trkpt>
      <trkpt lat="48.0327" lon="6.99453">
        <ele>1216.6</ele>
        <time>2022-05-26T13:26:28Z</time>
      </trkpt>
      <trkpt lat="48.0328" lon="6.99457">
        <ele>1216.8</ele>
        <time>2022-05-26T13:26:33Z</time>
      </trkpt>
      <trkpt lat="48.03291" lon="6.99462">
        <ele>1217.2</ele>
        <time>2022-05-26T13:26:38Z</time>
      </trkpt>
      <trkpt lat="48.03301" lon="6.99467">
        <ele>1218.1</ele>
        <time>2022-05-26T13:26:43Z</time>
      </trkpt>
      <trkpt lat="48.03311" lon="6.99472">
        <ele>1218.7</ele>
        <time>2022-05-26T13:26:48Z</time>
      </trkpt>
      <trkpt lat="48.03321" lon="6.99479">
        <ele>1219.6</ele>
        <time>2022-05-26T13:26:53Z</time>
      </trkpt>
      <trkpt lat="48.03329" lon="6.99488">
        <ele>1220.5</ele>
        <time>2022-05-26T13:26:58Z</time>
      </trkpt>
      <trkpt lat="48.03337" lon="6.99499">
        <ele>1220.9</ele>
        <time>2022-05-26T13:27:03Z</time>
      </trkpt>
      <trkpt lat="48.03344" lon="6.99511">
        <ele>1221.8</ele>
        <time>2022-05-26T13:27:08Z</time>
      </trkpt>
      <trkpt lat="48.03349" lon="6.99523">
        <ele>1223.1</ele>
        <time>2022-05-26T13:27:13Z</time>
      </trkpt>
      <trkpt lat="48.03354" lon="6.99536">
        <ele>1223.5</ele>
        <time>2022-05-26T13:27:18Z</time>
      </trkpt>
      <trkpt lat="48.03359" lon="6.99549">
        <ele>1224.7</ele>
        <time>2022-05-26T13:27:23Z</time>
      </trkpt>
      <trkpt lat="48.03362" lon="6.99563">
        <ele>1225.9</ele>
        <time>2022-05-26T13:27:28Z</time>
      </trkpt>
      <trkpt lat="48.03366" lon="6.99577">
        <ele>1226.3</ele>
        <time>2022-05-26T13:27:33Z</time>
      </trkpt>
      <trkpt lat="48.03369" lon="6.9959">
        <ele>1227.7</ele>
        <time>2022-05-26T13:27:38Z</time>
      </trkpt>
      <trkpt lat="48.03373" lon="6.99604">
        <ele>1228.7</ele>
        <time>2022-05-26T13:27:43Z</time>
      </trkpt>
      <trkpt lat="48.03376" lon="6.99618">
        <ele>1230</ele>
        <time>2022-05-26T13:27:48Z</time>
      </trkpt>
      <trkpt lat="48.0338" lon="6.99631">
        <ele>1230.8</ele>
        <time>2022-05-26T13:27:53Z</time>
      </trkpt>
      <trkpt lat="48.03383" lon="6.99645">
        <ele>1231.4</ele>
        <time>2022-05-26T13:27:58Z</time>
      </trkpt>
      <trkpt lat="48.03386" lon="6.99659">
        <ele>1232.2</ele>
        <time>2022-05-26T13:28:03Z</time>
      </trkpt>
      <trkpt lat="48.03389" lon="6.99673">
        <ele>1232.8</ele>
        <time>2022-05-26T13:28:08Z</time>
      </trkpt>
      <trkpt lat="48.03392" lon="6.99687">
        <ele>1234.3</ele>
        <time>2022-05-26T13:28:13Z</time>
      </trkpt>
      <trkpt lat="48.03395" lon="6.99701">
        <ele>1234.7</ele>
        <time>2022-05-26T13:28:18Z</time>
      </trkpt>
      <trkpt lat="48.03396" lon="6.99716">
        <ele>1236.1</ele>
        <time>2022-05-26T13:28:23Z</time>
      </trkpt>
      <trkpt lat="48.03398" lon="6.99731">
        <ele>1237.2</ele>
        <time>2022-05-26T13:28:28Z</time>
      </trkpt>
      <trkpt lat="48.03401" lon="6.99747">
        <ele>1237.6</ele>
        <time>2022-05-26T13:28:33Z</time>
      </trkpt>
      <trkpt lat="48.03404" lon="6.99762">
        <ele>1238.1</ele>
        <time>2022-05-26T13:28:38Z</time>
      </trkpt>
      <trkpt lat="48.03407" lon="6.99777">
        <ele>1238.6</ele>
        <time>2022-05-26T13:28:43Z</time>
      </trkpt>
      <trkpt lat="48.03409" lon="6.99792">
        <ele>1239.5</ele>
        <time>2022-05-26T13:28:48Z</time>
      </trkpt>
      <trkpt lat="48.03412" lon="6.99808">
        <ele>1240.3</ele>
        <time>2022-05-26T13:28:53Z</time>
      </trkpt>
      <trkpt lat="48.03414" lon="6.99822">
        <ele>1240.1</ele>
        <time>2022-05-26T13:28:57Z</time>
      </trkpt>
      <trkpt lat="48.03416" lon="6.99836">
        <ele>1239.8</ele>
        <time>2022-05-26T13:29:01Z</time>
      </trkpt>
      <trkpt lat="48.03418" lon="6.9985">
        <ele>1239.8</ele>
        <time>2022-05-26T13:29:05Z</time>
      </trkpt>
      <trkpt lat="48.03421" lon="6.99866">
        <ele>1240</ele>
        <time>2022-05-26T13:29:10Z</time>
      </trkpt>
      <trkpt lat="48.03422" lon="6.99879">
        <ele>1239.6</ele>
        <time>2022-05-26T13:29:14Z</time>
      </trkpt>
      <trkpt lat="48.03423" lon="6.99893">
        <ele>1239.8</ele>
        <time>2022-05-26T13:29:18Z</time>
      </trkpt>
      <trkpt lat="48.03424" lon="6.99907">
        <ele>1239.7</ele>
        <time>2022-05-26T13:29:22Z</time>
      </trkpt>
      <trkpt lat="48.03425" lon="6.99923">
        <ele>1239.1</ele>
        <time>2022-05-26T13:29:26Z</time>
      </trkpt>
      <trkpt lat="48.03425" lon="6.99936">
        <ele>1239.1</ele>
        <time>2022-05-26T13:29:29Z</time>
      </trkpt>
      <trkpt lat="48.03424" lon="6.99953">
        <ele>1239.7</ele>
        <time>2022-05-26T13:29:33Z</time>
      </trkpt>
      <trkpt lat="48.0342" lon="6.99968">
        <ele>1239.7</ele>
        <time>2022-05-26T13:29:37Z</time>
      </trkpt>
      <trkpt lat="48.03414" lon="6.99984">
        <ele>1240</ele>
        <time>2022-05-26T13:29:41Z</time>
      </trkpt>
      <trkpt lat="48.0341" lon="6.99999">
        <ele>1239.5</ele>
        <time>2022-05-26T13:29:44Z</time>
      </trkpt>
      <trkpt lat="48.03411" lon="7.00014">
        <ele>1239.9</ele>
        <time>2022-05-26T13:29:47Z</time>
      </trkpt>
      <trkpt lat="48.03415" lon="7.00031">
        <ele>1239.7</ele>
        <time>2022-05-26T13:29:51Z</time>
      </trkpt>
      <trkpt lat="48.03418" lon="7.00046">
        <ele>1240.8</ele>
        <time>2022-05-26T13:29:55Z</time>
      </trkpt>
      <trkpt lat="48.0342" lon="7.00062">
        <ele>1241.8</ele>
        <time>2022-05-26T13:29:59Z</time>
      </trkpt>
      <trkpt lat="48.0342" lon="7.00078">
        <ele>1242.4</ele>
        <time>2022-05-26T13:30:03Z</time>
      </trkpt>
      <trkpt lat="48.0342" lon="7.00093">
        <ele>1242.5</ele>
        <time>2022-05-26T13:30:07Z</time>
      </trkpt>
      <trkpt lat="48.03421" lon="7.00108">
        <ele>1243.8</ele>
        <time>2022-05-26T13:30:11Z</time>
      </trkpt>
      <trkpt lat="48.03423" lon="7.00124">
        <ele>1244.1</ele>
        <time>2022-05-26T13:30:15Z</time>
      </trkpt>
      <trkpt lat="48.03423" lon="7.00138">
        <ele>1244.4</ele>
        <time>2022-05-26T13:30:18Z</time>
      </trkpt>
      <trkpt lat="48.03425" lon="7.00156">
        <ele>1244.6</ele>
        <time>2022-05-26T13:30:22Z</time>
      </trkpt>
      <trkpt lat="48.03425" lon="7.00173">
        <ele>1245.3</ele>
        <time>2022-05-26T13:30:26Z</time>
      </trkpt>
      <trkpt lat="48.03425" lon="7.00191">
        <ele>1245.6</ele>
        <time>2022-05-26T13:30:30Z</time>
      </trkpt>
      <trkpt lat="48.03424" lon="7.00204">
        <ele>1245.9</ele>
        <time>2022-05-26T13:30:33Z</time>
      </trkpt>
      <trkpt lat="48.03424" lon="7.00218">
        <ele>1246</ele>
        <time>2022-05-26T13:30:36Z</time>
      </trkpt>
      <trkpt lat="48.03425" lon="7.00232">
        <ele>1246.2</ele>
        <time>2022-05-26T13:30:39Z</time>
      </trkpt>
      <trkpt lat="48.03427" lon="7.00246">
        <ele>1246.8</ele>
        <time>2022-05-26T13:30:42Z</time>
      </trkpt>
      <trkpt lat="48.03429" lon="7.00263">
        <ele>1247.2</ele>
        <time>2022-05-26T13:30:46Z</time>
      </trkpt>
      <trkpt lat="48.0343" lon="7.0028">
        <ele>1246.9</ele>
        <time>2022-05-26T13:30:50Z</time>
      </trkpt>
      <trkpt lat="48.03431" lon="7.00297">
        <ele>1248.3</ele>
        <time>2022-05-26T13:30:54Z</time>
      </trkpt>
      <trkpt lat="48.03432" lon="7.00314">
        <ele>1248.5</ele>
        <time>2022-05-26T13:30:58Z</time>
      </trkpt>
      <trkpt lat="48.03434" lon="7.00331">
        <ele>1248.5</ele>
        <time>2022-05-26T13:31:02Z</time>
      </trkpt>
      <trkpt lat="48.03434" lon="7.00347">
        <ele>1249.2</ele>
        <time>2022-05-26T13:31:06Z</time>
      </trkpt>
      <trkpt lat="48.03435" lon="7.00363">
        <ele>1249.8</ele>
        <time>2022-05-26T13:31:10Z</time>
      </trkpt>
      <trkpt lat="48.03434" lon="7.00379">
        <ele>1250</ele>
        <time>2022-05-26T13:31:14Z</time>
      </trkpt>
      <trkpt lat="48.03434" lon="7.00397">
        <ele>1250.2</ele>
        <time>2022-05-26T13:31:18Z</time>
      </trkpt>
      <trkpt lat="48.03434" lon="7.00411">
        <ele>1250.6</ele>
        <time>2022-05-26T13:31:21Z</time>
      </trkpt>
      <trkpt lat="48.03435" lon="7.00428">
        <ele>1251</ele>
        <time>2022-05-26T13:31:25Z</time>
      </trkpt>
      <trkpt lat="48.03437" lon="7.00445">
        <ele>1251.7</ele>
        <time>2022-05-26T13:31:29Z</time>
      </trkpt>
      <trkpt lat="48.0344" lon="7.00461">
        <ele>1252.6</ele>
        <time>2022-05-26T13:31:33Z</time>
      </trkpt>
      <trkpt lat="48.03442" lon="7.00478">
        <ele>1252.3</ele>
        <time>2022-05-26T13:31:37Z</time>
      </trkpt>
      <trkpt lat="48.03444" lon="7.00493">
        <ele>1253</ele>
        <time>2022-05-26T13:31:40Z</time>
      </trkpt>
      <trkpt lat="48.03446" lon="7.00507">
        <ele>1253</ele>
        <time>2022-05-26T13:31:43Z</time>
      </trkpt>
      <trkpt lat="48.03449" lon="7.00523">
        <ele>1253</ele>
        <time>2022-05-26T13:31:47Z</time>
      </trkpt>
      <trkpt lat="48.03454" lon="7.00539">
        <ele>1253.5</ele>
        <time>2022-05-26T13:31:51Z</time>
      </trkpt>
      <trkpt lat="48.03459" lon="7.00555">
        <ele>1254.4</ele>
        <time>2022-05-26T13:31:55Z</time>
      </trkpt>
      <trkpt lat="48.03464" lon="7.00571">
        <ele>1255</ele>
        <time>2022-05-26T13:31:59Z</time>
      </trkpt>
      <trkpt lat="48.0347" lon="7.00585">
        <ele>1255.1</ele>
        <time>2022-05-26T13:32:03Z</time>
      </trkpt>
      <trkpt lat="48.03474" lon="7.006">
        <ele>1256.3</ele>
        <time>2022-05-26T13:32:08Z</time>
      </trkpt>
      <trkpt lat="48.03479" lon="7.00612">
        <ele>1256.5</ele>
        <time>2022-05-26T13:32:16Z</time>
      </trkpt>
      <trkpt lat="48.03483" lon="7.00627">
        <ele>1256.5</ele>
        <time>2022-05-26T13:32:21Z</time>
      </trkpt>
      <trkpt lat="48.03489" lon="7.00642">
        <ele>1256.5</ele>
        <time>2022-05-26T13:32:25Z</time>
      </trkpt>
      <trkpt lat="48.03496" lon="7.00654">
        <ele>1256.9</ele>
        <time>2022-05-26T13:32:29Z</time>
      </trkpt>
      <trkpt lat="48.03503" lon="7.00666">
        <ele>1256.3</ele>
        <time>2022-05-26T13:32:32Z</time>
      </trkpt>
      <trkpt lat="48.03509" lon="7.00678">
        <ele>1256.5</ele>
        <time>2022-05-26T13:32:35Z</time>
      </trkpt>
      <trkpt lat="48.03516" lon="7.00689">
        <ele>1256.5</ele>
        <time>2022-05-26T13:32:38Z</time>
      </trkpt>
      <trkpt lat="48.03523" lon="7.00702">
        <ele>1256.2</ele>
        <time>2022-05-26T13:32:41Z</time>
      </trkpt>
      <trkpt lat="48.03532" lon="7.00716">
        <ele>1255.4</ele>
        <time>2022-05-26T13:32:44Z</time>
      </trkpt>
      <trkpt lat="48.03538" lon="7.00727">
        <ele>1254.9</ele>
        <time>2022-05-26T13:32:46Z</time>
      </trkpt>
      <trkpt lat="48.03546" lon="7.00739">
        <ele>1254.3</ele>
        <time>2022-05-26T13:32:48Z</time>
      </trkpt>
      <trkpt lat="48.03554" lon="7.00752">
        <ele>1253.7</ele>
        <time>2022-05-26T13:32:50Z</time>
      </trkpt>
      <trkpt lat="48.03563" lon="7.00767">
        <ele>1252.2</ele>
        <time>2022-05-26T13:32:52Z</time>
      </trkpt>
      <trkpt lat="48.03573" lon="7.00784">
        <ele>1251.5</ele>
        <time>2022-05-26T13:32:54Z</time>
      </trkpt>
      <trkpt lat="48.03582" lon="7.00803">
        <ele>1250.7</ele>
        <time>2022-05-26T13:32:56Z</time>
      </trkpt>
      <trkpt lat="48.03588" lon="7.00821">
        <ele>1252.2</ele>
        <time>2022-05-26T13:32:58Z</time>
      </trkpt>
      <trkpt lat="48.03594" lon="7.00835">
        <ele>1253.4</ele>
        <time>2022-05-26T13:33:00Z</time>
      </trkpt>
      <trkpt lat="48.03602" lon="7.00842">
        <ele>1254.8</ele>
        <time>2022-05-26T13:33:03Z</time>
      </trkpt>
      <trkpt lat="48.03612" lon="7.00849">
        <ele>1255.9</ele>
        <time>2022-05-26T13:33:07Z</time>
      </trkpt>
      <trkpt lat="48.03622" lon="7.00854">
        <ele>1257.1</ele>
        <time>2022-05-26T13:33:11Z</time>
      </trkpt>
      <trkpt lat="48.03631" lon="7.00859">
        <ele>1258.3</ele>
        <time>2022-05-26T13:33:15Z</time>
      </trkpt>
      <trkpt lat="48.03641" lon="7.00866">
        <ele>1258.7</ele>
        <time>2022-05-26T13:33:19Z</time>
      </trkpt>
      <trkpt lat="48.03649" lon="7.00871">
        <ele>1259.9</ele>
        <time>2022-05-26T13:33:23Z</time>
      </trkpt>
      <trkpt lat="48.03659" lon="7.00876">
        <ele>1260.2</ele>
        <time>2022-05-26T13:33:28Z</time>
      </trkpt>
      <trkpt lat="48.03668" lon="7.00882">
        <ele>1260.8</ele>
        <time>2022-05-26T13:33:33Z</time>
      </trkpt>
      <trkpt lat="48.03678" lon="7.00887">
        <ele>1261.9</ele>
        <time>2022-05-26T13:33:38Z</time>
      </trkpt>
      <trkpt lat="48.03687" lon="7.00893">
        <ele>1262.9</ele>
        <time>2022-05-26T13:33:43Z</time>
      </trkpt>
      <trkpt lat="48.03696" lon="7.00899">
        <ele>1263.2</ele>
        <time>2022-05-26T13:33:48Z</time>
      </trkpt>
      <trkpt lat="48.03706" lon="7.00905">
        <ele>1264.6</ele>
        <time>2022-05-26T13:33:53Z</time>
      </trkpt>
      <trkpt lat="48.03716" lon="7.00911">
        <ele>1265.4</ele>
        <time>2022-05-26T13:33:58Z</time>
      </trkpt>
      <trkpt lat="48.03726" lon="7.00917">
        <ele>1266.1</ele>
        <time>2022-05-26T13:34:03Z</time>
      </trkpt>
      <trkpt lat="48.03735" lon="7.00924">
        <ele>1266.8</ele>
        <time>2022-05-26T13:34:08Z</time>
      </trkpt>
      <trkpt lat="48.03745" lon="7.00931">
        <ele>1267.3</ele>
        <time>2022-05-26T13:34:13Z</time>
      </trkpt>
      <trkpt lat="48.03755" lon="7.00937">
        <ele>1268.5</ele>
        <time>2022-05-26T13:34:18Z</time>
      </trkpt>
      <trkpt lat="48.03765" lon="7.00943">
        <ele>1269.3</ele>
        <time>2022-05-26T13:34:23Z</time>
      </trkpt>
      <trkpt lat="48.03774" lon="7.00948">
        <ele>1270.1</ele>
        <time>2022-05-26T13:34:28Z</time>
      </trkpt>
      <trkpt lat="48.03783" lon="7.00954">
        <ele>1270.4</ele>
        <time>2022-05-26T13:34:33Z</time>
      </trkpt>
      <trkpt lat="48.03792" lon="7.00961">
        <ele>1272.1</ele>
        <time>2022-05-26T13:34:38Z</time>
      </trkpt>
      <trkpt lat="48.03802" lon="7.00967">
        <ele>1272.9</ele>
        <time>2022-05-26T13:34:43Z</time>
      </trkpt>
      <trkpt lat="48.03811" lon="7.00972">
        <ele>1273.9</ele>
        <time>2022-05-26T13:34:48Z</time>
      </trkpt>
      <trkpt lat="48.03819" lon="7.0098">
        <ele>1274.8</ele>
        <time>2022-05-26T13:34:53Z</time>
      </trkpt>
      <trkpt lat="48.03813" lon="7.00992">
        <ele>1277.3</ele>
        <time>2022-05-26T13:34:59Z</time>
      </trkpt>
      <trkpt lat="48.03803" lon="7.00993">
        <ele>1277.8</ele>
        <time>2022-05-26T13:35:04Z</time>
      </trkpt>
      <trkpt lat="48.03792" lon="7.00995">
        <ele>1278.8</ele>
        <time>2022-05-26T13:35:09Z</time>
      </trkpt>
      <trkpt lat="48.03782" lon="7.00997">
        <ele>1280.1</ele>
        <time>2022-05-26T13:35:14Z</time>
      </trkpt>
      <trkpt lat="48.03771" lon="7.00999">
        <ele>1280.4</ele>
        <time>2022-05-26T13:35:19Z</time>
      </trkpt>
      <trkpt lat="48.0376" lon="7.01002">
        <ele>1280.6</ele>
        <time>2022-05-26T13:35:24Z</time>
      </trkpt>
      <trkpt lat="48.0375" lon="7.01005">
        <ele>1281</ele>
        <time>2022-05-26T13:35:28Z</time>
      </trkpt>
      <trkpt lat="48.03741" lon="7.01008">
        <ele>1281.9</ele>
        <time>2022-05-26T13:35:32Z</time>
      </trkpt>
      <trkpt lat="48.03732" lon="7.01011">
        <ele>1282.8</ele>
        <time>2022-05-26T13:35:36Z</time>
      </trkpt>
      <trkpt lat="48.03723" lon="7.01016">
        <ele>1283.4</ele>
        <time>2022-05-26T13:35:40Z</time>
      </trkpt>
      <trkpt lat="48.03713" lon="7.01022">
        <ele>1283.6</ele>
        <time>2022-05-26T13:35:44Z</time>
      </trkpt>
      <trkpt lat="48.03704" lon="7.01028">
        <ele>1284.4</ele>
        <time>2022-05-26T13:35:48Z</time>
      </trkpt>
      <trkpt lat="48.03695" lon="7.01034">
        <ele>1285.4</ele>
        <time>2022-05-26T13:35:52Z</time>
      </trkpt>
      <trkpt lat="48.03686" lon="7.01039">
        <ele>1286.1</ele>
        <time>2022-05-26T13:35:56Z</time>
      </trkpt>
      <trkpt lat="48.03678" lon="7.01045">
        <ele>1286.9</ele>
        <time>2022-05-26T13:36:00Z</time>
      </trkpt>
      <trkpt lat="48.03669" lon="7.01051">
        <ele>1287.7</ele>
        <time>2022-05-26T13:36:04Z</time>
      </trkpt>
      <trkpt lat="48.03661" lon="7.01057">
        <ele>1288.6</ele>
        <time>2022-05-26T13:36:08Z</time>
      </trkpt>
      <trkpt lat="48.03652" lon="7.01063">
        <ele>1289.6</ele>
        <time>2022-05-26T13:36:12Z</time>
      </trkpt>
      <trkpt lat="48.03644" lon="7.0107">
        <ele>1289.8</ele>
        <time>2022-05-26T13:36:16Z</time>
      </trkpt>
      <trkpt lat="48.03635" lon="7.01077">
        <ele>1290.9</ele>
        <time>2022-05-26T13:36:20Z</time>
      </trkpt>
      <trkpt lat="48.03627" lon="7.01083">
        <ele>1291.4</ele>
        <time>2022-05-26T13:36:24Z</time>
      </trkpt>
      <trkpt lat="48.03618" lon="7.0109">
        <ele>1292</ele>
        <time>2022-05-26T13:36:28Z</time>
      </trkpt>
      <trkpt lat="48.03609" lon="7.01098">
        <ele>1292.7</ele>
        <time>2022-05-26T13:36:32Z</time>
      </trkpt>
      <trkpt lat="48.03601" lon="7.01106">
        <ele>1293.3</ele>
        <time>2022-05-26T13:36:36Z</time>
      </trkpt>
      <trkpt lat="48.03594" lon="7.01114">
        <ele>1294.4</ele>
        <time>2022-05-26T13:36:40Z</time>
      </trkpt>
      <trkpt lat="48.03586" lon="7.01124">
        <ele>1295.1</ele>
        <time>2022-05-26T13:36:44Z</time>
      </trkpt>
      <trkpt lat="48.03579" lon="7.01134">
        <ele>1296.6</ele>
        <time>2022-05-26T13:36:48Z</time>
      </trkpt>
      <trkpt lat="48.03577" lon="7.0115">
        <ele>1298</ele>
        <time>2022-05-26T13:36:53Z</time>
      </trkpt>
      <trkpt lat="48.03587" lon="7.01156">
        <ele>1299</ele>
        <time>2022-05-26T13:36:58Z</time>
      </trkpt>
      <trkpt lat="48.03598" lon="7.01153">
        <ele>1300</ele>
        <time>2022-05-26T13:37:03Z</time>
      </trkpt>
      <trkpt lat="48.03609" lon="7.0115">
        <ele>1300.5</ele>
        <time>2022-05-26T13:37:08Z</time>
      </trkpt>
      <trkpt lat="48.03618" lon="7.0115">
        <ele>1301.9</ele>
        <time>2022-05-26T13:37:12Z</time>
      </trkpt>
      <trkpt lat="48.03627" lon="7.01149">
        <ele>1301.9</ele>
        <time>2022-05-26T13:37:16Z</time>
      </trkpt>
      <trkpt lat="48.03637" lon="7.01148">
        <ele>1302.9</ele>
        <time>2022-05-26T13:37:20Z</time>
      </trkpt>
      <trkpt lat="48.03646" lon="7.01148">
        <ele>1303.5</ele>
        <time>2022-05-26T13:37:24Z</time>
      </trkpt>
      <trkpt lat="48.03656" lon="7.01147">
        <ele>1304</ele>
        <time>2022-05-26T13:37:28Z</time>
      </trkpt>
      <trkpt lat="48.03666" lon="7.01147">
        <ele>1304.3</ele>
        <time>2022-05-26T13:37:32Z</time>
      </trkpt>
      <trkpt lat="48.03676" lon="7.01148">
        <ele>1304.7</ele>
        <time>2022-05-26T13:37:36Z</time>
      </trkpt>
      <trkpt lat="48.03686" lon="7.0115">
        <ele>1305.5</ele>
        <time>2022-05-26T13:37:40Z</time>
      </trkpt>
      <trkpt lat="48.03695" lon="7.01151">
        <ele>1305.9</ele>
        <time>2022-05-26T13:37:44Z</time>
      </trkpt>
      <trkpt lat="48.03705" lon="7.01152">
        <ele>1306.7</ele>
        <time>2022-05-26T13:37:48Z</time>
      </trkpt>
      <trkpt lat="48.03715" lon="7.01154">
        <ele>1307.5</ele>
        <time>2022-05-26T13:37:52Z</time>
      </trkpt>
      <trkpt lat="48.03724" lon="7.01156">
        <ele>1308.5</ele>
        <time>2022-05-26T13:37:56Z</time>
      </trkpt>
      <trkpt lat="48.03734" lon="7.01161">
        <ele>1309.5</ele>
        <time>2022-05-26T13:38:01Z</time>
      </trkpt>
      <trkpt lat="48.03731" lon="7.01177">
        <ele>1311.2</ele>
        <time>2022-05-26T13:38:06Z</time>
      </trkpt>
      <trkpt lat="48.03721" lon="7.01182">
        <ele>1311.6</ele>
        <time>2022-05-26T13:38:10Z</time>
      </trkpt>
      <trkpt lat="48.03712" lon="7.01186">
        <ele>1313</ele>
        <time>2022-05-26T13:38:14Z</time>
      </trkpt>
      <trkpt lat="48.03703" lon="7.01192">
        <ele>1313.2</ele>
        <time>2022-05-26T13:38:18Z</time>
      </trkpt>
      <trkpt lat="48.03693" lon="7.01198">
        <ele>1313.8</ele>
        <time>2022-05-26T13:38:22Z</time>
      </trkpt>
      <trkpt lat="48.03685" lon="7.01206">
        <ele>1315</ele>
        <time>2022-05-26T13:38:26Z</time>
      </trkpt>
      <trkpt lat="48.03677" lon="7.01214">
        <ele>1315.9</ele>
        <time>2022-05-26T13:38:30Z</time>
      </trkpt>
      <trkpt lat="48.03669" lon="7.01223">
        <ele>1316.1</ele>
        <time>2022-05-26T13:38:34Z</time>
      </trkpt>
      <trkpt lat="48.03661" lon="7.01233">
        <ele>1317</ele>
        <time>2022-05-26T13:38:38Z</time>
      </trkpt>
      <trkpt lat="48.03655" lon="7.01243">
        <ele>1317.8</ele>
        <time>2022-05-26T13:38:42Z</time>
      </trkpt>
      <trkpt lat="48.03656" lon="7.01257">
        <ele>1319.9</ele>
        <time>2022-05-26T13:38:47Z</time>
      </trkpt>
      <trkpt lat="48.03666" lon="7.01257">
        <ele>1320.2</ele>
        <time>2022-05-26T13:38:52Z</time>
      </trkpt>
      <trkpt lat="48.03676" lon="7.01253">
        <ele>1320.9</ele>
        <time>2022-05-26T13:38:56Z</time>
      </trkpt>
      <trkpt lat="48.03687" lon="7.01249">
        <ele>1322.2</ele>
        <time>2022-05-26T13:39:00Z</time>
      </trkpt>
      <trkpt lat="48.03698" lon="7.01245">
        <ele>1322</ele>
        <time>2022-05-26T13:39:04Z</time>
      </trkpt>
      <trkpt lat="48.03709" lon="7.01242">
        <ele>1322.5</ele>
        <time>2022-05-26T13:39:08Z</time>
      </trkpt>
      <trkpt lat="48.0372" lon="7.01243">
        <ele>1324.2</ele>
        <time>2022-05-26T13:39:12Z</time>
      </trkpt>
      <trkpt lat="48.03729" lon="7.0125">
        <ele>1325.7</ele>
        <time>2022-05-26T13:39:16Z</time>
      </trkpt>
      <trkpt lat="48.03738" lon="7.01258">
        <ele>1326</ele>
        <time>2022-05-26T13:39:20Z</time>
      </trkpt>
      <trkpt lat="48.03747" lon="7.01266">
        <ele>1326.4</ele>
        <time>2022-05-26T13:39:24Z</time>
      </trkpt>
      <trkpt lat="48.03757" lon="7.01273">
        <ele>1327.7</ele>
        <time>2022-05-26T13:39:28Z</time>
      </trkpt>
      <trkpt lat="48.03767" lon="7.01279">
        <ele>1329</ele>
        <time>2022-05-26T13:39:32Z</time>
      </trkpt>
      <trkpt lat="48.03777" lon="7.01286">
        <ele>1330.1</ele>
        <time>2022-05-26T13:39:36Z</time>
      </trkpt>
      <trkpt lat="48.03786" lon="7.01292">
        <ele>1331</ele>
        <time>2022-05-26T13:39:40Z</time>
      </trkpt>
      <trkpt lat="48.0379" lon="7.01306">
        <ele>1332.9</ele>
        <time>2022-05-26T13:39:45Z</time>
      </trkpt>
      <trkpt lat="48.03783" lon="7.01316">
        <ele>1334.2</ele>
        <time>2022-05-26T13:39:50Z</time>
      </trkpt>
      <trkpt lat="48.03775" lon="7.01323">
        <ele>1335.4</ele>
        <time>2022-05-26T13:39:56Z</time>
      </trkpt>
      <trkpt lat="48.03765" lon="7.01329">
        <ele>1336.7</ele>
        <time>2022-05-26T13:40:02Z</time>
      </trkpt>
      <trkpt lat="48.03757" lon="7.01335">
        <ele>1337.9</ele>
        <time>2022-05-26T13:40:08Z</time>
      </trkpt>
      <trkpt lat="48.03748" lon="7.01342">
        <ele>1339.2</ele>
        <time>2022-05-26T13:40:14Z</time>
      </trkpt>
      <trkpt lat="48.03739" lon="7.0135">
        <ele>1340.6</ele>
        <time>2022-05-26T13:40:20Z</time>
      </trkpt>
      <trkpt lat="48.03731" lon="7.01356">
        <ele>1341.8</ele>
        <time>2022-05-26T13:40:25Z</time>
      </trkpt>
      <trkpt lat="48.03722" lon="7.01365">
        <ele>1343</ele>
        <time>2022-05-26T13:40:31Z</time>
      </trkpt>
      <trkpt lat="48.03718" lon="7.01379">
        <ele>1344.8</ele>
        <time>2022-05-26T13:40:37Z</time>
      </trkpt>
      <trkpt lat="48.03722" lon="7.01391">
        <ele>1346.1</ele>
        <time>2022-05-26T13:40:42Z</time>
      </trkpt>
      <trkpt lat="48.0373" lon="7.01398">
        <ele>1346.9</ele>
        <time>2022-05-26T13:40:47Z</time>
      </trkpt>
      <trkpt lat="48.03739" lon="7.01403">
        <ele>1348.2</ele>
        <time>2022-05-26T13:40:53Z</time>
      </trkpt>
      <trkpt lat="48.03749" lon="7.01409">
        <ele>1349.9</ele>
        <time>2022-05-26T13:40:59Z</time>
      </trkpt>
      <trkpt lat="48.03757" lon="7.01414">
        <ele>1351</ele>
        <time>2022-05-26T13:41:04Z</time>
      </trkpt>
      <trkpt lat="48.03766" lon="7.01422">
        <ele>1352.2</ele>
        <time>2022-05-26T13:41:10Z</time>
      </trkpt>
      <trkpt lat="48.03769" lon="7.01437">
        <ele>1353.6</ele>
        <time>2022-05-26T13:41:16Z</time>
      </trkpt>
      <trkpt lat="48.03762" lon="7.01445">
        <ele>1354.9</ele>
        <time>2022-05-26T13:41:22Z</time>
      </trkpt>
      <trkpt lat="48.03753" lon="7.01455">
        <ele>1356.2</ele>
        <time>2022-05-26T13:41:28Z</time>
      </trkpt>
      <trkpt lat="48.03747" lon="7.01468">
        <ele>1357.5</ele>
        <time>2022-05-26T13:41:34Z</time>
      </trkpt>
      <trkpt lat="48.03744" lon="7.01481">
        <ele>1358.4</ele>
        <time>2022-05-26T13:41:39Z</time>
      </trkpt>
      <trkpt lat="48.03745" lon="7.01495">
        <ele>1360.3</ele>
        <time>2022-05-26T13:41:44Z</time>
      </trkpt>
      <trkpt lat="48.03751" lon="7.01509">
        <ele>1362.3</ele>
        <time>2022-05-26T13:41:49Z</time>
      </trkpt>
      <trkpt lat="48.03761" lon="7.01514">
        <ele>1363.2</ele>
        <time>2022-05-26T13:41:54Z</time>
      </trkpt>
      <trkpt lat="48.03771" lon="7.01519">
        <ele>1363.7</ele>
        <time>2022-05-26T13:41:58Z</time>
      </trkpt>
      <trkpt lat="48.03781" lon="7.01524">
        <ele>1364</ele>
        <time>2022-05-26T13:42:02Z</time>
      </trkpt>
      <trkpt lat="48.03789" lon="7.01534">
        <ele>1365</ele>
        <time>2022-05-26T13:42:06Z</time>
      </trkpt>
      <trkpt lat="48.03794" lon="7.01548">
        <ele>1365.1</ele>
        <time>2022-05-26T13:42:10Z</time>
      </trkpt>
      <trkpt lat="48.03796" lon="7.01564">
        <ele>1365</ele>
        <time>2022-05-26T13:42:15Z</time>
      </trkpt>
      <trkpt lat="48.03795" lon="7.01578">
        <ele>1365.2</ele>
        <time>2022-05-26T13:42:19Z</time>
      </trkpt>
      <trkpt lat="48.03796" lon="7.01592">
        <ele>1365</ele>
        <time>2022-05-26T13:42:23Z</time>
      </trkpt>
      <trkpt lat="48.03796" lon="7.01607">
        <ele>1366</ele>
        <time>2022-05-26T13:42:27Z</time>
      </trkpt>
      <trkpt lat="48.03789" lon="7.01618">
        <ele>1366.6</ele>
        <time>2022-05-26T13:42:31Z</time>
      </trkpt>
      <trkpt lat="48.03781" lon="7.01625">
        <ele>1367.1</ele>
        <time>2022-05-26T13:42:34Z</time>
      </trkpt>
      <trkpt lat="48.03772" lon="7.01629">
        <ele>1367.5</ele>
        <time>2022-05-26T13:42:37Z</time>
      </trkpt>
      <trkpt lat="48.03761" lon="7.0163">
        <ele>1367.9</ele>
        <time>2022-05-26T13:42:41Z</time>
      </trkpt>
      <trkpt lat="48.03752" lon="7.01632">
        <ele>1369</ele>
        <time>2022-05-26T13:42:45Z</time>
      </trkpt>
      <trkpt lat="48.03744" lon="7.01638">
        <ele>1368.2</ele>
        <time>2022-05-26T13:42:51Z</time>
      </trkpt>
      <trkpt lat="48.03744" lon="7.01639">
        <ele>1368.5</ele>
        <time>2022-05-26T13:42:54Z</time>
      </trkpt>
      <trkpt lat="48.03744" lon="7.0164">
        <ele>1369.1</ele>
        <time>2022-05-26T13:47:14Z</time>
      </trkpt>
      <trkpt lat="48.03745" lon="7.0164">
        <ele>1367.9</ele>
        <time>2022-05-26T13:55:32Z</time>
      </trkpt>
      <trkpt lat="48.03746" lon="7.01641">
        <ele>1368.4</ele>
        <time>2022-05-26T13:55:35Z</time>
      </trkpt>
      <trkpt lat="48.03746" lon="7.0164">
        <ele>1368.3</ele>
        <time>2022-05-26T13:55:41Z</time>
      </trkpt>
      <trkpt lat="48.03756" lon="7.01632">
        <ele>1368.6</ele>
        <time>2022-05-26T13:56:38Z</time>
      </trkpt>
      <trkpt lat="48.03766" lon="7.01628">
        <ele>1369</ele>
        <time>2022-05-26T13:56:42Z</time>
      </trkpt>
      <trkpt lat="48.03777" lon="7.01619">
        <ele>1370</ele>
        <time>2022-05-26T13:56:46Z</time>
      </trkpt>
      <trkpt lat="48.03787" lon="7.0161">
        <ele>1366</ele>
        <time>2022-05-26T13:56:49Z</time>
      </trkpt>
      <trkpt lat="48.03794" lon="7.01599">
        <ele>1366.8</ele>
        <time>2022-05-26T13:56:52Z</time>
      </trkpt>
      <trkpt lat="48.03794" lon="7.01582">
        <ele>1366.2</ele>
        <time>2022-05-26T13:56:56Z</time>
      </trkpt>
      <trkpt lat="48.03793" lon="7.01567">
        <ele>1364</ele>
        <time>2022-05-26T13:57:00Z</time>
      </trkpt>
      <trkpt lat="48.03797" lon="7.01552">
        <ele>1365</ele>
        <time>2022-05-26T13:57:04Z</time>
      </trkpt>
      <trkpt lat="48.03796" lon="7.01537">
        <ele>1363.2</ele>
        <time>2022-05-26T13:57:08Z</time>
      </trkpt>
      <trkpt lat="48.03791" lon="7.01523">
        <ele>1362.9</ele>
        <time>2022-05-26T13:57:13Z</time>
      </trkpt>
      <trkpt lat="48.03791" lon="7.01521">
        <ele>1363</ele>
        <time>2022-05-26T13:57:16Z</time>
      </trkpt>
      <trkpt lat="48.03791" lon="7.0152">
        <ele>1363.6</ele>
        <time>2022-05-26T13:58:04Z</time>
      </trkpt>
      <trkpt lat="48.03799" lon="7.01512">
        <ele>1362.7</ele>
        <time>2022-05-26T13:58:11Z</time>
      </trkpt>
      <trkpt lat="48.03809" lon="7.01515">
        <ele>1360.9</ele>
        <time>2022-05-26T13:58:18Z</time>
      </trkpt>
      <trkpt lat="48.03818" lon="7.01509">
        <ele>1359.5</ele>
        <time>2022-05-26T13:58:24Z</time>
      </trkpt>
      <trkpt lat="48.03828" lon="7.015">
        <ele>1359.1</ele>
        <time>2022-05-26T13:58:28Z</time>
      </trkpt>
      <trkpt lat="48.03836" lon="7.01492">
        <ele>1356.4</ele>
        <time>2022-05-26T13:58:34Z</time>
      </trkpt>
      <trkpt lat="48.03837" lon="7.01476">
        <ele>1354.4</ele>
        <time>2022-05-26T13:58:40Z</time>
      </trkpt>
      <trkpt lat="48.03832" lon="7.01461">
        <ele>1353.5</ele>
        <time>2022-05-26T13:58:43Z</time>
      </trkpt>
      <trkpt lat="48.03827" lon="7.01448">
        <ele>1352.3</ele>
        <time>2022-05-26T13:58:45Z</time>
      </trkpt>
      <trkpt lat="48.03822" lon="7.01434">
        <ele>1350.6</ele>
        <time>2022-05-26T13:58:47Z</time>
      </trkpt>
      <trkpt lat="48.03816" lon="7.01421">
        <ele>1348.6</ele>
        <time>2022-05-26T13:58:49Z</time>
      </trkpt>
      <trkpt lat="48.03808" lon="7.01409">
        <ele>1349.1</ele>
        <time>2022-05-26T13:58:52Z</time>
      </trkpt>
      <trkpt lat="48.03802" lon="7.01397">
        <ele>1346.5</ele>
        <time>2022-05-26T13:58:55Z</time>
      </trkpt>
      <trkpt lat="48.03798" lon="7.01384">
        <ele>1345.6</ele>
        <time>2022-05-26T13:58:58Z</time>
      </trkpt>
      <trkpt lat="48.03801" lon="7.01367">
        <ele>1343.5</ele>
        <time>2022-05-26T13:59:02Z</time>
      </trkpt>
      <trkpt lat="48.03809" lon="7.01359">
        <ele>1342.4</ele>
        <time>2022-05-26T13:59:05Z</time>
      </trkpt>
      <trkpt lat="48.0382" lon="7.01354">
        <ele>1344.2</ele>
        <time>2022-05-26T13:59:08Z</time>
      </trkpt>
      <trkpt lat="48.03829" lon="7.01348">
        <ele>1343.1</ele>
        <time>2022-05-26T13:59:10Z</time>
      </trkpt>
      <trkpt lat="48.03837" lon="7.01341">
        <ele>1338.9</ele>
        <time>2022-05-26T13:59:12Z</time>
      </trkpt>
      <trkpt lat="48.03845" lon="7.01333">
        <ele>1335.7</ele>
        <time>2022-05-26T13:59:14Z</time>
      </trkpt>
      <trkpt lat="48.03854" lon="7.01322">
        <ele>1336.5</ele>
        <time>2022-05-26T13:59:16Z</time>
      </trkpt>
      <trkpt lat="48.03863" lon="7.0131">
        <ele>1335.8</ele>
        <time>2022-05-26T13:59:18Z</time>
      </trkpt>
      <trkpt lat="48.0387" lon="7.013">
        <ele>1335</ele>
        <time>2022-05-26T13:59:20Z</time>
      </trkpt>
      <trkpt lat="48.03876" lon="7.01289">
        <ele>1335</ele>
        <time>2022-05-26T13:59:23Z</time>
      </trkpt>
      <trkpt lat="48.03883" lon="7.01277">
        <ele>1334.4</ele>
        <time>2022-05-26T13:59:26Z</time>
      </trkpt>
      <trkpt lat="48.03892" lon="7.01267">
        <ele>1332.4</ele>
        <time>2022-05-26T13:59:30Z</time>
      </trkpt>
      <trkpt lat="48.03892" lon="7.01266">
        <ele>1331.8</ele>
        <time>2022-05-26T13:59:32Z</time>
      </trkpt>
      <trkpt lat="48.03901" lon="7.01262">
        <ele>1330</ele>
        <time>2022-05-26T13:59:38Z</time>
      </trkpt>
      <trkpt lat="48.03911" lon="7.01253">
        <ele>1328.7</ele>
        <time>2022-05-26T13:59:41Z</time>
      </trkpt>
      <trkpt lat="48.03922" lon="7.01242">
        <ele>1328.6</ele>
        <time>2022-05-26T13:59:44Z</time>
      </trkpt>
      <trkpt lat="48.0393" lon="7.01235">
        <ele>1328.7</ele>
        <time>2022-05-26T13:59:46Z</time>
      </trkpt>
      <trkpt lat="48.03939" lon="7.01228">
        <ele>1324.1</ele>
        <time>2022-05-26T13:59:48Z</time>
      </trkpt>
      <trkpt lat="48.0395" lon="7.01221">
        <ele>1324.2</ele>
        <time>2022-05-26T13:59:50Z</time>
      </trkpt>
      <trkpt lat="48.03963" lon="7.01215">
        <ele>1323.9</ele>
        <time>2022-05-26T13:59:52Z</time>
      </trkpt>
      <trkpt lat="48.03974" lon="7.01208">
        <ele>1322.5</ele>
        <time>2022-05-26T13:59:54Z</time>
      </trkpt>
      <trkpt lat="48.03986" lon="7.012">
        <ele>1320.8</ele>
        <time>2022-05-26T13:59:56Z</time>
      </trkpt>
      <trkpt lat="48.03997" lon="7.01192">
        <ele>1318.3</ele>
        <time>2022-05-26T13:59:58Z</time>
      </trkpt>
      <trkpt lat="48.04007" lon="7.01183">
        <ele>1315.9</ele>
        <time>2022-05-26T14:00:00Z</time>
      </trkpt>
      <trkpt lat="48.04017" lon="7.01175">
        <ele>1316.8</ele>
        <time>2022-05-26T14:00:02Z</time>
      </trkpt>
      <trkpt lat="48.04025" lon="7.01167">
        <ele>1316.3</ele>
        <time>2022-05-26T14:00:04Z</time>
      </trkpt>
      <trkpt lat="48.04033" lon="7.0116">
        <ele>1312.4</ele>
        <time>2022-05-26T14:00:06Z</time>
      </trkpt>
      <trkpt lat="48.04041" lon="7.01153">
        <ele>1313.5</ele>
        <time>2022-05-26T14:00:08Z</time>
      </trkpt>
      <trkpt lat="48.04052" lon="7.01147">
        <ele>1314.8</ele>
        <time>2022-05-26T14:00:10Z</time>
      </trkpt>
      <trkpt lat="48.04063" lon="7.01139">
        <ele>1312.8</ele>
        <time>2022-05-26T14:00:12Z</time>
      </trkpt>
      <trkpt lat="48.04076" lon="7.01131">
        <ele>1310.7</ele>
        <time>2022-05-26T14:00:14Z</time>
      </trkpt>
      <trkpt lat="48.04088" lon="7.01123">
        <ele>1306.1</ele>
        <time>2022-05-26T14:00:16Z</time>
      </trkpt>
      <trkpt lat="48.041" lon="7.01115">
        <ele>1305.6</ele>
        <time>2022-05-26T14:00:18Z</time>
      </trkpt>
      <trkpt lat="48.0411" lon="7.01107">
        <ele>1303.5</ele>
        <time>2022-05-26T14:00:20Z</time>
      </trkpt>
      <trkpt lat="48.04119" lon="7.01099">
        <ele>1302.5</ele>
        <time>2022-05-26T14:00:22Z</time>
      </trkpt>
      <trkpt lat="48.04129" lon="7.01089">
        <ele>1304.3</ele>
        <time>2022-05-26T14:00:25Z</time>
      </trkpt>
      <trkpt lat="48.04134" lon="7.01075">
        <ele>1300.7</ele>
        <time>2022-05-26T14:00:30Z</time>
      </trkpt>
      <trkpt lat="48.04135" lon="7.0106">
        <ele>1299.5</ele>
        <time>2022-05-26T14:00:34Z</time>
      </trkpt>
      <trkpt lat="48.04133" lon="7.01043">
        <ele>1296.5</ele>
        <time>2022-05-26T14:00:37Z</time>
      </trkpt>
      <trkpt lat="48.04128" lon="7.01026">
        <ele>1296.4</ele>
        <time>2022-05-26T14:00:40Z</time>
      </trkpt>
      <trkpt lat="48.04124" lon="7.01008">
        <ele>1296.3</ele>
        <time>2022-05-26T14:00:43Z</time>
      </trkpt>
      <trkpt lat="48.04121" lon="7.00995">
        <ele>1294.1</ele>
        <time>2022-05-26T14:00:46Z</time>
      </trkpt>
      <trkpt lat="48.04118" lon="7.00984">
        <ele>1294.2</ele>
        <time>2022-05-26T14:00:51Z</time>
      </trkpt>
      <trkpt lat="48.04116" lon="7.00984">
        <ele>1293.9</ele>
        <time>2022-05-26T14:01:11Z</time>
      </trkpt>
      <trkpt lat="48.04116" lon="7.00985">
        <ele>1294.1</ele>
        <time>2022-05-26T14:01:15Z</time>
      </trkpt>
      <trkpt lat="48.04115" lon="7.00987">
        <ele>1294.4</ele>
        <time>2022-05-26T14:01:19Z</time>
      </trkpt>
      <trkpt lat="48.04115" lon="7.00988">
        <ele>1294.2</ele>
        <time>2022-05-26T14:01:24Z</time>
      </trkpt>
      <trkpt lat="48.04112" lon="7.01002">
        <ele>1294.3</ele>
        <time>2022-05-26T14:01:30Z</time>
      </trkpt>
      <trkpt lat="48.04109" lon="7.01015">
        <ele>1294.5</ele>
        <time>2022-05-26T14:01:35Z</time>
      </trkpt>
      <trkpt lat="48.04104" lon="7.01029">
        <ele>1295.2</ele>
        <time>2022-05-26T14:01:40Z</time>
      </trkpt>
      <trkpt lat="48.04099" lon="7.01042">
        <ele>1295.7</ele>
        <time>2022-05-26T14:01:45Z</time>
      </trkpt>
      <trkpt lat="48.04091" lon="7.01048">
        <ele>1296.1</ele>
        <time>2022-05-26T14:01:49Z</time>
      </trkpt>
      <trkpt lat="48.04081" lon="7.0105">
        <ele>1294.9</ele>
        <time>2022-05-26T14:01:52Z</time>
      </trkpt>
      <trkpt lat="48.0407" lon="7.01051">
        <ele>1293.9</ele>
        <time>2022-05-26T14:01:55Z</time>
      </trkpt>
      <trkpt lat="48.04058" lon="7.01049">
        <ele>1293.2</ele>
        <time>2022-05-26T14:01:58Z</time>
      </trkpt>
      <trkpt lat="48.04047" lon="7.01045">
        <ele>1292.1</ele>
        <time>2022-05-26T14:02:01Z</time>
      </trkpt>
      <trkpt lat="48.04038" lon="7.01043">
        <ele>1291</ele>
        <time>2022-05-26T14:02:03Z</time>
      </trkpt>
      <trkpt lat="48.04029" lon="7.01041">
        <ele>1289.4</ele>
        <time>2022-05-26T14:02:05Z</time>
      </trkpt>
      <trkpt lat="48.0402" lon="7.0104">
        <ele>1289.5</ele>
        <time>2022-05-26T14:02:07Z</time>
      </trkpt>
      <trkpt lat="48.04008" lon="7.01038">
        <ele>1289.2</ele>
        <time>2022-05-26T14:02:10Z</time>
      </trkpt>
      <trkpt lat="48.03998" lon="7.01035">
        <ele>1288.1</ele>
        <time>2022-05-26T14:02:13Z</time>
      </trkpt>
      <trkpt lat="48.03989" lon="7.01031">
        <ele>1287.2</ele>
        <time>2022-05-26T14:02:19Z</time>
      </trkpt>
      <trkpt lat="48.03993" lon="7.01016">
        <ele>1284.9</ele>
        <time>2022-05-26T14:02:35Z</time>
      </trkpt>
      <trkpt lat="48.03999" lon="7.01001">
        <ele>1282.4</ele>
        <time>2022-05-26T14:02:39Z</time>
      </trkpt>
      <trkpt lat="48.04006" lon="7.00986">
        <ele>1277.9</ele>
        <time>2022-05-26T14:02:43Z</time>
      </trkpt>
      <trkpt lat="48.04011" lon="7.00974">
        <ele>1277.2</ele>
        <time>2022-05-26T14:02:45Z</time>
      </trkpt>
      <trkpt lat="48.04018" lon="7.00961">
        <ele>1276</ele>
        <time>2022-05-26T14:02:47Z</time>
      </trkpt>
      <trkpt lat="48.04028" lon="7.00948">
        <ele>1274.7</ele>
        <time>2022-05-26T14:02:49Z</time>
      </trkpt>
      <trkpt lat="48.04034" lon="7.0093">
        <ele>1275.5</ele>
        <time>2022-05-26T14:02:51Z</time>
      </trkpt>
      <trkpt lat="48.04037" lon="7.00909">
        <ele>1271.9</ele>
        <time>2022-05-26T14:02:53Z</time>
      </trkpt>
      <trkpt lat="48.0404" lon="7.00887">
        <ele>1269.8</ele>
        <time>2022-05-26T14:02:55Z</time>
      </trkpt>
      <trkpt lat="48.04044" lon="7.00864">
        <ele>1271.8</ele>
        <time>2022-05-26T14:02:57Z</time>
      </trkpt>
      <trkpt lat="48.04049" lon="7.00843">
        <ele>1269.1</ele>
        <time>2022-05-26T14:02:59Z</time>
      </trkpt>
      <trkpt lat="48.04052" lon="7.00823">
        <ele>1266.3</ele>
        <time>2022-05-26T14:03:01Z</time>
      </trkpt>
      <trkpt lat="48.04055" lon="7.00803">
        <ele>1267.2</ele>
        <time>2022-05-26T14:03:03Z</time>
      </trkpt>
      <trkpt lat="48.04059" lon="7.00782">
        <ele>1269.7</ele>
        <time>2022-05-26T14:03:05Z</time>
      </trkpt>
      <trkpt lat="48.04061" lon="7.00761">
        <ele>1267.6</ele>
        <time>2022-05-26T14:03:07Z</time>
      </trkpt>
      <trkpt lat="48.04062" lon="7.00743">
        <ele>1264.8</ele>
        <time>2022-05-26T14:03:09Z</time>
      </trkpt>
      <trkpt lat="48.04063" lon="7.00726">
        <ele>1263.2</ele>
        <time>2022-05-26T14:03:11Z</time>
      </trkpt>
      <trkpt lat="48.04063" lon="7.0071">
        <ele>1264</ele>
        <time>2022-05-26T14:03:13Z</time>
      </trkpt>
      <trkpt lat="48.04063" lon="7.00695">
        <ele>1262</ele>
        <time>2022-05-26T14:03:15Z</time>
      </trkpt>
      <trkpt lat="48.04065" lon="7.00675">
        <ele>1260.2</ele>
        <time>2022-05-26T14:03:18Z</time>
      </trkpt>
      <trkpt lat="48.04069" lon="7.0066">
        <ele>1258.8</ele>
        <time>2022-05-26T14:03:20Z</time>
      </trkpt>
      <trkpt lat="48.04074" lon="7.00644">
        <ele>1258</ele>
        <time>2022-05-26T14:03:22Z</time>
      </trkpt>
      <trkpt lat="48.04078" lon="7.00627">
        <ele>1256.6</ele>
        <time>2022-05-26T14:03:24Z</time>
      </trkpt>
      <trkpt lat="48.04081" lon="7.00612">
        <ele>1253.6</ele>
        <time>2022-05-26T14:03:26Z</time>
      </trkpt>
      <trkpt lat="48.04085" lon="7.00597">
        <ele>1252.5</ele>
        <time>2022-05-26T14:03:28Z</time>
      </trkpt>
      <trkpt lat="48.0409" lon="7.0058">
        <ele>1250.8</ele>
        <time>2022-05-26T14:03:31Z</time>
      </trkpt>
      <trkpt lat="48.04094" lon="7.00567">
        <ele>1248.7</ele>
        <time>2022-05-26T14:03:34Z</time>
      </trkpt>
      <trkpt lat="48.04099" lon="7.00556">
        <ele>1247.5</ele>
        <time>2022-05-26T14:03:38Z</time>
      </trkpt>
      <trkpt lat="48.04103" lon="7.00548">
        <ele>1245.7</ele>
        <time>2022-05-26T14:03:43Z</time>
      </trkpt>
      <trkpt lat="48.04103" lon="7.00546">
        <ele>1245.7</ele>
        <time>2022-05-26T14:04:06Z</time>
      </trkpt>
      <trkpt lat="48.04103" lon="7.00533">
        <ele>1244.9</ele>
        <time>2022-05-26T14:04:10Z</time>
      </trkpt>
      <trkpt lat="48.04109" lon="7.00517">
        <ele>1243.2</ele>
        <time>2022-05-26T14:04:13Z</time>
      </trkpt>
      <trkpt lat="48.04117" lon="7.00502">
        <ele>1241.8</ele>
        <time>2022-05-26T14:04:15Z</time>
      </trkpt>
      <trkpt lat="48.04126" lon="7.00486">
        <ele>1239</ele>
        <time>2022-05-26T14:04:17Z</time>
      </trkpt>
      <trkpt lat="48.04134" lon="7.00473">
        <ele>1237.5</ele>
        <time>2022-05-26T14:04:19Z</time>
      </trkpt>
      <trkpt lat="48.04142" lon="7.00461">
        <ele>1236.7</ele>
        <time>2022-05-26T14:04:21Z</time>
      </trkpt>
      <trkpt lat="48.04151" lon="7.0045">
        <ele>1236</ele>
        <time>2022-05-26T14:04:23Z</time>
      </trkpt>
      <trkpt lat="48.04159" lon="7.00436">
        <ele>1233.1</ele>
        <time>2022-05-26T14:04:25Z</time>
      </trkpt>
      <trkpt lat="48.04167" lon="7.00424">
        <ele>1231</ele>
        <time>2022-05-26T14:04:27Z</time>
      </trkpt>
      <trkpt lat="48.04174" lon="7.00412">
        <ele>1230.2</ele>
        <time>2022-05-26T14:04:29Z</time>
      </trkpt>
      <trkpt lat="48.04181" lon="7.00401">
        <ele>1228.7</ele>
        <time>2022-05-26T14:04:31Z</time>
      </trkpt>
      <trkpt lat="48.04187" lon="7.0039">
        <ele>1226.8</ele>
        <time>2022-05-26T14:04:33Z</time>
      </trkpt>
      <trkpt lat="48.04194" lon="7.00375">
        <ele>1224.9</ele>
        <time>2022-05-26T14:04:35Z</time>
      </trkpt>
      <trkpt lat="48.04205" lon="7.00362">
        <ele>1223.7</ele>
        <time>2022-05-26T14:04:37Z</time>
      </trkpt>
      <trkpt lat="48.04215" lon="7.00349">
        <ele>1221.6</ele>
        <time>2022-05-26T14:04:39Z</time>
      </trkpt>
      <trkpt lat="48.04224" lon="7.00335">
        <ele>1219.6</ele>
        <time>2022-05-26T14:04:41Z</time>
      </trkpt>
      <trkpt lat="48.04234" lon="7.00324">
        <ele>1217.7</ele>
        <time>2022-05-26T14:04:43Z</time>
      </trkpt>
      <trkpt lat="48.04245" lon="7.00314">
        <ele>1216.8</ele>
        <time>2022-05-26T14:04:45Z</time>
      </trkpt>
      <trkpt lat="48.04258" lon="7.00307">
        <ele>1215.4</ele>
        <time>2022-05-26T14:04:47Z</time>
      </trkpt>
      <trkpt lat="48.04271" lon="7.00302">
        <ele>1213.6</ele>
        <time>2022-05-26T14:04:49Z</time>
      </trkpt>
      <trkpt lat="48.04285" lon="7.003">
        <ele>1211.7</ele>
        <time>2022-05-26T14:04:51Z</time>
      </trkpt>
      <trkpt lat="48.04296" lon="7.00301">
        <ele>1211</ele>
        <time>2022-05-26T14:04:53Z</time>
      </trkpt>
      <trkpt lat="48.04302" lon="7.00289">
        <ele>1208.5</ele>
        <time>2022-05-26T14:04:56Z</time>
      </trkpt>
      <trkpt lat="48.04295" lon="7.00276">
        <ele>1207.8</ele>
        <time>2022-05-26T14:04:59Z</time>
      </trkpt>
      <trkpt lat="48.04285" lon="7.0027">
        <ele>1207</ele>
        <time>2022-05-26T14:05:02Z</time>
      </trkpt>
      <trkpt lat="48.0428" lon="7.00259">
        <ele>1205.7</ele>
        <time>2022-05-26T14:05:05Z</time>
      </trkpt>
      <trkpt lat="48.04275" lon="7.00247">
        <ele>1205.6</ele>
        <time>2022-05-26T14:05:09Z</time>
      </trkpt>
      <trkpt lat="48.04266" lon="7.00242">
        <ele>1204.9</ele>
        <time>2022-05-26T14:05:16Z</time>
      </trkpt>
      <trkpt lat="48.04272" lon="7.00227">
        <ele>1199.2</ele>
        <time>2022-05-26T14:05:27Z</time>
      </trkpt>
      <trkpt lat="48.04284" lon="7.00218">
        <ele>1197.8</ele>
        <time>2022-05-26T14:05:30Z</time>
      </trkpt>
      <trkpt lat="48.04293" lon="7.00214">
        <ele>1196.2</ele>
        <time>2022-05-26T14:05:32Z</time>
      </trkpt>
      <trkpt lat="48.04303" lon="7.00203">
        <ele>1192.5</ele>
        <time>2022-05-26T14:05:35Z</time>
      </trkpt>
      <trkpt lat="48.04311" lon="7.00193">
        <ele>1191.6</ele>
        <time>2022-05-26T14:05:38Z</time>
      </trkpt>
      <trkpt lat="48.04321" lon="7.00191">
        <ele>1189.4</ele>
        <time>2022-05-26T14:05:42Z</time>
      </trkpt>
      <trkpt lat="48.0433" lon="7.00186">
        <ele>1186.4</ele>
        <time>2022-05-26T14:05:47Z</time>
      </trkpt>
      <trkpt lat="48.04332" lon="7.0017">
        <ele>1182.5</ele>
        <time>2022-05-26T14:05:53Z</time>
      </trkpt>
      <trkpt lat="48.0433" lon="7.00153">
        <ele>1180.8</ele>
        <time>2022-05-26T14:05:57Z</time>
      </trkpt>
      <trkpt lat="48.04325" lon="7.00141">
        <ele>1179.6</ele>
        <time>2022-05-26T14:06:00Z</time>
      </trkpt>
      <trkpt lat="48.04319" lon="7.00127">
        <ele>1177.7</ele>
        <time>2022-05-26T14:06:03Z</time>
      </trkpt>
      <trkpt lat="48.04313" lon="7.00117">
        <ele>1177.8</ele>
        <time>2022-05-26T14:06:06Z</time>
      </trkpt>
      <trkpt lat="48.04304" lon="7.00106">
        <ele>1177.3</ele>
        <time>2022-05-26T14:06:10Z</time>
      </trkpt>
      <trkpt lat="48.04295" lon="7.00098">
        <ele>1175.3</ele>
        <time>2022-05-26T14:06:13Z</time>
      </trkpt>
      <trkpt lat="48.04302" lon="7.00086">
        <ele>1171.9</ele>
        <time>2022-05-26T14:06:26Z</time>
      </trkpt>
      <trkpt lat="48.04301" lon="7.0007">
        <ele>1170.1</ele>
        <time>2022-05-26T14:06:32Z</time>
      </trkpt>
      <trkpt lat="48.04296" lon="7.00058">
        <ele>1166.7</ele>
        <time>2022-05-26T14:06:37Z</time>
      </trkpt>
      <trkpt lat="48.04308" lon="7.0006">
        <ele>1163.5</ele>
        <time>2022-05-26T14:06:44Z</time>
      </trkpt>
      <trkpt lat="48.04317" lon="7.00068">
        <ele>1163.5</ele>
        <time>2022-05-26T14:06:47Z</time>
      </trkpt>
      <trkpt lat="48.04325" lon="7.0007">
        <ele>1161.5</ele>
        <time>2022-05-26T14:06:50Z</time>
      </trkpt>
      <trkpt lat="48.04323" lon="7.00051">
        <ele>1157.6</ele>
        <time>2022-05-26T14:06:54Z</time>
      </trkpt>
      <trkpt lat="48.04318" lon="7.00036">
        <ele>1154.5</ele>
        <time>2022-05-26T14:06:57Z</time>
      </trkpt>
      <trkpt lat="48.04309" lon="7.00024">
        <ele>1153</ele>
        <time>2022-05-26T14:07:00Z</time>
      </trkpt>
      <trkpt lat="48.04302" lon="7.00011">
        <ele>1150.3</ele>
        <time>2022-05-26T14:07:03Z</time>
      </trkpt>
      <trkpt lat="48.0429" lon="7.00002">
        <ele>1149.3</ele>
        <time>2022-05-26T14:07:06Z</time>
      </trkpt>
      <trkpt lat="48.04278" lon="6.99999">
        <ele>1147.2</ele>
        <time>2022-05-26T14:07:08Z</time>
      </trkpt>
      <trkpt lat="48.04267" lon="6.99994">
        <ele>1145.6</ele>
        <time>2022-05-26T14:07:10Z</time>
      </trkpt>
      <trkpt lat="48.04254" lon="6.99984">
        <ele>1144.3</ele>
        <time>2022-05-26T14:07:12Z</time>
      </trkpt>
      <trkpt lat="48.04242" lon="6.99977">
        <ele>1142.1</ele>
        <time>2022-05-26T14:07:14Z</time>
      </trkpt>
      <trkpt lat="48.04229" lon="6.99971">
        <ele>1140.4</ele>
        <time>2022-05-26T14:07:16Z</time>
      </trkpt>
      <trkpt lat="48.04218" lon="6.99964">
        <ele>1137</ele>
        <time>2022-05-26T14:07:19Z</time>
      </trkpt>
      <trkpt lat="48.04207" lon="6.99961">
        <ele>1135.6</ele>
        <time>2022-05-26T14:07:22Z</time>
      </trkpt>
      <trkpt lat="48.04196" lon="6.99957">
        <ele>1134.3</ele>
        <time>2022-05-26T14:07:26Z</time>
      </trkpt>
      <trkpt lat="48.04184" lon="6.99952">
        <ele>1132.1</ele>
        <time>2022-05-26T14:07:29Z</time>
      </trkpt>
      <trkpt lat="48.04172" lon="6.99942">
        <ele>1130.8</ele>
        <time>2022-05-26T14:07:31Z</time>
      </trkpt>
      <trkpt lat="48.04162" lon="6.99933">
        <ele>1127.9</ele>
        <time>2022-05-26T14:07:33Z</time>
      </trkpt>
      <trkpt lat="48.04153" lon="6.99928">
        <ele>1127.5</ele>
        <time>2022-05-26T14:07:35Z</time>
      </trkpt>
      <trkpt lat="48.04142" lon="6.99927">
        <ele>1126.9</ele>
        <time>2022-05-26T14:07:38Z</time>
      </trkpt>
      <trkpt lat="48.04131" lon="6.9993">
        <ele>1123.6</ele>
        <time>2022-05-26T14:07:43Z</time>
      </trkpt>
      <trkpt lat="48.04122" lon="6.99929">
        <ele>1123.8</ele>
        <time>2022-05-26T14:07:47Z</time>
      </trkpt>
      <trkpt lat="48.04118" lon="6.99916">
        <ele>1121.2</ele>
        <time>2022-05-26T14:07:50Z</time>
      </trkpt>
      <trkpt lat="48.04121" lon="6.99902">
        <ele>1119.5</ele>
        <time>2022-05-26T14:07:53Z</time>
      </trkpt>
      <trkpt lat="48.04122" lon="6.99895">
        <ele>1119.2</ele>
        <time>2022-05-26T14:07:59Z</time>
      </trkpt>
      <trkpt lat="48.04122" lon="6.99877">
        <ele>1118.4</ele>
        <time>2022-05-26T14:09:30Z</time>
      </trkpt>
      <trkpt lat="48.04117" lon="6.9986">
        <ele>1119.2</ele>
        <time>2022-05-26T14:09:33Z</time>
      </trkpt>
      <trkpt lat="48.0411" lon="6.99852">
        <ele>1121.7</ele>
        <time>2022-05-26T14:09:36Z</time>
      </trkpt>
      <trkpt lat="48.04105" lon="6.99839">
        <ele>1121</ele>
        <time>2022-05-26T14:09:40Z</time>
      </trkpt>
      <trkpt lat="48.04106" lon="6.99822">
        <ele>1120</ele>
        <time>2022-05-26T14:09:44Z</time>
      </trkpt>
      <trkpt lat="48.0411" lon="6.99808">
        <ele>1120.8</ele>
        <time>2022-05-26T14:09:48Z</time>
      </trkpt>
      <trkpt lat="48.04114" lon="6.99795">
        <ele>1120.6</ele>
        <time>2022-05-26T14:09:51Z</time>
      </trkpt>
      <trkpt lat="48.04117" lon="6.9978">
        <ele>1120.9</ele>
        <time>2022-05-26T14:09:54Z</time>
      </trkpt>
      <trkpt lat="48.04116" lon="6.99766">
        <ele>1121.5</ele>
        <time>2022-05-26T14:09:57Z</time>
      </trkpt>
      <trkpt lat="48.04109" lon="6.99756">
        <ele>1120.6</ele>
        <time>2022-05-26T14:10:00Z</time>
      </trkpt>
      <trkpt lat="48.04099" lon="6.99748">
        <ele>1121.4</ele>
        <time>2022-05-26T14:10:04Z</time>
      </trkpt>
      <trkpt lat="48.04091" lon="6.99737">
        <ele>1122.1</ele>
        <time>2022-05-26T14:10:08Z</time>
      </trkpt>
      <trkpt lat="48.04091" lon="6.99721">
        <ele>1122.2</ele>
        <time>2022-05-26T14:10:12Z</time>
      </trkpt>
      <trkpt lat="48.04099" lon="6.9971">
        <ele>1121.6</ele>
        <time>2022-05-26T14:10:16Z</time>
      </trkpt>
      <trkpt lat="48.0411" lon="6.99707">
        <ele>1121.3</ele>
        <time>2022-05-26T14:10:20Z</time>
      </trkpt>
      <trkpt lat="48.04119" lon="6.99704">
        <ele>1121.7</ele>
        <time>2022-05-26T14:10:23Z</time>
      </trkpt>
      <trkpt lat="48.04126" lon="6.99694">
        <ele>1121.7</ele>
        <time>2022-05-26T14:10:26Z</time>
      </trkpt>
      <trkpt lat="48.0413" lon="6.99679">
        <ele>1121.7</ele>
        <time>2022-05-26T14:10:29Z</time>
      </trkpt>
      <trkpt lat="48.04127" lon="6.99663">
        <ele>1122.9</ele>
        <time>2022-05-26T14:10:33Z</time>
      </trkpt>
      <trkpt lat="48.04121" lon="6.99652">
        <ele>1122.8</ele>
        <time>2022-05-26T14:10:36Z</time>
      </trkpt>
      <trkpt lat="48.04111" lon="6.9964">
        <ele>1123.1</ele>
        <time>2022-05-26T14:10:40Z</time>
      </trkpt>
      <trkpt lat="48.04103" lon="6.99629">
        <ele>1123.8</ele>
        <time>2022-05-26T14:10:44Z</time>
      </trkpt>
      <trkpt lat="48.04095" lon="6.99617">
        <ele>1124.6</ele>
        <time>2022-05-26T14:10:49Z</time>
      </trkpt>
      <trkpt lat="48.0409" lon="6.99603">
        <ele>1124.6</ele>
        <time>2022-05-26T14:10:53Z</time>
      </trkpt>
      <trkpt lat="48.04089" lon="6.99588">
        <ele>1125.8</ele>
        <time>2022-05-26T14:10:57Z</time>
      </trkpt>
      <trkpt lat="48.04088" lon="6.99574">
        <ele>1125</ele>
        <time>2022-05-26T14:11:00Z</time>
      </trkpt>
      <trkpt lat="48.04088" lon="6.9956">
        <ele>1125.7</ele>
        <time>2022-05-26T14:11:03Z</time>
      </trkpt>
      <trkpt lat="48.04087" lon="6.99544">
        <ele>1125</ele>
        <time>2022-05-26T14:11:06Z</time>
      </trkpt>
      <trkpt lat="48.04088" lon="6.99531">
        <ele>1125.7</ele>
        <time>2022-05-26T14:11:09Z</time>
      </trkpt>
      <trkpt lat="48.04089" lon="6.99514">
        <ele>1125.7</ele>
        <time>2022-05-26T14:11:13Z</time>
      </trkpt>
      <trkpt lat="48.04092" lon="6.99496">
        <ele>1125.7</ele>
        <time>2022-05-26T14:11:17Z</time>
      </trkpt>
      <trkpt lat="48.04094" lon="6.99483">
        <ele>1126.2</ele>
        <time>2022-05-26T14:11:20Z</time>
      </trkpt>
      <trkpt lat="48.04097" lon="6.9947">
        <ele>1126.1</ele>
        <time>2022-05-26T14:11:23Z</time>
      </trkpt>
      <trkpt lat="48.04097" lon="6.99455">
        <ele>1125.6</ele>
        <time>2022-05-26T14:11:26Z</time>
      </trkpt>
      <trkpt lat="48.04094" lon="6.99441">
        <ele>1127</ele>
        <time>2022-05-26T14:11:29Z</time>
      </trkpt>
      <trkpt lat="48.04094" lon="6.99424">
        <ele>1126.2</ele>
        <time>2022-05-26T14:11:33Z</time>
      </trkpt>
      <trkpt lat="48.04093" lon="6.99407">
        <ele>1127.4</ele>
        <time>2022-05-26T14:11:37Z</time>
      </trkpt>
      <trkpt lat="48.04093" lon="6.99393">
        <ele>1128.4</ele>
        <time>2022-05-26T14:11:40Z</time>
      </trkpt>
      <trkpt lat="48.04096" lon="6.99377">
        <ele>1128.2</ele>
        <time>2022-05-26T14:11:44Z</time>
      </trkpt>
      <trkpt lat="48.04096" lon="6.9936">
        <ele>1128.1</ele>
        <time>2022-05-26T14:11:48Z</time>
      </trkpt>
      <trkpt lat="48.04098" lon="6.99346">
        <ele>1127.3</ele>
        <time>2022-05-26T14:11:51Z</time>
      </trkpt>
      <trkpt lat="48.04097" lon="6.99329">
        <ele>1127.6</ele>
        <time>2022-05-26T14:11:55Z</time>
      </trkpt>
      <trkpt lat="48.04096" lon="6.99315">
        <ele>1128.1</ele>
        <time>2022-05-26T14:11:58Z</time>
      </trkpt>
      <trkpt lat="48.04097" lon="6.99301">
        <ele>1127.7</ele>
        <time>2022-05-26T14:12:01Z</time>
      </trkpt>
      <trkpt lat="48.04096" lon="6.99286">
        <ele>1127.4</ele>
        <time>2022-05-26T14:12:04Z</time>
      </trkpt>
      <trkpt lat="48.04094" lon="6.9927">
        <ele>1127.5</ele>
        <time>2022-05-26T14:12:07Z</time>
      </trkpt>
      <trkpt lat="48.04093" lon="6.9925">
        <ele>1125</ele>
        <time>2022-05-26T14:12:10Z</time>
      </trkpt>
      <trkpt lat="48.04093" lon="6.99234">
        <ele>1124.6</ele>
        <time>2022-05-26T14:12:12Z</time>
      </trkpt>
      <trkpt lat="48.04092" lon="6.99217">
        <ele>1125.3</ele>
        <time>2022-05-26T14:12:14Z</time>
      </trkpt>
      <trkpt lat="48.04093" lon="6.99201">
        <ele>1124.2</ele>
        <time>2022-05-26T14:12:16Z</time>
      </trkpt>
      <trkpt lat="48.04093" lon="6.99185">
        <ele>1123.5</ele>
        <time>2022-05-26T14:12:18Z</time>
      </trkpt>
      <trkpt lat="48.04096" lon="6.9917">
        <ele>1123.1</ele>
        <time>2022-05-26T14:12:20Z</time>
      </trkpt>
      <trkpt lat="48.041" lon="6.99157">
        <ele>1122.9</ele>
        <time>2022-05-26T14:12:22Z</time>
      </trkpt>
      <trkpt lat="48.04104" lon="6.99142">
        <ele>1121.6</ele>
        <time>2022-05-26T14:12:24Z</time>
      </trkpt>
      <trkpt lat="48.04106" lon="6.99127">
        <ele>1122.6</ele>
        <time>2022-05-26T14:12:26Z</time>
      </trkpt>
      <trkpt lat="48.04104" lon="6.99113">
        <ele>1120.7</ele>
        <time>2022-05-26T14:12:28Z</time>
      </trkpt>
      <trkpt lat="48.04101" lon="6.99098">
        <ele>1118.7</ele>
        <time>2022-05-26T14:12:30Z</time>
      </trkpt>
      <trkpt lat="48.04099" lon="6.99081">
        <ele>1118.5</ele>
        <time>2022-05-26T14:12:32Z</time>
      </trkpt>
      <trkpt lat="48.04099" lon="6.99066">
        <ele>1119.4</ele>
        <time>2022-05-26T14:12:34Z</time>
      </trkpt>
      <trkpt lat="48.04097" lon="6.99047">
        <ele>1117.3</ele>
        <time>2022-05-26T14:12:36Z</time>
      </trkpt>
      <trkpt lat="48.04092" lon="6.99033">
        <ele>1114.6</ele>
        <time>2022-05-26T14:12:38Z</time>
      </trkpt>
      <trkpt lat="48.04079" lon="6.99024">
        <ele>1114.7</ele>
        <time>2022-05-26T14:12:41Z</time>
      </trkpt>
      <trkpt lat="48.04069" lon="6.9902">
        <ele>1114.3</ele>
        <time>2022-05-26T14:12:43Z</time>
      </trkpt>
      <trkpt lat="48.04058" lon="6.99013">
        <ele>1113.1</ele>
        <time>2022-05-26T14:12:45Z</time>
      </trkpt>
      <trkpt lat="48.04047" lon="6.99004">
        <ele>1111.3</ele>
        <time>2022-05-26T14:12:47Z</time>
      </trkpt>
      <trkpt lat="48.04038" lon="6.98994">
        <ele>1111.4</ele>
        <time>2022-05-26T14:12:49Z</time>
      </trkpt>
      <trkpt lat="48.0403" lon="6.9898">
        <ele>1112</ele>
        <time>2022-05-26T14:12:51Z</time>
      </trkpt>
      <trkpt lat="48.04023" lon="6.98964">
        <ele>1111.2</ele>
        <time>2022-05-26T14:12:53Z</time>
      </trkpt>
      <trkpt lat="48.04016" lon="6.98946">
        <ele>1111.5</ele>
        <time>2022-05-26T14:12:55Z</time>
      </trkpt>
      <trkpt lat="48.04008" lon="6.98932">
        <ele>1110.8</ele>
        <time>2022-05-26T14:12:57Z</time>
      </trkpt>
      <trkpt lat="48.04001" lon="6.98921">
        <ele>1109.9</ele>
        <time>2022-05-26T14:12:59Z</time>
      </trkpt>
      <trkpt lat="48.03994" lon="6.9891">
        <ele>1110.7</ele>
        <time>2022-05-26T14:13:01Z</time>
      </trkpt>
      <trkpt lat="48.03989" lon="6.98895">
        <ele>1110.2</ele>
        <time>2022-05-26T14:13:04Z</time>
      </trkpt>
      <trkpt lat="48.03987" lon="6.98879">
        <ele>1109.5</ele>
        <time>2022-05-26T14:13:07Z</time>
      </trkpt>
      <trkpt lat="48.03985" lon="6.98859">
        <ele>1110.7</ele>
        <time>2022-05-26T14:13:10Z</time>
      </trkpt>
      <trkpt lat="48.03983" lon="6.98843">
        <ele>1111.7</ele>
        <time>2022-05-26T14:13:12Z</time>
      </trkpt>
      <trkpt lat="48.0398" lon="6.98825">
        <ele>1111.2</ele>
        <time>2022-05-26T14:13:14Z</time>
      </trkpt>
      <trkpt lat="48.03977" lon="6.98807">
        <ele>1110.3</ele>
        <time>2022-05-26T14:13:16Z</time>
      </trkpt>
      <trkpt lat="48.03974" lon="6.98791">
        <ele>1110.8</ele>
        <time>2022-05-26T14:13:18Z</time>
      </trkpt>
      <trkpt lat="48.03972" lon="6.98776">
        <ele>1112.6</ele>
        <time>2022-05-26T14:13:20Z</time>
      </trkpt>
      <trkpt lat="48.0397" lon="6.98763">
        <ele>1110.8</ele>
        <time>2022-05-26T14:13:22Z</time>
      </trkpt>
      <trkpt lat="48.03969" lon="6.98749">
        <ele>1111.7</ele>
        <time>2022-05-26T14:13:24Z</time>
      </trkpt>
      <trkpt lat="48.03969" lon="6.98729">
        <ele>1111.7</ele>
        <time>2022-05-26T14:13:27Z</time>
      </trkpt>
      <trkpt lat="48.03968" lon="6.98709">
        <ele>1112.3</ele>
        <time>2022-05-26T14:13:30Z</time>
      </trkpt>
      <trkpt lat="48.03967" lon="6.9869">
        <ele>1111.5</ele>
        <time>2022-05-26T14:13:33Z</time>
      </trkpt>
      <trkpt lat="48.03966" lon="6.98674">
        <ele>1112.1</ele>
        <time>2022-05-26T14:13:36Z</time>
      </trkpt>
      <trkpt lat="48.03964" lon="6.9866">
        <ele>1109.5</ele>
        <time>2022-05-26T14:13:39Z</time>
      </trkpt>
      <trkpt lat="48.03962" lon="6.98642">
        <ele>1110.4</ele>
        <time>2022-05-26T14:13:42Z</time>
      </trkpt>
      <trkpt lat="48.0396" lon="6.98628">
        <ele>1110</ele>
        <time>2022-05-26T14:13:44Z</time>
      </trkpt>
      <trkpt lat="48.0396" lon="6.98613">
        <ele>1108.2</ele>
        <time>2022-05-26T14:13:46Z</time>
      </trkpt>
      <trkpt lat="48.03958" lon="6.98599">
        <ele>1107.2</ele>
        <time>2022-05-26T14:13:48Z</time>
      </trkpt>
      <trkpt lat="48.03956" lon="6.98584">
        <ele>1106.5</ele>
        <time>2022-05-26T14:13:50Z</time>
      </trkpt>
      <trkpt lat="48.03954" lon="6.9857">
        <ele>1106.9</ele>
        <time>2022-05-26T14:13:52Z</time>
      </trkpt>
      <trkpt lat="48.03952" lon="6.98555">
        <ele>1105.8</ele>
        <time>2022-05-26T14:13:54Z</time>
      </trkpt>
      <trkpt lat="48.03949" lon="6.9854">
        <ele>1103.4</ele>
        <time>2022-05-26T14:13:56Z</time>
      </trkpt>
      <trkpt lat="48.03945" lon="6.98524">
        <ele>1103.6</ele>
        <time>2022-05-26T14:13:58Z</time>
      </trkpt>
      <trkpt lat="48.03941" lon="6.98507">
        <ele>1101.1</ele>
        <time>2022-05-26T14:14:00Z</time>
      </trkpt>
      <trkpt lat="48.03938" lon="6.98488">
        <ele>1099.4</ele>
        <time>2022-05-26T14:14:02Z</time>
      </trkpt>
      <trkpt lat="48.03935" lon="6.98471">
        <ele>1101</ele>
        <time>2022-05-26T14:14:04Z</time>
      </trkpt>
      <trkpt lat="48.03933" lon="6.98453">
        <ele>1100.5</ele>
        <time>2022-05-26T14:14:06Z</time>
      </trkpt>
      <trkpt lat="48.03931" lon="6.98434">
        <ele>1097.5</ele>
        <time>2022-05-26T14:14:08Z</time>
      </trkpt>
      <trkpt lat="48.03931" lon="6.98414">
        <ele>1097.5</ele>
        <time>2022-05-26T14:14:10Z</time>
      </trkpt>
      <trkpt lat="48.03931" lon="6.98393">
        <ele>1093.8</ele>
        <time>2022-05-26T14:14:12Z</time>
      </trkpt>
      <trkpt lat="48.03934" lon="6.98373">
        <ele>1094.4</ele>
        <time>2022-05-26T14:14:14Z</time>
      </trkpt>
      <trkpt lat="48.03938" lon="6.98354">
        <ele>1093.9</ele>
        <time>2022-05-26T14:14:16Z</time>
      </trkpt>
      <trkpt lat="48.03944" lon="6.98332">
        <ele>1092</ele>
        <time>2022-05-26T14:14:18Z</time>
      </trkpt>
      <trkpt lat="48.0395" lon="6.98309">
        <ele>1088.8</ele>
        <time>2022-05-26T14:14:20Z</time>
      </trkpt>
      <trkpt lat="48.03957" lon="6.98288">
        <ele>1089.2</ele>
        <time>2022-05-26T14:14:22Z</time>
      </trkpt>
      <trkpt lat="48.03964" lon="6.98274">
        <ele>1090.4</ele>
        <time>2022-05-26T14:14:24Z</time>
      </trkpt>
      <trkpt lat="48.03971" lon="6.98262">
        <ele>1092.4</ele>
        <time>2022-05-26T14:14:26Z</time>
      </trkpt>
      <trkpt lat="48.03978" lon="6.98251">
        <ele>1092.8</ele>
        <time>2022-05-26T14:14:28Z</time>
      </trkpt>
      <trkpt lat="48.03984" lon="6.98238">
        <ele>1092.4</ele>
        <time>2022-05-26T14:14:31Z</time>
      </trkpt>
      <trkpt lat="48.03983" lon="6.98222">
        <ele>1091.1</ele>
        <time>2022-05-26T14:14:37Z</time>
      </trkpt>
      <trkpt lat="48.03984" lon="6.98209">
        <ele>1088.3</ele>
        <time>2022-05-26T14:14:42Z</time>
      </trkpt>
      <trkpt lat="48.03984" lon="6.98193">
        <ele>1089.2</ele>
        <time>2022-05-26T14:14:45Z</time>
      </trkpt>
      <trkpt lat="48.03984" lon="6.98173">
        <ele>1087</ele>
        <time>2022-05-26T14:14:48Z</time>
      </trkpt>
      <trkpt lat="48.03984" lon="6.98157">
        <ele>1087</ele>
        <time>2022-05-26T14:14:50Z</time>
      </trkpt>
      <trkpt lat="48.03986" lon="6.98143">
        <ele>1085.7</ele>
        <time>2022-05-26T14:14:52Z</time>
      </trkpt>
      <trkpt lat="48.03987" lon="6.98128">
        <ele>1084.9</ele>
        <time>2022-05-26T14:14:54Z</time>
      </trkpt>
      <trkpt lat="48.03988" lon="6.9811">
        <ele>1083.1</ele>
        <time>2022-05-26T14:14:56Z</time>
      </trkpt>
      <trkpt lat="48.03991" lon="6.9809">
        <ele>1083.3</ele>
        <time>2022-05-26T14:14:58Z</time>
      </trkpt>
      <trkpt lat="48.03994" lon="6.98069">
        <ele>1082.6</ele>
        <time>2022-05-26T14:15:00Z</time>
      </trkpt>
      <trkpt lat="48.03995" lon="6.98044">
        <ele>1078.6</ele>
        <time>2022-05-26T14:15:02Z</time>
      </trkpt>
      <trkpt lat="48.03998" lon="6.9802">
        <ele>1076.6</ele>
        <time>2022-05-26T14:15:04Z</time>
      </trkpt>
      <trkpt lat="48.04001" lon="6.97995">
        <ele>1076.6</ele>
        <time>2022-05-26T14:15:06Z</time>
      </trkpt>
      <trkpt lat="48.04003" lon="6.97981">
        <ele>1075.4</ele>
        <time>2022-05-26T14:15:07Z</time>
      </trkpt>
      <trkpt lat="48.04005" lon="6.97966">
        <ele>1074.8</ele>
        <time>2022-05-26T14:15:08Z</time>
      </trkpt>
      <trkpt lat="48.04007" lon="6.97952">
        <ele>1072.7</ele>
        <time>2022-05-26T14:15:09Z</time>
      </trkpt>
      <trkpt lat="48.0401" lon="6.97938">
        <ele>1070.9</ele>
        <time>2022-05-26T14:15:10Z</time>
      </trkpt>
      <trkpt lat="48.04013" lon="6.97925">
        <ele>1069.2</ele>
        <time>2022-05-26T14:15:11Z</time>
      </trkpt>
      <trkpt lat="48.04015" lon="6.97912">
        <ele>1070.4</ele>
        <time>2022-05-26T14:15:12Z</time>
      </trkpt>
      <trkpt lat="48.0402" lon="6.97888">
        <ele>1070.9</ele>
        <time>2022-05-26T14:15:14Z</time>
      </trkpt>
      <trkpt lat="48.04026" lon="6.97868">
        <ele>1069.1</ele>
        <time>2022-05-26T14:15:16Z</time>
      </trkpt>
      <trkpt lat="48.04033" lon="6.97849">
        <ele>1067.2</ele>
        <time>2022-05-26T14:15:18Z</time>
      </trkpt>
      <trkpt lat="48.04044" lon="6.97835">
        <ele>1066.2</ele>
        <time>2022-05-26T14:15:20Z</time>
      </trkpt>
      <trkpt lat="48.04058" lon="6.97826">
        <ele>1062.2</ele>
        <time>2022-05-26T14:15:22Z</time>
      </trkpt>
      <trkpt lat="48.04075" lon="6.97818">
        <ele>1061.8</ele>
        <time>2022-05-26T14:15:24Z</time>
      </trkpt>
      <trkpt lat="48.04084" lon="6.97815">
        <ele>1062.5</ele>
        <time>2022-05-26T14:15:25Z</time>
      </trkpt>
      <trkpt lat="48.04101" lon="6.97812">
        <ele>1059.5</ele>
        <time>2022-05-26T14:15:27Z</time>
      </trkpt>
      <trkpt lat="48.04118" lon="6.97811">
        <ele>1057</ele>
        <time>2022-05-26T14:15:29Z</time>
      </trkpt>
      <trkpt lat="48.04136" lon="6.97811">
        <ele>1056.2</ele>
        <time>2022-05-26T14:15:31Z</time>
      </trkpt>
      <trkpt lat="48.04153" lon="6.97812">
        <ele>1053.2</ele>
        <time>2022-05-26T14:15:33Z</time>
      </trkpt>
      <trkpt lat="48.04169" lon="6.97817">
        <ele>1052.8</ele>
        <time>2022-05-26T14:15:35Z</time>
      </trkpt>
      <trkpt lat="48.04184" lon="6.97823">
        <ele>1053.1</ele>
        <time>2022-05-26T14:15:37Z</time>
      </trkpt>
      <trkpt lat="48.04199" lon="6.97827">
        <ele>1053.9</ele>
        <time>2022-05-26T14:15:39Z</time>
      </trkpt>
      <trkpt lat="48.04212" lon="6.97832">
        <ele>1054.5</ele>
        <time>2022-05-26T14:15:41Z</time>
      </trkpt>
      <trkpt lat="48.04226" lon="6.97835">
        <ele>1054.4</ele>
        <time>2022-05-26T14:15:43Z</time>
      </trkpt>
      <trkpt lat="48.04239" lon="6.97839">
        <ele>1052.2</ele>
        <time>2022-05-26T14:15:45Z</time>
      </trkpt>
      <trkpt lat="48.04252" lon="6.97843">
        <ele>1047.5</ele>
        <time>2022-05-26T14:15:47Z</time>
      </trkpt>
      <trkpt lat="48.04267" lon="6.97846">
        <ele>1047.2</ele>
        <time>2022-05-26T14:15:49Z</time>
      </trkpt>
      <trkpt lat="48.04281" lon="6.97849">
        <ele>1046.4</ele>
        <time>2022-05-26T14:15:51Z</time>
      </trkpt>
      <trkpt lat="48.04299" lon="6.97851">
        <ele>1048.1</ele>
        <time>2022-05-26T14:15:53Z</time>
      </trkpt>
      <trkpt lat="48.04308" lon="6.97851">
        <ele>1049.4</ele>
        <time>2022-05-26T14:15:54Z</time>
      </trkpt>
      <trkpt lat="48.04326" lon="6.9785">
        <ele>1046.4</ele>
        <time>2022-05-26T14:15:56Z</time>
      </trkpt>
      <trkpt lat="48.04336" lon="6.97849">
        <ele>1043.2</ele>
        <time>2022-05-26T14:15:57Z</time>
      </trkpt>
      <trkpt lat="48.04346" lon="6.97849">
        <ele>1042.2</ele>
        <time>2022-05-26T14:15:58Z</time>
      </trkpt>
      <trkpt lat="48.04356" lon="6.97847">
        <ele>1041.5</ele>
        <time>2022-05-26T14:15:59Z</time>
      </trkpt>
      <trkpt lat="48.04366" lon="6.97845">
        <ele>1039.7</ele>
        <time>2022-05-26T14:16:00Z</time>
      </trkpt>
      <trkpt lat="48.04375" lon="6.97843">
        <ele>1038.5</ele>
        <time>2022-05-26T14:16:01Z</time>
      </trkpt>
      <trkpt lat="48.04385" lon="6.97842">
        <ele>1038.2</ele>
        <time>2022-05-26T14:16:02Z</time>
      </trkpt>
      <trkpt lat="48.04394" lon="6.97839">
        <ele>1038.7</ele>
        <time>2022-05-26T14:16:03Z</time>
      </trkpt>
      <trkpt lat="48.04409" lon="6.97835">
        <ele>1037.8</ele>
        <time>2022-05-26T14:16:05Z</time>
      </trkpt>
      <trkpt lat="48.04418" lon="6.97834">
        <ele>1035.9</ele>
        <time>2022-05-26T14:16:07Z</time>
      </trkpt>
      <trkpt lat="48.04428" lon="6.97833">
        <ele>1034.6</ele>
        <time>2022-05-26T14:16:10Z</time>
      </trkpt>
      <trkpt lat="48.04432" lon="6.97833">
        <ele>1034.8</ele>
        <time>2022-05-26T14:16:16Z</time>
      </trkpt>
      <trkpt lat="48.04432" lon="6.97834">
        <ele>1034.6</ele>
        <time>2022-05-26T14:16:21Z</time>
      </trkpt>
      <trkpt lat="48.04442" lon="6.97834">
        <ele>1033.2</ele>
        <time>2022-05-26T14:16:26Z</time>
      </trkpt>
      <trkpt lat="48.04452" lon="6.97835">
        <ele>1032.5</ele>
        <time>2022-05-26T14:16:29Z</time>
      </trkpt>
      <trkpt lat="48.04461" lon="6.97836">
        <ele>1031.2</ele>
        <time>2022-05-26T14:16:31Z</time>
      </trkpt>
      <trkpt lat="48.04472" lon="6.97836">
        <ele>1029.5</ele>
        <time>2022-05-26T14:16:33Z</time>
      </trkpt>
      <trkpt lat="48.04486" lon="6.97835">
        <ele>1028.4</ele>
        <time>2022-05-26T14:16:35Z</time>
      </trkpt>
      <trkpt lat="48.04501" lon="6.97832">
        <ele>1028.4</ele>
        <time>2022-05-26T14:16:37Z</time>
      </trkpt>
      <trkpt lat="48.04517" lon="6.97828">
        <ele>1029.2</ele>
        <time>2022-05-26T14:16:39Z</time>
      </trkpt>
      <trkpt lat="48.04533" lon="6.97823">
        <ele>1026.6</ele>
        <time>2022-05-26T14:16:41Z</time>
      </trkpt>
      <trkpt lat="48.04548" lon="6.97819">
        <ele>1023.4</ele>
        <time>2022-05-26T14:16:43Z</time>
      </trkpt>
      <trkpt lat="48.04562" lon="6.97818">
        <ele>1020.9</ele>
        <time>2022-05-26T14:16:45Z</time>
      </trkpt>
      <trkpt lat="48.04578" lon="6.97819">
        <ele>1022.3</ele>
        <time>2022-05-26T14:16:47Z</time>
      </trkpt>
      <trkpt lat="48.04594" lon="6.97821">
        <ele>1020.7</ele>
        <time>2022-05-26T14:16:49Z</time>
      </trkpt>
      <trkpt lat="48.04608" lon="6.97825">
        <ele>1016.1</ele>
        <time>2022-05-26T14:16:51Z</time>
      </trkpt>
      <trkpt lat="48.04618" lon="6.97826">
        <ele>1017.9</ele>
        <time>2022-05-26T14:16:53Z</time>
      </trkpt>
      <trkpt lat="48.04626" lon="6.97816">
        <ele>1014.5</ele>
        <time>2022-05-26T14:16:56Z</time>
      </trkpt>
      <trkpt lat="48.04619" lon="6.97807">
        <ele>1015.7</ele>
        <time>2022-05-26T14:17:00Z</time>
      </trkpt>
      <trkpt lat="48.04606" lon="6.97803">
        <ele>1011.1</ele>
        <time>2022-05-26T14:17:03Z</time>
      </trkpt>
      <trkpt lat="48.04595" lon="6.97797">
        <ele>1009.8</ele>
        <time>2022-05-26T14:17:05Z</time>
      </trkpt>
      <trkpt lat="48.04583" lon="6.97787">
        <ele>1010.3</ele>
        <time>2022-05-26T14:17:07Z</time>
      </trkpt>
      <trkpt lat="48.0457" lon="6.97776">
        <ele>1008.8</ele>
        <time>2022-05-26T14:17:09Z</time>
      </trkpt>
      <trkpt lat="48.04562" lon="6.9777">
        <ele>1008.2</ele>
        <time>2022-05-26T14:17:11Z</time>
      </trkpt>
      <trkpt lat="48.04553" lon="6.97765">
        <ele>1006.7</ele>
        <time>2022-05-26T14:17:16Z</time>
      </trkpt>
      <trkpt lat="48.04564" lon="6.97754">
        <ele>1001.3</ele>
        <time>2022-05-26T14:17:32Z</time>
      </trkpt>
      <trkpt lat="48.04575" lon="6.97749">
        <ele>998.9</ele>
        <time>2022-05-26T14:17:34Z</time>
      </trkpt>
      <trkpt lat="48.04585" lon="6.97747">
        <ele>998.1</ele>
        <time>2022-05-26T14:17:36Z</time>
      </trkpt>
      <trkpt lat="48.04594" lon="6.97747">
        <ele>998.6</ele>
        <time>2022-05-26T14:17:39Z</time>
      </trkpt>
      <trkpt lat="48.04605" lon="6.97751">
        <ele>996.3</ele>
        <time>2022-05-26T14:17:43Z</time>
      </trkpt>
      <trkpt lat="48.04615" lon="6.97748">
        <ele>994.1</ele>
        <time>2022-05-26T14:17:47Z</time>
      </trkpt>
      <trkpt lat="48.04623" lon="6.97743">
        <ele>994.3</ele>
        <time>2022-05-26T14:17:51Z</time>
      </trkpt>
      <trkpt lat="48.04632" lon="6.97737">
        <ele>992.7</ele>
        <time>2022-05-26T14:17:59Z</time>
      </trkpt>
      <trkpt lat="48.04636" lon="6.97724">
        <ele>990.2</ele>
        <time>2022-05-26T14:18:03Z</time>
      </trkpt>
      <trkpt lat="48.04641" lon="6.97713">
        <ele>988.3</ele>
        <time>2022-05-26T14:18:08Z</time>
      </trkpt>
      <trkpt lat="48.0465" lon="6.97706">
        <ele>985.8</ele>
        <time>2022-05-26T14:18:12Z</time>
      </trkpt>
      <trkpt lat="48.04659" lon="6.97702">
        <ele>983.2</ele>
        <time>2022-05-26T14:18:16Z</time>
      </trkpt>
      <trkpt lat="48.04668" lon="6.97695">
        <ele>979.9</ele>
        <time>2022-05-26T14:18:23Z</time>
      </trkpt>
      <trkpt lat="48.04678" lon="6.97687">
        <ele>978.4</ele>
        <time>2022-05-26T14:18:26Z</time>
      </trkpt>
      <trkpt lat="48.04686" lon="6.9768">
        <ele>976.8</ele>
        <time>2022-05-26T14:18:31Z</time>
      </trkpt>
      <trkpt lat="48.04693" lon="6.97671">
        <ele>976</ele>
        <time>2022-05-26T14:18:36Z</time>
      </trkpt>
      <trkpt lat="48.04702" lon="6.97662">
        <ele>972.6</ele>
        <time>2022-05-26T14:18:39Z</time>
      </trkpt>
      <trkpt lat="48.04712" lon="6.97652">
        <ele>973.4</ele>
        <time>2022-05-26T14:18:42Z</time>
      </trkpt>
      <trkpt lat="48.04718" lon="6.97628">
        <ele>972.5</ele>
        <time>2022-05-26T14:18:45Z</time>
      </trkpt>
      <trkpt lat="48.04716" lon="6.97613">
        <ele>970.8</ele>
        <time>2022-05-26T14:18:47Z</time>
      </trkpt>
      <trkpt lat="48.04709" lon="6.97598">
        <ele>965.6</ele>
        <time>2022-05-26T14:18:50Z</time>
      </trkpt>
      <trkpt lat="48.04699" lon="6.9759">
        <ele>966.7</ele>
        <time>2022-05-26T14:18:53Z</time>
      </trkpt>
      <trkpt lat="48.0469" lon="6.97584">
        <ele>963.9</ele>
        <time>2022-05-26T14:18:57Z</time>
      </trkpt>
      <trkpt lat="48.04688" lon="6.9757">
        <ele>961.6</ele>
        <time>2022-05-26T14:19:01Z</time>
      </trkpt>
      <trkpt lat="48.04697" lon="6.97565">
        <ele>959.8</ele>
        <time>2022-05-26T14:19:04Z</time>
      </trkpt>
      <trkpt lat="48.04708" lon="6.97567">
        <ele>960.5</ele>
        <time>2022-05-26T14:19:07Z</time>
      </trkpt>
      <trkpt lat="48.0472" lon="6.97568">
        <ele>961.3</ele>
        <time>2022-05-26T14:19:10Z</time>
      </trkpt>
      <trkpt lat="48.04732" lon="6.9757">
        <ele>961.4</ele>
        <time>2022-05-26T14:19:13Z</time>
      </trkpt>
      <trkpt lat="48.04744" lon="6.97573">
        <ele>962.1</ele>
        <time>2022-05-26T14:19:16Z</time>
      </trkpt>
      <trkpt lat="48.04754" lon="6.97578">
        <ele>962.2</ele>
        <time>2022-05-26T14:19:20Z</time>
      </trkpt>
      <trkpt lat="48.04763" lon="6.97583">
        <ele>962</ele>
        <time>2022-05-26T14:19:27Z</time>
      </trkpt>
      <trkpt lat="48.04766" lon="6.97567">
        <ele>962.8</ele>
        <time>2022-05-26T14:19:33Z</time>
      </trkpt>
      <trkpt lat="48.04768" lon="6.97552">
        <ele>963.1</ele>
        <time>2022-05-26T14:19:36Z</time>
      </trkpt>
      <trkpt lat="48.04771" lon="6.97539">
        <ele>963.5</ele>
        <time>2022-05-26T14:19:39Z</time>
      </trkpt>
      <trkpt lat="48.04773" lon="6.97525">
        <ele>964.2</ele>
        <time>2022-05-26T14:19:44Z</time>
      </trkpt>
      <trkpt lat="48.04773" lon="6.97526">
        <ele>964.1</ele>
        <time>2022-05-26T14:22:12Z</time>
      </trkpt>
      <trkpt lat="48.04772" lon="6.97511">
        <ele>964.6</ele>
        <time>2022-05-26T14:22:19Z</time>
      </trkpt>
      <trkpt lat="48.04775" lon="6.97497">
        <ele>965.6</ele>
        <time>2022-05-26T14:22:24Z</time>
      </trkpt>
      <trkpt lat="48.04778" lon="6.97484">
        <ele>966.3</ele>
        <time>2022-05-26T14:22:28Z</time>
      </trkpt>
      <trkpt lat="48.04781" lon="6.97471">
        <ele>967.5</ele>
        <time>2022-05-26T14:22:32Z</time>
      </trkpt>
      <trkpt lat="48.04784" lon="6.97456">
        <ele>968.2</ele>
        <time>2022-05-26T14:22:37Z</time>
      </trkpt>
      <trkpt lat="48.04786" lon="6.97442">
        <ele>968.8</ele>
        <time>2022-05-26T14:22:41Z</time>
      </trkpt>
      <trkpt lat="48.04786" lon="6.97428">
        <ele>969.3</ele>
        <time>2022-05-26T14:22:45Z</time>
      </trkpt>
      <trkpt lat="48.04786" lon="6.97414">
        <ele>969.6</ele>
        <time>2022-05-26T14:22:49Z</time>
      </trkpt>
      <trkpt lat="48.04787" lon="6.97398">
        <ele>971.1</ele>
        <time>2022-05-26T14:22:54Z</time>
      </trkpt>
      <trkpt lat="48.04786" lon="6.97382">
        <ele>971.4</ele>
        <time>2022-05-26T14:22:59Z</time>
      </trkpt>
      <trkpt lat="48.04786" lon="6.97366">
        <ele>972.3</ele>
        <time>2022-05-26T14:23:04Z</time>
      </trkpt>
      <trkpt lat="48.04783" lon="6.97351">
        <ele>973.3</ele>
        <time>2022-05-26T14:23:09Z</time>
      </trkpt>
      <trkpt lat="48.04778" lon="6.97338">
        <ele>974</ele>
        <time>2022-05-26T14:23:15Z</time>
      </trkpt>
      <trkpt lat="48.04771" lon="6.97326">
        <ele>974.7</ele>
        <time>2022-05-26T14:23:22Z</time>
      </trkpt>
      <trkpt lat="48.04764" lon="6.97317">
        <ele>975.3</ele>
        <time>2022-05-26T14:23:28Z</time>
      </trkpt>
      <trkpt lat="48.04757" lon="6.97307">
        <ele>976.4</ele>
        <time>2022-05-26T14:23:34Z</time>
      </trkpt>
      <trkpt lat="48.0475" lon="6.97296">
        <ele>976.9</ele>
        <time>2022-05-26T14:23:41Z</time>
      </trkpt>
      <trkpt lat="48.04746" lon="6.97285">
        <ele>977.2</ele>
        <time>2022-05-26T14:23:47Z</time>
      </trkpt>
      <trkpt lat="48.04741" lon="6.97273">
        <ele>978</ele>
        <time>2022-05-26T14:23:53Z</time>
      </trkpt>
      <trkpt lat="48.04736" lon="6.9726">
        <ele>978.4</ele>
        <time>2022-05-26T14:24:00Z</time>
      </trkpt>
      <trkpt lat="48.04733" lon="6.97246">
        <ele>979.1</ele>
        <time>2022-05-26T14:24:07Z</time>
      </trkpt>
      <trkpt lat="48.0473" lon="6.97233">
        <ele>980</ele>
        <time>2022-05-26T14:24:14Z</time>
      </trkpt>
      <trkpt lat="48.04726" lon="6.97219">
        <ele>980.7</ele>
        <time>2022-05-26T14:24:19Z</time>
      </trkpt>
      <trkpt lat="48.04725" lon="6.97204">
        <ele>981.6</ele>
        <time>2022-05-26T14:24:25Z</time>
      </trkpt>
      <trkpt lat="48.04725" lon="6.9719">
        <ele>982.5</ele>
        <time>2022-05-26T14:24:30Z</time>
      </trkpt>
      <trkpt lat="48.04728" lon="6.97175">
        <ele>983.2</ele>
        <time>2022-05-26T14:24:36Z</time>
      </trkpt>
      <trkpt lat="48.04731" lon="6.9716">
        <ele>984.2</ele>
        <time>2022-05-26T14:24:42Z</time>
      </trkpt>
      <trkpt lat="48.04733" lon="6.97144">
        <ele>984.8</ele>
        <time>2022-05-26T14:24:48Z</time>
      </trkpt>
      <trkpt lat="48.04735" lon="6.97129">
        <ele>985.3</ele>
        <time>2022-05-26T14:24:54Z</time>
      </trkpt>
      <trkpt lat="48.04737" lon="6.97113">
        <ele>986.6</ele>
        <time>2022-05-26T14:25:00Z</time>
      </trkpt>
      <trkpt lat="48.04738" lon="6.97097">
        <ele>987.5</ele>
        <time>2022-05-26T14:25:06Z</time>
      </trkpt>
      <trkpt lat="48.04738" lon="6.97081">
        <ele>988</ele>
        <time>2022-05-26T14:25:12Z</time>
      </trkpt>
      <trkpt lat="48.04738" lon="6.97066">
        <ele>988.7</ele>
        <time>2022-05-26T14:25:18Z</time>
      </trkpt>
      <trkpt lat="48.04734" lon="6.9705">
        <ele>988.8</ele>
        <time>2022-05-26T14:25:23Z</time>
      </trkpt>
      <trkpt lat="48.04732" lon="6.97036">
        <ele>989.5</ele>
        <time>2022-05-26T14:25:28Z</time>
      </trkpt>
      <trkpt lat="48.04728" lon="6.97021">
        <ele>990.4</ele>
        <time>2022-05-26T14:25:34Z</time>
      </trkpt>
      <trkpt lat="48.04726" lon="6.97006">
        <ele>991.4</ele>
        <time>2022-05-26T14:25:41Z</time>
      </trkpt>
      <trkpt lat="48.04715" lon="6.97014">
        <ele>990.3</ele>
        <time>2022-05-26T14:25:48Z</time>
      </trkpt>
      <trkpt lat="48.04705" lon="6.97024">
        <ele>987.2</ele>
        <time>2022-05-26T14:25:52Z</time>
      </trkpt>
      <trkpt lat="48.04698" lon="6.97031">
        <ele>987.2</ele>
        <time>2022-05-26T14:25:57Z</time>
      </trkpt>
      <trkpt lat="48.04686" lon="6.97038">
        <ele>985.4</ele>
        <time>2022-05-26T14:26:02Z</time>
      </trkpt>
      <trkpt lat="48.04675" lon="6.97044">
        <ele>983.3</ele>
        <time>2022-05-26T14:26:05Z</time>
      </trkpt>
      <trkpt lat="48.04666" lon="6.97049">
        <ele>981.7</ele>
        <time>2022-05-26T14:26:09Z</time>
      </trkpt>
      <trkpt lat="48.04671" lon="6.97037">
        <ele>981.4</ele>
        <time>2022-05-26T14:26:15Z</time>
      </trkpt>
      <trkpt lat="48.04677" lon="6.97023">
        <ele>981.9</ele>
        <time>2022-05-26T14:26:19Z</time>
      </trkpt>
      <trkpt lat="48.04682" lon="6.97011">
        <ele>984.1</ele>
        <time>2022-05-26T14:26:24Z</time>
      </trkpt>
      <trkpt lat="48.04686" lon="6.96997">
        <ele>984.9</ele>
        <time>2022-05-26T14:26:30Z</time>
      </trkpt>
      <trkpt lat="48.04691" lon="6.96985">
        <ele>986.4</ele>
        <time>2022-05-26T14:26:37Z</time>
      </trkpt>
      <trkpt lat="48.04694" lon="6.96971">
        <ele>987.2</ele>
        <time>2022-05-26T14:26:44Z</time>
      </trkpt>
      <trkpt lat="48.04694" lon="6.96957">
        <ele>988.1</ele>
        <time>2022-05-26T14:26:50Z</time>
      </trkpt>
      <trkpt lat="48.04692" lon="6.96942">
        <ele>988.7</ele>
        <time>2022-05-26T14:26:57Z</time>
      </trkpt>
      <trkpt lat="48.04688" lon="6.96929">
        <ele>989.8</ele>
        <time>2022-05-26T14:27:04Z</time>
      </trkpt>
      <trkpt lat="48.04685" lon="6.96914">
        <ele>990.2</ele>
        <time>2022-05-26T14:27:12Z</time>
      </trkpt>
      <trkpt lat="48.04684" lon="6.969">
        <ele>991.5</ele>
        <time>2022-05-26T14:27:19Z</time>
      </trkpt>
      <trkpt lat="48.04684" lon="6.96887">
        <ele>992.3</ele>
        <time>2022-05-26T14:27:27Z</time>
      </trkpt>
      <trkpt lat="48.04683" lon="6.96871">
        <ele>992.5</ele>
        <time>2022-05-26T14:27:34Z</time>
      </trkpt>
      <trkpt lat="48.04681" lon="6.96858">
        <ele>992.1</ele>
        <time>2022-05-26T14:27:42Z</time>
      </trkpt>
      <trkpt lat="48.04681" lon="6.96842">
        <ele>992.8</ele>
        <time>2022-05-26T14:27:50Z</time>
      </trkpt>
      <trkpt lat="48.04685" lon="6.96828">
        <ele>994.4</ele>
        <time>2022-05-26T14:27:58Z</time>
      </trkpt>
      <trkpt lat="48.04688" lon="6.96815">
        <ele>995.6</ele>
        <time>2022-05-26T14:28:05Z</time>
      </trkpt>
      <trkpt lat="48.0469" lon="6.96801">
        <ele>996.6</ele>
        <time>2022-05-26T14:28:12Z</time>
      </trkpt>
      <trkpt lat="48.04694" lon="6.96788">
        <ele>997.5</ele>
        <time>2022-05-26T14:28:19Z</time>
      </trkpt>
      <trkpt lat="48.04694" lon="6.96774">
        <ele>997.5</ele>
        <time>2022-05-26T14:28:26Z</time>
      </trkpt>
      <trkpt lat="48.047" lon="6.9676">
        <ele>997.3</ele>
        <time>2022-05-26T14:28:32Z</time>
      </trkpt>
      <trkpt lat="48.04705" lon="6.96747">
        <ele>997</ele>
        <time>2022-05-26T14:28:37Z</time>
      </trkpt>
      <trkpt lat="48.04711" lon="6.96737">
        <ele>997.1</ele>
        <time>2022-05-26T14:28:44Z</time>
      </trkpt>
      <trkpt lat="48.04713" lon="6.96742">
        <ele>997.2</ele>
        <time>2022-05-26T14:28:49Z</time>
      </trkpt>
      <trkpt lat="48.04712" lon="6.96742">
        <ele>997</ele>
        <time>2022-05-26T14:29:16Z</time>
      </trkpt>
      <trkpt lat="48.04713" lon="6.96741">
        <ele>996.6</ele>
        <time>2022-05-26T14:29:24Z</time>
      </trkpt>
      <trkpt lat="48.04714" lon="6.96727">
        <ele>996.9</ele>
        <time>2022-05-26T14:29:32Z</time>
      </trkpt>
      <trkpt lat="48.04716" lon="6.96712">
        <ele>996.8</ele>
        <time>2022-05-26T14:29:35Z</time>
      </trkpt>
      <trkpt lat="48.04714" lon="6.96692">
        <ele>996.5</ele>
        <time>2022-05-26T14:29:38Z</time>
      </trkpt>
      <trkpt lat="48.04711" lon="6.96677">
        <ele>996</ele>
        <time>2022-05-26T14:29:40Z</time>
      </trkpt>
      <trkpt lat="48.04705" lon="6.96661">
        <ele>993.1</ele>
        <time>2022-05-26T14:29:42Z</time>
      </trkpt>
      <trkpt lat="48.047" lon="6.96644">
        <ele>993.6</ele>
        <time>2022-05-26T14:29:44Z</time>
      </trkpt>
      <trkpt lat="48.04696" lon="6.96627">
        <ele>993.8</ele>
        <time>2022-05-26T14:29:46Z</time>
      </trkpt>
      <trkpt lat="48.04699" lon="6.96612">
        <ele>992.7</ele>
        <time>2022-05-26T14:29:48Z</time>
      </trkpt>
      <trkpt lat="48.04706" lon="6.966">
        <ele>992</ele>
        <time>2022-05-26T14:29:50Z</time>
      </trkpt>
      <trkpt lat="48.04713" lon="6.9659">
        <ele>992.3</ele>
        <time>2022-05-26T14:29:52Z</time>
      </trkpt>
      <trkpt lat="48.0472" lon="6.96579">
        <ele>993.8</ele>
        <time>2022-05-26T14:29:54Z</time>
      </trkpt>
      <trkpt lat="48.04728" lon="6.96563">
        <ele>991.9</ele>
        <time>2022-05-26T14:29:57Z</time>
      </trkpt>
      <trkpt lat="48.04734" lon="6.96547">
        <ele>992.2</ele>
        <time>2022-05-26T14:30:00Z</time>
      </trkpt>
      <trkpt lat="48.04743" lon="6.96532">
        <ele>991.1</ele>
        <time>2022-05-26T14:30:03Z</time>
      </trkpt>
      <trkpt lat="48.04749" lon="6.96517">
        <ele>989.9</ele>
        <time>2022-05-26T14:30:05Z</time>
      </trkpt>
      <trkpt lat="48.04757" lon="6.965">
        <ele>988.6</ele>
        <time>2022-05-26T14:30:07Z</time>
      </trkpt>
      <trkpt lat="48.04764" lon="6.96484">
        <ele>987.1</ele>
        <time>2022-05-26T14:30:09Z</time>
      </trkpt>
      <trkpt lat="48.04772" lon="6.96468">
        <ele>984.4</ele>
        <time>2022-05-26T14:30:11Z</time>
      </trkpt>
      <trkpt lat="48.04782" lon="6.96451">
        <ele>981.8</ele>
        <time>2022-05-26T14:30:13Z</time>
      </trkpt>
      <trkpt lat="48.04791" lon="6.96432">
        <ele>984.6</ele>
        <time>2022-05-26T14:30:15Z</time>
      </trkpt>
      <trkpt lat="48.048" lon="6.96412">
        <ele>982.7</ele>
        <time>2022-05-26T14:30:17Z</time>
      </trkpt>
      <trkpt lat="48.04806" lon="6.96392">
        <ele>982.4</ele>
        <time>2022-05-26T14:30:19Z</time>
      </trkpt>
      <trkpt lat="48.04806" lon="6.96368">
        <ele>978.8</ele>
        <time>2022-05-26T14:30:21Z</time>
      </trkpt>
      <trkpt lat="48.04802" lon="6.96345">
        <ele>979.7</ele>
        <time>2022-05-26T14:30:23Z</time>
      </trkpt>
      <trkpt lat="48.04794" lon="6.96327">
        <ele>980.8</ele>
        <time>2022-05-26T14:30:25Z</time>
      </trkpt>
      <trkpt lat="48.04783" lon="6.96317">
        <ele>978.8</ele>
        <time>2022-05-26T14:30:27Z</time>
      </trkpt>
      <trkpt lat="48.04771" lon="6.9631">
        <ele>978</ele>
        <time>2022-05-26T14:30:29Z</time>
      </trkpt>
      <trkpt lat="48.04763" lon="6.96302">
        <ele>979</ele>
        <time>2022-05-26T14:30:31Z</time>
      </trkpt>
      <trkpt lat="48.04756" lon="6.9629">
        <ele>976.9</ele>
        <time>2022-05-26T14:30:33Z</time>
      </trkpt>
      <trkpt lat="48.04746" lon="6.96276">
        <ele>976</ele>
        <time>2022-05-26T14:30:35Z</time>
      </trkpt>
      <trkpt lat="48.04738" lon="6.96262">
        <ele>975.2</ele>
        <time>2022-05-26T14:30:37Z</time>
      </trkpt>
      <trkpt lat="48.0473" lon="6.96249">
        <ele>975.6</ele>
        <time>2022-05-26T14:30:39Z</time>
      </trkpt>
      <trkpt lat="48.04721" lon="6.96235">
        <ele>976.5</ele>
        <time>2022-05-26T14:30:41Z</time>
      </trkpt>
      <trkpt lat="48.0471" lon="6.96219">
        <ele>973.8</ele>
        <time>2022-05-26T14:30:43Z</time>
      </trkpt>
      <trkpt lat="48.047" lon="6.96204">
        <ele>974.2</ele>
        <time>2022-05-26T14:30:45Z</time>
      </trkpt>
      <trkpt lat="48.04692" lon="6.96192">
        <ele>974.4</ele>
        <time>2022-05-26T14:30:47Z</time>
      </trkpt>
      <trkpt lat="48.04682" lon="6.96181">
        <ele>972.7</ele>
        <time>2022-05-26T14:30:49Z</time>
      </trkpt>
      <trkpt lat="48.0467" lon="6.96173">
        <ele>971.9</ele>
        <time>2022-05-26T14:30:51Z</time>
      </trkpt>
      <trkpt lat="48.04656" lon="6.96167">
        <ele>970.5</ele>
        <time>2022-05-26T14:30:53Z</time>
      </trkpt>
      <trkpt lat="48.04642" lon="6.96161">
        <ele>968.1</ele>
        <time>2022-05-26T14:30:55Z</time>
      </trkpt>
      <trkpt lat="48.04627" lon="6.96154">
        <ele>968.9</ele>
        <time>2022-05-26T14:30:57Z</time>
      </trkpt>
      <trkpt lat="48.04612" lon="6.96148">
        <ele>969.1</ele>
        <time>2022-05-26T14:30:59Z</time>
      </trkpt>
      <trkpt lat="48.04597" lon="6.96143">
        <ele>966.7</ele>
        <time>2022-05-26T14:31:01Z</time>
      </trkpt>
      <trkpt lat="48.04582" lon="6.96137">
        <ele>965.9</ele>
        <time>2022-05-26T14:31:03Z</time>
      </trkpt>
      <trkpt lat="48.04568" lon="6.96124">
        <ele>965.6</ele>
        <time>2022-05-26T14:31:05Z</time>
      </trkpt>
      <trkpt lat="48.04557" lon="6.96105">
        <ele>967.2</ele>
        <time>2022-05-26T14:31:07Z</time>
      </trkpt>
      <trkpt lat="48.04546" lon="6.96085">
        <ele>965.6</ele>
        <time>2022-05-26T14:31:09Z</time>
      </trkpt>
      <trkpt lat="48.04537" lon="6.96065">
        <ele>964.5</ele>
        <time>2022-05-26T14:31:11Z</time>
      </trkpt>
      <trkpt lat="48.04529" lon="6.96046">
        <ele>964.8</ele>
        <time>2022-05-26T14:31:13Z</time>
      </trkpt>
      <trkpt lat="48.04522" lon="6.96027">
        <ele>965.5</ele>
        <time>2022-05-26T14:31:15Z</time>
      </trkpt>
      <trkpt lat="48.04515" lon="6.96011">
        <ele>962.5</ele>
        <time>2022-05-26T14:31:17Z</time>
      </trkpt>
      <trkpt lat="48.04506" lon="6.95997">
        <ele>964.6</ele>
        <time>2022-05-26T14:31:19Z</time>
      </trkpt>
      <trkpt lat="48.04497" lon="6.95984">
        <ele>963.6</ele>
        <time>2022-05-26T14:31:21Z</time>
      </trkpt>
      <trkpt lat="48.04491" lon="6.95971">
        <ele>963.5</ele>
        <time>2022-05-26T14:31:23Z</time>
      </trkpt>
      <trkpt lat="48.04486" lon="6.95956">
        <ele>965</ele>
        <time>2022-05-26T14:31:25Z</time>
      </trkpt>
      <trkpt lat="48.04482" lon="6.95941">
        <ele>964.6</ele>
        <time>2022-05-26T14:31:27Z</time>
      </trkpt>
      <trkpt lat="48.0448" lon="6.95925">
        <ele>963.3</ele>
        <time>2022-05-26T14:31:29Z</time>
      </trkpt>
      <trkpt lat="48.04479" lon="6.95909">
        <ele>961.7</ele>
        <time>2022-05-26T14:31:31Z</time>
      </trkpt>
      <trkpt lat="48.04479" lon="6.95894">
        <ele>964.2</ele>
        <time>2022-05-26T14:31:33Z</time>
      </trkpt>
      <trkpt lat="48.04478" lon="6.95879">
        <ele>961.7</ele>
        <time>2022-05-26T14:31:35Z</time>
      </trkpt>
      <trkpt lat="48.04472" lon="6.95866">
        <ele>964.7</ele>
        <time>2022-05-26T14:31:37Z</time>
      </trkpt>
      <trkpt lat="48.04466" lon="6.95854">
        <ele>964.1</ele>
        <time>2022-05-26T14:31:39Z</time>
      </trkpt>
      <trkpt lat="48.04457" lon="6.95846">
        <ele>962.9</ele>
        <time>2022-05-26T14:31:41Z</time>
      </trkpt>
      <trkpt lat="48.04448" lon="6.95841">
        <ele>961.1</ele>
        <time>2022-05-26T14:31:43Z</time>
      </trkpt>
      <trkpt lat="48.04439" lon="6.95835">
        <ele>960.8</ele>
        <time>2022-05-26T14:31:45Z</time>
      </trkpt>
      <trkpt lat="48.0443" lon="6.95827">
        <ele>960.4</ele>
        <time>2022-05-26T14:31:47Z</time>
      </trkpt>
      <trkpt lat="48.04421" lon="6.95818">
        <ele>959.2</ele>
        <time>2022-05-26T14:31:49Z</time>
      </trkpt>
      <trkpt lat="48.04416" lon="6.95802">
        <ele>960.2</ele>
        <time>2022-05-26T14:31:51Z</time>
      </trkpt>
      <trkpt lat="48.04419" lon="6.95787">
        <ele>959.1</ele>
        <time>2022-05-26T14:31:53Z</time>
      </trkpt>
      <trkpt lat="48.04428" lon="6.95775">
        <ele>958.2</ele>
        <time>2022-05-26T14:31:55Z</time>
      </trkpt>
      <trkpt lat="48.04439" lon="6.95768">
        <ele>957.9</ele>
        <time>2022-05-26T14:31:57Z</time>
      </trkpt>
      <trkpt lat="48.04448" lon="6.95762">
        <ele>958.6</ele>
        <time>2022-05-26T14:31:59Z</time>
      </trkpt>
      <trkpt lat="48.04459" lon="6.95756">
        <ele>956.8</ele>
        <time>2022-05-26T14:32:01Z</time>
      </trkpt>
      <trkpt lat="48.0447" lon="6.95751">
        <ele>957.3</ele>
        <time>2022-05-26T14:32:03Z</time>
      </trkpt>
      <trkpt lat="48.04482" lon="6.95748">
        <ele>957</ele>
        <time>2022-05-26T14:32:05Z</time>
      </trkpt>
      <trkpt lat="48.04491" lon="6.95743">
        <ele>958.2</ele>
        <time>2022-05-26T14:32:07Z</time>
      </trkpt>
      <trkpt lat="48.045" lon="6.95739">
        <ele>958.4</ele>
        <time>2022-05-26T14:32:09Z</time>
      </trkpt>
      <trkpt lat="48.04513" lon="6.95737">
        <ele>959.1</ele>
        <time>2022-05-26T14:32:12Z</time>
      </trkpt>
      <trkpt lat="48.04523" lon="6.95733">
        <ele>958.4</ele>
        <time>2022-05-26T14:32:15Z</time>
      </trkpt>
      <trkpt lat="48.04531" lon="6.95726">
        <ele>957</ele>
        <time>2022-05-26T14:32:17Z</time>
      </trkpt>
      <trkpt lat="48.04538" lon="6.95717">
        <ele>958.9</ele>
        <time>2022-05-26T14:32:19Z</time>
      </trkpt>
      <trkpt lat="48.04546" lon="6.95709">
        <ele>960.6</ele>
        <time>2022-05-26T14:32:21Z</time>
      </trkpt>
      <trkpt lat="48.04554" lon="6.95703">
        <ele>960.2</ele>
        <time>2022-05-26T14:32:23Z</time>
      </trkpt>
      <trkpt lat="48.04564" lon="6.957">
        <ele>960.7</ele>
        <time>2022-05-26T14:32:25Z</time>
      </trkpt>
      <trkpt lat="48.04577" lon="6.95695">
        <ele>957.6</ele>
        <time>2022-05-26T14:32:28Z</time>
      </trkpt>
      <trkpt lat="48.04586" lon="6.95689">
        <ele>959.3</ele>
        <time>2022-05-26T14:32:30Z</time>
      </trkpt>
      <trkpt lat="48.04593" lon="6.95681">
        <ele>959.1</ele>
        <time>2022-05-26T14:32:32Z</time>
      </trkpt>
      <trkpt lat="48.04603" lon="6.9567">
        <ele>960.1</ele>
        <time>2022-05-26T14:32:35Z</time>
      </trkpt>
      <trkpt lat="48.04611" lon="6.95657">
        <ele>961.2</ele>
        <time>2022-05-26T14:32:38Z</time>
      </trkpt>
      <trkpt lat="48.04618" lon="6.95642">
        <ele>960</ele>
        <time>2022-05-26T14:32:41Z</time>
      </trkpt>
      <trkpt lat="48.04621" lon="6.95624">
        <ele>959.8</ele>
        <time>2022-05-26T14:32:44Z</time>
      </trkpt>
      <trkpt lat="48.04621" lon="6.95609">
        <ele>958.8</ele>
        <time>2022-05-26T14:32:46Z</time>
      </trkpt>
      <trkpt lat="48.04622" lon="6.95594">
        <ele>958.7</ele>
        <time>2022-05-26T14:32:48Z</time>
      </trkpt>
      <trkpt lat="48.04623" lon="6.95581">
        <ele>958.5</ele>
        <time>2022-05-26T14:32:50Z</time>
      </trkpt>
      <trkpt lat="48.04623" lon="6.95562">
        <ele>957.8</ele>
        <time>2022-05-26T14:32:53Z</time>
      </trkpt>
      <trkpt lat="48.04616" lon="6.95544">
        <ele>956.7</ele>
        <time>2022-05-26T14:32:56Z</time>
      </trkpt>
      <trkpt lat="48.04609" lon="6.95529">
        <ele>956.7</ele>
        <time>2022-05-26T14:32:58Z</time>
      </trkpt>
      <trkpt lat="48.046" lon="6.95517">
        <ele>955.6</ele>
        <time>2022-05-26T14:33:00Z</time>
      </trkpt>
      <trkpt lat="48.04592" lon="6.95507">
        <ele>954.6</ele>
        <time>2022-05-26T14:33:02Z</time>
      </trkpt>
      <trkpt lat="48.04584" lon="6.95495">
        <ele>954.9</ele>
        <time>2022-05-26T14:33:04Z</time>
      </trkpt>
      <trkpt lat="48.0458" lon="6.95479">
        <ele>950.7</ele>
        <time>2022-05-26T14:33:06Z</time>
      </trkpt>
      <trkpt lat="48.04584" lon="6.95463">
        <ele>953.3</ele>
        <time>2022-05-26T14:33:08Z</time>
      </trkpt>
      <trkpt lat="48.04589" lon="6.95449">
        <ele>954.2</ele>
        <time>2022-05-26T14:33:10Z</time>
      </trkpt>
      <trkpt lat="48.04594" lon="6.95434">
        <ele>955.2</ele>
        <time>2022-05-26T14:33:12Z</time>
      </trkpt>
      <trkpt lat="48.04601" lon="6.95421">
        <ele>955.2</ele>
        <time>2022-05-26T14:33:14Z</time>
      </trkpt>
      <trkpt lat="48.04605" lon="6.95405">
        <ele>953.7</ele>
        <time>2022-05-26T14:33:16Z</time>
      </trkpt>
      <trkpt lat="48.04611" lon="6.9539">
        <ele>952.6</ele>
        <time>2022-05-26T14:33:18Z</time>
      </trkpt>
      <trkpt lat="48.04614" lon="6.95373">
        <ele>951.6</ele>
        <time>2022-05-26T14:33:20Z</time>
      </trkpt>
      <trkpt lat="48.04617" lon="6.95356">
        <ele>953.3</ele>
        <time>2022-05-26T14:33:22Z</time>
      </trkpt>
      <trkpt lat="48.04617" lon="6.95339">
        <ele>952.7</ele>
        <time>2022-05-26T14:33:24Z</time>
      </trkpt>
      <trkpt lat="48.04619" lon="6.95321">
        <ele>951.2</ele>
        <time>2022-05-26T14:33:26Z</time>
      </trkpt>
      <trkpt lat="48.04623" lon="6.95304">
        <ele>951.1</ele>
        <time>2022-05-26T14:33:28Z</time>
      </trkpt>
      <trkpt lat="48.04626" lon="6.95285">
        <ele>951.8</ele>
        <time>2022-05-26T14:33:30Z</time>
      </trkpt>
      <trkpt lat="48.0463" lon="6.95266">
        <ele>951.6</ele>
        <time>2022-05-26T14:33:32Z</time>
      </trkpt>
      <trkpt lat="48.04633" lon="6.95247">
        <ele>949.5</ele>
        <time>2022-05-26T14:33:34Z</time>
      </trkpt>
      <trkpt lat="48.04636" lon="6.95228">
        <ele>948.5</ele>
        <time>2022-05-26T14:33:36Z</time>
      </trkpt>
      <trkpt lat="48.04641" lon="6.95211">
        <ele>947.9</ele>
        <time>2022-05-26T14:33:38Z</time>
      </trkpt>
      <trkpt lat="48.04648" lon="6.95196">
        <ele>947.8</ele>
        <time>2022-05-26T14:33:40Z</time>
      </trkpt>
      <trkpt lat="48.04655" lon="6.95182">
        <ele>948.3</ele>
        <time>2022-05-26T14:33:42Z</time>
      </trkpt>
      <trkpt lat="48.04661" lon="6.95168">
        <ele>950.6</ele>
        <time>2022-05-26T14:33:44Z</time>
      </trkpt>
      <trkpt lat="48.04666" lon="6.95155">
        <ele>950.7</ele>
        <time>2022-05-26T14:33:46Z</time>
      </trkpt>
      <trkpt lat="48.04672" lon="6.95144">
        <ele>948.4</ele>
        <time>2022-05-26T14:33:48Z</time>
      </trkpt>
      <trkpt lat="48.04676" lon="6.9513">
        <ele>948.1</ele>
        <time>2022-05-26T14:33:50Z</time>
      </trkpt>
      <trkpt lat="48.04679" lon="6.95117">
        <ele>949.9</ele>
        <time>2022-05-26T14:33:52Z</time>
      </trkpt>
      <trkpt lat="48.04684" lon="6.95104">
        <ele>949.7</ele>
        <time>2022-05-26T14:33:54Z</time>
      </trkpt>
      <trkpt lat="48.04692" lon="6.95094">
        <ele>948</ele>
        <time>2022-05-26T14:33:56Z</time>
      </trkpt>
      <trkpt lat="48.047" lon="6.95088">
        <ele>950.3</ele>
        <time>2022-05-26T14:33:58Z</time>
      </trkpt>
      <trkpt lat="48.04711" lon="6.95082">
        <ele>950.7</ele>
        <time>2022-05-26T14:34:01Z</time>
      </trkpt>
      <trkpt lat="48.04722" lon="6.95073">
        <ele>949.4</ele>
        <time>2022-05-26T14:34:04Z</time>
      </trkpt>
      <trkpt lat="48.0473" lon="6.95057">
        <ele>950.1</ele>
        <time>2022-05-26T14:34:07Z</time>
      </trkpt>
      <trkpt lat="48.04735" lon="6.95045">
        <ele>949.5</ele>
        <time>2022-05-26T14:34:09Z</time>
      </trkpt>
      <trkpt lat="48.04739" lon="6.95033">
        <ele>950.6</ele>
        <time>2022-05-26T14:34:11Z</time>
      </trkpt>
      <trkpt lat="48.04745" lon="6.95022">
        <ele>950.5</ele>
        <time>2022-05-26T14:34:13Z</time>
      </trkpt>
      <trkpt lat="48.04754" lon="6.95014">
        <ele>949.2</ele>
        <time>2022-05-26T14:34:15Z</time>
      </trkpt>
      <trkpt lat="48.04763" lon="6.95009">
        <ele>950.1</ele>
        <time>2022-05-26T14:34:17Z</time>
      </trkpt>
      <trkpt lat="48.04773" lon="6.95004">
        <ele>949.3</ele>
        <time>2022-05-26T14:34:19Z</time>
      </trkpt>
      <trkpt lat="48.04781" lon="6.95001">
        <ele>949.2</ele>
        <time>2022-05-26T14:34:21Z</time>
      </trkpt>
      <trkpt lat="48.0479" lon="6.94997">
        <ele>950.1</ele>
        <time>2022-05-26T14:34:23Z</time>
      </trkpt>
      <trkpt lat="48.04799" lon="6.94994">
        <ele>950.5</ele>
        <time>2022-05-26T14:34:25Z</time>
      </trkpt>
      <trkpt lat="48.04812" lon="6.94987">
        <ele>950.5</ele>
        <time>2022-05-26T14:34:28Z</time>
      </trkpt>
      <trkpt lat="48.0482" lon="6.94982">
        <ele>949.1</ele>
        <time>2022-05-26T14:34:30Z</time>
      </trkpt>
      <trkpt lat="48.04829" lon="6.94976">
        <ele>949.9</ele>
        <time>2022-05-26T14:34:32Z</time>
      </trkpt>
      <trkpt lat="48.04836" lon="6.94968">
        <ele>949.9</ele>
        <time>2022-05-26T14:34:34Z</time>
      </trkpt>
      <trkpt lat="48.04844" lon="6.9496">
        <ele>950.6</ele>
        <time>2022-05-26T14:34:36Z</time>
      </trkpt>
      <trkpt lat="48.04854" lon="6.94949">
        <ele>950.3</ele>
        <time>2022-05-26T14:34:39Z</time>
      </trkpt>
      <trkpt lat="48.04862" lon="6.94944">
        <ele>949.6</ele>
        <time>2022-05-26T14:34:45Z</time>
      </trkpt>
      <trkpt lat="48.04863" lon="6.94943">
        <ele>949.9</ele>
        <time>2022-05-26T14:35:06Z</time>
      </trkpt>
      <trkpt lat="48.04863" lon="6.94942">
        <ele>949.7</ele>
        <time>2022-05-26T14:35:09Z</time>
      </trkpt>
      <trkpt lat="48.04863" lon="6.94941">
        <ele>949.3</ele>
        <time>2022-05-26T14:35:30Z</time>
      </trkpt>
      <trkpt lat="48.04862" lon="6.9494">
        <ele>949.2</ele>
        <time>2022-05-26T14:35:32Z</time>
      </trkpt>
      <trkpt lat="48.04862" lon="6.94939">
        <ele>949.3</ele>
        <time>2022-05-26T14:35:44Z</time>
      </trkpt>
      <trkpt lat="48.04861" lon="6.94938">
        <ele>950.2</ele>
        <time>2022-05-26T14:36:02Z</time>
      </trkpt>
      <trkpt lat="48.04861" lon="6.94936">
        <ele>949.6</ele>
        <time>2022-05-26T14:36:19Z</time>
      </trkpt>
      <trkpt lat="48.0487" lon="6.94924">
        <ele>948.9</ele>
        <time>2022-05-26T14:36:25Z</time>
      </trkpt>
      <trkpt lat="48.04878" lon="6.94914">
        <ele>949.3</ele>
        <time>2022-05-26T14:36:28Z</time>
      </trkpt>
      <trkpt lat="48.04888" lon="6.94904">
        <ele>949.6</ele>
        <time>2022-05-26T14:36:31Z</time>
      </trkpt>
      <trkpt lat="48.04899" lon="6.94892">
        <ele>945.8</ele>
        <time>2022-05-26T14:36:34Z</time>
      </trkpt>
      <trkpt lat="48.04909" lon="6.94882">
        <ele>947.5</ele>
        <time>2022-05-26T14:36:36Z</time>
      </trkpt>
      <trkpt lat="48.04919" lon="6.94874">
        <ele>948.2</ele>
        <time>2022-05-26T14:36:38Z</time>
      </trkpt>
      <trkpt lat="48.0493" lon="6.94866">
        <ele>948.2</ele>
        <time>2022-05-26T14:36:40Z</time>
      </trkpt>
      <trkpt lat="48.0494" lon="6.9486">
        <ele>947.7</ele>
        <time>2022-05-26T14:36:42Z</time>
      </trkpt>
      <trkpt lat="48.04952" lon="6.94855">
        <ele>946.6</ele>
        <time>2022-05-26T14:36:44Z</time>
      </trkpt>
      <trkpt lat="48.04962" lon="6.94849">
        <ele>946.6</ele>
        <time>2022-05-26T14:36:46Z</time>
      </trkpt>
      <trkpt lat="48.04972" lon="6.94844">
        <ele>946.7</ele>
        <time>2022-05-26T14:36:48Z</time>
      </trkpt>
      <trkpt lat="48.04982" lon="6.94836">
        <ele>944.4</ele>
        <time>2022-05-26T14:36:50Z</time>
      </trkpt>
      <trkpt lat="48.04994" lon="6.94824">
        <ele>943</ele>
        <time>2022-05-26T14:36:52Z</time>
      </trkpt>
      <trkpt lat="48.05006" lon="6.94809">
        <ele>942.4</ele>
        <time>2022-05-26T14:36:54Z</time>
      </trkpt>
      <trkpt lat="48.05017" lon="6.94795">
        <ele>942.1</ele>
        <time>2022-05-26T14:36:56Z</time>
      </trkpt>
      <trkpt lat="48.05026" lon="6.94778">
        <ele>942</ele>
        <time>2022-05-26T14:36:58Z</time>
      </trkpt>
      <trkpt lat="48.05034" lon="6.94763">
        <ele>940.5</ele>
        <time>2022-05-26T14:37:00Z</time>
      </trkpt>
      <trkpt lat="48.05041" lon="6.94748">
        <ele>943.5</ele>
        <time>2022-05-26T14:37:02Z</time>
      </trkpt>
      <trkpt lat="48.05049" lon="6.94734">
        <ele>943.4</ele>
        <time>2022-05-26T14:37:04Z</time>
      </trkpt>
      <trkpt lat="48.05057" lon="6.94719">
        <ele>941.4</ele>
        <time>2022-05-26T14:37:06Z</time>
      </trkpt>
      <trkpt lat="48.05065" lon="6.94701">
        <ele>941.1</ele>
        <time>2022-05-26T14:37:08Z</time>
      </trkpt>
      <trkpt lat="48.05074" lon="6.94685">
        <ele>940.1</ele>
        <time>2022-05-26T14:37:10Z</time>
      </trkpt>
      <trkpt lat="48.05082" lon="6.94672">
        <ele>938.4</ele>
        <time>2022-05-26T14:37:12Z</time>
      </trkpt>
      <trkpt lat="48.05089" lon="6.94659">
        <ele>938.2</ele>
        <time>2022-05-26T14:37:14Z</time>
      </trkpt>
      <trkpt lat="48.05094" lon="6.94648">
        <ele>939.3</ele>
        <time>2022-05-26T14:37:16Z</time>
      </trkpt>
      <trkpt lat="48.05096" lon="6.9464">
        <ele>938.7</ele>
        <time>2022-05-26T14:37:20Z</time>
      </trkpt>
      <trkpt lat="48.05095" lon="6.94639">
        <ele>938.6</ele>
        <time>2022-05-26T14:37:37Z</time>
      </trkpt>
      <trkpt lat="48.05095" lon="6.94638">
        <ele>939.1</ele>
        <time>2022-05-26T14:38:28Z</time>
      </trkpt>
      <trkpt lat="48.05094" lon="6.94629">
        <ele>938.9</ele>
        <time>2022-05-26T14:38:36Z</time>
      </trkpt>
      <trkpt lat="48.05094" lon="6.9463">
        <ele>938.7</ele>
        <time>2022-05-26T14:39:04Z</time>
      </trkpt>
      <trkpt lat="48.05094" lon="6.94631">
        <ele>938.5</ele>
        <time>2022-05-26T14:39:06Z</time>
      </trkpt>
      <trkpt lat="48.05095" lon="6.94631">
        <ele>938.7</ele>
        <time>2022-05-26T14:39:11Z</time>
      </trkpt>
      <trkpt lat="48.05101" lon="6.9463">
        <ele>938.5</ele>
        <time>2022-05-26T14:39:21Z</time>
      </trkpt>
      <trkpt lat="48.05102" lon="6.9463">
        <ele>938.2</ele>
        <time>2022-05-26T14:39:32Z</time>
      </trkpt>
      <trkpt lat="48.05104" lon="6.9463">
        <ele>938.1</ele>
        <time>2022-05-26T14:39:40Z</time>
      </trkpt>
      <trkpt lat="48.05105" lon="6.9463">
        <ele>938.2</ele>
        <time>2022-05-26T14:39:54Z</time>
      </trkpt>
      <trkpt lat="48.05107" lon="6.94645">
        <ele>938</ele>
        <time>2022-05-26T14:40:04Z</time>
      </trkpt>
      <trkpt lat="48.05109" lon="6.94665">
        <ele>935</ele>
        <time>2022-05-26T14:40:07Z</time>
      </trkpt>
      <trkpt lat="48.0511" lon="6.94682">
        <ele>934.4</ele>
        <time>2022-05-26T14:40:09Z</time>
      </trkpt>
      <trkpt lat="48.05118" lon="6.94697">
        <ele>932.7</ele>
        <time>2022-05-26T14:40:12Z</time>
      </trkpt>
      <trkpt lat="48.05128" lon="6.94697">
        <ele>930.8</ele>
        <time>2022-05-26T14:40:14Z</time>
      </trkpt>
      <trkpt lat="48.05138" lon="6.94691">
        <ele>930.1</ele>
        <time>2022-05-26T14:40:16Z</time>
      </trkpt>
      <trkpt lat="48.05147" lon="6.94684">
        <ele>929.9</ele>
        <time>2022-05-26T14:40:18Z</time>
      </trkpt>
      <trkpt lat="48.05157" lon="6.94676">
        <ele>928.9</ele>
        <time>2022-05-26T14:40:20Z</time>
      </trkpt>
      <trkpt lat="48.05167" lon="6.94667">
        <ele>929</ele>
        <time>2022-05-26T14:40:22Z</time>
      </trkpt>
      <trkpt lat="48.05177" lon="6.94659">
        <ele>928</ele>
        <time>2022-05-26T14:40:24Z</time>
      </trkpt>
      <trkpt lat="48.05187" lon="6.94648">
        <ele>924</ele>
        <time>2022-05-26T14:40:26Z</time>
      </trkpt>
      <trkpt lat="48.05197" lon="6.94634">
        <ele>921.6</ele>
        <time>2022-05-26T14:40:28Z</time>
      </trkpt>
      <trkpt lat="48.05205" lon="6.94618">
        <ele>922.7</ele>
        <time>2022-05-26T14:40:30Z</time>
      </trkpt>
      <trkpt lat="48.05214" lon="6.94605">
        <ele>921</ele>
        <time>2022-05-26T14:40:32Z</time>
      </trkpt>
      <trkpt lat="48.05224" lon="6.94596">
        <ele>920</ele>
        <time>2022-05-26T14:40:34Z</time>
      </trkpt>
      <trkpt lat="48.0523" lon="6.94585">
        <ele>920.4</ele>
        <time>2022-05-26T14:40:36Z</time>
      </trkpt>
      <trkpt lat="48.05233" lon="6.94572">
        <ele>919.8</ele>
        <time>2022-05-26T14:40:38Z</time>
      </trkpt>
      <trkpt lat="48.05235" lon="6.94556">
        <ele>918.3</ele>
        <time>2022-05-26T14:40:40Z</time>
      </trkpt>
      <trkpt lat="48.05232" lon="6.9454">
        <ele>918.3</ele>
        <time>2022-05-26T14:40:42Z</time>
      </trkpt>
      <trkpt lat="48.05228" lon="6.94526">
        <ele>917.6</ele>
        <time>2022-05-26T14:40:44Z</time>
      </trkpt>
      <trkpt lat="48.05227" lon="6.94512">
        <ele>919.2</ele>
        <time>2022-05-26T14:40:46Z</time>
      </trkpt>
      <trkpt lat="48.05232" lon="6.94497">
        <ele>919.9</ele>
        <time>2022-05-26T14:40:49Z</time>
      </trkpt>
      <trkpt lat="48.05242" lon="6.94502">
        <ele>918.8</ele>
        <time>2022-05-26T14:40:54Z</time>
      </trkpt>
      <trkpt lat="48.0525" lon="6.94516">
        <ele>918.3</ele>
        <time>2022-05-26T14:40:57Z</time>
      </trkpt>
      <trkpt lat="48.05254" lon="6.94531">
        <ele>918.7</ele>
        <time>2022-05-26T14:41:00Z</time>
      </trkpt>
      <trkpt lat="48.05259" lon="6.94544">
        <ele>918.4</ele>
        <time>2022-05-26T14:41:04Z</time>
      </trkpt>
      <trkpt lat="48.05261" lon="6.94555">
        <ele>918.3</ele>
        <time>2022-05-26T14:41:13Z</time>
      </trkpt>
      <trkpt lat="48.05261" lon="6.94556">
        <ele>918.3</ele>
        <time>2022-05-26T14:41:16Z</time>
      </trkpt>
      <trkpt lat="48.05263" lon="6.94569">
        <ele>919</ele>
        <time>2022-05-26T14:41:21Z</time>
      </trkpt>
      <trkpt lat="48.0527" lon="6.9458">
        <ele>919.4</ele>
        <time>2022-05-26T14:41:24Z</time>
      </trkpt>
      <trkpt lat="48.05278" lon="6.94591">
        <ele>920</ele>
        <time>2022-05-26T14:41:28Z</time>
      </trkpt>
      <trkpt lat="48.05286" lon="6.94601">
        <ele>920.5</ele>
        <time>2022-05-26T14:41:34Z</time>
      </trkpt>
      <trkpt lat="48.05286" lon="6.94618">
        <ele>920.1</ele>
        <time>2022-05-26T14:41:43Z</time>
      </trkpt>
      <trkpt lat="48.05291" lon="6.94631">
        <ele>920.5</ele>
        <time>2022-05-26T14:41:46Z</time>
      </trkpt>
      <trkpt lat="48.05296" lon="6.94645">
        <ele>920</ele>
        <time>2022-05-26T14:41:49Z</time>
      </trkpt>
      <trkpt lat="48.053" lon="6.94659">
        <ele>919.9</ele>
        <time>2022-05-26T14:41:52Z</time>
      </trkpt>
      <trkpt lat="48.05302" lon="6.94674">
        <ele>919.6</ele>
        <time>2022-05-26T14:41:59Z</time>
      </trkpt>
      <trkpt lat="48.05304" lon="6.94687">
        <ele>919.7</ele>
        <time>2022-05-26T14:42:04Z</time>
      </trkpt>
      <trkpt lat="48.05304" lon="6.94702">
        <ele>919.8</ele>
        <time>2022-05-26T14:42:07Z</time>
      </trkpt>
      <trkpt lat="48.05304" lon="6.94718">
        <ele>920.4</ele>
        <time>2022-05-26T14:42:10Z</time>
      </trkpt>
      <trkpt lat="48.05302" lon="6.94733">
        <ele>920.6</ele>
        <time>2022-05-26T14:42:13Z</time>
      </trkpt>
      <trkpt lat="48.05301" lon="6.94748">
        <ele>920.7</ele>
        <time>2022-05-26T14:42:16Z</time>
      </trkpt>
      <trkpt lat="48.05301" lon="6.94764">
        <ele>920.8</ele>
        <time>2022-05-26T14:42:19Z</time>
      </trkpt>
      <trkpt lat="48.053" lon="6.9478">
        <ele>920.3</ele>
        <time>2022-05-26T14:42:22Z</time>
      </trkpt>
      <trkpt lat="48.05304" lon="6.94793">
        <ele>922.1</ele>
        <time>2022-05-26T14:42:25Z</time>
      </trkpt>
      <trkpt lat="48.05315" lon="6.94798">
        <ele>922</ele>
        <time>2022-05-26T14:42:28Z</time>
      </trkpt>
      <trkpt lat="48.05324" lon="6.94791">
        <ele>921.6</ele>
        <time>2022-05-26T14:42:32Z</time>
      </trkpt>
      <trkpt lat="48.05324" lon="6.94787">
        <ele>921.4</ele>
        <time>2022-05-26T14:42:43Z</time>
      </trkpt>
      <trkpt lat="48.05316" lon="6.94794">
        <ele>921.6</ele>
        <time>2022-05-26T14:42:50Z</time>
      </trkpt>
      <trkpt lat="48.05313" lon="6.94807">
        <ele>923.3</ele>
        <time>2022-05-26T14:42:55Z</time>
      </trkpt>
      <trkpt lat="48.05323" lon="6.94812">
        <ele>924.1</ele>
        <time>2022-05-26T14:43:00Z</time>
      </trkpt>
      <trkpt lat="48.05333" lon="6.94812">
        <ele>926.2</ele>
        <time>2022-05-26T14:43:05Z</time>
      </trkpt>
      <trkpt lat="48.05343" lon="6.9481">
        <ele>927.7</ele>
        <time>2022-05-26T14:43:11Z</time>
      </trkpt>
      <trkpt lat="48.05352" lon="6.94807">
        <ele>928.1</ele>
        <time>2022-05-26T14:43:16Z</time>
      </trkpt>
      <trkpt lat="48.05363" lon="6.94804">
        <ele>929.7</ele>
        <time>2022-05-26T14:43:22Z</time>
      </trkpt>
      <trkpt lat="48.05372" lon="6.94802">
        <ele>930.5</ele>
        <time>2022-05-26T14:43:27Z</time>
      </trkpt>
      <trkpt lat="48.05381" lon="6.948">
        <ele>930.7</ele>
        <time>2022-05-26T14:43:31Z</time>
      </trkpt>
      <trkpt lat="48.05391" lon="6.94799">
        <ele>932.1</ele>
        <time>2022-05-26T14:43:37Z</time>
      </trkpt>
      <trkpt lat="48.05401" lon="6.94798">
        <ele>932.9</ele>
        <time>2022-05-26T14:43:42Z</time>
      </trkpt>
      <trkpt lat="48.05412" lon="6.94796">
        <ele>933.5</ele>
        <time>2022-05-26T14:43:46Z</time>
      </trkpt>
      <trkpt lat="48.05421" lon="6.94793">
        <ele>934.4</ele>
        <time>2022-05-26T14:43:50Z</time>
      </trkpt>
      <trkpt lat="48.05432" lon="6.94789">
        <ele>935.8</ele>
        <time>2022-05-26T14:43:55Z</time>
      </trkpt>
      <trkpt lat="48.05442" lon="6.94784">
        <ele>935.9</ele>
        <time>2022-05-26T14:44:00Z</time>
      </trkpt>
      <trkpt lat="48.0545" lon="6.94777">
        <ele>936.7</ele>
        <time>2022-05-26T14:44:04Z</time>
      </trkpt>
      <trkpt lat="48.05459" lon="6.9477">
        <ele>937.8</ele>
        <time>2022-05-26T14:44:07Z</time>
      </trkpt>
      <trkpt lat="48.05466" lon="6.94761">
        <ele>938.5</ele>
        <time>2022-05-26T14:44:11Z</time>
      </trkpt>
      <trkpt lat="48.05475" lon="6.9475">
        <ele>938.1</ele>
        <time>2022-05-26T14:44:15Z</time>
      </trkpt>
      <trkpt lat="48.05485" lon="6.94741">
        <ele>938.1</ele>
        <time>2022-05-26T14:44:19Z</time>
      </trkpt>
      <trkpt lat="48.05493" lon="6.9473">
        <ele>939</ele>
        <time>2022-05-26T14:44:23Z</time>
      </trkpt>
      <trkpt lat="48.05502" lon="6.94718">
        <ele>939.4</ele>
        <time>2022-05-26T14:44:27Z</time>
      </trkpt>
      <trkpt lat="48.05509" lon="6.94709">
        <ele>940.2</ele>
        <time>2022-05-26T14:44:30Z</time>
      </trkpt>
      <trkpt lat="48.05517" lon="6.94698">
        <ele>941.2</ele>
        <time>2022-05-26T14:44:34Z</time>
      </trkpt>
      <trkpt lat="48.05525" lon="6.94688">
        <ele>939.6</ele>
        <time>2022-05-26T14:44:37Z</time>
      </trkpt>
      <trkpt lat="48.05531" lon="6.94677">
        <ele>940.9</ele>
        <time>2022-05-26T14:44:40Z</time>
      </trkpt>
      <trkpt lat="48.05541" lon="6.94666">
        <ele>942.5</ele>
        <time>2022-05-26T14:44:44Z</time>
      </trkpt>
      <trkpt lat="48.05549" lon="6.94658">
        <ele>942.7</ele>
        <time>2022-05-26T14:44:47Z</time>
      </trkpt>
      <trkpt lat="48.05559" lon="6.9465">
        <ele>942.9</ele>
        <time>2022-05-26T14:44:51Z</time>
      </trkpt>
      <trkpt lat="48.05567" lon="6.94641">
        <ele>943.8</ele>
        <time>2022-05-26T14:44:55Z</time>
      </trkpt>
      <trkpt lat="48.05578" lon="6.94632">
        <ele>944.1</ele>
        <time>2022-05-26T14:44:59Z</time>
      </trkpt>
      <trkpt lat="48.05588" lon="6.94621">
        <ele>944</ele>
        <time>2022-05-26T14:45:02Z</time>
      </trkpt>
      <trkpt lat="48.05596" lon="6.94613">
        <ele>943.7</ele>
        <time>2022-05-26T14:45:04Z</time>
      </trkpt>
      <trkpt lat="48.05603" lon="6.94603">
        <ele>943.9</ele>
        <time>2022-05-26T14:45:06Z</time>
      </trkpt>
      <trkpt lat="48.05611" lon="6.94589">
        <ele>944.7</ele>
        <time>2022-05-26T14:45:09Z</time>
      </trkpt>
      <trkpt lat="48.0562" lon="6.94577">
        <ele>944.8</ele>
        <time>2022-05-26T14:45:12Z</time>
      </trkpt>
      <trkpt lat="48.05627" lon="6.94561">
        <ele>944.1</ele>
        <time>2022-05-26T14:45:15Z</time>
      </trkpt>
      <trkpt lat="48.05635" lon="6.94545">
        <ele>943.5</ele>
        <time>2022-05-26T14:45:18Z</time>
      </trkpt>
      <trkpt lat="48.05641" lon="6.94532">
        <ele>943.5</ele>
        <time>2022-05-26T14:45:20Z</time>
      </trkpt>
      <trkpt lat="48.05647" lon="6.94519">
        <ele>940.6</ele>
        <time>2022-05-26T14:45:22Z</time>
      </trkpt>
      <trkpt lat="48.05653" lon="6.94505">
        <ele>942</ele>
        <time>2022-05-26T14:45:24Z</time>
      </trkpt>
      <trkpt lat="48.0566" lon="6.9449">
        <ele>941</ele>
        <time>2022-05-26T14:45:26Z</time>
      </trkpt>
      <trkpt lat="48.05666" lon="6.94473">
        <ele>941.2</ele>
        <time>2022-05-26T14:45:28Z</time>
      </trkpt>
      <trkpt lat="48.05668" lon="6.94457">
        <ele>939.9</ele>
        <time>2022-05-26T14:45:30Z</time>
      </trkpt>
      <trkpt lat="48.05666" lon="6.9444">
        <ele>940.5</ele>
        <time>2022-05-26T14:45:32Z</time>
      </trkpt>
      <trkpt lat="48.05665" lon="6.94425">
        <ele>941.2</ele>
        <time>2022-05-26T14:45:34Z</time>
      </trkpt>
      <trkpt lat="48.05668" lon="6.94406">
        <ele>941.1</ele>
        <time>2022-05-26T14:45:37Z</time>
      </trkpt>
      <trkpt lat="48.0567" lon="6.94393">
        <ele>941.4</ele>
        <time>2022-05-26T14:45:39Z</time>
      </trkpt>
      <trkpt lat="48.05673" lon="6.94378">
        <ele>941.8</ele>
        <time>2022-05-26T14:45:41Z</time>
      </trkpt>
      <trkpt lat="48.05675" lon="6.94364">
        <ele>940.8</ele>
        <time>2022-05-26T14:45:43Z</time>
      </trkpt>
      <trkpt lat="48.05677" lon="6.94345">
        <ele>941.2</ele>
        <time>2022-05-26T14:45:46Z</time>
      </trkpt>
      <trkpt lat="48.05682" lon="6.94329">
        <ele>942</ele>
        <time>2022-05-26T14:45:49Z</time>
      </trkpt>
      <trkpt lat="48.05685" lon="6.94315">
        <ele>941.7</ele>
        <time>2022-05-26T14:45:52Z</time>
      </trkpt>
      <trkpt lat="48.05688" lon="6.94302">
        <ele>941.8</ele>
        <time>2022-05-26T14:45:55Z</time>
      </trkpt>
      <trkpt lat="48.05686" lon="6.94287">
        <ele>942.1</ele>
        <time>2022-05-26T14:45:58Z</time>
      </trkpt>
      <trkpt lat="48.05678" lon="6.94274">
        <ele>942.8</ele>
        <time>2022-05-26T14:46:02Z</time>
      </trkpt>
      <trkpt lat="48.0567" lon="6.94267">
        <ele>942.9</ele>
        <time>2022-05-26T14:46:05Z</time>
      </trkpt>
      <trkpt lat="48.05662" lon="6.9426">
        <ele>944.3</ele>
        <time>2022-05-26T14:46:08Z</time>
      </trkpt>
      <trkpt lat="48.05651" lon="6.94254">
        <ele>943.2</ele>
        <time>2022-05-26T14:46:12Z</time>
      </trkpt>
      <trkpt lat="48.0564" lon="6.94247">
        <ele>945.5</ele>
        <time>2022-05-26T14:46:16Z</time>
      </trkpt>
      <trkpt lat="48.0563" lon="6.94238">
        <ele>945.2</ele>
        <time>2022-05-26T14:46:20Z</time>
      </trkpt>
      <trkpt lat="48.05621" lon="6.94233">
        <ele>946.9</ele>
        <time>2022-05-26T14:46:24Z</time>
      </trkpt>
      <trkpt lat="48.05611" lon="6.9423">
        <ele>947.6</ele>
        <time>2022-05-26T14:46:29Z</time>
      </trkpt>
      <trkpt lat="48.05602" lon="6.94223">
        <ele>948.1</ele>
        <time>2022-05-26T14:46:33Z</time>
      </trkpt>
      <trkpt lat="48.05592" lon="6.94216">
        <ele>947.3</ele>
        <time>2022-05-26T14:46:37Z</time>
      </trkpt>
      <trkpt lat="48.05584" lon="6.94209">
        <ele>946.8</ele>
        <time>2022-05-26T14:46:40Z</time>
      </trkpt>
      <trkpt lat="48.05575" lon="6.94201">
        <ele>946.5</ele>
        <time>2022-05-26T14:46:43Z</time>
      </trkpt>
      <trkpt lat="48.05566" lon="6.94195">
        <ele>947</ele>
        <time>2022-05-26T14:46:46Z</time>
      </trkpt>
      <trkpt lat="48.05556" lon="6.94188">
        <ele>946.4</ele>
        <time>2022-05-26T14:46:49Z</time>
      </trkpt>
      <trkpt lat="48.05545" lon="6.94181">
        <ele>945.2</ele>
        <time>2022-05-26T14:46:52Z</time>
      </trkpt>
      <trkpt lat="48.05536" lon="6.94175">
        <ele>945.3</ele>
        <time>2022-05-26T14:46:54Z</time>
      </trkpt>
      <trkpt lat="48.05527" lon="6.94168">
        <ele>946.1</ele>
        <time>2022-05-26T14:46:56Z</time>
      </trkpt>
      <trkpt lat="48.05519" lon="6.94162">
        <ele>946.8</ele>
        <time>2022-05-26T14:46:58Z</time>
      </trkpt>
      <trkpt lat="48.05509" lon="6.94158">
        <ele>944</ele>
        <time>2022-05-26T14:47:01Z</time>
      </trkpt>
      <trkpt lat="48.05497" lon="6.94155">
        <ele>946.1</ele>
        <time>2022-05-26T14:47:04Z</time>
      </trkpt>
      <trkpt lat="48.05486" lon="6.9415">
        <ele>944.3</ele>
        <time>2022-05-26T14:47:07Z</time>
      </trkpt>
      <trkpt lat="48.05474" lon="6.94143">
        <ele>943.5</ele>
        <time>2022-05-26T14:47:10Z</time>
      </trkpt>
      <trkpt lat="48.05464" lon="6.94135">
        <ele>944</ele>
        <time>2022-05-26T14:47:13Z</time>
      </trkpt>
      <trkpt lat="48.05455" lon="6.94128">
        <ele>945.6</ele>
        <time>2022-05-26T14:47:16Z</time>
      </trkpt>
      <trkpt lat="48.05445" lon="6.94121">
        <ele>944.4</ele>
        <time>2022-05-26T14:47:19Z</time>
      </trkpt>
      <trkpt lat="48.05436" lon="6.94114">
        <ele>944.2</ele>
        <time>2022-05-26T14:47:21Z</time>
      </trkpt>
      <trkpt lat="48.05428" lon="6.94107">
        <ele>944.1</ele>
        <time>2022-05-26T14:47:23Z</time>
      </trkpt>
      <trkpt lat="48.05418" lon="6.94098">
        <ele>943.3</ele>
        <time>2022-05-26T14:47:25Z</time>
      </trkpt>
      <trkpt lat="48.05406" lon="6.94087">
        <ele>941.3</ele>
        <time>2022-05-26T14:47:27Z</time>
      </trkpt>
      <trkpt lat="48.05397" lon="6.94079">
        <ele>942</ele>
        <time>2022-05-26T14:47:28Z</time>
      </trkpt>
      <trkpt lat="48.05386" lon="6.94068">
        <ele>941.1</ele>
        <time>2022-05-26T14:47:30Z</time>
      </trkpt>
      <trkpt lat="48.05375" lon="6.9406">
        <ele>938.3</ele>
        <time>2022-05-26T14:47:32Z</time>
      </trkpt>
      <trkpt lat="48.05363" lon="6.94052">
        <ele>938.1</ele>
        <time>2022-05-26T14:47:34Z</time>
      </trkpt>
      <trkpt lat="48.05351" lon="6.94043">
        <ele>938.2</ele>
        <time>2022-05-26T14:47:36Z</time>
      </trkpt>
      <trkpt lat="48.0534" lon="6.94034">
        <ele>936.7</ele>
        <time>2022-05-26T14:47:38Z</time>
      </trkpt>
      <trkpt lat="48.05327" lon="6.94026">
        <ele>938</ele>
        <time>2022-05-26T14:47:40Z</time>
      </trkpt>
      <trkpt lat="48.05312" lon="6.94019">
        <ele>935.7</ele>
        <time>2022-05-26T14:47:42Z</time>
      </trkpt>
      <trkpt lat="48.05297" lon="6.94011">
        <ele>934.6</ele>
        <time>2022-05-26T14:47:44Z</time>
      </trkpt>
      <trkpt lat="48.05283" lon="6.94003">
        <ele>934.6</ele>
        <time>2022-05-26T14:47:46Z</time>
      </trkpt>
      <trkpt lat="48.05269" lon="6.93994">
        <ele>935.2</ele>
        <time>2022-05-26T14:47:48Z</time>
      </trkpt>
      <trkpt lat="48.05255" lon="6.93984">
        <ele>935.6</ele>
        <time>2022-05-26T14:47:50Z</time>
      </trkpt>
      <trkpt lat="48.05243" lon="6.93974">
        <ele>930.5</ele>
        <time>2022-05-26T14:47:52Z</time>
      </trkpt>
      <trkpt lat="48.05231" lon="6.93961">
        <ele>927.3</ele>
        <time>2022-05-26T14:47:54Z</time>
      </trkpt>
      <trkpt lat="48.05218" lon="6.93946">
        <ele>929.1</ele>
        <time>2022-05-26T14:47:56Z</time>
      </trkpt>
      <trkpt lat="48.05204" lon="6.93932">
        <ele>931.3</ele>
        <time>2022-05-26T14:47:58Z</time>
      </trkpt>
      <trkpt lat="48.05189" lon="6.93919">
        <ele>926.6</ele>
        <time>2022-05-26T14:48:00Z</time>
      </trkpt>
      <trkpt lat="48.05176" lon="6.93905">
        <ele>925.4</ele>
        <time>2022-05-26T14:48:02Z</time>
      </trkpt>
      <trkpt lat="48.05165" lon="6.93893">
        <ele>925.9</ele>
        <time>2022-05-26T14:48:04Z</time>
      </trkpt>
      <trkpt lat="48.05155" lon="6.93887">
        <ele>924.4</ele>
        <time>2022-05-26T14:48:06Z</time>
      </trkpt>
      <trkpt lat="48.05146" lon="6.93879">
        <ele>922.6</ele>
        <time>2022-05-26T14:48:08Z</time>
      </trkpt>
      <trkpt lat="48.05136" lon="6.93868">
        <ele>922.8</ele>
        <time>2022-05-26T14:48:11Z</time>
      </trkpt>
      <trkpt lat="48.05127" lon="6.93856">
        <ele>922.6</ele>
        <time>2022-05-26T14:48:14Z</time>
      </trkpt>
      <trkpt lat="48.05122" lon="6.93841">
        <ele>921.2</ele>
        <time>2022-05-26T14:48:18Z</time>
      </trkpt>
      <trkpt lat="48.05117" lon="6.93826">
        <ele>919.9</ele>
        <time>2022-05-26T14:48:22Z</time>
      </trkpt>
      <trkpt lat="48.05114" lon="6.93811">
        <ele>920.8</ele>
        <time>2022-05-26T14:48:25Z</time>
      </trkpt>
      <trkpt lat="48.05118" lon="6.93793">
        <ele>918.8</ele>
        <time>2022-05-26T14:48:28Z</time>
      </trkpt>
      <trkpt lat="48.05125" lon="6.93778">
        <ele>919</ele>
        <time>2022-05-26T14:48:31Z</time>
      </trkpt>
      <trkpt lat="48.05122" lon="6.93761">
        <ele>917.2</ele>
        <time>2022-05-26T14:48:34Z</time>
      </trkpt>
      <trkpt lat="48.05114" lon="6.93748">
        <ele>914.6</ele>
        <time>2022-05-26T14:48:36Z</time>
      </trkpt>
      <trkpt lat="48.05104" lon="6.93733">
        <ele>908.7</ele>
        <time>2022-05-26T14:48:38Z</time>
      </trkpt>
      <trkpt lat="48.05092" lon="6.93715">
        <ele>910.4</ele>
        <time>2022-05-26T14:48:40Z</time>
      </trkpt>
      <trkpt lat="48.05085" lon="6.93706">
        <ele>912.5</ele>
        <time>2022-05-26T14:48:41Z</time>
      </trkpt>
      <trkpt lat="48.05072" lon="6.93689">
        <ele>906.4</ele>
        <time>2022-05-26T14:48:43Z</time>
      </trkpt>
      <trkpt lat="48.05061" lon="6.93668">
        <ele>902.4</ele>
        <time>2022-05-26T14:48:45Z</time>
      </trkpt>
      <trkpt lat="48.05055" lon="6.93658">
        <ele>899.6</ele>
        <time>2022-05-26T14:48:46Z</time>
      </trkpt>
      <trkpt lat="48.05043" lon="6.93637">
        <ele>899.5</ele>
        <time>2022-05-26T14:48:48Z</time>
      </trkpt>
      <trkpt lat="48.05037" lon="6.93627">
        <ele>901.4</ele>
        <time>2022-05-26T14:48:49Z</time>
      </trkpt>
      <trkpt lat="48.0503" lon="6.93618">
        <ele>903.6</ele>
        <time>2022-05-26T14:48:50Z</time>
      </trkpt>
      <trkpt lat="48.05016" lon="6.93602">
        <ele>903.3</ele>
        <time>2022-05-26T14:48:52Z</time>
      </trkpt>
      <trkpt lat="48.05008" lon="6.93593">
        <ele>900.9</ele>
        <time>2022-05-26T14:48:53Z</time>
      </trkpt>
      <trkpt lat="48.04995" lon="6.93575">
        <ele>900.2</ele>
        <time>2022-05-26T14:48:55Z</time>
      </trkpt>
      <trkpt lat="48.04989" lon="6.93565">
        <ele>901.2</ele>
        <time>2022-05-26T14:48:56Z</time>
      </trkpt>
      <trkpt lat="48.04981" lon="6.93555">
        <ele>897.5</ele>
        <time>2022-05-26T14:48:57Z</time>
      </trkpt>
      <trkpt lat="48.04974" lon="6.93545">
        <ele>896</ele>
        <time>2022-05-26T14:48:58Z</time>
      </trkpt>
      <trkpt lat="48.04966" lon="6.93536">
        <ele>896.2</ele>
        <time>2022-05-26T14:48:59Z</time>
      </trkpt>
      <trkpt lat="48.04958" lon="6.93528">
        <ele>896.9</ele>
        <time>2022-05-26T14:49:00Z</time>
      </trkpt>
      <trkpt lat="48.04943" lon="6.93518">
        <ele>892.2</ele>
        <time>2022-05-26T14:49:02Z</time>
      </trkpt>
      <trkpt lat="48.04926" lon="6.9351">
        <ele>890.1</ele>
        <time>2022-05-26T14:49:04Z</time>
      </trkpt>
      <trkpt lat="48.04909" lon="6.93505">
        <ele>893.9</ele>
        <time>2022-05-26T14:49:06Z</time>
      </trkpt>
      <trkpt lat="48.049" lon="6.93501">
        <ele>893.5</ele>
        <time>2022-05-26T14:49:07Z</time>
      </trkpt>
      <trkpt lat="48.04891" lon="6.93496">
        <ele>891.4</ele>
        <time>2022-05-26T14:49:08Z</time>
      </trkpt>
      <trkpt lat="48.04881" lon="6.93489">
        <ele>887.3</ele>
        <time>2022-05-26T14:49:09Z</time>
      </trkpt>
      <trkpt lat="48.04871" lon="6.93482">
        <ele>884.2</ele>
        <time>2022-05-26T14:49:10Z</time>
      </trkpt>
      <trkpt lat="48.04861" lon="6.93474">
        <ele>884.2</ele>
        <time>2022-05-26T14:49:11Z</time>
      </trkpt>
      <trkpt lat="48.04852" lon="6.93466">
        <ele>885.6</ele>
        <time>2022-05-26T14:49:12Z</time>
      </trkpt>
      <trkpt lat="48.04843" lon="6.93457">
        <ele>884.5</ele>
        <time>2022-05-26T14:49:13Z</time>
      </trkpt>
      <trkpt lat="48.04834" lon="6.93449">
        <ele>882.9</ele>
        <time>2022-05-26T14:49:14Z</time>
      </trkpt>
      <trkpt lat="48.04826" lon="6.93441">
        <ele>882.1</ele>
        <time>2022-05-26T14:49:15Z</time>
      </trkpt>
      <trkpt lat="48.04817" lon="6.93432">
        <ele>881.5</ele>
        <time>2022-05-26T14:49:16Z</time>
      </trkpt>
      <trkpt lat="48.04808" lon="6.93424">
        <ele>881.7</ele>
        <time>2022-05-26T14:49:17Z</time>
      </trkpt>
      <trkpt lat="48.04797" lon="6.93416">
        <ele>880.5</ele>
        <time>2022-05-26T14:49:18Z</time>
      </trkpt>
      <trkpt lat="48.04786" lon="6.9341">
        <ele>878.3</ele>
        <time>2022-05-26T14:49:19Z</time>
      </trkpt>
      <trkpt lat="48.04776" lon="6.93405">
        <ele>878.9</ele>
        <time>2022-05-26T14:49:20Z</time>
      </trkpt>
      <trkpt lat="48.04762" lon="6.93401">
        <ele>881.1</ele>
        <time>2022-05-26T14:49:21Z</time>
      </trkpt>
      <trkpt lat="48.04751" lon="6.93401">
        <ele>881.9</ele>
        <time>2022-05-26T14:49:22Z</time>
      </trkpt>
      <trkpt lat="48.04742" lon="6.93404">
        <ele>882.4</ele>
        <time>2022-05-26T14:49:23Z</time>
      </trkpt>
      <trkpt lat="48.04726" lon="6.93411">
        <ele>879.9</ele>
        <time>2022-05-26T14:49:25Z</time>
      </trkpt>
      <trkpt lat="48.04711" lon="6.93412">
        <ele>879</ele>
        <time>2022-05-26T14:49:27Z</time>
      </trkpt>
      <trkpt lat="48.04698" lon="6.93404">
        <ele>880.3</ele>
        <time>2022-05-26T14:49:29Z</time>
      </trkpt>
      <trkpt lat="48.0469" lon="6.93389">
        <ele>880</ele>
        <time>2022-05-26T14:49:31Z</time>
      </trkpt>
      <trkpt lat="48.04683" lon="6.93367">
        <ele>879.7</ele>
        <time>2022-05-26T14:49:33Z</time>
      </trkpt>
      <trkpt lat="48.04677" lon="6.93347">
        <ele>880.1</ele>
        <time>2022-05-26T14:49:35Z</time>
      </trkpt>
      <trkpt lat="48.04671" lon="6.9333">
        <ele>879.3</ele>
        <time>2022-05-26T14:49:37Z</time>
      </trkpt>
      <trkpt lat="48.04665" lon="6.93313">
        <ele>879</ele>
        <time>2022-05-26T14:49:39Z</time>
      </trkpt>
      <trkpt lat="48.04658" lon="6.93297">
        <ele>878.9</ele>
        <time>2022-05-26T14:49:41Z</time>
      </trkpt>
      <trkpt lat="48.04647" lon="6.93288">
        <ele>878.7</ele>
        <time>2022-05-26T14:49:43Z</time>
      </trkpt>
      <trkpt lat="48.04634" lon="6.93289">
        <ele>878</ele>
        <time>2022-05-26T14:49:45Z</time>
      </trkpt>
      <trkpt lat="48.04623" lon="6.93296">
        <ele>877.6</ele>
        <time>2022-05-26T14:49:47Z</time>
      </trkpt>
      <trkpt lat="48.04613" lon="6.93305">
        <ele>878.3</ele>
        <time>2022-05-26T14:49:49Z</time>
      </trkpt>
      <trkpt lat="48.04603" lon="6.93313">
        <ele>878.8</ele>
        <time>2022-05-26T14:49:51Z</time>
      </trkpt>
      <trkpt lat="48.04594" lon="6.93321">
        <ele>878.4</ele>
        <time>2022-05-26T14:49:53Z</time>
      </trkpt>
      <trkpt lat="48.04584" lon="6.93329">
        <ele>878.2</ele>
        <time>2022-05-26T14:49:55Z</time>
      </trkpt>
      <trkpt lat="48.04574" lon="6.93336">
        <ele>878.1</ele>
        <time>2022-05-26T14:49:57Z</time>
      </trkpt>
      <trkpt lat="48.04564" lon="6.93342">
        <ele>877.7</ele>
        <time>2022-05-26T14:49:59Z</time>
      </trkpt>
      <trkpt lat="48.04553" lon="6.93346">
        <ele>878</ele>
        <time>2022-05-26T14:50:01Z</time>
      </trkpt>
      <trkpt lat="48.04543" lon="6.93346">
        <ele>878.2</ele>
        <time>2022-05-26T14:50:03Z</time>
      </trkpt>
      <trkpt lat="48.04533" lon="6.93344">
        <ele>878.4</ele>
        <time>2022-05-26T14:50:05Z</time>
      </trkpt>
      <trkpt lat="48.04522" lon="6.93342">
        <ele>878.1</ele>
        <time>2022-05-26T14:50:07Z</time>
      </trkpt>
      <trkpt lat="48.04512" lon="6.93341">
        <ele>877.4</ele>
        <time>2022-05-26T14:50:09Z</time>
      </trkpt>
      <trkpt lat="48.04502" lon="6.9334">
        <ele>876.5</ele>
        <time>2022-05-26T14:50:11Z</time>
      </trkpt>
      <trkpt lat="48.04492" lon="6.93338">
        <ele>876.6</ele>
        <time>2022-05-26T14:50:13Z</time>
      </trkpt>
      <trkpt lat="48.04482" lon="6.93336">
        <ele>876.3</ele>
        <time>2022-05-26T14:50:15Z</time>
      </trkpt>
      <trkpt lat="48.04473" lon="6.93334">
        <ele>877.1</ele>
        <time>2022-05-26T14:50:17Z</time>
      </trkpt>
      <trkpt lat="48.04464" lon="6.9333">
        <ele>877.3</ele>
        <time>2022-05-26T14:50:19Z</time>
      </trkpt>
      <trkpt lat="48.04455" lon="6.93327">
        <ele>876.4</ele>
        <time>2022-05-26T14:50:21Z</time>
      </trkpt>
      <trkpt lat="48.04446" lon="6.93324">
        <ele>876.2</ele>
        <time>2022-05-26T14:50:23Z</time>
      </trkpt>
      <trkpt lat="48.04434" lon="6.93317">
        <ele>876.6</ele>
        <time>2022-05-26T14:50:26Z</time>
      </trkpt>
      <trkpt lat="48.04423" lon="6.93311">
        <ele>876</ele>
        <time>2022-05-26T14:50:29Z</time>
      </trkpt>
      <trkpt lat="48.04412" lon="6.93304">
        <ele>875.7</ele>
        <time>2022-05-26T14:50:32Z</time>
      </trkpt>
      <trkpt lat="48.04401" lon="6.93298">
        <ele>875.9</ele>
        <time>2022-05-26T14:50:35Z</time>
      </trkpt>
      <trkpt lat="48.0439" lon="6.93291">
        <ele>875.1</ele>
        <time>2022-05-26T14:50:38Z</time>
      </trkpt>
      <trkpt lat="48.04379" lon="6.93285">
        <ele>874.8</ele>
        <time>2022-05-26T14:50:41Z</time>
      </trkpt>
      <trkpt lat="48.0437" lon="6.9328">
        <ele>875.2</ele>
        <time>2022-05-26T14:50:44Z</time>
      </trkpt>
      <trkpt lat="48.0436" lon="6.93274">
        <ele>875.6</ele>
        <time>2022-05-26T14:50:47Z</time>
      </trkpt>
      <trkpt lat="48.04351" lon="6.93268">
        <ele>874.9</ele>
        <time>2022-05-26T14:50:50Z</time>
      </trkpt>
      <trkpt lat="48.04341" lon="6.9326">
        <ele>874.3</ele>
        <time>2022-05-26T14:50:54Z</time>
      </trkpt>
      <trkpt lat="48.04329" lon="6.93255">
        <ele>874.7</ele>
        <time>2022-05-26T14:50:58Z</time>
      </trkpt>
      <trkpt lat="48.04319" lon="6.9325">
        <ele>874.2</ele>
        <time>2022-05-26T14:51:01Z</time>
      </trkpt>
      <trkpt lat="48.04307" lon="6.93243">
        <ele>874.2</ele>
        <time>2022-05-26T14:51:04Z</time>
      </trkpt>
      <trkpt lat="48.04295" lon="6.93236">
        <ele>874.7</ele>
        <time>2022-05-26T14:51:07Z</time>
      </trkpt>
      <trkpt lat="48.04284" lon="6.93228">
        <ele>874.8</ele>
        <time>2022-05-26T14:51:10Z</time>
      </trkpt>
      <trkpt lat="48.04274" lon="6.93222">
        <ele>875.1</ele>
        <time>2022-05-26T14:51:13Z</time>
      </trkpt>
      <trkpt lat="48.04264" lon="6.93216">
        <ele>876</ele>
        <time>2022-05-26T14:51:16Z</time>
      </trkpt>
      <trkpt lat="48.04252" lon="6.93209">
        <ele>876.1</ele>
        <time>2022-05-26T14:51:19Z</time>
      </trkpt>
      <trkpt lat="48.0424" lon="6.93203">
        <ele>876.3</ele>
        <time>2022-05-26T14:51:22Z</time>
      </trkpt>
      <trkpt lat="48.0423" lon="6.93198">
        <ele>876.4</ele>
        <time>2022-05-26T14:51:25Z</time>
      </trkpt>
      <trkpt lat="48.0422" lon="6.93193">
        <ele>876.2</ele>
        <time>2022-05-26T14:51:28Z</time>
      </trkpt>
      <trkpt lat="48.04208" lon="6.93188">
        <ele>875.4</ele>
        <time>2022-05-26T14:51:31Z</time>
      </trkpt>
      <trkpt lat="48.04197" lon="6.93183">
        <ele>876.2</ele>
        <time>2022-05-26T14:51:34Z</time>
      </trkpt>
      <trkpt lat="48.04185" lon="6.93178">
        <ele>875.9</ele>
        <time>2022-05-26T14:51:37Z</time>
      </trkpt>
      <trkpt lat="48.04174" lon="6.93174">
        <ele>875.6</ele>
        <time>2022-05-26T14:51:40Z</time>
      </trkpt>
      <trkpt lat="48.04162" lon="6.9317">
        <ele>875.3</ele>
        <time>2022-05-26T14:51:43Z</time>
      </trkpt>
      <trkpt lat="48.04149" lon="6.93166">
        <ele>874.5</ele>
        <time>2022-05-26T14:51:46Z</time>
      </trkpt>
      <trkpt lat="48.04136" lon="6.93163">
        <ele>873.6</ele>
        <time>2022-05-26T14:51:49Z</time>
      </trkpt>
      <trkpt lat="48.04124" lon="6.9316">
        <ele>873.6</ele>
        <time>2022-05-26T14:51:52Z</time>
      </trkpt>
      <trkpt lat="48.04113" lon="6.93157">
        <ele>873.5</ele>
        <time>2022-05-26T14:51:55Z</time>
      </trkpt>
      <trkpt lat="48.04101" lon="6.93152">
        <ele>873.9</ele>
        <time>2022-05-26T14:51:58Z</time>
      </trkpt>
      <trkpt lat="48.04088" lon="6.93146">
        <ele>873.9</ele>
        <time>2022-05-26T14:52:01Z</time>
      </trkpt>
      <trkpt lat="48.04076" lon="6.93139">
        <ele>873.9</ele>
        <time>2022-05-26T14:52:04Z</time>
      </trkpt>
      <trkpt lat="48.04065" lon="6.93131">
        <ele>873.4</ele>
        <time>2022-05-26T14:52:07Z</time>
      </trkpt>
      <trkpt lat="48.04053" lon="6.93123">
        <ele>873.4</ele>
        <time>2022-05-26T14:52:10Z</time>
      </trkpt>
      <trkpt lat="48.04044" lon="6.93117">
        <ele>873.5</ele>
        <time>2022-05-26T14:52:12Z</time>
      </trkpt>
      <trkpt lat="48.04036" lon="6.93111">
        <ele>872.7</ele>
        <time>2022-05-26T14:52:14Z</time>
      </trkpt>
      <trkpt lat="48.04026" lon="6.93104">
        <ele>871.7</ele>
        <time>2022-05-26T14:52:16Z</time>
      </trkpt>
      <trkpt lat="48.04017" lon="6.93096">
        <ele>871.7</ele>
        <time>2022-05-26T14:52:18Z</time>
      </trkpt>
      <trkpt lat="48.04008" lon="6.93086">
        <ele>871.9</ele>
        <time>2022-05-26T14:52:20Z</time>
      </trkpt>
      <trkpt lat="48.04" lon="6.93075">
        <ele>872</ele>
        <time>2022-05-26T14:52:22Z</time>
      </trkpt>
      <trkpt lat="48.03994" lon="6.93062">
        <ele>873</ele>
        <time>2022-05-26T14:52:24Z</time>
      </trkpt>
      <trkpt lat="48.03988" lon="6.9305">
        <ele>872.9</ele>
        <time>2022-05-26T14:52:26Z</time>
      </trkpt>
      <trkpt lat="48.03981" lon="6.93037">
        <ele>872.1</ele>
        <time>2022-05-26T14:52:28Z</time>
      </trkpt>
      <trkpt lat="48.03975" lon="6.93024">
        <ele>872.7</ele>
        <time>2022-05-26T14:52:30Z</time>
      </trkpt>
      <trkpt lat="48.03968" lon="6.93013">
        <ele>872</ele>
        <time>2022-05-26T14:52:32Z</time>
      </trkpt>
      <trkpt lat="48.0396" lon="6.93003">
        <ele>871.8</ele>
        <time>2022-05-26T14:52:34Z</time>
      </trkpt>
      <trkpt lat="48.03952" lon="6.92993">
        <ele>871.6</ele>
        <time>2022-05-26T14:52:36Z</time>
      </trkpt>
      <trkpt lat="48.03945" lon="6.92981">
        <ele>871.5</ele>
        <time>2022-05-26T14:52:38Z</time>
      </trkpt>
      <trkpt lat="48.03938" lon="6.92971">
        <ele>870.7</ele>
        <time>2022-05-26T14:52:40Z</time>
      </trkpt>
      <trkpt lat="48.03929" lon="6.92958">
        <ele>870.2</ele>
        <time>2022-05-26T14:52:43Z</time>
      </trkpt>
      <trkpt lat="48.03923" lon="6.92947">
        <ele>869.5</ele>
        <time>2022-05-26T14:52:45Z</time>
      </trkpt>
      <trkpt lat="48.03917" lon="6.92935">
        <ele>869.6</ele>
        <time>2022-05-26T14:52:47Z</time>
      </trkpt>
      <trkpt lat="48.03911" lon="6.92919">
        <ele>869</ele>
        <time>2022-05-26T14:52:49Z</time>
      </trkpt>
      <trkpt lat="48.03906" lon="6.92903">
        <ele>868.5</ele>
        <time>2022-05-26T14:52:51Z</time>
      </trkpt>
      <trkpt lat="48.03902" lon="6.92887">
        <ele>868.4</ele>
        <time>2022-05-26T14:52:53Z</time>
      </trkpt>
      <trkpt lat="48.03894" lon="6.92874">
        <ele>867.1</ele>
        <time>2022-05-26T14:52:55Z</time>
      </trkpt>
      <trkpt lat="48.03884" lon="6.92863">
        <ele>866</ele>
        <time>2022-05-26T14:52:57Z</time>
      </trkpt>
      <trkpt lat="48.03872" lon="6.92854">
        <ele>864.9</ele>
        <time>2022-05-26T14:52:59Z</time>
      </trkpt>
      <trkpt lat="48.03859" lon="6.92846">
        <ele>864.1</ele>
        <time>2022-05-26T14:53:01Z</time>
      </trkpt>
      <trkpt lat="48.03847" lon="6.92837">
        <ele>862.6</ele>
        <time>2022-05-26T14:53:03Z</time>
      </trkpt>
      <trkpt lat="48.03832" lon="6.92826">
        <ele>861.4</ele>
        <time>2022-05-26T14:53:05Z</time>
      </trkpt>
      <trkpt lat="48.03817" lon="6.92817">
        <ele>860.1</ele>
        <time>2022-05-26T14:53:07Z</time>
      </trkpt>
      <trkpt lat="48.03801" lon="6.92809">
        <ele>860</ele>
        <time>2022-05-26T14:53:09Z</time>
      </trkpt>
      <trkpt lat="48.03786" lon="6.928">
        <ele>858.9</ele>
        <time>2022-05-26T14:53:11Z</time>
      </trkpt>
      <trkpt lat="48.0377" lon="6.92788">
        <ele>858.4</ele>
        <time>2022-05-26T14:53:13Z</time>
      </trkpt>
      <trkpt lat="48.03762" lon="6.92782">
        <ele>858.1</ele>
        <time>2022-05-26T14:53:14Z</time>
      </trkpt>
      <trkpt lat="48.03753" lon="6.92777">
        <ele>857.5</ele>
        <time>2022-05-26T14:53:15Z</time>
      </trkpt>
      <trkpt lat="48.03737" lon="6.92765">
        <ele>856.3</ele>
        <time>2022-05-26T14:53:17Z</time>
      </trkpt>
      <trkpt lat="48.03721" lon="6.92754">
        <ele>855.1</ele>
        <time>2022-05-26T14:53:19Z</time>
      </trkpt>
      <trkpt lat="48.03705" lon="6.92745">
        <ele>854</ele>
        <time>2022-05-26T14:53:21Z</time>
      </trkpt>
      <trkpt lat="48.03689" lon="6.92736">
        <ele>854.2</ele>
        <time>2022-05-26T14:53:23Z</time>
      </trkpt>
      <trkpt lat="48.03674" lon="6.92722">
        <ele>854</ele>
        <time>2022-05-26T14:53:25Z</time>
      </trkpt>
      <trkpt lat="48.03668" lon="6.92712">
        <ele>852.9</ele>
        <time>2022-05-26T14:53:26Z</time>
      </trkpt>
      <trkpt lat="48.03662" lon="6.927">
        <ele>852.1</ele>
        <time>2022-05-26T14:53:27Z</time>
      </trkpt>
      <trkpt lat="48.03658" lon="6.92688">
        <ele>852</ele>
        <time>2022-05-26T14:53:28Z</time>
      </trkpt>
      <trkpt lat="48.0365" lon="6.92664">
        <ele>851.5</ele>
        <time>2022-05-26T14:53:30Z</time>
      </trkpt>
      <trkpt lat="48.03641" lon="6.92642">
        <ele>849.9</ele>
        <time>2022-05-26T14:53:32Z</time>
      </trkpt>
      <trkpt lat="48.03635" lon="6.92631">
        <ele>849.5</ele>
        <time>2022-05-26T14:53:33Z</time>
      </trkpt>
      <trkpt lat="48.03622" lon="6.92614">
        <ele>848.9</ele>
        <time>2022-05-26T14:53:35Z</time>
      </trkpt>
      <trkpt lat="48.03614" lon="6.92606">
        <ele>848.6</ele>
        <time>2022-05-26T14:53:36Z</time>
      </trkpt>
      <trkpt lat="48.03607" lon="6.92598">
        <ele>847.9</ele>
        <time>2022-05-26T14:53:37Z</time>
      </trkpt>
      <trkpt lat="48.03593" lon="6.92582">
        <ele>847.4</ele>
        <time>2022-05-26T14:53:39Z</time>
      </trkpt>
      <trkpt lat="48.0358" lon="6.92565">
        <ele>846.8</ele>
        <time>2022-05-26T14:53:41Z</time>
      </trkpt>
      <trkpt lat="48.03567" lon="6.92548">
        <ele>846</ele>
        <time>2022-05-26T14:53:43Z</time>
      </trkpt>
      <trkpt lat="48.03557" lon="6.92533">
        <ele>845.9</ele>
        <time>2022-05-26T14:53:45Z</time>
      </trkpt>
      <trkpt lat="48.03556" lon="6.92518">
        <ele>845.4</ele>
        <time>2022-05-26T14:53:47Z</time>
      </trkpt>
      <trkpt lat="48.03567" lon="6.92508">
        <ele>847.2</ele>
        <time>2022-05-26T14:53:50Z</time>
      </trkpt>
      <trkpt lat="48.03577" lon="6.92513">
        <ele>847.3</ele>
        <time>2022-05-26T14:53:53Z</time>
      </trkpt>
      <trkpt lat="48.03585" lon="6.92524">
        <ele>847.6</ele>
        <time>2022-05-26T14:53:56Z</time>
      </trkpt>
      <trkpt lat="48.03594" lon="6.92535">
        <ele>848.2</ele>
        <time>2022-05-26T14:53:59Z</time>
      </trkpt>
      <trkpt lat="48.03602" lon="6.92545">
        <ele>848</ele>
        <time>2022-05-26T14:54:02Z</time>
      </trkpt>
      <trkpt lat="48.03611" lon="6.92556">
        <ele>849</ele>
        <time>2022-05-26T14:54:05Z</time>
      </trkpt>
      <trkpt lat="48.03619" lon="6.92566">
        <ele>849.5</ele>
        <time>2022-05-26T14:54:08Z</time>
      </trkpt>
      <trkpt lat="48.03626" lon="6.92576">
        <ele>849.8</ele>
        <time>2022-05-26T14:54:11Z</time>
      </trkpt>
      <trkpt lat="48.03634" lon="6.92586">
        <ele>851.1</ele>
        <time>2022-05-26T14:54:15Z</time>
      </trkpt>
      <trkpt lat="48.03643" lon="6.9259">
        <ele>852.3</ele>
        <time>2022-05-26T14:54:21Z</time>
      </trkpt>
      <trkpt lat="48.03643" lon="6.92575">
        <ele>853</ele>
        <time>2022-05-26T14:54:27Z</time>
      </trkpt>
      <trkpt lat="48.03636" lon="6.9256">
        <ele>852.9</ele>
        <time>2022-05-26T14:54:31Z</time>
      </trkpt>
      <trkpt lat="48.03629" lon="6.92546">
        <ele>851.9</ele>
        <time>2022-05-26T14:54:34Z</time>
      </trkpt>
      <trkpt lat="48.03621" lon="6.92533">
        <ele>851.8</ele>
        <time>2022-05-26T14:54:37Z</time>
      </trkpt>
      <trkpt lat="48.03614" lon="6.9252">
        <ele>852.2</ele>
        <time>2022-05-26T14:54:40Z</time>
      </trkpt>
      <trkpt lat="48.03608" lon="6.92508">
        <ele>852.4</ele>
        <time>2022-05-26T14:54:43Z</time>
      </trkpt>
      <trkpt lat="48.03603" lon="6.92495">
        <ele>853.6</ele>
        <time>2022-05-26T14:54:47Z</time>
      </trkpt>
      <trkpt lat="48.03599" lon="6.92481">
        <ele>855.3</ele>
        <time>2022-05-26T14:54:52Z</time>
      </trkpt>
      <trkpt lat="48.03605" lon="6.9247">
        <ele>855.4</ele>
        <time>2022-05-26T14:54:58Z</time>
      </trkpt>
      <trkpt lat="48.03608" lon="6.92458">
        <ele>855.5</ele>
        <time>2022-05-26T14:55:06Z</time>
      </trkpt>
    </trkseg>
  </trk>
</gpx>